<?xml version="1.0" encoding="UTF-8" standalone="no" ?>
<gpx xmlns="http://www.topografix.com/GPX/1/1" xmlns:xsi="http://www.w3.org/2001/XMLSchema-instance" xsi:schemaLocation="http://www.topografix.com/GPX/1/1 http://www.topografix.com/GPX/1/1/gpx.xsd" version="1.1" creator="VisuGPX - https://www.visugpx.com">
  <metadata>
    <name>Lot boucle 1 jour 1</name>
    <desc><![CDATA[Au départ de la ferme de Cazal : accueil à la ferme de brebis, chambre d'hôtes avec table gastronomique. Les chevaux parc proximité et hôtes aux petits soins.
Rando sans soucis : juste on a pris le gr au départ et descente pierreuse faire attention sinon prendre la piste cavaliere.
Arrivée au camping ]]></desc>
  </metadata>
  <trk>
    <name><![CDATA[SityTrail - Lot 2019-1-1]]></name>
    <trkseg>
      <trkpt lat="44.57199" lon="1.76769">
        <ele>290</ele>
        <time>2019-08-05T08:04:11.295Z</time>
      </trkpt>
      <trkpt lat="44.57199" lon="1.76769">
        <ele>290</ele>
        <time>2019-08-05T08:04:12.315Z</time>
      </trkpt>
      <trkpt lat="44.57202" lon="1.76763">
        <ele>292</ele>
        <time>2019-08-05T08:04:31.288Z</time>
      </trkpt>
      <trkpt lat="44.57205" lon="1.76762">
        <ele>292</ele>
        <time>2019-08-05T08:04:58.264Z</time>
      </trkpt>
      <trkpt lat="44.57206" lon="1.76762">
        <ele>292</ele>
        <time>2019-08-05T08:05:03.281Z</time>
      </trkpt>
      <trkpt lat="44.57206" lon="1.76761">
        <ele>292</ele>
        <time>2019-08-05T08:05:08.298Z</time>
      </trkpt>
      <trkpt lat="44.57207" lon="1.7676">
        <ele>292</ele>
        <time>2019-08-05T08:05:13.305Z</time>
      </trkpt>
      <trkpt lat="44.57207" lon="1.76761">
        <ele>292</ele>
        <time>2019-08-05T08:05:18.285Z</time>
      </trkpt>
      <trkpt lat="44.57208" lon="1.7676">
        <ele>292</ele>
        <time>2019-08-05T08:05:23.304Z</time>
      </trkpt>
      <trkpt lat="44.5721" lon="1.76763">
        <ele>293</ele>
        <time>2019-08-05T08:05:28.309Z</time>
      </trkpt>
      <trkpt lat="44.57215" lon="1.76769">
        <ele>292</ele>
        <time>2019-08-05T08:05:32.309Z</time>
      </trkpt>
      <trkpt lat="44.57222" lon="1.76779">
        <ele>292</ele>
        <time>2019-08-05T08:05:37.311Z</time>
      </trkpt>
      <trkpt lat="44.57225" lon="1.76785">
        <ele>292</ele>
        <time>2019-08-05T08:05:42.298Z</time>
      </trkpt>
      <trkpt lat="44.57229" lon="1.76791">
        <ele>292</ele>
        <time>2019-08-05T08:05:46.291Z</time>
      </trkpt>
      <trkpt lat="44.57233" lon="1.76797">
        <ele>291</ele>
        <time>2019-08-05T08:05:50.338Z</time>
      </trkpt>
      <trkpt lat="44.57237" lon="1.76802">
        <ele>291</ele>
        <time>2019-08-05T08:05:54.327Z</time>
      </trkpt>
      <trkpt lat="44.57244" lon="1.76807">
        <ele>291</ele>
        <time>2019-08-05T08:05:59.299Z</time>
      </trkpt>
      <trkpt lat="44.57248" lon="1.76812">
        <ele>291</ele>
        <time>2019-08-05T08:06:03.313Z</time>
      </trkpt>
      <trkpt lat="44.57251" lon="1.7682">
        <ele>289</ele>
        <time>2019-08-05T08:06:08.299Z</time>
      </trkpt>
      <trkpt lat="44.57254" lon="1.76827">
        <ele>289</ele>
        <time>2019-08-05T08:06:12.272Z</time>
      </trkpt>
      <trkpt lat="44.57258" lon="1.76831">
        <ele>289</ele>
        <time>2019-08-05T08:06:16.289Z</time>
      </trkpt>
      <trkpt lat="44.57264" lon="1.76829">
        <ele>289</ele>
        <time>2019-08-05T08:06:20.328Z</time>
      </trkpt>
      <trkpt lat="44.57269" lon="1.76831">
        <ele>289</ele>
        <time>2019-08-05T08:06:25.310Z</time>
      </trkpt>
      <trkpt lat="44.57275" lon="1.76828">
        <ele>289</ele>
        <time>2019-08-05T08:06:30.298Z</time>
      </trkpt>
      <trkpt lat="44.57282" lon="1.76827">
        <ele>289</ele>
        <time>2019-08-05T08:06:35.318Z</time>
      </trkpt>
      <trkpt lat="44.57286" lon="1.76825">
        <ele>289</ele>
        <time>2019-08-05T08:06:40.295Z</time>
      </trkpt>
      <trkpt lat="44.57293" lon="1.76824">
        <ele>291</ele>
        <time>2019-08-05T08:06:45.318Z</time>
      </trkpt>
      <trkpt lat="44.573" lon="1.76823">
        <ele>291</ele>
        <time>2019-08-05T08:06:50.341Z</time>
      </trkpt>
      <trkpt lat="44.57306" lon="1.76822">
        <ele>291</ele>
        <time>2019-08-05T08:06:55.312Z</time>
      </trkpt>
      <trkpt lat="44.57313" lon="1.76821">
        <ele>291</ele>
        <time>2019-08-05T08:07:00.302Z</time>
      </trkpt>
      <trkpt lat="44.57318" lon="1.76819">
        <ele>293</ele>
        <time>2019-08-05T08:07:04.326Z</time>
      </trkpt>
      <trkpt lat="44.57326" lon="1.76818">
        <ele>296</ele>
        <time>2019-08-05T08:07:09.300Z</time>
      </trkpt>
      <trkpt lat="44.57331" lon="1.76815">
        <ele>296</ele>
        <time>2019-08-05T08:07:14.333Z</time>
      </trkpt>
      <trkpt lat="44.57337" lon="1.76813">
        <ele>296</ele>
        <time>2019-08-05T08:07:19.306Z</time>
      </trkpt>
      <trkpt lat="44.57344" lon="1.76812">
        <ele>296</ele>
        <time>2019-08-05T08:07:24.341Z</time>
      </trkpt>
      <trkpt lat="44.57352" lon="1.7681">
        <ele>298</ele>
        <time>2019-08-05T08:07:29.309Z</time>
      </trkpt>
      <trkpt lat="44.57359" lon="1.76809">
        <ele>298</ele>
        <time>2019-08-05T08:07:34.319Z</time>
      </trkpt>
      <trkpt lat="44.57364" lon="1.76807">
        <ele>298</ele>
        <time>2019-08-05T08:07:38.327Z</time>
      </trkpt>
      <trkpt lat="44.57372" lon="1.76809">
        <ele>298</ele>
        <time>2019-08-05T08:07:43.311Z</time>
      </trkpt>
      <trkpt lat="44.57377" lon="1.76811">
        <ele>300</ele>
        <time>2019-08-05T08:07:47.323Z</time>
      </trkpt>
      <trkpt lat="44.57385" lon="1.76809">
        <ele>300</ele>
        <time>2019-08-05T08:07:52.303Z</time>
      </trkpt>
      <trkpt lat="44.57389" lon="1.76806">
        <ele>300</ele>
        <time>2019-08-05T08:07:56.305Z</time>
      </trkpt>
      <trkpt lat="44.57397" lon="1.76801">
        <ele>300</ele>
        <time>2019-08-05T08:08:01.303Z</time>
      </trkpt>
      <trkpt lat="44.57404" lon="1.76797">
        <ele>302</ele>
        <time>2019-08-05T08:08:06.305Z</time>
      </trkpt>
      <trkpt lat="44.57411" lon="1.76792">
        <ele>302</ele>
        <time>2019-08-05T08:08:11.306Z</time>
      </trkpt>
      <trkpt lat="44.57417" lon="1.76788">
        <ele>302</ele>
        <time>2019-08-05T08:08:16.289Z</time>
      </trkpt>
      <trkpt lat="44.57422" lon="1.76785">
        <ele>302</ele>
        <time>2019-08-05T08:08:20.324Z</time>
      </trkpt>
      <trkpt lat="44.57429" lon="1.76783">
        <ele>302</ele>
        <time>2019-08-05T08:08:25.303Z</time>
      </trkpt>
      <trkpt lat="44.57436" lon="1.7679">
        <ele>303</ele>
        <time>2019-08-05T08:08:30.300Z</time>
      </trkpt>
      <trkpt lat="44.57437" lon="1.76799">
        <ele>304</ele>
        <time>2019-08-05T08:08:35.311Z</time>
      </trkpt>
      <trkpt lat="44.57437" lon="1.76803">
        <ele>304</ele>
        <time>2019-08-05T08:08:40.322Z</time>
      </trkpt>
      <trkpt lat="44.57438" lon="1.76803">
        <ele>304</ele>
        <time>2019-08-05T08:08:55.303Z</time>
      </trkpt>
      <trkpt lat="44.57438" lon="1.76803">
        <ele>304</ele>
        <time>2019-08-05T08:09:00.306Z</time>
      </trkpt>
      <trkpt lat="44.57438" lon="1.76804">
        <ele>304</ele>
        <time>2019-08-05T08:09:05.313Z</time>
      </trkpt>
      <trkpt lat="44.57435" lon="1.7681">
        <ele>304</ele>
        <time>2019-08-05T08:09:10.322Z</time>
      </trkpt>
      <trkpt lat="44.57434" lon="1.7682">
        <ele>304</ele>
        <time>2019-08-05T08:09:15.305Z</time>
      </trkpt>
      <trkpt lat="44.57433" lon="1.76829">
        <ele>304</ele>
        <time>2019-08-05T08:09:20.348Z</time>
      </trkpt>
      <trkpt lat="44.57432" lon="1.76837">
        <ele>304</ele>
        <time>2019-08-05T08:09:24.313Z</time>
      </trkpt>
      <trkpt lat="44.57432" lon="1.76845">
        <ele>304</ele>
        <time>2019-08-05T08:09:29.306Z</time>
      </trkpt>
      <trkpt lat="44.57432" lon="1.76854">
        <ele>304</ele>
        <time>2019-08-05T08:09:34.333Z</time>
      </trkpt>
      <trkpt lat="44.57433" lon="1.76864">
        <ele>304</ele>
        <time>2019-08-05T08:09:39.304Z</time>
      </trkpt>
      <trkpt lat="44.57433" lon="1.76874">
        <ele>304</ele>
        <time>2019-08-05T08:09:44.327Z</time>
      </trkpt>
      <trkpt lat="44.57433" lon="1.76884">
        <ele>303</ele>
        <time>2019-08-05T08:09:49.314Z</time>
      </trkpt>
      <trkpt lat="44.57434" lon="1.76893">
        <ele>303</ele>
        <time>2019-08-05T08:09:54.310Z</time>
      </trkpt>
      <trkpt lat="44.57434" lon="1.76902">
        <ele>303</ele>
        <time>2019-08-05T08:09:59.314Z</time>
      </trkpt>
      <trkpt lat="44.57435" lon="1.76912">
        <ele>302</ele>
        <time>2019-08-05T08:10:04.323Z</time>
      </trkpt>
      <trkpt lat="44.57436" lon="1.7692">
        <ele>302</ele>
        <time>2019-08-05T08:10:08.312Z</time>
      </trkpt>
      <trkpt lat="44.57437" lon="1.7693">
        <ele>302</ele>
        <time>2019-08-05T08:10:13.312Z</time>
      </trkpt>
      <trkpt lat="44.57437" lon="1.76941">
        <ele>302</ele>
        <time>2019-08-05T08:10:18.345Z</time>
      </trkpt>
      <trkpt lat="44.57438" lon="1.76951">
        <ele>302</ele>
        <time>2019-08-05T08:10:23.305Z</time>
      </trkpt>
      <trkpt lat="44.57438" lon="1.7696">
        <ele>302</ele>
        <time>2019-08-05T08:10:28.319Z</time>
      </trkpt>
      <trkpt lat="44.57438" lon="1.76969">
        <ele>302</ele>
        <time>2019-08-05T08:10:33.317Z</time>
      </trkpt>
      <trkpt lat="44.5744" lon="1.76978">
        <ele>302</ele>
        <time>2019-08-05T08:10:38.336Z</time>
      </trkpt>
      <trkpt lat="44.57443" lon="1.76985">
        <ele>302</ele>
        <time>2019-08-05T08:10:43.286Z</time>
      </trkpt>
      <trkpt lat="44.57446" lon="1.76991">
        <ele>303</ele>
        <time>2019-08-05T08:10:47.317Z</time>
      </trkpt>
      <trkpt lat="44.5745" lon="1.77002">
        <ele>303</ele>
        <time>2019-08-05T08:10:52.322Z</time>
      </trkpt>
      <trkpt lat="44.57454" lon="1.77011">
        <ele>303</ele>
        <time>2019-08-05T08:10:57.309Z</time>
      </trkpt>
      <trkpt lat="44.57458" lon="1.77022">
        <ele>303</ele>
        <time>2019-08-05T08:11:02.303Z</time>
      </trkpt>
      <trkpt lat="44.57461" lon="1.7703">
        <ele>307</ele>
        <time>2019-08-05T08:11:07.313Z</time>
      </trkpt>
      <trkpt lat="44.57463" lon="1.77037">
        <ele>307</ele>
        <time>2019-08-05T08:11:12.330Z</time>
      </trkpt>
      <trkpt lat="44.57465" lon="1.77047">
        <ele>307</ele>
        <time>2019-08-05T08:11:17.317Z</time>
      </trkpt>
      <trkpt lat="44.57467" lon="1.77058">
        <ele>307</ele>
        <time>2019-08-05T08:11:22.310Z</time>
      </trkpt>
      <trkpt lat="44.57469" lon="1.77067">
        <ele>307</ele>
        <time>2019-08-05T08:11:27.318Z</time>
      </trkpt>
      <trkpt lat="44.57471" lon="1.77076">
        <ele>306</ele>
        <time>2019-08-05T08:11:32.306Z</time>
      </trkpt>
      <trkpt lat="44.57473" lon="1.77083">
        <ele>306</ele>
        <time>2019-08-05T08:11:36.312Z</time>
      </trkpt>
      <trkpt lat="44.57474" lon="1.77091">
        <ele>306</ele>
        <time>2019-08-05T08:11:40.319Z</time>
      </trkpt>
      <trkpt lat="44.57477" lon="1.77102">
        <ele>305</ele>
        <time>2019-08-05T08:11:45.310Z</time>
      </trkpt>
      <trkpt lat="44.57478" lon="1.77108">
        <ele>305</ele>
        <time>2019-08-05T08:11:50.305Z</time>
      </trkpt>
      <trkpt lat="44.5748" lon="1.77111">
        <ele>305</ele>
        <time>2019-08-05T08:12:28.303Z</time>
      </trkpt>
      <trkpt lat="44.57481" lon="1.77114">
        <ele>305</ele>
        <time>2019-08-05T08:12:33.264Z</time>
      </trkpt>
      <trkpt lat="44.57482" lon="1.77117">
        <ele>305</ele>
        <time>2019-08-05T08:12:37.316Z</time>
      </trkpt>
      <trkpt lat="44.57482" lon="1.77119">
        <ele>305</ele>
        <time>2019-08-05T08:12:42.310Z</time>
      </trkpt>
      <trkpt lat="44.57481" lon="1.77121">
        <ele>305</ele>
        <time>2019-08-05T08:12:47.303Z</time>
      </trkpt>
      <trkpt lat="44.57481" lon="1.77133">
        <ele>306</ele>
        <time>2019-08-05T08:14:15.299Z</time>
      </trkpt>
      <trkpt lat="44.5748" lon="1.77135">
        <ele>306</ele>
        <time>2019-08-05T08:14:20.298Z</time>
      </trkpt>
      <trkpt lat="44.57479" lon="1.77141">
        <ele>306</ele>
        <time>2019-08-05T08:14:24.312Z</time>
      </trkpt>
      <trkpt lat="44.57478" lon="1.77153">
        <ele>306</ele>
        <time>2019-08-05T08:14:29.298Z</time>
      </trkpt>
      <trkpt lat="44.57476" lon="1.77165">
        <ele>306</ele>
        <time>2019-08-05T08:14:34.304Z</time>
      </trkpt>
      <trkpt lat="44.57474" lon="1.77176">
        <ele>306</ele>
        <time>2019-08-05T08:14:39.304Z</time>
      </trkpt>
      <trkpt lat="44.57473" lon="1.77185">
        <ele>306</ele>
        <time>2019-08-05T08:14:44.300Z</time>
      </trkpt>
      <trkpt lat="44.57472" lon="1.77192">
        <ele>306</ele>
        <time>2019-08-05T08:14:48.300Z</time>
      </trkpt>
      <trkpt lat="44.5747" lon="1.77202">
        <ele>306</ele>
        <time>2019-08-05T08:14:53.300Z</time>
      </trkpt>
      <trkpt lat="44.57468" lon="1.77211">
        <ele>306</ele>
        <time>2019-08-05T08:14:58.303Z</time>
      </trkpt>
      <trkpt lat="44.57465" lon="1.77222">
        <ele>306</ele>
        <time>2019-08-05T08:15:03.305Z</time>
      </trkpt>
      <trkpt lat="44.57464" lon="1.77229">
        <ele>306</ele>
        <time>2019-08-05T08:15:07.317Z</time>
      </trkpt>
      <trkpt lat="44.57463" lon="1.77239">
        <ele>307</ele>
        <time>2019-08-05T08:15:12.319Z</time>
      </trkpt>
      <trkpt lat="44.57461" lon="1.77248">
        <ele>307</ele>
        <time>2019-08-05T08:15:17.300Z</time>
      </trkpt>
      <trkpt lat="44.57459" lon="1.77257">
        <ele>307</ele>
        <time>2019-08-05T08:15:22.302Z</time>
      </trkpt>
      <trkpt lat="44.57456" lon="1.77265">
        <ele>307</ele>
        <time>2019-08-05T08:15:26.311Z</time>
      </trkpt>
      <trkpt lat="44.57452" lon="1.77274">
        <ele>307</ele>
        <time>2019-08-05T08:15:31.309Z</time>
      </trkpt>
      <trkpt lat="44.57449" lon="1.77283">
        <ele>307</ele>
        <time>2019-08-05T08:15:36.313Z</time>
      </trkpt>
      <trkpt lat="44.57446" lon="1.77291">
        <ele>307</ele>
        <time>2019-08-05T08:15:41.318Z</time>
      </trkpt>
      <trkpt lat="44.57443" lon="1.773">
        <ele>309</ele>
        <time>2019-08-05T08:15:46.310Z</time>
      </trkpt>
      <trkpt lat="44.57439" lon="1.77309">
        <ele>309</ele>
        <time>2019-08-05T08:15:51.313Z</time>
      </trkpt>
      <trkpt lat="44.57436" lon="1.77317">
        <ele>309</ele>
        <time>2019-08-05T08:15:56.309Z</time>
      </trkpt>
      <trkpt lat="44.57432" lon="1.77326">
        <ele>310</ele>
        <time>2019-08-05T08:16:01.329Z</time>
      </trkpt>
      <trkpt lat="44.57428" lon="1.77334">
        <ele>307</ele>
        <time>2019-08-05T08:16:06.303Z</time>
      </trkpt>
      <trkpt lat="44.57424" lon="1.77342">
        <ele>307</ele>
        <time>2019-08-05T08:16:11.318Z</time>
      </trkpt>
      <trkpt lat="44.5742" lon="1.77351">
        <ele>307</ele>
        <time>2019-08-05T08:16:16.302Z</time>
      </trkpt>
      <trkpt lat="44.57417" lon="1.77359">
        <ele>307</ele>
        <time>2019-08-05T08:16:20.326Z</time>
      </trkpt>
      <trkpt lat="44.57414" lon="1.77369">
        <ele>307</ele>
        <time>2019-08-05T08:16:25.315Z</time>
      </trkpt>
      <trkpt lat="44.5741" lon="1.77378">
        <ele>309</ele>
        <time>2019-08-05T08:16:30.298Z</time>
      </trkpt>
      <trkpt lat="44.57406" lon="1.77388">
        <ele>309</ele>
        <time>2019-08-05T08:16:35.294Z</time>
      </trkpt>
      <trkpt lat="44.57403" lon="1.77396">
        <ele>306</ele>
        <time>2019-08-05T08:16:40.303Z</time>
      </trkpt>
      <trkpt lat="44.57399" lon="1.77404">
        <ele>308</ele>
        <time>2019-08-05T08:16:45.300Z</time>
      </trkpt>
      <trkpt lat="44.57395" lon="1.77409">
        <ele>308</ele>
        <time>2019-08-05T08:16:49.314Z</time>
      </trkpt>
      <trkpt lat="44.57391" lon="1.77416">
        <ele>308</ele>
        <time>2019-08-05T08:16:54.297Z</time>
      </trkpt>
      <trkpt lat="44.57387" lon="1.77423">
        <ele>308</ele>
        <time>2019-08-05T08:16:59.308Z</time>
      </trkpt>
      <trkpt lat="44.57382" lon="1.77428">
        <ele>308</ele>
        <time>2019-08-05T08:17:04.309Z</time>
      </trkpt>
      <trkpt lat="44.57377" lon="1.77436">
        <ele>311</ele>
        <time>2019-08-05T08:17:09.305Z</time>
      </trkpt>
      <trkpt lat="44.57371" lon="1.77444">
        <ele>309</ele>
        <time>2019-08-05T08:17:14.301Z</time>
      </trkpt>
      <trkpt lat="44.57367" lon="1.77453">
        <ele>309</ele>
        <time>2019-08-05T08:17:19.308Z</time>
      </trkpt>
      <trkpt lat="44.57362" lon="1.77459">
        <ele>311</ele>
        <time>2019-08-05T08:17:24.314Z</time>
      </trkpt>
      <trkpt lat="44.57357" lon="1.77466">
        <ele>311</ele>
        <time>2019-08-05T08:17:29.315Z</time>
      </trkpt>
      <trkpt lat="44.57349" lon="1.77471">
        <ele>311</ele>
        <time>2019-08-05T08:17:34.304Z</time>
      </trkpt>
      <trkpt lat="44.57342" lon="1.77475">
        <ele>308</ele>
        <time>2019-08-05T08:17:39.311Z</time>
      </trkpt>
      <trkpt lat="44.57335" lon="1.7748">
        <ele>308</ele>
        <time>2019-08-05T08:17:44.299Z</time>
      </trkpt>
      <trkpt lat="44.57328" lon="1.77484">
        <ele>308</ele>
        <time>2019-08-05T08:17:49.317Z</time>
      </trkpt>
      <trkpt lat="44.57322" lon="1.77487">
        <ele>309</ele>
        <time>2019-08-05T08:17:54.313Z</time>
      </trkpt>
      <trkpt lat="44.57316" lon="1.77491">
        <ele>307</ele>
        <time>2019-08-05T08:17:59.303Z</time>
      </trkpt>
      <trkpt lat="44.57311" lon="1.77495">
        <ele>307</ele>
        <time>2019-08-05T08:18:03.316Z</time>
      </trkpt>
      <trkpt lat="44.57304" lon="1.77499">
        <ele>307</ele>
        <time>2019-08-05T08:18:08.322Z</time>
      </trkpt>
      <trkpt lat="44.57296" lon="1.77504">
        <ele>307</ele>
        <time>2019-08-05T08:18:13.321Z</time>
      </trkpt>
      <trkpt lat="44.5729" lon="1.7751">
        <ele>304</ele>
        <time>2019-08-05T08:18:18.301Z</time>
      </trkpt>
      <trkpt lat="44.57285" lon="1.77513">
        <ele>304</ele>
        <time>2019-08-05T08:18:22.313Z</time>
      </trkpt>
      <trkpt lat="44.57277" lon="1.77517">
        <ele>307</ele>
        <time>2019-08-05T08:18:27.305Z</time>
      </trkpt>
      <trkpt lat="44.57272" lon="1.77522">
        <ele>307</ele>
        <time>2019-08-05T08:18:31.318Z</time>
      </trkpt>
      <trkpt lat="44.57266" lon="1.77527">
        <ele>307</ele>
        <time>2019-08-05T08:18:36.299Z</time>
      </trkpt>
      <trkpt lat="44.5726" lon="1.77533">
        <ele>305</ele>
        <time>2019-08-05T08:18:41.293Z</time>
      </trkpt>
      <trkpt lat="44.57255" lon="1.77535">
        <ele>305</ele>
        <time>2019-08-05T08:18:45.302Z</time>
      </trkpt>
      <trkpt lat="44.5725" lon="1.77541">
        <ele>305</ele>
        <time>2019-08-05T08:18:50.305Z</time>
      </trkpt>
      <trkpt lat="44.57243" lon="1.77548">
        <ele>307</ele>
        <time>2019-08-05T08:18:55.304Z</time>
      </trkpt>
      <trkpt lat="44.57236" lon="1.77554">
        <ele>307</ele>
        <time>2019-08-05T08:19:00.313Z</time>
      </trkpt>
      <trkpt lat="44.57231" lon="1.77558">
        <ele>306</ele>
        <time>2019-08-05T08:19:05.310Z</time>
      </trkpt>
      <trkpt lat="44.57225" lon="1.77562">
        <ele>306</ele>
        <time>2019-08-05T08:19:10.314Z</time>
      </trkpt>
      <trkpt lat="44.57218" lon="1.77565">
        <ele>306</ele>
        <time>2019-08-05T08:19:15.318Z</time>
      </trkpt>
      <trkpt lat="44.57211" lon="1.77568">
        <ele>306</ele>
        <time>2019-08-05T08:19:20.304Z</time>
      </trkpt>
      <trkpt lat="44.57202" lon="1.7757">
        <ele>305</ele>
        <time>2019-08-05T08:19:25.312Z</time>
      </trkpt>
      <trkpt lat="44.57194" lon="1.7757">
        <ele>305</ele>
        <time>2019-08-05T08:19:30.311Z</time>
      </trkpt>
      <trkpt lat="44.57187" lon="1.77572">
        <ele>305</ele>
        <time>2019-08-05T08:19:35.312Z</time>
      </trkpt>
      <trkpt lat="44.5718" lon="1.77574">
        <ele>303</ele>
        <time>2019-08-05T08:19:40.310Z</time>
      </trkpt>
      <trkpt lat="44.57173" lon="1.77575">
        <ele>303</ele>
        <time>2019-08-05T08:19:45.309Z</time>
      </trkpt>
      <trkpt lat="44.57165" lon="1.77575">
        <ele>303</ele>
        <time>2019-08-05T08:19:50.303Z</time>
      </trkpt>
      <trkpt lat="44.57158" lon="1.77577">
        <ele>303</ele>
        <time>2019-08-05T08:19:55.302Z</time>
      </trkpt>
      <trkpt lat="44.57151" lon="1.77579">
        <ele>300</ele>
        <time>2019-08-05T08:20:00.306Z</time>
      </trkpt>
      <trkpt lat="44.57144" lon="1.77583">
        <ele>300</ele>
        <time>2019-08-05T08:20:05.323Z</time>
      </trkpt>
      <trkpt lat="44.57138" lon="1.77587">
        <ele>300</ele>
        <time>2019-08-05T08:20:10.312Z</time>
      </trkpt>
      <trkpt lat="44.57133" lon="1.77588">
        <ele>300</ele>
        <time>2019-08-05T08:20:15.315Z</time>
      </trkpt>
      <trkpt lat="44.57127" lon="1.7759">
        <ele>300</ele>
        <time>2019-08-05T08:20:20.306Z</time>
      </trkpt>
      <trkpt lat="44.57118" lon="1.77589">
        <ele>299</ele>
        <time>2019-08-05T08:20:25.302Z</time>
      </trkpt>
      <trkpt lat="44.57114" lon="1.77592">
        <ele>299</ele>
        <time>2019-08-05T08:20:30.312Z</time>
      </trkpt>
      <trkpt lat="44.57105" lon="1.7759">
        <ele>299</ele>
        <time>2019-08-05T08:20:35.303Z</time>
      </trkpt>
      <trkpt lat="44.57099" lon="1.77589">
        <ele>299</ele>
        <time>2019-08-05T08:20:39.317Z</time>
      </trkpt>
      <trkpt lat="44.57094" lon="1.77588">
        <ele>298</ele>
        <time>2019-08-05T08:20:44.313Z</time>
      </trkpt>
      <trkpt lat="44.57086" lon="1.77588">
        <ele>298</ele>
        <time>2019-08-05T08:20:49.298Z</time>
      </trkpt>
      <trkpt lat="44.5708" lon="1.7759">
        <ele>298</ele>
        <time>2019-08-05T08:20:54.330Z</time>
      </trkpt>
      <trkpt lat="44.57073" lon="1.77588">
        <ele>298</ele>
        <time>2019-08-05T08:20:59.297Z</time>
      </trkpt>
      <trkpt lat="44.57067" lon="1.77588">
        <ele>298</ele>
        <time>2019-08-05T08:21:03.317Z</time>
      </trkpt>
      <trkpt lat="44.5706" lon="1.77588">
        <ele>298</ele>
        <time>2019-08-05T08:21:08.294Z</time>
      </trkpt>
      <trkpt lat="44.57053" lon="1.77591">
        <ele>298</ele>
        <time>2019-08-05T08:21:13.287Z</time>
      </trkpt>
      <trkpt lat="44.57048" lon="1.77594">
        <ele>298</ele>
        <time>2019-08-05T08:21:17.311Z</time>
      </trkpt>
      <trkpt lat="44.57039" lon="1.77599">
        <ele>298</ele>
        <time>2019-08-05T08:21:22.316Z</time>
      </trkpt>
      <trkpt lat="44.5703" lon="1.776">
        <ele>298</ele>
        <time>2019-08-05T08:21:27.293Z</time>
      </trkpt>
      <trkpt lat="44.57026" lon="1.77601">
        <ele>298</ele>
        <time>2019-08-05T08:21:31.317Z</time>
      </trkpt>
      <trkpt lat="44.5702" lon="1.77603">
        <ele>298</ele>
        <time>2019-08-05T08:21:36.315Z</time>
      </trkpt>
      <trkpt lat="44.57015" lon="1.77602">
        <ele>298</ele>
        <time>2019-08-05T08:21:41.284Z</time>
      </trkpt>
      <trkpt lat="44.57008" lon="1.77601">
        <ele>298</ele>
        <time>2019-08-05T08:21:45.300Z</time>
      </trkpt>
      <trkpt lat="44.57001" lon="1.77602">
        <ele>298</ele>
        <time>2019-08-05T08:21:50.298Z</time>
      </trkpt>
      <trkpt lat="44.56995" lon="1.77601">
        <ele>298</ele>
        <time>2019-08-05T08:21:55.304Z</time>
      </trkpt>
      <trkpt lat="44.5699" lon="1.77599">
        <ele>298</ele>
        <time>2019-08-05T08:21:59.320Z</time>
      </trkpt>
      <trkpt lat="44.56982" lon="1.776">
        <ele>299</ele>
        <time>2019-08-05T08:22:04.307Z</time>
      </trkpt>
      <trkpt lat="44.56976" lon="1.77597">
        <ele>299</ele>
        <time>2019-08-05T08:22:09.298Z</time>
      </trkpt>
      <trkpt lat="44.56968" lon="1.77598">
        <ele>299</ele>
        <time>2019-08-05T08:22:14.301Z</time>
      </trkpt>
      <trkpt lat="44.56959" lon="1.77597">
        <ele>295</ele>
        <time>2019-08-05T08:22:19.289Z</time>
      </trkpt>
      <trkpt lat="44.56954" lon="1.77598">
        <ele>298</ele>
        <time>2019-08-05T08:22:23.306Z</time>
      </trkpt>
      <trkpt lat="44.56954" lon="1.77599">
        <ele>298</ele>
        <time>2019-08-05T08:22:28.306Z</time>
      </trkpt>
      <trkpt lat="44.56948" lon="1.77598">
        <ele>298</ele>
        <time>2019-08-05T08:22:33.300Z</time>
      </trkpt>
      <trkpt lat="44.56945" lon="1.77597">
        <ele>296</ele>
        <time>2019-08-05T08:22:38.310Z</time>
      </trkpt>
      <trkpt lat="44.56941" lon="1.77595">
        <ele>296</ele>
        <time>2019-08-05T08:24:30.287Z</time>
      </trkpt>
      <trkpt lat="44.5694" lon="1.77596">
        <ele>296</ele>
        <time>2019-08-05T08:24:34.298Z</time>
      </trkpt>
      <trkpt lat="44.5694" lon="1.77594">
        <ele>296</ele>
        <time>2019-08-05T08:24:39.278Z</time>
      </trkpt>
      <trkpt lat="44.56935" lon="1.77596">
        <ele>296</ele>
        <time>2019-08-05T08:24:43.314Z</time>
      </trkpt>
      <trkpt lat="44.56928" lon="1.77596">
        <ele>296</ele>
        <time>2019-08-05T08:24:48.311Z</time>
      </trkpt>
      <trkpt lat="44.56921" lon="1.77594">
        <ele>296</ele>
        <time>2019-08-05T08:24:53.304Z</time>
      </trkpt>
      <trkpt lat="44.56915" lon="1.77593">
        <ele>296</ele>
        <time>2019-08-05T08:24:57.315Z</time>
      </trkpt>
      <trkpt lat="44.56907" lon="1.77594">
        <ele>296</ele>
        <time>2019-08-05T08:25:02.302Z</time>
      </trkpt>
      <trkpt lat="44.56902" lon="1.77593">
        <ele>297</ele>
        <time>2019-08-05T08:25:06.318Z</time>
      </trkpt>
      <trkpt lat="44.56894" lon="1.77594">
        <ele>297</ele>
        <time>2019-08-05T08:25:11.301Z</time>
      </trkpt>
      <trkpt lat="44.56887" lon="1.77593">
        <ele>297</ele>
        <time>2019-08-05T08:25:16.316Z</time>
      </trkpt>
      <trkpt lat="44.56882" lon="1.77595">
        <ele>297</ele>
        <time>2019-08-05T08:25:21.301Z</time>
      </trkpt>
      <trkpt lat="44.56875" lon="1.77596">
        <ele>298</ele>
        <time>2019-08-05T08:25:26.319Z</time>
      </trkpt>
      <trkpt lat="44.56867" lon="1.77599">
        <ele>299</ele>
        <time>2019-08-05T08:25:31.297Z</time>
      </trkpt>
      <trkpt lat="44.56862" lon="1.776">
        <ele>299</ele>
        <time>2019-08-05T08:25:36.319Z</time>
      </trkpt>
      <trkpt lat="44.56856" lon="1.77601">
        <ele>299</ele>
        <time>2019-08-05T08:25:41.288Z</time>
      </trkpt>
      <trkpt lat="44.5685" lon="1.77602">
        <ele>299</ele>
        <time>2019-08-05T08:25:46.309Z</time>
      </trkpt>
      <trkpt lat="44.56842" lon="1.77602">
        <ele>300</ele>
        <time>2019-08-05T08:25:51.300Z</time>
      </trkpt>
      <trkpt lat="44.56835" lon="1.77603">
        <ele>300</ele>
        <time>2019-08-05T08:25:56.311Z</time>
      </trkpt>
      <trkpt lat="44.56828" lon="1.77601">
        <ele>300</ele>
        <time>2019-08-05T08:26:01.305Z</time>
      </trkpt>
      <trkpt lat="44.56821" lon="1.77601">
        <ele>300</ele>
        <time>2019-08-05T08:26:06.309Z</time>
      </trkpt>
      <trkpt lat="44.56815" lon="1.77601">
        <ele>299</ele>
        <time>2019-08-05T08:26:11.295Z</time>
      </trkpt>
      <trkpt lat="44.56808" lon="1.77601">
        <ele>299</ele>
        <time>2019-08-05T08:26:16.306Z</time>
      </trkpt>
      <trkpt lat="44.568" lon="1.77599">
        <ele>299</ele>
        <time>2019-08-05T08:26:21.293Z</time>
      </trkpt>
      <trkpt lat="44.56792" lon="1.77597">
        <ele>299</ele>
        <time>2019-08-05T08:26:26.303Z</time>
      </trkpt>
      <trkpt lat="44.56785" lon="1.776">
        <ele>297</ele>
        <time>2019-08-05T08:26:31.297Z</time>
      </trkpt>
      <trkpt lat="44.5678" lon="1.77599">
        <ele>297</ele>
        <time>2019-08-05T08:26:36.306Z</time>
      </trkpt>
      <trkpt lat="44.56776" lon="1.77597">
        <ele>298</ele>
        <time>2019-08-05T08:26:40.316Z</time>
      </trkpt>
      <trkpt lat="44.5677" lon="1.77599">
        <ele>297</ele>
        <time>2019-08-05T08:26:45.290Z</time>
      </trkpt>
      <trkpt lat="44.56764" lon="1.77598">
        <ele>297</ele>
        <time>2019-08-05T08:26:49.308Z</time>
      </trkpt>
      <trkpt lat="44.56757" lon="1.77599">
        <ele>296</ele>
        <time>2019-08-05T08:26:54.303Z</time>
      </trkpt>
      <trkpt lat="44.56752" lon="1.77599">
        <ele>296</ele>
        <time>2019-08-05T08:26:58.315Z</time>
      </trkpt>
      <trkpt lat="44.56746" lon="1.77601">
        <ele>296</ele>
        <time>2019-08-05T08:27:03.313Z</time>
      </trkpt>
      <trkpt lat="44.5674" lon="1.77605">
        <ele>296</ele>
        <time>2019-08-05T08:27:08.313Z</time>
      </trkpt>
      <trkpt lat="44.56735" lon="1.77608">
        <ele>295</ele>
        <time>2019-08-05T08:27:12.323Z</time>
      </trkpt>
      <trkpt lat="44.5673" lon="1.77607">
        <ele>295</ele>
        <time>2019-08-05T08:27:17.293Z</time>
      </trkpt>
      <trkpt lat="44.56725" lon="1.77609">
        <ele>295</ele>
        <time>2019-08-05T08:27:21.312Z</time>
      </trkpt>
      <trkpt lat="44.5672" lon="1.77611">
        <ele>295</ele>
        <time>2019-08-05T08:27:26.308Z</time>
      </trkpt>
      <trkpt lat="44.56715" lon="1.77612">
        <ele>295</ele>
        <time>2019-08-05T08:27:31.301Z</time>
      </trkpt>
      <trkpt lat="44.56711" lon="1.77617">
        <ele>295</ele>
        <time>2019-08-05T08:27:36.321Z</time>
      </trkpt>
      <trkpt lat="44.56705" lon="1.77618">
        <ele>293</ele>
        <time>2019-08-05T08:27:41.294Z</time>
      </trkpt>
      <trkpt lat="44.56701" lon="1.7762">
        <ele>293</ele>
        <time>2019-08-05T08:27:45.294Z</time>
      </trkpt>
      <trkpt lat="44.56695" lon="1.77625">
        <ele>294</ele>
        <time>2019-08-05T08:27:50.303Z</time>
      </trkpt>
      <trkpt lat="44.56688" lon="1.77628">
        <ele>294</ele>
        <time>2019-08-05T08:27:55.314Z</time>
      </trkpt>
      <trkpt lat="44.56681" lon="1.77629">
        <ele>294</ele>
        <time>2019-08-05T08:28:00.315Z</time>
      </trkpt>
      <trkpt lat="44.56673" lon="1.7763">
        <ele>292</ele>
        <time>2019-08-05T08:28:10.317Z</time>
      </trkpt>
      <trkpt lat="44.56673" lon="1.7763">
        <ele>292</ele>
        <time>2019-08-05T08:28:15.273Z</time>
      </trkpt>
      <trkpt lat="44.56672" lon="1.7763">
        <ele>292</ele>
        <time>2019-08-05T08:28:19.290Z</time>
      </trkpt>
      <trkpt lat="44.56671" lon="1.7763">
        <ele>292</ele>
        <time>2019-08-05T08:28:24.316Z</time>
      </trkpt>
      <trkpt lat="44.56666" lon="1.77633">
        <ele>292</ele>
        <time>2019-08-05T08:28:29.297Z</time>
      </trkpt>
      <trkpt lat="44.56661" lon="1.77632">
        <ele>292</ele>
        <time>2019-08-05T08:28:34.323Z</time>
      </trkpt>
      <trkpt lat="44.56655" lon="1.77635">
        <ele>292</ele>
        <time>2019-08-05T08:28:39.303Z</time>
      </trkpt>
      <trkpt lat="44.56649" lon="1.77634">
        <ele>289</ele>
        <time>2019-08-05T08:28:44.317Z</time>
      </trkpt>
      <trkpt lat="44.56643" lon="1.77637">
        <ele>289</ele>
        <time>2019-08-05T08:28:49.313Z</time>
      </trkpt>
      <trkpt lat="44.56636" lon="1.77641">
        <ele>289</ele>
        <time>2019-08-05T08:28:54.310Z</time>
      </trkpt>
      <trkpt lat="44.56629" lon="1.77645">
        <ele>289</ele>
        <time>2019-08-05T08:28:59.286Z</time>
      </trkpt>
      <trkpt lat="44.56624" lon="1.77648">
        <ele>288</ele>
        <time>2019-08-05T08:29:03.301Z</time>
      </trkpt>
      <trkpt lat="44.56617" lon="1.77649">
        <ele>288</ele>
        <time>2019-08-05T08:29:08.306Z</time>
      </trkpt>
      <trkpt lat="44.56609" lon="1.77651">
        <ele>288</ele>
        <time>2019-08-05T08:29:13.290Z</time>
      </trkpt>
      <trkpt lat="44.56604" lon="1.77655">
        <ele>286</ele>
        <time>2019-08-05T08:29:17.306Z</time>
      </trkpt>
      <trkpt lat="44.566" lon="1.77661">
        <ele>286</ele>
        <time>2019-08-05T08:29:22.311Z</time>
      </trkpt>
      <trkpt lat="44.56595" lon="1.77666">
        <ele>283</ele>
        <time>2019-08-05T08:29:27.287Z</time>
      </trkpt>
      <trkpt lat="44.56589" lon="1.77669">
        <ele>283</ele>
        <time>2019-08-05T08:29:32.313Z</time>
      </trkpt>
      <trkpt lat="44.56584" lon="1.77674">
        <ele>283</ele>
        <time>2019-08-05T08:29:37.285Z</time>
      </trkpt>
      <trkpt lat="44.56577" lon="1.77674">
        <ele>283</ele>
        <time>2019-08-05T08:29:42.308Z</time>
      </trkpt>
      <trkpt lat="44.56571" lon="1.77676">
        <ele>283</ele>
        <time>2019-08-05T08:29:47.300Z</time>
      </trkpt>
      <trkpt lat="44.56567" lon="1.77679">
        <ele>279</ele>
        <time>2019-08-05T08:29:51.297Z</time>
      </trkpt>
      <trkpt lat="44.56562" lon="1.77683">
        <ele>278</ele>
        <time>2019-08-05T08:29:56.309Z</time>
      </trkpt>
      <trkpt lat="44.56559" lon="1.77685">
        <ele>278</ele>
        <time>2019-08-05T08:30:01.302Z</time>
      </trkpt>
      <trkpt lat="44.56554" lon="1.77688">
        <ele>278</ele>
        <time>2019-08-05T08:30:06.308Z</time>
      </trkpt>
      <trkpt lat="44.56549" lon="1.77691">
        <ele>278</ele>
        <time>2019-08-05T08:30:11.303Z</time>
      </trkpt>
      <trkpt lat="44.56541" lon="1.77693">
        <ele>275</ele>
        <time>2019-08-05T08:30:16.289Z</time>
      </trkpt>
      <trkpt lat="44.56537" lon="1.77697">
        <ele>275</ele>
        <time>2019-08-05T08:30:20.305Z</time>
      </trkpt>
      <trkpt lat="44.56531" lon="1.77708">
        <ele>275</ele>
        <time>2019-08-05T08:30:25.303Z</time>
      </trkpt>
      <trkpt lat="44.56526" lon="1.7771">
        <ele>275</ele>
        <time>2019-08-05T08:30:30.313Z</time>
      </trkpt>
      <trkpt lat="44.56522" lon="1.77712">
        <ele>275</ele>
        <time>2019-08-05T08:30:35.302Z</time>
      </trkpt>
      <trkpt lat="44.56514" lon="1.77716">
        <ele>275</ele>
        <time>2019-08-05T08:30:40.303Z</time>
      </trkpt>
      <trkpt lat="44.5651" lon="1.7772">
        <ele>272</ele>
        <time>2019-08-05T08:30:45.296Z</time>
      </trkpt>
      <trkpt lat="44.56503" lon="1.77724">
        <ele>272</ele>
        <time>2019-08-05T08:31:08.299Z</time>
      </trkpt>
      <trkpt lat="44.56502" lon="1.77725">
        <ele>272</ele>
        <time>2019-08-05T08:31:13.292Z</time>
      </trkpt>
      <trkpt lat="44.565" lon="1.77729">
        <ele>272</ele>
        <time>2019-08-05T08:31:18.309Z</time>
      </trkpt>
      <trkpt lat="44.56496" lon="1.77732">
        <ele>272</ele>
        <time>2019-08-05T08:31:23.300Z</time>
      </trkpt>
      <trkpt lat="44.5649" lon="1.77733">
        <ele>272</ele>
        <time>2019-08-05T08:31:28.317Z</time>
      </trkpt>
      <trkpt lat="44.56483" lon="1.77738">
        <ele>268</ele>
        <time>2019-08-05T08:31:33.298Z</time>
      </trkpt>
      <trkpt lat="44.56478" lon="1.77739">
        <ele>268</ele>
        <time>2019-08-05T08:31:38.310Z</time>
      </trkpt>
      <trkpt lat="44.56476" lon="1.7774">
        <ele>268</ele>
        <time>2019-08-05T08:31:43.299Z</time>
      </trkpt>
      <trkpt lat="44.56474" lon="1.77741">
        <ele>268</ele>
        <time>2019-08-05T08:31:48.312Z</time>
      </trkpt>
      <trkpt lat="44.56469" lon="1.77745">
        <ele>268</ele>
        <time>2019-08-05T08:31:53.299Z</time>
      </trkpt>
      <trkpt lat="44.56462" lon="1.7775">
        <ele>268</ele>
        <time>2019-08-05T08:31:58.311Z</time>
      </trkpt>
      <trkpt lat="44.56455" lon="1.77751">
        <ele>264</ele>
        <time>2019-08-05T08:32:03.293Z</time>
      </trkpt>
      <trkpt lat="44.56449" lon="1.77753">
        <ele>264</ele>
        <time>2019-08-05T08:32:08.310Z</time>
      </trkpt>
      <trkpt lat="44.56442" lon="1.77754">
        <ele>264</ele>
        <time>2019-08-05T08:32:13.306Z</time>
      </trkpt>
      <trkpt lat="44.56435" lon="1.77757">
        <ele>264</ele>
        <time>2019-08-05T08:32:18.309Z</time>
      </trkpt>
      <trkpt lat="44.56429" lon="1.77757">
        <ele>261</ele>
        <time>2019-08-05T08:32:23.300Z</time>
      </trkpt>
      <trkpt lat="44.56426" lon="1.77752">
        <ele>261</ele>
        <time>2019-08-05T08:32:27.304Z</time>
      </trkpt>
      <trkpt lat="44.56424" lon="1.77749">
        <ele>261</ele>
        <time>2019-08-05T08:32:32.305Z</time>
      </trkpt>
      <trkpt lat="44.5642" lon="1.77752">
        <ele>261</ele>
        <time>2019-08-05T08:32:37.296Z</time>
      </trkpt>
      <trkpt lat="44.56416" lon="1.77754">
        <ele>261</ele>
        <time>2019-08-05T08:32:42.326Z</time>
      </trkpt>
      <trkpt lat="44.56409" lon="1.77757">
        <ele>261</ele>
        <time>2019-08-05T08:32:47.301Z</time>
      </trkpt>
      <trkpt lat="44.56402" lon="1.77762">
        <ele>256</ele>
        <time>2019-08-05T08:32:52.314Z</time>
      </trkpt>
      <trkpt lat="44.56396" lon="1.77766">
        <ele>253</ele>
        <time>2019-08-05T08:32:57.316Z</time>
      </trkpt>
      <trkpt lat="44.5639" lon="1.77768">
        <ele>253</ele>
        <time>2019-08-05T08:33:02.302Z</time>
      </trkpt>
      <trkpt lat="44.56386" lon="1.7777">
        <ele>253</ele>
        <time>2019-08-05T08:33:07.302Z</time>
      </trkpt>
      <trkpt lat="44.5638" lon="1.7777">
        <ele>253</ele>
        <time>2019-08-05T08:33:12.308Z</time>
      </trkpt>
      <trkpt lat="44.56376" lon="1.77771">
        <ele>253</ele>
        <time>2019-08-05T08:33:17.289Z</time>
      </trkpt>
      <trkpt lat="44.56374" lon="1.77772">
        <ele>250</ele>
        <time>2019-08-05T08:33:21.306Z</time>
      </trkpt>
      <trkpt lat="44.56372" lon="1.77775">
        <ele>250</ele>
        <time>2019-08-05T08:33:25.320Z</time>
      </trkpt>
      <trkpt lat="44.56371" lon="1.77777">
        <ele>250</ele>
        <time>2019-08-05T08:33:30.305Z</time>
      </trkpt>
      <trkpt lat="44.56366" lon="1.77776">
        <ele>250</ele>
        <time>2019-08-05T08:34:04.298Z</time>
      </trkpt>
      <trkpt lat="44.56366" lon="1.77776">
        <ele>250</ele>
        <time>2019-08-05T08:34:09.281Z</time>
      </trkpt>
      <trkpt lat="44.56365" lon="1.77777">
        <ele>250</ele>
        <time>2019-08-05T08:34:14.287Z</time>
      </trkpt>
      <trkpt lat="44.56363" lon="1.77782">
        <ele>250</ele>
        <time>2019-08-05T08:34:19.293Z</time>
      </trkpt>
      <trkpt lat="44.56362" lon="1.77786">
        <ele>250</ele>
        <time>2019-08-05T08:34:24.304Z</time>
      </trkpt>
      <trkpt lat="44.56363" lon="1.7779">
        <ele>250</ele>
        <time>2019-08-05T08:34:29.299Z</time>
      </trkpt>
      <trkpt lat="44.5636" lon="1.77797">
        <ele>248</ele>
        <time>2019-08-05T08:34:34.309Z</time>
      </trkpt>
      <trkpt lat="44.56358" lon="1.77803">
        <ele>248</ele>
        <time>2019-08-05T08:34:39.295Z</time>
      </trkpt>
      <trkpt lat="44.56357" lon="1.77808">
        <ele>248</ele>
        <time>2019-08-05T08:34:44.316Z</time>
      </trkpt>
      <trkpt lat="44.56353" lon="1.77812">
        <ele>248</ele>
        <time>2019-08-05T08:34:49.301Z</time>
      </trkpt>
      <trkpt lat="44.56351" lon="1.77816">
        <ele>248</ele>
        <time>2019-08-05T08:34:53.325Z</time>
      </trkpt>
      <trkpt lat="44.56349" lon="1.7782">
        <ele>244</ele>
        <time>2019-08-05T08:34:58.312Z</time>
      </trkpt>
      <trkpt lat="44.56346" lon="1.77824">
        <ele>241</ele>
        <time>2019-08-05T08:35:03.328Z</time>
      </trkpt>
      <trkpt lat="44.56345" lon="1.77825">
        <ele>241</ele>
        <time>2019-08-05T08:35:27.302Z</time>
      </trkpt>
      <trkpt lat="44.56344" lon="1.77826">
        <ele>241</ele>
        <time>2019-08-05T08:35:32.310Z</time>
      </trkpt>
      <trkpt lat="44.56343" lon="1.77826">
        <ele>241</ele>
        <time>2019-08-05T08:35:37.316Z</time>
      </trkpt>
      <trkpt lat="44.5634" lon="1.77832">
        <ele>241</ele>
        <time>2019-08-05T08:35:42.305Z</time>
      </trkpt>
      <trkpt lat="44.56337" lon="1.77839">
        <ele>241</ele>
        <time>2019-08-05T08:35:46.313Z</time>
      </trkpt>
      <trkpt lat="44.56335" lon="1.77842">
        <ele>241</ele>
        <time>2019-08-05T08:36:21.302Z</time>
      </trkpt>
      <trkpt lat="44.56337" lon="1.77833">
        <ele>241</ele>
        <time>2019-08-05T08:36:26.318Z</time>
      </trkpt>
      <trkpt lat="44.56338" lon="1.77827">
        <ele>241</ele>
        <time>2019-08-05T08:36:31.300Z</time>
      </trkpt>
      <trkpt lat="44.56339" lon="1.77821">
        <ele>241</ele>
        <time>2019-08-05T08:36:35.364Z</time>
      </trkpt>
      <trkpt lat="44.5634" lon="1.77818">
        <ele>245</ele>
        <time>2019-08-05T08:36:40.313Z</time>
      </trkpt>
      <trkpt lat="44.56342" lon="1.77819">
        <ele>245</ele>
        <time>2019-08-05T08:36:55.304Z</time>
      </trkpt>
      <trkpt lat="44.56343" lon="1.77819">
        <ele>245</ele>
        <time>2019-08-05T08:37:00.297Z</time>
      </trkpt>
      <trkpt lat="44.56344" lon="1.77821">
        <ele>241</ele>
        <time>2019-08-05T08:37:05.335Z</time>
      </trkpt>
      <trkpt lat="44.56343" lon="1.77823">
        <ele>241</ele>
        <time>2019-08-05T08:37:10.313Z</time>
      </trkpt>
      <trkpt lat="44.5634" lon="1.77828">
        <ele>241</ele>
        <time>2019-08-05T08:37:15.300Z</time>
      </trkpt>
      <trkpt lat="44.56337" lon="1.77837">
        <ele>241</ele>
        <time>2019-08-05T08:37:20.322Z</time>
      </trkpt>
      <trkpt lat="44.56335" lon="1.7784">
        <ele>241</ele>
        <time>2019-08-05T08:37:25.316Z</time>
      </trkpt>
      <trkpt lat="44.56332" lon="1.77844">
        <ele>241</ele>
        <time>2019-08-05T08:37:30.305Z</time>
      </trkpt>
      <trkpt lat="44.56331" lon="1.7785">
        <ele>237</ele>
        <time>2019-08-05T08:37:35.323Z</time>
      </trkpt>
      <trkpt lat="44.56328" lon="1.77853">
        <ele>237</ele>
        <time>2019-08-05T08:37:40.304Z</time>
      </trkpt>
      <trkpt lat="44.56326" lon="1.77852">
        <ele>237</ele>
        <time>2019-08-05T08:37:45.328Z</time>
      </trkpt>
      <trkpt lat="44.56324" lon="1.77852">
        <ele>237</ele>
        <time>2019-08-05T08:37:50.310Z</time>
      </trkpt>
      <trkpt lat="44.56317" lon="1.77852">
        <ele>230</ele>
        <time>2019-08-05T08:37:55.305Z</time>
      </trkpt>
      <trkpt lat="44.56312" lon="1.77853">
        <ele>230</ele>
        <time>2019-08-05T08:38:00.311Z</time>
      </trkpt>
      <trkpt lat="44.56307" lon="1.77853">
        <ele>230</ele>
        <time>2019-08-05T08:38:05.325Z</time>
      </trkpt>
      <trkpt lat="44.563" lon="1.77854">
        <ele>230</ele>
        <time>2019-08-05T08:38:10.314Z</time>
      </trkpt>
      <trkpt lat="44.56294" lon="1.77861">
        <ele>230</ele>
        <time>2019-08-05T08:38:15.317Z</time>
      </trkpt>
      <trkpt lat="44.56288" lon="1.77864">
        <ele>226</ele>
        <time>2019-08-05T08:38:20.301Z</time>
      </trkpt>
      <trkpt lat="44.56283" lon="1.77864">
        <ele>226</ele>
        <time>2019-08-05T08:38:25.361Z</time>
      </trkpt>
      <trkpt lat="44.5628" lon="1.77865">
        <ele>226</ele>
        <time>2019-08-05T08:38:30.305Z</time>
      </trkpt>
      <trkpt lat="44.56279" lon="1.77865">
        <ele>226</ele>
        <time>2019-08-05T08:38:34.318Z</time>
      </trkpt>
      <trkpt lat="44.56277" lon="1.77867">
        <ele>226</ele>
        <time>2019-08-05T08:38:39.313Z</time>
      </trkpt>
      <trkpt lat="44.56274" lon="1.77871">
        <ele>226</ele>
        <time>2019-08-05T08:38:44.304Z</time>
      </trkpt>
      <trkpt lat="44.56271" lon="1.77871">
        <ele>226</ele>
        <time>2019-08-05T08:38:48.324Z</time>
      </trkpt>
      <trkpt lat="44.5627" lon="1.77871">
        <ele>226</ele>
        <time>2019-08-05T08:38:53.316Z</time>
      </trkpt>
      <trkpt lat="44.56269" lon="1.77874">
        <ele>226</ele>
        <time>2019-08-05T08:38:57.371Z</time>
      </trkpt>
      <trkpt lat="44.56268" lon="1.77874">
        <ele>226</ele>
        <time>2019-08-05T08:39:02.306Z</time>
      </trkpt>
      <trkpt lat="44.56268" lon="1.77875">
        <ele>226</ele>
        <time>2019-08-05T08:39:07.310Z</time>
      </trkpt>
      <trkpt lat="44.56267" lon="1.77875">
        <ele>226</ele>
        <time>2019-08-05T08:39:11.317Z</time>
      </trkpt>
      <trkpt lat="44.56264" lon="1.77877">
        <ele>219</ele>
        <time>2019-08-05T08:39:16.313Z</time>
      </trkpt>
      <trkpt lat="44.56257" lon="1.77879">
        <ele>221</ele>
        <time>2019-08-05T08:39:21.307Z</time>
      </trkpt>
      <trkpt lat="44.5625" lon="1.77881">
        <ele>221</ele>
        <time>2019-08-05T08:39:26.320Z</time>
      </trkpt>
      <trkpt lat="44.56243" lon="1.77884">
        <ele>221</ele>
        <time>2019-08-05T08:39:31.326Z</time>
      </trkpt>
      <trkpt lat="44.56236" lon="1.77886">
        <ele>221</ele>
        <time>2019-08-05T08:39:36.312Z</time>
      </trkpt>
      <trkpt lat="44.5623" lon="1.7789">
        <ele>217</ele>
        <time>2019-08-05T08:39:41.324Z</time>
      </trkpt>
      <trkpt lat="44.56226" lon="1.77886">
        <ele>217</ele>
        <time>2019-08-05T08:39:56.306Z</time>
      </trkpt>
      <trkpt lat="44.56225" lon="1.77884">
        <ele>217</ele>
        <time>2019-08-05T08:40:01.328Z</time>
      </trkpt>
      <trkpt lat="44.56223" lon="1.77885">
        <ele>217</ele>
        <time>2019-08-05T08:40:06.300Z</time>
      </trkpt>
      <trkpt lat="44.56223" lon="1.77883">
        <ele>217</ele>
        <time>2019-08-05T08:40:11.335Z</time>
      </trkpt>
      <trkpt lat="44.56223" lon="1.77881">
        <ele>217</ele>
        <time>2019-08-05T08:40:16.314Z</time>
      </trkpt>
      <trkpt lat="44.56223" lon="1.77881">
        <ele>217</ele>
        <time>2019-08-05T08:40:30.307Z</time>
      </trkpt>
      <trkpt lat="44.56223" lon="1.77881">
        <ele>217</ele>
        <time>2019-08-05T08:40:35.319Z</time>
      </trkpt>
      <trkpt lat="44.56222" lon="1.77884">
        <ele>217</ele>
        <time>2019-08-05T08:40:39.392Z</time>
      </trkpt>
      <trkpt lat="44.56216" lon="1.77887">
        <ele>217</ele>
        <time>2019-08-05T08:40:44.335Z</time>
      </trkpt>
      <trkpt lat="44.56209" lon="1.7789">
        <ele>217</ele>
        <time>2019-08-05T08:40:49.344Z</time>
      </trkpt>
      <trkpt lat="44.56204" lon="1.77892">
        <ele>208</ele>
        <time>2019-08-05T08:40:53.357Z</time>
      </trkpt>
      <trkpt lat="44.56198" lon="1.77895">
        <ele>208</ele>
        <time>2019-08-05T08:40:58.341Z</time>
      </trkpt>
      <trkpt lat="44.56194" lon="1.77898">
        <ele>208</ele>
        <time>2019-08-05T08:41:03.334Z</time>
      </trkpt>
      <trkpt lat="44.5619" lon="1.77902">
        <ele>208</ele>
        <time>2019-08-05T08:41:08.330Z</time>
      </trkpt>
      <trkpt lat="44.56188" lon="1.77906">
        <ele>205</ele>
        <time>2019-08-05T08:41:13.325Z</time>
      </trkpt>
      <trkpt lat="44.56185" lon="1.7791">
        <ele>205</ele>
        <time>2019-08-05T08:41:18.338Z</time>
      </trkpt>
      <trkpt lat="44.56182" lon="1.77916">
        <ele>205</ele>
        <time>2019-08-05T08:41:23.332Z</time>
      </trkpt>
      <trkpt lat="44.56183" lon="1.77925">
        <ele>205</ele>
        <time>2019-08-05T08:41:28.324Z</time>
      </trkpt>
      <trkpt lat="44.56183" lon="1.77931">
        <ele>205</ele>
        <time>2019-08-05T08:41:33.318Z</time>
      </trkpt>
      <trkpt lat="44.56181" lon="1.77936">
        <ele>201</ele>
        <time>2019-08-05T08:41:38.332Z</time>
      </trkpt>
      <trkpt lat="44.5618" lon="1.77943">
        <ele>192</ele>
        <time>2019-08-05T08:41:43.357Z</time>
      </trkpt>
      <trkpt lat="44.5618" lon="1.7795">
        <ele>192</ele>
        <time>2019-08-05T08:41:48.321Z</time>
      </trkpt>
      <trkpt lat="44.56178" lon="1.77958">
        <ele>192</ele>
        <time>2019-08-05T08:41:53.320Z</time>
      </trkpt>
      <trkpt lat="44.56176" lon="1.77963">
        <ele>191</ele>
        <time>2019-08-05T08:41:58.317Z</time>
      </trkpt>
      <trkpt lat="44.56175" lon="1.7797">
        <ele>191</ele>
        <time>2019-08-05T08:42:03.312Z</time>
      </trkpt>
      <trkpt lat="44.56173" lon="1.77976">
        <ele>191</ele>
        <time>2019-08-05T08:42:08.315Z</time>
      </trkpt>
      <trkpt lat="44.5617" lon="1.77983">
        <ele>191</ele>
        <time>2019-08-05T08:42:13.376Z</time>
      </trkpt>
      <trkpt lat="44.56167" lon="1.7799">
        <ele>189</ele>
        <time>2019-08-05T08:42:18.302Z</time>
      </trkpt>
      <trkpt lat="44.56163" lon="1.77996">
        <ele>189</ele>
        <time>2019-08-05T08:42:23.318Z</time>
      </trkpt>
      <trkpt lat="44.56163" lon="1.77999">
        <ele>189</ele>
        <time>2019-08-05T08:42:28.329Z</time>
      </trkpt>
      <trkpt lat="44.5616" lon="1.78002">
        <ele>189</ele>
        <time>2019-08-05T08:42:33.345Z</time>
      </trkpt>
      <trkpt lat="44.5616" lon="1.78003">
        <ele>189</ele>
        <time>2019-08-05T08:42:38.293Z</time>
      </trkpt>
      <trkpt lat="44.56161" lon="1.78">
        <ele>189</ele>
        <time>2019-08-05T08:42:42.311Z</time>
      </trkpt>
      <trkpt lat="44.56164" lon="1.77991">
        <ele>189</ele>
        <time>2019-08-05T08:42:47.332Z</time>
      </trkpt>
      <trkpt lat="44.56167" lon="1.77987">
        <ele>189</ele>
        <time>2019-08-05T08:42:52.318Z</time>
      </trkpt>
      <trkpt lat="44.56169" lon="1.77983">
        <ele>191</ele>
        <time>2019-08-05T08:42:57.314Z</time>
      </trkpt>
      <trkpt lat="44.56172" lon="1.7798">
        <ele>191</ele>
        <time>2019-08-05T08:43:01.318Z</time>
      </trkpt>
      <trkpt lat="44.56174" lon="1.77971">
        <ele>191</ele>
        <time>2019-08-05T08:43:06.309Z</time>
      </trkpt>
      <trkpt lat="44.56176" lon="1.77965">
        <ele>191</ele>
        <time>2019-08-05T08:43:11.315Z</time>
      </trkpt>
      <trkpt lat="44.56179" lon="1.77958">
        <ele>191</ele>
        <time>2019-08-05T08:43:16.310Z</time>
      </trkpt>
      <trkpt lat="44.56179" lon="1.77949">
        <ele>192</ele>
        <time>2019-08-05T08:43:21.302Z</time>
      </trkpt>
      <trkpt lat="44.5618" lon="1.77943">
        <ele>192</ele>
        <time>2019-08-05T08:43:26.304Z</time>
      </trkpt>
      <trkpt lat="44.56181" lon="1.77938">
        <ele>201</ele>
        <time>2019-08-05T08:43:31.339Z</time>
      </trkpt>
      <trkpt lat="44.56182" lon="1.77932">
        <ele>201</ele>
        <time>2019-08-05T08:43:36.301Z</time>
      </trkpt>
      <trkpt lat="44.56183" lon="1.77926">
        <ele>205</ele>
        <time>2019-08-05T08:43:41.323Z</time>
      </trkpt>
      <trkpt lat="44.56185" lon="1.77921">
        <ele>205</ele>
        <time>2019-08-05T08:43:46.308Z</time>
      </trkpt>
      <trkpt lat="44.56184" lon="1.77916">
        <ele>205</ele>
        <time>2019-08-05T08:43:51.310Z</time>
      </trkpt>
      <trkpt lat="44.56185" lon="1.7791">
        <ele>205</ele>
        <time>2019-08-05T08:43:56.299Z</time>
      </trkpt>
      <trkpt lat="44.56186" lon="1.77905">
        <ele>205</ele>
        <time>2019-08-05T08:44:00.325Z</time>
      </trkpt>
      <trkpt lat="44.56188" lon="1.779">
        <ele>208</ele>
        <time>2019-08-05T08:44:05.300Z</time>
      </trkpt>
      <trkpt lat="44.56194" lon="1.77893">
        <ele>208</ele>
        <time>2019-08-05T08:44:19.304Z</time>
      </trkpt>
      <trkpt lat="44.56196" lon="1.77893">
        <ele>208</ele>
        <time>2019-08-05T08:44:24.317Z</time>
      </trkpt>
      <trkpt lat="44.56202" lon="1.77891">
        <ele>208</ele>
        <time>2019-08-05T08:44:29.318Z</time>
      </trkpt>
      <trkpt lat="44.56206" lon="1.7789">
        <ele>208</ele>
        <time>2019-08-05T08:44:34.303Z</time>
      </trkpt>
      <trkpt lat="44.56211" lon="1.77888">
        <ele>217</ele>
        <time>2019-08-05T08:44:39.311Z</time>
      </trkpt>
      <trkpt lat="44.56217" lon="1.77888">
        <ele>217</ele>
        <time>2019-08-05T08:45:27.306Z</time>
      </trkpt>
      <trkpt lat="44.56212" lon="1.77891">
        <ele>217</ele>
        <time>2019-08-05T08:45:32.310Z</time>
      </trkpt>
      <trkpt lat="44.56209" lon="1.77893">
        <ele>217</ele>
        <time>2019-08-05T08:45:37.311Z</time>
      </trkpt>
      <trkpt lat="44.56205" lon="1.77894">
        <ele>208</ele>
        <time>2019-08-05T08:45:42.308Z</time>
      </trkpt>
      <trkpt lat="44.56202" lon="1.77896">
        <ele>208</ele>
        <time>2019-08-05T08:45:47.334Z</time>
      </trkpt>
      <trkpt lat="44.56198" lon="1.77895">
        <ele>208</ele>
        <time>2019-08-05T08:46:02.307Z</time>
      </trkpt>
      <trkpt lat="44.56198" lon="1.77895">
        <ele>208</ele>
        <time>2019-08-05T08:46:07.307Z</time>
      </trkpt>
      <trkpt lat="44.56198" lon="1.77895">
        <ele>208</ele>
        <time>2019-08-05T08:46:12.297Z</time>
      </trkpt>
      <trkpt lat="44.56195" lon="1.77897">
        <ele>208</ele>
        <time>2019-08-05T08:46:16.311Z</time>
      </trkpt>
      <trkpt lat="44.56192" lon="1.77902">
        <ele>208</ele>
        <time>2019-08-05T08:46:21.305Z</time>
      </trkpt>
      <trkpt lat="44.56185" lon="1.7791">
        <ele>205</ele>
        <time>2019-08-05T08:46:56.309Z</time>
      </trkpt>
      <trkpt lat="44.56185" lon="1.77912">
        <ele>205</ele>
        <time>2019-08-05T08:47:01.299Z</time>
      </trkpt>
      <trkpt lat="44.56185" lon="1.77915">
        <ele>205</ele>
        <time>2019-08-05T08:47:06.298Z</time>
      </trkpt>
      <trkpt lat="44.56184" lon="1.77917">
        <ele>205</ele>
        <time>2019-08-05T08:47:11.290Z</time>
      </trkpt>
      <trkpt lat="44.56184" lon="1.77922">
        <ele>205</ele>
        <time>2019-08-05T08:47:16.301Z</time>
      </trkpt>
      <trkpt lat="44.56184" lon="1.77923">
        <ele>205</ele>
        <time>2019-08-05T08:47:21.292Z</time>
      </trkpt>
      <trkpt lat="44.56184" lon="1.77926">
        <ele>205</ele>
        <time>2019-08-05T08:47:26.290Z</time>
      </trkpt>
      <trkpt lat="44.56183" lon="1.77927">
        <ele>205</ele>
        <time>2019-08-05T08:47:31.301Z</time>
      </trkpt>
      <trkpt lat="44.56183" lon="1.7793">
        <ele>205</ele>
        <time>2019-08-05T08:47:36.312Z</time>
      </trkpt>
      <trkpt lat="44.56183" lon="1.77939">
        <ele>201</ele>
        <time>2019-08-05T08:47:41.301Z</time>
      </trkpt>
      <trkpt lat="44.56183" lon="1.7794">
        <ele>201</ele>
        <time>2019-08-05T08:47:46.275Z</time>
      </trkpt>
      <trkpt lat="44.56182" lon="1.77945">
        <ele>201</ele>
        <time>2019-08-05T08:47:51.278Z</time>
      </trkpt>
      <trkpt lat="44.56179" lon="1.77955">
        <ele>192</ele>
        <time>2019-08-05T08:47:55.304Z</time>
      </trkpt>
      <trkpt lat="44.56179" lon="1.77959">
        <ele>191</ele>
        <time>2019-08-05T08:48:00.309Z</time>
      </trkpt>
      <trkpt lat="44.56174" lon="1.77963">
        <ele>191</ele>
        <time>2019-08-05T08:48:29.306Z</time>
      </trkpt>
      <trkpt lat="44.56173" lon="1.77963">
        <ele>191</ele>
        <time>2019-08-05T08:48:33.317Z</time>
      </trkpt>
      <trkpt lat="44.56173" lon="1.77969">
        <ele>191</ele>
        <time>2019-08-05T08:48:38.314Z</time>
      </trkpt>
      <trkpt lat="44.56173" lon="1.7797">
        <ele>191</ele>
        <time>2019-08-05T08:48:43.297Z</time>
      </trkpt>
      <trkpt lat="44.56172" lon="1.77974">
        <ele>191</ele>
        <time>2019-08-05T08:48:48.300Z</time>
      </trkpt>
      <trkpt lat="44.56172" lon="1.77975">
        <ele>191</ele>
        <time>2019-08-05T08:48:53.284Z</time>
      </trkpt>
      <trkpt lat="44.56172" lon="1.77977">
        <ele>191</ele>
        <time>2019-08-05T08:48:58.300Z</time>
      </trkpt>
      <trkpt lat="44.5617" lon="1.77982">
        <ele>191</ele>
        <time>2019-08-05T08:49:03.311Z</time>
      </trkpt>
      <trkpt lat="44.56168" lon="1.77987">
        <ele>189</ele>
        <time>2019-08-05T08:49:08.302Z</time>
      </trkpt>
      <trkpt lat="44.56163" lon="1.77994">
        <ele>189</ele>
        <time>2019-08-05T08:49:30.337Z</time>
      </trkpt>
      <trkpt lat="44.56163" lon="1.77995">
        <ele>189</ele>
        <time>2019-08-05T08:49:35.306Z</time>
      </trkpt>
      <trkpt lat="44.56162" lon="1.77995">
        <ele>189</ele>
        <time>2019-08-05T08:49:40.306Z</time>
      </trkpt>
      <trkpt lat="44.56162" lon="1.77998">
        <ele>189</ele>
        <time>2019-08-05T08:49:45.318Z</time>
      </trkpt>
      <trkpt lat="44.56161" lon="1.78002">
        <ele>189</ele>
        <time>2019-08-05T08:49:50.311Z</time>
      </trkpt>
      <trkpt lat="44.56159" lon="1.78008">
        <ele>189</ele>
        <time>2019-08-05T08:49:55.309Z</time>
      </trkpt>
      <trkpt lat="44.56158" lon="1.78009">
        <ele>189</ele>
        <time>2019-08-05T08:50:00.309Z</time>
      </trkpt>
      <trkpt lat="44.56157" lon="1.78015">
        <ele>187</ele>
        <time>2019-08-05T08:50:05.299Z</time>
      </trkpt>
      <trkpt lat="44.56156" lon="1.7802">
        <ele>187</ele>
        <time>2019-08-05T08:50:09.316Z</time>
      </trkpt>
      <trkpt lat="44.56156" lon="1.78028">
        <ele>187</ele>
        <time>2019-08-05T08:50:14.296Z</time>
      </trkpt>
      <trkpt lat="44.56155" lon="1.78035">
        <ele>187</ele>
        <time>2019-08-05T08:50:19.304Z</time>
      </trkpt>
      <trkpt lat="44.56149" lon="1.7804">
        <ele>184</ele>
        <time>2019-08-05T08:50:24.303Z</time>
      </trkpt>
      <trkpt lat="44.5615" lon="1.78044">
        <ele>184</ele>
        <time>2019-08-05T08:50:29.332Z</time>
      </trkpt>
      <trkpt lat="44.56151" lon="1.78043">
        <ele>184</ele>
        <time>2019-08-05T08:50:34.308Z</time>
      </trkpt>
      <trkpt lat="44.56152" lon="1.7805">
        <ele>184</ele>
        <time>2019-08-05T08:50:39.301Z</time>
      </trkpt>
      <trkpt lat="44.56157" lon="1.78058">
        <ele>186</ele>
        <time>2019-08-05T08:50:44.302Z</time>
      </trkpt>
      <trkpt lat="44.5616" lon="1.78063">
        <ele>186</ele>
        <time>2019-08-05T08:50:49.314Z</time>
      </trkpt>
      <trkpt lat="44.56167" lon="1.78062">
        <ele>186</ele>
        <time>2019-08-05T08:51:14.316Z</time>
      </trkpt>
      <trkpt lat="44.56169" lon="1.78066">
        <ele>186</ele>
        <time>2019-08-05T08:51:19.296Z</time>
      </trkpt>
      <trkpt lat="44.56172" lon="1.78066">
        <ele>186</ele>
        <time>2019-08-05T08:51:24.300Z</time>
      </trkpt>
      <trkpt lat="44.56177" lon="1.78065">
        <ele>186</ele>
        <time>2019-08-05T08:51:29.306Z</time>
      </trkpt>
      <trkpt lat="44.5618" lon="1.78063">
        <ele>186</ele>
        <time>2019-08-05T08:51:34.294Z</time>
      </trkpt>
      <trkpt lat="44.56182" lon="1.78062">
        <ele>185</ele>
        <time>2019-08-05T08:52:57.295Z</time>
      </trkpt>
      <trkpt lat="44.56183" lon="1.78063">
        <ele>185</ele>
        <time>2019-08-05T08:53:02.291Z</time>
      </trkpt>
      <trkpt lat="44.56184" lon="1.78064">
        <ele>185</ele>
        <time>2019-08-05T08:53:07.292Z</time>
      </trkpt>
      <trkpt lat="44.56187" lon="1.78061">
        <ele>185</ele>
        <time>2019-08-05T08:53:12.283Z</time>
      </trkpt>
      <trkpt lat="44.56192" lon="1.78054">
        <ele>185</ele>
        <time>2019-08-05T08:53:16.297Z</time>
      </trkpt>
      <trkpt lat="44.56197" lon="1.78045">
        <ele>185</ele>
        <time>2019-08-05T08:53:21.305Z</time>
      </trkpt>
      <trkpt lat="44.56203" lon="1.78038">
        <ele>188</ele>
        <time>2019-08-05T08:53:25.334Z</time>
      </trkpt>
      <trkpt lat="44.5621" lon="1.78031">
        <ele>186</ele>
        <time>2019-08-05T08:53:30.312Z</time>
      </trkpt>
      <trkpt lat="44.56215" lon="1.78026">
        <ele>186</ele>
        <time>2019-08-05T08:53:35.334Z</time>
      </trkpt>
      <trkpt lat="44.56221" lon="1.78025">
        <ele>186</ele>
        <time>2019-08-05T08:53:40.310Z</time>
      </trkpt>
      <trkpt lat="44.56228" lon="1.78026">
        <ele>186</ele>
        <time>2019-08-05T08:53:45.309Z</time>
      </trkpt>
      <trkpt lat="44.56236" lon="1.7803">
        <ele>186</ele>
        <time>2019-08-05T08:53:50.300Z</time>
      </trkpt>
      <trkpt lat="44.56243" lon="1.78034">
        <ele>179</ele>
        <time>2019-08-05T08:53:55.317Z</time>
      </trkpt>
      <trkpt lat="44.56248" lon="1.78039">
        <ele>179</ele>
        <time>2019-08-05T08:54:00.301Z</time>
      </trkpt>
      <trkpt lat="44.56253" lon="1.78046">
        <ele>176</ele>
        <time>2019-08-05T08:54:05.304Z</time>
      </trkpt>
      <trkpt lat="44.56258" lon="1.78052">
        <ele>176</ele>
        <time>2019-08-05T08:54:09.332Z</time>
      </trkpt>
      <trkpt lat="44.56265" lon="1.78058">
        <ele>174</ele>
        <time>2019-08-05T08:54:14.309Z</time>
      </trkpt>
      <trkpt lat="44.56271" lon="1.78066">
        <ele>174</ele>
        <time>2019-08-05T08:54:19.305Z</time>
      </trkpt>
      <trkpt lat="44.56277" lon="1.78072">
        <ele>173</ele>
        <time>2019-08-05T08:54:24.309Z</time>
      </trkpt>
      <trkpt lat="44.56281" lon="1.78076">
        <ele>173</ele>
        <time>2019-08-05T08:54:29.299Z</time>
      </trkpt>
      <trkpt lat="44.56285" lon="1.78085">
        <ele>173</ele>
        <time>2019-08-05T08:54:34.307Z</time>
      </trkpt>
      <trkpt lat="44.56292" lon="1.78095">
        <ele>174</ele>
        <time>2019-08-05T08:54:39.301Z</time>
      </trkpt>
      <trkpt lat="44.56297" lon="1.78101">
        <ele>173</ele>
        <time>2019-08-05T08:54:44.309Z</time>
      </trkpt>
      <trkpt lat="44.56301" lon="1.78108">
        <ele>173</ele>
        <time>2019-08-05T08:54:49.295Z</time>
      </trkpt>
      <trkpt lat="44.56307" lon="1.78117">
        <ele>173</ele>
        <time>2019-08-05T08:54:54.313Z</time>
      </trkpt>
      <trkpt lat="44.56313" lon="1.78126">
        <ele>171</ele>
        <time>2019-08-05T08:54:59.313Z</time>
      </trkpt>
      <trkpt lat="44.56317" lon="1.78135">
        <ele>171</ele>
        <time>2019-08-05T08:55:04.301Z</time>
      </trkpt>
      <trkpt lat="44.56327" lon="1.78149">
        <ele>171</ele>
        <time>2019-08-05T08:55:09.297Z</time>
      </trkpt>
      <trkpt lat="44.56335" lon="1.78162">
        <ele>171</ele>
        <time>2019-08-05T08:55:13.316Z</time>
      </trkpt>
      <trkpt lat="44.56345" lon="1.78176">
        <ele>171</ele>
        <time>2019-08-05T08:55:18.302Z</time>
      </trkpt>
      <trkpt lat="44.56355" lon="1.78193">
        <ele>171</ele>
        <time>2019-08-05T08:55:23.300Z</time>
      </trkpt>
      <trkpt lat="44.56364" lon="1.78211">
        <ele>170</ele>
        <time>2019-08-05T08:55:28.312Z</time>
      </trkpt>
      <trkpt lat="44.56376" lon="1.78233">
        <ele>169</ele>
        <time>2019-08-05T08:55:33.323Z</time>
      </trkpt>
      <trkpt lat="44.56384" lon="1.7825">
        <ele>169</ele>
        <time>2019-08-05T08:55:38.327Z</time>
      </trkpt>
      <trkpt lat="44.56396" lon="1.78275">
        <ele>169</ele>
        <time>2019-08-05T08:55:43.300Z</time>
      </trkpt>
      <trkpt lat="44.56402" lon="1.78287">
        <ele>169</ele>
        <time>2019-08-05T08:55:47.321Z</time>
      </trkpt>
      <trkpt lat="44.56411" lon="1.78305">
        <ele>168</ele>
        <time>2019-08-05T08:55:52.300Z</time>
      </trkpt>
      <trkpt lat="44.56419" lon="1.78322">
        <ele>168</ele>
        <time>2019-08-05T08:55:57.310Z</time>
      </trkpt>
      <trkpt lat="44.56429" lon="1.78336">
        <ele>168</ele>
        <time>2019-08-05T08:56:02.286Z</time>
      </trkpt>
      <trkpt lat="44.56432" lon="1.78344">
        <ele>170</ele>
        <time>2019-08-05T08:56:06.313Z</time>
      </trkpt>
      <trkpt lat="44.5644" lon="1.78353">
        <ele>171</ele>
        <time>2019-08-05T08:56:11.303Z</time>
      </trkpt>
      <trkpt lat="44.56448" lon="1.78361">
        <ele>171</ele>
        <time>2019-08-05T08:56:16.312Z</time>
      </trkpt>
      <trkpt lat="44.56457" lon="1.7837">
        <ele>171</ele>
        <time>2019-08-05T08:56:21.311Z</time>
      </trkpt>
      <trkpt lat="44.56465" lon="1.78378">
        <ele>177</ele>
        <time>2019-08-05T08:56:26.298Z</time>
      </trkpt>
      <trkpt lat="44.56467" lon="1.78384">
        <ele>177</ele>
        <time>2019-08-05T08:56:31.315Z</time>
      </trkpt>
      <trkpt lat="44.56469" lon="1.78391">
        <ele>177</ele>
        <time>2019-08-05T08:56:36.321Z</time>
      </trkpt>
      <trkpt lat="44.56468" lon="1.78399">
        <ele>177</ele>
        <time>2019-08-05T08:56:41.296Z</time>
      </trkpt>
      <trkpt lat="44.56468" lon="1.78409">
        <ele>178</ele>
        <time>2019-08-05T08:56:46.310Z</time>
      </trkpt>
      <trkpt lat="44.56467" lon="1.78418">
        <ele>178</ele>
        <time>2019-08-05T08:56:51.303Z</time>
      </trkpt>
      <trkpt lat="44.56467" lon="1.78427">
        <ele>178</ele>
        <time>2019-08-05T08:56:56.296Z</time>
      </trkpt>
      <trkpt lat="44.56466" lon="1.78438">
        <ele>180</ele>
        <time>2019-08-05T08:57:01.301Z</time>
      </trkpt>
      <trkpt lat="44.56466" lon="1.78448">
        <ele>180</ele>
        <time>2019-08-05T08:57:06.293Z</time>
      </trkpt>
      <trkpt lat="44.56469" lon="1.78462">
        <ele>181</ele>
        <time>2019-08-05T08:57:11.294Z</time>
      </trkpt>
      <trkpt lat="44.56473" lon="1.78468">
        <ele>181</ele>
        <time>2019-08-05T08:57:15.304Z</time>
      </trkpt>
      <trkpt lat="44.56478" lon="1.78474">
        <ele>181</ele>
        <time>2019-08-05T08:57:20.303Z</time>
      </trkpt>
      <trkpt lat="44.56482" lon="1.78479">
        <ele>181</ele>
        <time>2019-08-05T08:57:25.321Z</time>
      </trkpt>
      <trkpt lat="44.56487" lon="1.78482">
        <ele>185</ele>
        <time>2019-08-05T08:57:30.309Z</time>
      </trkpt>
      <trkpt lat="44.56491" lon="1.78488">
        <ele>183</ele>
        <time>2019-08-05T08:57:35.307Z</time>
      </trkpt>
      <trkpt lat="44.56499" lon="1.78491">
        <ele>183</ele>
        <time>2019-08-05T08:57:40.305Z</time>
      </trkpt>
      <trkpt lat="44.56508" lon="1.78491">
        <ele>183</ele>
        <time>2019-08-05T08:57:45.292Z</time>
      </trkpt>
      <trkpt lat="44.56514" lon="1.78494">
        <ele>183</ele>
        <time>2019-08-05T08:57:50.294Z</time>
      </trkpt>
      <trkpt lat="44.56517" lon="1.78498">
        <ele>188</ele>
        <time>2019-08-05T08:57:54.316Z</time>
      </trkpt>
      <trkpt lat="44.56525" lon="1.78501">
        <ele>188</ele>
        <time>2019-08-05T08:57:59.312Z</time>
      </trkpt>
      <trkpt lat="44.56534" lon="1.78508">
        <ele>188</ele>
        <time>2019-08-05T08:58:04.311Z</time>
      </trkpt>
      <trkpt lat="44.5654" lon="1.78513">
        <ele>188</ele>
        <time>2019-08-05T08:58:09.309Z</time>
      </trkpt>
      <trkpt lat="44.56546" lon="1.7852">
        <ele>194</ele>
        <time>2019-08-05T08:58:14.310Z</time>
      </trkpt>
      <trkpt lat="44.5655" lon="1.78527">
        <ele>194</ele>
        <time>2019-08-05T08:58:19.295Z</time>
      </trkpt>
      <trkpt lat="44.56554" lon="1.78531">
        <ele>194</ele>
        <time>2019-08-05T08:58:23.311Z</time>
      </trkpt>
      <trkpt lat="44.56558" lon="1.78536">
        <ele>194</ele>
        <time>2019-08-05T08:58:28.296Z</time>
      </trkpt>
      <trkpt lat="44.56562" lon="1.78542">
        <ele>194</ele>
        <time>2019-08-05T08:58:32.312Z</time>
      </trkpt>
      <trkpt lat="44.56565" lon="1.78549">
        <ele>190</ele>
        <time>2019-08-05T08:58:37.304Z</time>
      </trkpt>
      <trkpt lat="44.56571" lon="1.78557">
        <ele>192</ele>
        <time>2019-08-05T08:58:42.311Z</time>
      </trkpt>
      <trkpt lat="44.56577" lon="1.78563">
        <ele>192</ele>
        <time>2019-08-05T08:58:47.302Z</time>
      </trkpt>
      <trkpt lat="44.56582" lon="1.78566">
        <ele>192</ele>
        <time>2019-08-05T08:58:51.320Z</time>
      </trkpt>
      <trkpt lat="44.56586" lon="1.78567">
        <ele>192</ele>
        <time>2019-08-05T08:58:55.342Z</time>
      </trkpt>
      <trkpt lat="44.56591" lon="1.78568">
        <ele>192</ele>
        <time>2019-08-05T08:59:00.310Z</time>
      </trkpt>
      <trkpt lat="44.56596" lon="1.7857">
        <ele>180</ele>
        <time>2019-08-05T08:59:05.309Z</time>
      </trkpt>
      <trkpt lat="44.56602" lon="1.78572">
        <ele>182</ele>
        <time>2019-08-05T08:59:10.299Z</time>
      </trkpt>
      <trkpt lat="44.56611" lon="1.7857">
        <ele>182</ele>
        <time>2019-08-05T08:59:15.303Z</time>
      </trkpt>
      <trkpt lat="44.56618" lon="1.78568">
        <ele>195</ele>
        <time>2019-08-05T08:59:19.315Z</time>
      </trkpt>
      <trkpt lat="44.56624" lon="1.78566">
        <ele>195</ele>
        <time>2019-08-05T08:59:24.298Z</time>
      </trkpt>
      <trkpt lat="44.56629" lon="1.78561">
        <ele>200</ele>
        <time>2019-08-05T08:59:29.296Z</time>
      </trkpt>
      <trkpt lat="44.56636" lon="1.78561">
        <ele>200</ele>
        <time>2019-08-05T08:59:34.319Z</time>
      </trkpt>
      <trkpt lat="44.56648" lon="1.78564">
        <ele>200</ele>
        <time>2019-08-05T08:59:39.293Z</time>
      </trkpt>
      <trkpt lat="44.56654" lon="1.78564">
        <ele>198</ele>
        <time>2019-08-05T08:59:43.316Z</time>
      </trkpt>
      <trkpt lat="44.56661" lon="1.78556">
        <ele>198</ele>
        <time>2019-08-05T08:59:48.300Z</time>
      </trkpt>
      <trkpt lat="44.56667" lon="1.78549">
        <ele>198</ele>
        <time>2019-08-05T08:59:53.309Z</time>
      </trkpt>
      <trkpt lat="44.56671" lon="1.78543">
        <ele>198</ele>
        <time>2019-08-05T08:59:57.320Z</time>
      </trkpt>
      <trkpt lat="44.5668" lon="1.78539">
        <ele>209</ele>
        <time>2019-08-05T09:00:02.307Z</time>
      </trkpt>
      <trkpt lat="44.56684" lon="1.78536">
        <ele>208</ele>
        <time>2019-08-05T09:00:07.294Z</time>
      </trkpt>
      <trkpt lat="44.56687" lon="1.78529">
        <ele>208</ele>
        <time>2019-08-05T09:00:12.290Z</time>
      </trkpt>
      <trkpt lat="44.56691" lon="1.78528">
        <ele>208</ele>
        <time>2019-08-05T09:00:16.315Z</time>
      </trkpt>
      <trkpt lat="44.56699" lon="1.78526">
        <ele>208</ele>
        <time>2019-08-05T09:00:20.329Z</time>
      </trkpt>
      <trkpt lat="44.56709" lon="1.78524">
        <ele>215</ele>
        <time>2019-08-05T09:00:25.303Z</time>
      </trkpt>
      <trkpt lat="44.56716" lon="1.78524">
        <ele>215</ele>
        <time>2019-08-05T09:00:29.314Z</time>
      </trkpt>
      <trkpt lat="44.56725" lon="1.78527">
        <ele>215</ele>
        <time>2019-08-05T09:00:34.301Z</time>
      </trkpt>
      <trkpt lat="44.56732" lon="1.78532">
        <ele>215</ele>
        <time>2019-08-05T09:00:39.306Z</time>
      </trkpt>
      <trkpt lat="44.56737" lon="1.78539">
        <ele>225</ele>
        <time>2019-08-05T09:00:44.292Z</time>
      </trkpt>
      <trkpt lat="44.56737" lon="1.78548">
        <ele>216</ele>
        <time>2019-08-05T09:00:48.309Z</time>
      </trkpt>
      <trkpt lat="44.56739" lon="1.78556">
        <ele>216</ele>
        <time>2019-08-05T09:00:53.304Z</time>
      </trkpt>
      <trkpt lat="44.56741" lon="1.78564">
        <ele>216</ele>
        <time>2019-08-05T09:00:58.306Z</time>
      </trkpt>
      <trkpt lat="44.56746" lon="1.7857">
        <ele>195</ele>
        <time>2019-08-05T09:01:18.296Z</time>
      </trkpt>
      <trkpt lat="44.56749" lon="1.78573">
        <ele>195</ele>
        <time>2019-08-05T09:01:22.308Z</time>
      </trkpt>
      <trkpt lat="44.56752" lon="1.78579">
        <ele>195</ele>
        <time>2019-08-05T09:01:27.316Z</time>
      </trkpt>
      <trkpt lat="44.56756" lon="1.78588">
        <ele>195</ele>
        <time>2019-08-05T09:01:32.292Z</time>
      </trkpt>
      <trkpt lat="44.5676" lon="1.78591">
        <ele>195</ele>
        <time>2019-08-05T09:01:37.304Z</time>
      </trkpt>
      <trkpt lat="44.56764" lon="1.78593">
        <ele>195</ele>
        <time>2019-08-05T09:01:41.312Z</time>
      </trkpt>
      <trkpt lat="44.56765" lon="1.78596">
        <ele>200</ele>
        <time>2019-08-05T09:01:46.312Z</time>
      </trkpt>
      <trkpt lat="44.56772" lon="1.78592">
        <ele>200</ele>
        <time>2019-08-05T09:01:51.303Z</time>
      </trkpt>
      <trkpt lat="44.5678" lon="1.78591">
        <ele>200</ele>
        <time>2019-08-05T09:01:56.296Z</time>
      </trkpt>
      <trkpt lat="44.56788" lon="1.78592">
        <ele>200</ele>
        <time>2019-08-05T09:02:01.300Z</time>
      </trkpt>
      <trkpt lat="44.56795" lon="1.78593">
        <ele>221</ele>
        <time>2019-08-05T09:02:06.309Z</time>
      </trkpt>
      <trkpt lat="44.56801" lon="1.78592">
        <ele>221</ele>
        <time>2019-08-05T09:02:10.330Z</time>
      </trkpt>
      <trkpt lat="44.56809" lon="1.78594">
        <ele>221</ele>
        <time>2019-08-05T09:02:15.329Z</time>
      </trkpt>
      <trkpt lat="44.56816" lon="1.78591">
        <ele>221</ele>
        <time>2019-08-05T09:02:20.297Z</time>
      </trkpt>
      <trkpt lat="44.56821" lon="1.78589">
        <ele>227</ele>
        <time>2019-08-05T09:02:24.307Z</time>
      </trkpt>
      <trkpt lat="44.56827" lon="1.78594">
        <ele>227</ele>
        <time>2019-08-05T09:02:29.299Z</time>
      </trkpt>
      <trkpt lat="44.56832" lon="1.78596">
        <ele>227</ele>
        <time>2019-08-05T09:02:33.311Z</time>
      </trkpt>
      <trkpt lat="44.56839" lon="1.78601">
        <ele>196</ele>
        <time>2019-08-05T09:02:38.302Z</time>
      </trkpt>
      <trkpt lat="44.56844" lon="1.78605">
        <ele>196</ele>
        <time>2019-08-05T09:02:42.312Z</time>
      </trkpt>
      <trkpt lat="44.5685" lon="1.78608">
        <ele>202</ele>
        <time>2019-08-05T09:02:47.310Z</time>
      </trkpt>
      <trkpt lat="44.56857" lon="1.78611">
        <ele>202</ele>
        <time>2019-08-05T09:02:52.302Z</time>
      </trkpt>
      <trkpt lat="44.56864" lon="1.78613">
        <ele>202</ele>
        <time>2019-08-05T09:02:57.306Z</time>
      </trkpt>
      <trkpt lat="44.56869" lon="1.78615">
        <ele>202</ele>
        <time>2019-08-05T09:03:02.314Z</time>
      </trkpt>
      <trkpt lat="44.56871" lon="1.78615">
        <ele>202</ele>
        <time>2019-08-05T09:03:07.301Z</time>
      </trkpt>
      <trkpt lat="44.56874" lon="1.78623">
        <ele>202</ele>
        <time>2019-08-05T09:03:12.304Z</time>
      </trkpt>
      <trkpt lat="44.56879" lon="1.78635">
        <ele>180</ele>
        <time>2019-08-05T09:03:17.300Z</time>
      </trkpt>
      <trkpt lat="44.56883" lon="1.78643">
        <ele>180</ele>
        <time>2019-08-05T09:03:22.304Z</time>
      </trkpt>
      <trkpt lat="44.56887" lon="1.78647">
        <ele>180</ele>
        <time>2019-08-05T09:03:26.316Z</time>
      </trkpt>
      <trkpt lat="44.56892" lon="1.78651">
        <ele>180</ele>
        <time>2019-08-05T09:03:31.298Z</time>
      </trkpt>
      <trkpt lat="44.569" lon="1.78646">
        <ele>180</ele>
        <time>2019-08-05T09:03:36.296Z</time>
      </trkpt>
      <trkpt lat="44.5691" lon="1.78641">
        <ele>185</ele>
        <time>2019-08-05T09:03:41.305Z</time>
      </trkpt>
      <trkpt lat="44.56919" lon="1.78635">
        <ele>185</ele>
        <time>2019-08-05T09:03:46.306Z</time>
      </trkpt>
      <trkpt lat="44.56927" lon="1.78633">
        <ele>185</ele>
        <time>2019-08-05T09:03:51.297Z</time>
      </trkpt>
      <trkpt lat="44.56933" lon="1.7863">
        <ele>198</ele>
        <time>2019-08-05T09:03:56.298Z</time>
      </trkpt>
      <trkpt lat="44.56939" lon="1.78631">
        <ele>198</ele>
        <time>2019-08-05T09:04:00.317Z</time>
      </trkpt>
      <trkpt lat="44.56952" lon="1.78635">
        <ele>198</ele>
        <time>2019-08-05T09:04:05.292Z</time>
      </trkpt>
      <trkpt lat="44.5696" lon="1.78638">
        <ele>215</ele>
        <time>2019-08-05T09:04:10.302Z</time>
      </trkpt>
      <trkpt lat="44.56969" lon="1.78641">
        <ele>215</ele>
        <time>2019-08-05T09:04:34.296Z</time>
      </trkpt>
      <trkpt lat="44.56969" lon="1.78642">
        <ele>215</ele>
        <time>2019-08-05T09:04:39.306Z</time>
      </trkpt>
      <trkpt lat="44.56971" lon="1.78641">
        <ele>215</ele>
        <time>2019-08-05T09:04:44.314Z</time>
      </trkpt>
      <trkpt lat="44.56973" lon="1.78644">
        <ele>215</ele>
        <time>2019-08-05T09:04:49.300Z</time>
      </trkpt>
      <trkpt lat="44.5697" lon="1.78652">
        <ele>215</ele>
        <time>2019-08-05T09:04:54.296Z</time>
      </trkpt>
      <trkpt lat="44.56973" lon="1.78663">
        <ele>209</ele>
        <time>2019-08-05T09:04:59.312Z</time>
      </trkpt>
      <trkpt lat="44.56971" lon="1.78671">
        <ele>209</ele>
        <time>2019-08-05T09:05:04.300Z</time>
      </trkpt>
      <trkpt lat="44.56969" lon="1.78676">
        <ele>209</ele>
        <time>2019-08-05T09:05:08.313Z</time>
      </trkpt>
      <trkpt lat="44.56971" lon="1.7869">
        <ele>200</ele>
        <time>2019-08-05T09:05:13.298Z</time>
      </trkpt>
      <trkpt lat="44.56968" lon="1.78698">
        <ele>200</ele>
        <time>2019-08-05T09:05:18.297Z</time>
      </trkpt>
      <trkpt lat="44.56971" lon="1.78706">
        <ele>200</ele>
        <time>2019-08-05T09:05:23.306Z</time>
      </trkpt>
      <trkpt lat="44.56971" lon="1.78706">
        <ele>200</ele>
        <time>2019-08-05T09:05:28.307Z</time>
      </trkpt>
      <trkpt lat="44.56969" lon="1.78707">
        <ele>200</ele>
        <time>2019-08-05T09:05:33.298Z</time>
      </trkpt>
      <trkpt lat="44.56968" lon="1.78714">
        <ele>194</ele>
        <time>2019-08-05T09:05:38.295Z</time>
      </trkpt>
      <trkpt lat="44.5697" lon="1.78723">
        <ele>194</ele>
        <time>2019-08-05T09:05:42.303Z</time>
      </trkpt>
      <trkpt lat="44.56973" lon="1.78728">
        <ele>194</ele>
        <time>2019-08-05T09:05:47.312Z</time>
      </trkpt>
      <trkpt lat="44.56978" lon="1.78738">
        <ele>189</ele>
        <time>2019-08-05T09:05:52.298Z</time>
      </trkpt>
      <trkpt lat="44.56981" lon="1.78745">
        <ele>189</ele>
        <time>2019-08-05T09:05:57.308Z</time>
      </trkpt>
      <trkpt lat="44.56982" lon="1.78755">
        <ele>189</ele>
        <time>2019-08-05T09:06:02.297Z</time>
      </trkpt>
      <trkpt lat="44.5698" lon="1.78762">
        <ele>189</ele>
        <time>2019-08-05T09:06:06.311Z</time>
      </trkpt>
      <trkpt lat="44.56979" lon="1.78771">
        <ele>180</ele>
        <time>2019-08-05T09:06:11.292Z</time>
      </trkpt>
      <trkpt lat="44.56979" lon="1.7878">
        <ele>180</ele>
        <time>2019-08-05T09:06:15.312Z</time>
      </trkpt>
      <trkpt lat="44.5699" lon="1.78787">
        <ele>200</ele>
        <time>2019-08-05T09:06:20.313Z</time>
      </trkpt>
      <trkpt lat="44.56998" lon="1.78796">
        <ele>194</ele>
        <time>2019-08-05T09:06:25.305Z</time>
      </trkpt>
      <trkpt lat="44.57004" lon="1.78803">
        <ele>194</ele>
        <time>2019-08-05T09:06:30.314Z</time>
      </trkpt>
      <trkpt lat="44.57009" lon="1.78808">
        <ele>194</ele>
        <time>2019-08-05T09:06:35.320Z</time>
      </trkpt>
      <trkpt lat="44.57012" lon="1.78816">
        <ele>194</ele>
        <time>2019-08-05T09:06:40.311Z</time>
      </trkpt>
      <trkpt lat="44.57017" lon="1.78823">
        <ele>209</ele>
        <time>2019-08-05T09:06:45.294Z</time>
      </trkpt>
      <trkpt lat="44.5702" lon="1.7883">
        <ele>209</ele>
        <time>2019-08-05T09:06:49.310Z</time>
      </trkpt>
      <trkpt lat="44.57025" lon="1.78838">
        <ele>209</ele>
        <time>2019-08-05T09:06:54.308Z</time>
      </trkpt>
      <trkpt lat="44.57029" lon="1.7884">
        <ele>209</ele>
        <time>2019-08-05T09:06:59.294Z</time>
      </trkpt>
      <trkpt lat="44.57029" lon="1.7884">
        <ele>209</ele>
        <time>2019-08-05T09:07:04.298Z</time>
      </trkpt>
      <trkpt lat="44.57031" lon="1.78848">
        <ele>200</ele>
        <time>2019-08-05T09:07:08.313Z</time>
      </trkpt>
      <trkpt lat="44.57029" lon="1.78855">
        <ele>200</ele>
        <time>2019-08-05T09:07:13.296Z</time>
      </trkpt>
      <trkpt lat="44.57029" lon="1.78862">
        <ele>200</ele>
        <time>2019-08-05T09:07:18.296Z</time>
      </trkpt>
      <trkpt lat="44.57026" lon="1.78869">
        <ele>200</ele>
        <time>2019-08-05T09:07:22.307Z</time>
      </trkpt>
      <trkpt lat="44.57022" lon="1.78874">
        <ele>200</ele>
        <time>2019-08-05T09:07:27.330Z</time>
      </trkpt>
      <trkpt lat="44.57021" lon="1.78886">
        <ele>192</ele>
        <time>2019-08-05T09:07:32.297Z</time>
      </trkpt>
      <trkpt lat="44.57019" lon="1.78887">
        <ele>192</ele>
        <time>2019-08-05T09:07:46.306Z</time>
      </trkpt>
      <trkpt lat="44.57015" lon="1.78896">
        <ele>192</ele>
        <time>2019-08-05T09:07:51.301Z</time>
      </trkpt>
      <trkpt lat="44.57013" lon="1.78906">
        <ele>178</ele>
        <time>2019-08-05T09:07:56.309Z</time>
      </trkpt>
      <trkpt lat="44.57014" lon="1.7892">
        <ele>191</ele>
        <time>2019-08-05T09:08:01.300Z</time>
      </trkpt>
      <trkpt lat="44.57016" lon="1.7893">
        <ele>191</ele>
        <time>2019-08-05T09:08:06.303Z</time>
      </trkpt>
      <trkpt lat="44.57024" lon="1.7894">
        <ele>190</ele>
        <time>2019-08-05T09:08:11.308Z</time>
      </trkpt>
      <trkpt lat="44.57028" lon="1.78947">
        <ele>190</ele>
        <time>2019-08-05T09:08:16.304Z</time>
      </trkpt>
      <trkpt lat="44.57031" lon="1.78957">
        <ele>190</ele>
        <time>2019-08-05T09:08:21.317Z</time>
      </trkpt>
      <trkpt lat="44.5703" lon="1.78963">
        <ele>188</ele>
        <time>2019-08-05T09:08:26.309Z</time>
      </trkpt>
      <trkpt lat="44.57032" lon="1.78974">
        <ele>188</ele>
        <time>2019-08-05T09:08:31.308Z</time>
      </trkpt>
      <trkpt lat="44.57032" lon="1.78983">
        <ele>188</ele>
        <time>2019-08-05T09:08:36.310Z</time>
      </trkpt>
      <trkpt lat="44.57034" lon="1.7899">
        <ele>186</ele>
        <time>2019-08-05T09:08:40.321Z</time>
      </trkpt>
      <trkpt lat="44.57032" lon="1.78998">
        <ele>186</ele>
        <time>2019-08-05T09:08:45.304Z</time>
      </trkpt>
      <trkpt lat="44.57035" lon="1.79007">
        <ele>186</ele>
        <time>2019-08-05T09:08:50.301Z</time>
      </trkpt>
      <trkpt lat="44.57036" lon="1.79016">
        <ele>186</ele>
        <time>2019-08-05T09:08:55.335Z</time>
      </trkpt>
      <trkpt lat="44.57039" lon="1.79027">
        <ele>186</ele>
        <time>2019-08-05T09:09:00.332Z</time>
      </trkpt>
      <trkpt lat="44.57041" lon="1.79037">
        <ele>186</ele>
        <time>2019-08-05T09:09:05.307Z</time>
      </trkpt>
      <trkpt lat="44.57041" lon="1.79048">
        <ele>189</ele>
        <time>2019-08-05T09:09:10.300Z</time>
      </trkpt>
      <trkpt lat="44.57042" lon="1.79052">
        <ele>201</ele>
        <time>2019-08-05T09:09:15.302Z</time>
      </trkpt>
      <trkpt lat="44.57042" lon="1.79061">
        <ele>201</ele>
        <time>2019-08-05T09:09:20.296Z</time>
      </trkpt>
      <trkpt lat="44.57042" lon="1.79073">
        <ele>202</ele>
        <time>2019-08-05T09:09:24.313Z</time>
      </trkpt>
      <trkpt lat="44.5704" lon="1.79077">
        <ele>191</ele>
        <time>2019-08-05T09:09:29.336Z</time>
      </trkpt>
      <trkpt lat="44.57039" lon="1.79085">
        <ele>191</ele>
        <time>2019-08-05T09:09:34.323Z</time>
      </trkpt>
      <trkpt lat="44.57038" lon="1.79095">
        <ele>191</ele>
        <time>2019-08-05T09:09:39.333Z</time>
      </trkpt>
      <trkpt lat="44.57037" lon="1.79105">
        <ele>192</ele>
        <time>2019-08-05T09:09:44.310Z</time>
      </trkpt>
      <trkpt lat="44.57037" lon="1.79114">
        <ele>192</ele>
        <time>2019-08-05T09:09:49.299Z</time>
      </trkpt>
      <trkpt lat="44.57037" lon="1.79121">
        <ele>192</ele>
        <time>2019-08-05T09:09:53.314Z</time>
      </trkpt>
      <trkpt lat="44.57039" lon="1.79129">
        <ele>195</ele>
        <time>2019-08-05T09:09:58.309Z</time>
      </trkpt>
      <trkpt lat="44.57035" lon="1.79139">
        <ele>195</ele>
        <time>2019-08-05T09:10:03.296Z</time>
      </trkpt>
      <trkpt lat="44.57032" lon="1.79146">
        <ele>195</ele>
        <time>2019-08-05T09:10:08.304Z</time>
      </trkpt>
      <trkpt lat="44.57029" lon="1.79154">
        <ele>200</ele>
        <time>2019-08-05T09:10:13.304Z</time>
      </trkpt>
      <trkpt lat="44.57026" lon="1.79161">
        <ele>200</ele>
        <time>2019-08-05T09:10:17.314Z</time>
      </trkpt>
      <trkpt lat="44.57021" lon="1.79172">
        <ele>200</ele>
        <time>2019-08-05T09:10:22.306Z</time>
      </trkpt>
      <trkpt lat="44.57014" lon="1.79191">
        <ele>205</ele>
        <time>2019-08-05T09:10:27.298Z</time>
      </trkpt>
      <trkpt lat="44.5701" lon="1.79201">
        <ele>195</ele>
        <time>2019-08-05T09:10:32.311Z</time>
      </trkpt>
      <trkpt lat="44.57007" lon="1.79211">
        <ele>199</ele>
        <time>2019-08-05T09:10:37.331Z</time>
      </trkpt>
      <trkpt lat="44.57004" lon="1.79219">
        <ele>199</ele>
        <time>2019-08-05T09:10:42.326Z</time>
      </trkpt>
      <trkpt lat="44.57002" lon="1.79233">
        <ele>199</ele>
        <time>2019-08-05T09:10:47.309Z</time>
      </trkpt>
      <trkpt lat="44.56999" lon="1.79246">
        <ele>202</ele>
        <time>2019-08-05T09:10:52.295Z</time>
      </trkpt>
      <trkpt lat="44.56996" lon="1.79258">
        <ele>202</ele>
        <time>2019-08-05T09:10:57.296Z</time>
      </trkpt>
      <trkpt lat="44.56995" lon="1.7927">
        <ele>206</ele>
        <time>2019-08-05T09:11:02.306Z</time>
      </trkpt>
      <trkpt lat="44.56991" lon="1.79281">
        <ele>206</ele>
        <time>2019-08-05T09:11:07.318Z</time>
      </trkpt>
      <trkpt lat="44.56988" lon="1.7929">
        <ele>206</ele>
        <time>2019-08-05T09:11:12.337Z</time>
      </trkpt>
      <trkpt lat="44.56988" lon="1.793">
        <ele>203</ele>
        <time>2019-08-05T09:11:17.286Z</time>
      </trkpt>
      <trkpt lat="44.56988" lon="1.79308">
        <ele>203</ele>
        <time>2019-08-05T09:11:21.341Z</time>
      </trkpt>
      <trkpt lat="44.56992" lon="1.79315">
        <ele>203</ele>
        <time>2019-08-05T09:11:26.306Z</time>
      </trkpt>
      <trkpt lat="44.56998" lon="1.79314">
        <ele>203</ele>
        <time>2019-08-05T09:11:31.310Z</time>
      </trkpt>
      <trkpt lat="44.57" lon="1.79304">
        <ele>203</ele>
        <time>2019-08-05T09:11:36.301Z</time>
      </trkpt>
      <trkpt lat="44.57001" lon="1.79292">
        <ele>203</ele>
        <time>2019-08-05T09:11:41.309Z</time>
      </trkpt>
      <trkpt lat="44.57004" lon="1.79282">
        <ele>206</ele>
        <time>2019-08-05T09:11:46.299Z</time>
      </trkpt>
      <trkpt lat="44.57008" lon="1.79275">
        <ele>206</ele>
        <time>2019-08-05T09:11:51.309Z</time>
      </trkpt>
      <trkpt lat="44.57013" lon="1.79268">
        <ele>206</ele>
        <time>2019-08-05T09:11:56.302Z</time>
      </trkpt>
      <trkpt lat="44.57017" lon="1.79259">
        <ele>213</ele>
        <time>2019-08-05T09:12:01.303Z</time>
      </trkpt>
      <trkpt lat="44.57022" lon="1.79249">
        <ele>213</ele>
        <time>2019-08-05T09:12:06.295Z</time>
      </trkpt>
      <trkpt lat="44.57025" lon="1.79242">
        <ele>213</ele>
        <time>2019-08-05T09:12:10.312Z</time>
      </trkpt>
      <trkpt lat="44.57029" lon="1.79236">
        <ele>209</ele>
        <time>2019-08-05T09:12:15.306Z</time>
      </trkpt>
      <trkpt lat="44.57034" lon="1.79229">
        <ele>209</ele>
        <time>2019-08-05T09:12:20.301Z</time>
      </trkpt>
      <trkpt lat="44.57038" lon="1.79222">
        <ele>209</ele>
        <time>2019-08-05T09:12:25.298Z</time>
      </trkpt>
      <trkpt lat="44.57042" lon="1.79215">
        <ele>222</ele>
        <time>2019-08-05T09:12:30.298Z</time>
      </trkpt>
      <trkpt lat="44.57045" lon="1.79209">
        <ele>222</ele>
        <time>2019-08-05T09:12:34.315Z</time>
      </trkpt>
      <trkpt lat="44.57053" lon="1.79204">
        <ele>219</ele>
        <time>2019-08-05T09:12:39.301Z</time>
      </trkpt>
      <trkpt lat="44.57057" lon="1.79198">
        <ele>219</ele>
        <time>2019-08-05T09:12:44.305Z</time>
      </trkpt>
      <trkpt lat="44.57061" lon="1.79188">
        <ele>219</ele>
        <time>2019-08-05T09:12:49.316Z</time>
      </trkpt>
      <trkpt lat="44.57064" lon="1.7918">
        <ele>213</ele>
        <time>2019-08-05T09:12:54.303Z</time>
      </trkpt>
      <trkpt lat="44.57068" lon="1.79171">
        <ele>213</ele>
        <time>2019-08-05T09:12:59.305Z</time>
      </trkpt>
      <trkpt lat="44.57073" lon="1.79162">
        <ele>227</ele>
        <time>2019-08-05T09:13:04.301Z</time>
      </trkpt>
      <trkpt lat="44.57077" lon="1.79156">
        <ele>227</ele>
        <time>2019-08-05T09:13:08.302Z</time>
      </trkpt>
      <trkpt lat="44.57081" lon="1.79148">
        <ele>222</ele>
        <time>2019-08-05T09:13:13.293Z</time>
      </trkpt>
      <trkpt lat="44.57085" lon="1.79139">
        <ele>222</ele>
        <time>2019-08-05T09:13:18.289Z</time>
      </trkpt>
      <trkpt lat="44.57087" lon="1.79131">
        <ele>222</ele>
        <time>2019-08-05T09:13:22.303Z</time>
      </trkpt>
      <trkpt lat="44.57091" lon="1.79123">
        <ele>217</ele>
        <time>2019-08-05T09:13:27.314Z</time>
      </trkpt>
      <trkpt lat="44.57094" lon="1.79115">
        <ele>217</ele>
        <time>2019-08-05T09:13:32.309Z</time>
      </trkpt>
      <trkpt lat="44.57098" lon="1.79108">
        <ele>229</ele>
        <time>2019-08-05T09:13:37.305Z</time>
      </trkpt>
      <trkpt lat="44.57103" lon="1.79101">
        <ele>229</ele>
        <time>2019-08-05T09:13:42.321Z</time>
      </trkpt>
      <trkpt lat="44.57104" lon="1.79093">
        <ele>228</ele>
        <time>2019-08-05T09:13:47.312Z</time>
      </trkpt>
      <trkpt lat="44.57107" lon="1.79083">
        <ele>228</ele>
        <time>2019-08-05T09:13:52.307Z</time>
      </trkpt>
      <trkpt lat="44.57109" lon="1.79071">
        <ele>228</ele>
        <time>2019-08-05T09:13:57.305Z</time>
      </trkpt>
      <trkpt lat="44.57111" lon="1.79063">
        <ele>227</ele>
        <time>2019-08-05T09:14:02.303Z</time>
      </trkpt>
      <trkpt lat="44.57113" lon="1.79053">
        <ele>227</ele>
        <time>2019-08-05T09:14:07.302Z</time>
      </trkpt>
      <trkpt lat="44.57117" lon="1.79043">
        <ele>227</ele>
        <time>2019-08-05T09:14:12.305Z</time>
      </trkpt>
      <trkpt lat="44.57118" lon="1.79035">
        <ele>228</ele>
        <time>2019-08-05T09:14:17.302Z</time>
      </trkpt>
      <trkpt lat="44.57118" lon="1.79025">
        <ele>228</ele>
        <time>2019-08-05T09:14:22.310Z</time>
      </trkpt>
      <trkpt lat="44.57121" lon="1.79019">
        <ele>228</ele>
        <time>2019-08-05T09:14:27.298Z</time>
      </trkpt>
      <trkpt lat="44.57123" lon="1.79011">
        <ele>228</ele>
        <time>2019-08-05T09:14:32.303Z</time>
      </trkpt>
      <trkpt lat="44.57126" lon="1.79003">
        <ele>240</ele>
        <time>2019-08-05T09:14:37.309Z</time>
      </trkpt>
      <trkpt lat="44.57136" lon="1.79002">
        <ele>240</ele>
        <time>2019-08-05T09:14:42.305Z</time>
      </trkpt>
      <trkpt lat="44.57142" lon="1.79011">
        <ele>240</ele>
        <time>2019-08-05T09:14:47.324Z</time>
      </trkpt>
      <trkpt lat="44.57142" lon="1.79021">
        <ele>239</ele>
        <time>2019-08-05T09:14:52.304Z</time>
      </trkpt>
      <trkpt lat="44.57141" lon="1.79029">
        <ele>239</ele>
        <time>2019-08-05T09:14:57.311Z</time>
      </trkpt>
      <trkpt lat="44.57139" lon="1.79037">
        <ele>239</ele>
        <time>2019-08-05T09:15:02.295Z</time>
      </trkpt>
      <trkpt lat="44.57137" lon="1.79044">
        <ele>239</ele>
        <time>2019-08-05T09:15:06.328Z</time>
      </trkpt>
      <trkpt lat="44.57135" lon="1.79054">
        <ele>239</ele>
        <time>2019-08-05T09:15:11.293Z</time>
      </trkpt>
      <trkpt lat="44.57134" lon="1.79063">
        <ele>239</ele>
        <time>2019-08-05T09:15:16.297Z</time>
      </trkpt>
      <trkpt lat="44.57132" lon="1.79071">
        <ele>239</ele>
        <time>2019-08-05T09:15:20.305Z</time>
      </trkpt>
      <trkpt lat="44.57132" lon="1.7908">
        <ele>239</ele>
        <time>2019-08-05T09:15:25.293Z</time>
      </trkpt>
      <trkpt lat="44.5713" lon="1.79087">
        <ele>239</ele>
        <time>2019-08-05T09:15:29.305Z</time>
      </trkpt>
      <trkpt lat="44.57127" lon="1.79096">
        <ele>239</ele>
        <time>2019-08-05T09:15:34.316Z</time>
      </trkpt>
      <trkpt lat="44.57124" lon="1.79105">
        <ele>229</ele>
        <time>2019-08-05T09:15:39.291Z</time>
      </trkpt>
      <trkpt lat="44.57122" lon="1.79114">
        <ele>229</ele>
        <time>2019-08-05T09:15:44.295Z</time>
      </trkpt>
      <trkpt lat="44.5712" lon="1.79122">
        <ele>229</ele>
        <time>2019-08-05T09:15:49.288Z</time>
      </trkpt>
      <trkpt lat="44.57118" lon="1.79128">
        <ele>233</ele>
        <time>2019-08-05T09:15:53.294Z</time>
      </trkpt>
      <trkpt lat="44.57117" lon="1.7914">
        <ele>233</ele>
        <time>2019-08-05T09:15:58.303Z</time>
      </trkpt>
      <trkpt lat="44.57116" lon="1.7915">
        <ele>233</ele>
        <time>2019-08-05T09:16:03.294Z</time>
      </trkpt>
      <trkpt lat="44.57114" lon="1.79159">
        <ele>238</ele>
        <time>2019-08-05T09:16:08.299Z</time>
      </trkpt>
      <trkpt lat="44.5711" lon="1.79169">
        <ele>238</ele>
        <time>2019-08-05T09:16:13.298Z</time>
      </trkpt>
      <trkpt lat="44.57107" lon="1.79177">
        <ele>238</ele>
        <time>2019-08-05T09:16:18.296Z</time>
      </trkpt>
      <trkpt lat="44.57102" lon="1.79182">
        <ele>242</ele>
        <time>2019-08-05T09:16:22.308Z</time>
      </trkpt>
      <trkpt lat="44.57097" lon="1.79189">
        <ele>230</ele>
        <time>2019-08-05T09:16:27.306Z</time>
      </trkpt>
      <trkpt lat="44.57094" lon="1.79196">
        <ele>230</ele>
        <time>2019-08-05T09:16:31.321Z</time>
      </trkpt>
      <trkpt lat="44.57091" lon="1.79208">
        <ele>230</ele>
        <time>2019-08-05T09:16:36.293Z</time>
      </trkpt>
      <trkpt lat="44.57089" lon="1.79224">
        <ele>234</ele>
        <time>2019-08-05T09:16:41.301Z</time>
      </trkpt>
      <trkpt lat="44.57088" lon="1.79238">
        <ele>243</ele>
        <time>2019-08-05T09:16:46.293Z</time>
      </trkpt>
      <trkpt lat="44.57088" lon="1.79247">
        <ele>243</ele>
        <time>2019-08-05T09:16:51.301Z</time>
      </trkpt>
      <trkpt lat="44.57089" lon="1.79259">
        <ele>243</ele>
        <time>2019-08-05T09:16:56.293Z</time>
      </trkpt>
      <trkpt lat="44.57086" lon="1.79266">
        <ele>247</ele>
        <time>2019-08-05T09:17:00.301Z</time>
      </trkpt>
      <trkpt lat="44.57081" lon="1.79275">
        <ele>247</ele>
        <time>2019-08-05T09:17:05.292Z</time>
      </trkpt>
      <trkpt lat="44.57079" lon="1.79282">
        <ele>247</ele>
        <time>2019-08-05T09:17:09.307Z</time>
      </trkpt>
      <trkpt lat="44.57075" lon="1.79292">
        <ele>247</ele>
        <time>2019-08-05T09:17:14.294Z</time>
      </trkpt>
      <trkpt lat="44.57074" lon="1.79299">
        <ele>247</ele>
        <time>2019-08-05T09:17:19.304Z</time>
      </trkpt>
      <trkpt lat="44.57074" lon="1.79308">
        <ele>247</ele>
        <time>2019-08-05T09:17:24.300Z</time>
      </trkpt>
      <trkpt lat="44.57076" lon="1.79316">
        <ele>247</ele>
        <time>2019-08-05T09:17:28.331Z</time>
      </trkpt>
      <trkpt lat="44.57071" lon="1.79331">
        <ele>247</ele>
        <time>2019-08-05T09:18:18.302Z</time>
      </trkpt>
      <trkpt lat="44.57071" lon="1.79331">
        <ele>247</ele>
        <time>2019-08-05T09:18:23.284Z</time>
      </trkpt>
      <trkpt lat="44.5707" lon="1.79331">
        <ele>247</ele>
        <time>2019-08-05T09:18:28.292Z</time>
      </trkpt>
      <trkpt lat="44.5707" lon="1.79331">
        <ele>247</ele>
        <time>2019-08-05T09:18:33.280Z</time>
      </trkpt>
      <trkpt lat="44.57068" lon="1.79329">
        <ele>230</ele>
        <time>2019-08-05T09:18:37.283Z</time>
      </trkpt>
      <trkpt lat="44.57065" lon="1.7933">
        <ele>230</ele>
        <time>2019-08-05T09:19:34.293Z</time>
      </trkpt>
      <trkpt lat="44.57072" lon="1.79334">
        <ele>247</ele>
        <time>2019-08-05T09:19:38.305Z</time>
      </trkpt>
      <trkpt lat="44.57081" lon="1.79337">
        <ele>247</ele>
        <time>2019-08-05T09:19:43.313Z</time>
      </trkpt>
      <trkpt lat="44.57086" lon="1.79336">
        <ele>247</ele>
        <time>2019-08-05T09:19:48.304Z</time>
      </trkpt>
      <trkpt lat="44.57093" lon="1.79336">
        <ele>247</ele>
        <time>2019-08-05T09:19:53.329Z</time>
      </trkpt>
      <trkpt lat="44.57103" lon="1.79338">
        <ele>255</ele>
        <time>2019-08-05T09:19:58.299Z</time>
      </trkpt>
      <trkpt lat="44.57113" lon="1.79337">
        <ele>255</ele>
        <time>2019-08-05T09:20:03.301Z</time>
      </trkpt>
      <trkpt lat="44.5712" lon="1.79333">
        <ele>255</ele>
        <time>2019-08-05T09:20:08.303Z</time>
      </trkpt>
      <trkpt lat="44.57128" lon="1.7933">
        <ele>257</ele>
        <time>2019-08-05T09:20:13.308Z</time>
      </trkpt>
      <trkpt lat="44.57134" lon="1.7933">
        <ele>257</ele>
        <time>2019-08-05T09:20:18.312Z</time>
      </trkpt>
      <trkpt lat="44.57137" lon="1.79328">
        <ele>257</ele>
        <time>2019-08-05T09:20:23.302Z</time>
      </trkpt>
      <trkpt lat="44.57142" lon="1.79324">
        <ele>257</ele>
        <time>2019-08-05T09:20:28.310Z</time>
      </trkpt>
      <trkpt lat="44.5715" lon="1.79323">
        <ele>257</ele>
        <time>2019-08-05T09:20:33.302Z</time>
      </trkpt>
      <trkpt lat="44.57156" lon="1.79322">
        <ele>258</ele>
        <time>2019-08-05T09:20:37.310Z</time>
      </trkpt>
      <trkpt lat="44.57163" lon="1.79322">
        <ele>258</ele>
        <time>2019-08-05T09:20:42.316Z</time>
      </trkpt>
      <trkpt lat="44.57168" lon="1.79323">
        <ele>258</ele>
        <time>2019-08-05T09:20:47.304Z</time>
      </trkpt>
      <trkpt lat="44.57175" lon="1.79324">
        <ele>258</ele>
        <time>2019-08-05T09:20:52.305Z</time>
      </trkpt>
      <trkpt lat="44.57182" lon="1.79326">
        <ele>262</ele>
        <time>2019-08-05T09:20:57.309Z</time>
      </trkpt>
      <trkpt lat="44.57188" lon="1.79326">
        <ele>262</ele>
        <time>2019-08-05T09:21:02.305Z</time>
      </trkpt>
      <trkpt lat="44.57196" lon="1.79329">
        <ele>262</ele>
        <time>2019-08-05T09:21:07.283Z</time>
      </trkpt>
      <trkpt lat="44.57203" lon="1.7933">
        <ele>262</ele>
        <time>2019-08-05T09:21:11.300Z</time>
      </trkpt>
      <trkpt lat="44.5721" lon="1.7933">
        <ele>264</ele>
        <time>2019-08-05T09:21:16.303Z</time>
      </trkpt>
      <trkpt lat="44.57216" lon="1.79331">
        <ele>264</ele>
        <time>2019-08-05T09:21:21.347Z</time>
      </trkpt>
      <trkpt lat="44.57224" lon="1.79331">
        <ele>264</ele>
        <time>2019-08-05T09:21:26.310Z</time>
      </trkpt>
      <trkpt lat="44.57231" lon="1.79331">
        <ele>264</ele>
        <time>2019-08-05T09:21:31.295Z</time>
      </trkpt>
      <trkpt lat="44.57237" lon="1.7933">
        <ele>264</ele>
        <time>2019-08-05T09:21:36.300Z</time>
      </trkpt>
      <trkpt lat="44.57242" lon="1.79331">
        <ele>264</ele>
        <time>2019-08-05T09:21:41.311Z</time>
      </trkpt>
      <trkpt lat="44.57248" lon="1.79333">
        <ele>264</ele>
        <time>2019-08-05T09:21:46.311Z</time>
      </trkpt>
      <trkpt lat="44.57252" lon="1.79333">
        <ele>264</ele>
        <time>2019-08-05T09:21:51.303Z</time>
      </trkpt>
      <trkpt lat="44.57258" lon="1.79332">
        <ele>264</ele>
        <time>2019-08-05T09:21:56.297Z</time>
      </trkpt>
      <trkpt lat="44.57265" lon="1.79331">
        <ele>261</ele>
        <time>2019-08-05T09:22:01.296Z</time>
      </trkpt>
      <trkpt lat="44.5727" lon="1.7933">
        <ele>261</ele>
        <time>2019-08-05T09:22:05.302Z</time>
      </trkpt>
      <trkpt lat="44.5728" lon="1.79331">
        <ele>261</ele>
        <time>2019-08-05T09:22:10.295Z</time>
      </trkpt>
      <trkpt lat="44.5729" lon="1.7933">
        <ele>261</ele>
        <time>2019-08-05T09:22:15.301Z</time>
      </trkpt>
      <trkpt lat="44.57298" lon="1.79331">
        <ele>259</ele>
        <time>2019-08-05T09:22:20.310Z</time>
      </trkpt>
      <trkpt lat="44.57305" lon="1.79333">
        <ele>259</ele>
        <time>2019-08-05T09:22:25.298Z</time>
      </trkpt>
      <trkpt lat="44.57308" lon="1.79332">
        <ele>259</ele>
        <time>2019-08-05T09:22:30.307Z</time>
      </trkpt>
      <trkpt lat="44.57312" lon="1.79334">
        <ele>259</ele>
        <time>2019-08-05T09:22:35.317Z</time>
      </trkpt>
      <trkpt lat="44.57319" lon="1.79334">
        <ele>259</ele>
        <time>2019-08-05T09:22:40.295Z</time>
      </trkpt>
      <trkpt lat="44.57325" lon="1.79333">
        <ele>258</ele>
        <time>2019-08-05T09:22:45.308Z</time>
      </trkpt>
      <trkpt lat="44.5733" lon="1.79334">
        <ele>258</ele>
        <time>2019-08-05T09:22:50.307Z</time>
      </trkpt>
      <trkpt lat="44.57338" lon="1.79333">
        <ele>258</ele>
        <time>2019-08-05T09:22:55.305Z</time>
      </trkpt>
      <trkpt lat="44.57345" lon="1.79331">
        <ele>258</ele>
        <time>2019-08-05T09:22:59.327Z</time>
      </trkpt>
      <trkpt lat="44.57353" lon="1.79334">
        <ele>258</ele>
        <time>2019-08-05T09:23:04.301Z</time>
      </trkpt>
      <trkpt lat="44.5736" lon="1.79336">
        <ele>258</ele>
        <time>2019-08-05T09:23:09.303Z</time>
      </trkpt>
      <trkpt lat="44.57367" lon="1.79336">
        <ele>258</ele>
        <time>2019-08-05T09:23:14.299Z</time>
      </trkpt>
      <trkpt lat="44.57376" lon="1.79336">
        <ele>261</ele>
        <time>2019-08-05T09:23:19.305Z</time>
      </trkpt>
      <trkpt lat="44.57382" lon="1.79336">
        <ele>261</ele>
        <time>2019-08-05T09:23:24.320Z</time>
      </trkpt>
      <trkpt lat="44.5739" lon="1.79339">
        <ele>261</ele>
        <time>2019-08-05T09:23:29.312Z</time>
      </trkpt>
      <trkpt lat="44.57395" lon="1.79339">
        <ele>261</ele>
        <time>2019-08-05T09:23:34.309Z</time>
      </trkpt>
      <trkpt lat="44.57397" lon="1.79338">
        <ele>261</ele>
        <time>2019-08-05T09:23:39.297Z</time>
      </trkpt>
      <trkpt lat="44.57402" lon="1.7934">
        <ele>261</ele>
        <time>2019-08-05T09:23:43.312Z</time>
      </trkpt>
      <trkpt lat="44.57407" lon="1.79347">
        <ele>264</ele>
        <time>2019-08-05T09:23:48.318Z</time>
      </trkpt>
      <trkpt lat="44.5741" lon="1.79354">
        <ele>266</ele>
        <time>2019-08-05T09:23:53.289Z</time>
      </trkpt>
      <trkpt lat="44.57411" lon="1.79359">
        <ele>266</ele>
        <time>2019-08-05T09:23:57.298Z</time>
      </trkpt>
      <trkpt lat="44.5741" lon="1.79366">
        <ele>266</ele>
        <time>2019-08-05T09:24:02.296Z</time>
      </trkpt>
      <trkpt lat="44.57406" lon="1.79371">
        <ele>266</ele>
        <time>2019-08-05T09:24:07.306Z</time>
      </trkpt>
      <trkpt lat="44.57401" lon="1.79377">
        <ele>263</ele>
        <time>2019-08-05T09:24:12.310Z</time>
      </trkpt>
      <trkpt lat="44.57397" lon="1.79383">
        <ele>263</ele>
        <time>2019-08-05T09:24:17.303Z</time>
      </trkpt>
      <trkpt lat="44.57395" lon="1.79389">
        <ele>263</ele>
        <time>2019-08-05T09:24:21.329Z</time>
      </trkpt>
      <trkpt lat="44.57394" lon="1.79395">
        <ele>263</ele>
        <time>2019-08-05T09:24:26.305Z</time>
      </trkpt>
      <trkpt lat="44.57392" lon="1.794">
        <ele>263</ele>
        <time>2019-08-05T09:24:31.307Z</time>
      </trkpt>
      <trkpt lat="44.5739" lon="1.79403">
        <ele>267</ele>
        <time>2019-08-05T09:24:36.295Z</time>
      </trkpt>
      <trkpt lat="44.57388" lon="1.79407">
        <ele>267</ele>
        <time>2019-08-05T09:24:40.313Z</time>
      </trkpt>
      <trkpt lat="44.57388" lon="1.79416">
        <ele>267</ele>
        <time>2019-08-05T09:24:45.301Z</time>
      </trkpt>
      <trkpt lat="44.57386" lon="1.79426">
        <ele>267</ele>
        <time>2019-08-05T09:24:50.298Z</time>
      </trkpt>
      <trkpt lat="44.57385" lon="1.79436">
        <ele>272</ele>
        <time>2019-08-05T09:24:54.323Z</time>
      </trkpt>
      <trkpt lat="44.57385" lon="1.79452">
        <ele>272</ele>
        <time>2019-08-05T09:24:59.309Z</time>
      </trkpt>
      <trkpt lat="44.57384" lon="1.7946">
        <ele>275</ele>
        <time>2019-08-05T09:25:04.316Z</time>
      </trkpt>
      <trkpt lat="44.57385" lon="1.79464">
        <ele>275</ele>
        <time>2019-08-05T09:25:09.310Z</time>
      </trkpt>
      <trkpt lat="44.57384" lon="1.79468">
        <ele>275</ele>
        <time>2019-08-05T09:25:14.299Z</time>
      </trkpt>
      <trkpt lat="44.57384" lon="1.79476">
        <ele>275</ele>
        <time>2019-08-05T09:25:19.301Z</time>
      </trkpt>
      <trkpt lat="44.57384" lon="1.79486">
        <ele>275</ele>
        <time>2019-08-05T09:25:24.311Z</time>
      </trkpt>
      <trkpt lat="44.57385" lon="1.79497">
        <ele>279</ele>
        <time>2019-08-05T09:25:29.297Z</time>
      </trkpt>
      <trkpt lat="44.57384" lon="1.79506">
        <ele>279</ele>
        <time>2019-08-05T09:25:34.309Z</time>
      </trkpt>
      <trkpt lat="44.57382" lon="1.79513">
        <ele>279</ele>
        <time>2019-08-05T09:25:39.305Z</time>
      </trkpt>
      <trkpt lat="44.5738" lon="1.79516">
        <ele>281</ele>
        <time>2019-08-05T09:25:44.298Z</time>
      </trkpt>
      <trkpt lat="44.57378" lon="1.79524">
        <ele>281</ele>
        <time>2019-08-05T09:25:49.304Z</time>
      </trkpt>
      <trkpt lat="44.57376" lon="1.79536">
        <ele>281</ele>
        <time>2019-08-05T09:25:54.304Z</time>
      </trkpt>
      <trkpt lat="44.57374" lon="1.79543">
        <ele>280</ele>
        <time>2019-08-05T09:25:59.312Z</time>
      </trkpt>
      <trkpt lat="44.57373" lon="1.79554">
        <ele>280</ele>
        <time>2019-08-05T09:26:04.314Z</time>
      </trkpt>
      <trkpt lat="44.57374" lon="1.79569">
        <ele>280</ele>
        <time>2019-08-05T09:26:09.293Z</time>
      </trkpt>
      <trkpt lat="44.57373" lon="1.79579">
        <ele>282</ele>
        <time>2019-08-05T09:26:14.292Z</time>
      </trkpt>
      <trkpt lat="44.57376" lon="1.79587">
        <ele>287</ele>
        <time>2019-08-05T09:26:18.306Z</time>
      </trkpt>
      <trkpt lat="44.57377" lon="1.79595">
        <ele>287</ele>
        <time>2019-08-05T09:26:23.298Z</time>
      </trkpt>
      <trkpt lat="44.57375" lon="1.79603">
        <ele>287</ele>
        <time>2019-08-05T09:26:28.287Z</time>
      </trkpt>
      <trkpt lat="44.57372" lon="1.79612">
        <ele>283</ele>
        <time>2019-08-05T09:26:33.306Z</time>
      </trkpt>
      <trkpt lat="44.57372" lon="1.79612">
        <ele>283</ele>
        <time>2019-08-05T09:26:38.308Z</time>
      </trkpt>
      <trkpt lat="44.57372" lon="1.79623">
        <ele>283</ele>
        <time>2019-08-05T09:26:43.316Z</time>
      </trkpt>
      <trkpt lat="44.57372" lon="1.79634">
        <ele>282</ele>
        <time>2019-08-05T09:26:48.302Z</time>
      </trkpt>
      <trkpt lat="44.5737" lon="1.79639">
        <ele>282</ele>
        <time>2019-08-05T09:26:52.313Z</time>
      </trkpt>
      <trkpt lat="44.5737" lon="1.79645">
        <ele>282</ele>
        <time>2019-08-05T09:26:57.311Z</time>
      </trkpt>
      <trkpt lat="44.57371" lon="1.79649">
        <ele>282</ele>
        <time>2019-08-05T09:27:02.300Z</time>
      </trkpt>
      <trkpt lat="44.57372" lon="1.79658">
        <ele>281</ele>
        <time>2019-08-05T09:27:07.304Z</time>
      </trkpt>
      <trkpt lat="44.57373" lon="1.79667">
        <ele>281</ele>
        <time>2019-08-05T09:27:12.305Z</time>
      </trkpt>
      <trkpt lat="44.57375" lon="1.79677">
        <ele>284</ele>
        <time>2019-08-05T09:27:17.299Z</time>
      </trkpt>
      <trkpt lat="44.57377" lon="1.79687">
        <ele>284</ele>
        <time>2019-08-05T09:27:21.324Z</time>
      </trkpt>
      <trkpt lat="44.57378" lon="1.79698">
        <ele>284</ele>
        <time>2019-08-05T09:27:26.273Z</time>
      </trkpt>
      <trkpt lat="44.5738" lon="1.79707">
        <ele>284</ele>
        <time>2019-08-05T09:27:31.290Z</time>
      </trkpt>
      <trkpt lat="44.5738" lon="1.79716">
        <ele>285</ele>
        <time>2019-08-05T09:27:35.302Z</time>
      </trkpt>
      <trkpt lat="44.57382" lon="1.79724">
        <ele>285</ele>
        <time>2019-08-05T09:27:40.284Z</time>
      </trkpt>
      <trkpt lat="44.57385" lon="1.79732">
        <ele>285</ele>
        <time>2019-08-05T09:27:44.307Z</time>
      </trkpt>
      <trkpt lat="44.57388" lon="1.79742">
        <ele>285</ele>
        <time>2019-08-05T09:27:49.310Z</time>
      </trkpt>
      <trkpt lat="44.57391" lon="1.79749">
        <ele>285</ele>
        <time>2019-08-05T09:27:54.301Z</time>
      </trkpt>
      <trkpt lat="44.57393" lon="1.79757">
        <ele>285</ele>
        <time>2019-08-05T09:27:59.313Z</time>
      </trkpt>
      <trkpt lat="44.57394" lon="1.79765">
        <ele>283</ele>
        <time>2019-08-05T09:28:04.307Z</time>
      </trkpt>
      <trkpt lat="44.57397" lon="1.79774">
        <ele>283</ele>
        <time>2019-08-05T09:28:09.306Z</time>
      </trkpt>
      <trkpt lat="44.57401" lon="1.79781">
        <ele>283</ele>
        <time>2019-08-05T09:28:14.295Z</time>
      </trkpt>
      <trkpt lat="44.57404" lon="1.79787">
        <ele>288</ele>
        <time>2019-08-05T09:28:19.306Z</time>
      </trkpt>
      <trkpt lat="44.57407" lon="1.79797">
        <ele>288</ele>
        <time>2019-08-05T09:28:24.286Z</time>
      </trkpt>
      <trkpt lat="44.57409" lon="1.79805">
        <ele>288</ele>
        <time>2019-08-05T09:28:29.306Z</time>
      </trkpt>
      <trkpt lat="44.57411" lon="1.79813">
        <ele>288</ele>
        <time>2019-08-05T09:28:34.289Z</time>
      </trkpt>
      <trkpt lat="44.57412" lon="1.7982">
        <ele>287</ele>
        <time>2019-08-05T09:28:38.299Z</time>
      </trkpt>
      <trkpt lat="44.57416" lon="1.79825">
        <ele>287</ele>
        <time>2019-08-05T09:28:43.298Z</time>
      </trkpt>
      <trkpt lat="44.57416" lon="1.79831">
        <ele>287</ele>
        <time>2019-08-05T09:28:48.307Z</time>
      </trkpt>
      <trkpt lat="44.57417" lon="1.79841">
        <ele>287</ele>
        <time>2019-08-05T09:28:53.306Z</time>
      </trkpt>
      <trkpt lat="44.5742" lon="1.79851">
        <ele>285</ele>
        <time>2019-08-05T09:28:58.292Z</time>
      </trkpt>
      <trkpt lat="44.57422" lon="1.79858">
        <ele>285</ele>
        <time>2019-08-05T09:29:03.312Z</time>
      </trkpt>
      <trkpt lat="44.57421" lon="1.7986">
        <ele>285</ele>
        <time>2019-08-05T09:29:08.301Z</time>
      </trkpt>
      <trkpt lat="44.57423" lon="1.79864">
        <ele>285</ele>
        <time>2019-08-05T09:29:13.304Z</time>
      </trkpt>
      <trkpt lat="44.57425" lon="1.7987">
        <ele>285</ele>
        <time>2019-08-05T09:29:18.288Z</time>
      </trkpt>
      <trkpt lat="44.57425" lon="1.7988">
        <ele>286</ele>
        <time>2019-08-05T09:29:23.293Z</time>
      </trkpt>
      <trkpt lat="44.57426" lon="1.79889">
        <ele>286</ele>
        <time>2019-08-05T09:29:28.273Z</time>
      </trkpt>
      <trkpt lat="44.57426" lon="1.79893">
        <ele>286</ele>
        <time>2019-08-05T09:29:32.288Z</time>
      </trkpt>
      <trkpt lat="44.57426" lon="1.79902">
        <ele>286</ele>
        <time>2019-08-05T09:29:37.301Z</time>
      </trkpt>
      <trkpt lat="44.57428" lon="1.79911">
        <ele>288</ele>
        <time>2019-08-05T09:29:42.301Z</time>
      </trkpt>
      <trkpt lat="44.57431" lon="1.7992">
        <ele>291</ele>
        <time>2019-08-05T09:29:47.313Z</time>
      </trkpt>
      <trkpt lat="44.57432" lon="1.79934">
        <ele>291</ele>
        <time>2019-08-05T09:29:52.305Z</time>
      </trkpt>
      <trkpt lat="44.57437" lon="1.7994">
        <ele>291</ele>
        <time>2019-08-05T09:29:57.304Z</time>
      </trkpt>
      <trkpt lat="44.5744" lon="1.79948">
        <ele>291</ele>
        <time>2019-08-05T09:30:02.293Z</time>
      </trkpt>
      <trkpt lat="44.57443" lon="1.79956">
        <ele>291</ele>
        <time>2019-08-05T09:30:06.304Z</time>
      </trkpt>
      <trkpt lat="44.57448" lon="1.79964">
        <ele>291</ele>
        <time>2019-08-05T09:30:11.301Z</time>
      </trkpt>
      <trkpt lat="44.5745" lon="1.7997">
        <ele>291</ele>
        <time>2019-08-05T09:30:16.296Z</time>
      </trkpt>
      <trkpt lat="44.57453" lon="1.79976">
        <ele>291</ele>
        <time>2019-08-05T09:30:21.317Z</time>
      </trkpt>
      <trkpt lat="44.57455" lon="1.7998">
        <ele>291</ele>
        <time>2019-08-05T09:30:26.296Z</time>
      </trkpt>
      <trkpt lat="44.57457" lon="1.79983">
        <ele>291</ele>
        <time>2019-08-05T09:30:30.311Z</time>
      </trkpt>
      <trkpt lat="44.57462" lon="1.79988">
        <ele>293</ele>
        <time>2019-08-05T09:30:35.298Z</time>
      </trkpt>
      <trkpt lat="44.57467" lon="1.79995">
        <ele>293</ele>
        <time>2019-08-05T09:30:40.313Z</time>
      </trkpt>
      <trkpt lat="44.57471" lon="1.79999">
        <ele>293</ele>
        <time>2019-08-05T09:30:45.309Z</time>
      </trkpt>
      <trkpt lat="44.57473" lon="1.80002">
        <ele>293</ele>
        <time>2019-08-05T09:30:50.286Z</time>
      </trkpt>
      <trkpt lat="44.57476" lon="1.80005">
        <ele>293</ele>
        <time>2019-08-05T09:30:55.305Z</time>
      </trkpt>
      <trkpt lat="44.57481" lon="1.80012">
        <ele>293</ele>
        <time>2019-08-05T09:31:00.293Z</time>
      </trkpt>
      <trkpt lat="44.57484" lon="1.80022">
        <ele>294</ele>
        <time>2019-08-05T09:31:05.303Z</time>
      </trkpt>
      <trkpt lat="44.57488" lon="1.80028">
        <ele>294</ele>
        <time>2019-08-05T09:31:10.298Z</time>
      </trkpt>
      <trkpt lat="44.57493" lon="1.80037">
        <ele>294</ele>
        <time>2019-08-05T09:31:15.299Z</time>
      </trkpt>
      <trkpt lat="44.57496" lon="1.80047">
        <ele>295</ele>
        <time>2019-08-05T09:31:20.278Z</time>
      </trkpt>
      <trkpt lat="44.57498" lon="1.80054">
        <ele>295</ele>
        <time>2019-08-05T09:31:24.294Z</time>
      </trkpt>
      <trkpt lat="44.57502" lon="1.8006">
        <ele>295</ele>
        <time>2019-08-05T09:31:29.304Z</time>
      </trkpt>
      <trkpt lat="44.57505" lon="1.8007">
        <ele>295</ele>
        <time>2019-08-05T09:31:34.296Z</time>
      </trkpt>
      <trkpt lat="44.57508" lon="1.80078">
        <ele>295</ele>
        <time>2019-08-05T09:31:39.277Z</time>
      </trkpt>
      <trkpt lat="44.57512" lon="1.80085">
        <ele>295</ele>
        <time>2019-08-05T09:31:43.307Z</time>
      </trkpt>
      <trkpt lat="44.57516" lon="1.80092">
        <ele>298</ele>
        <time>2019-08-05T09:31:48.295Z</time>
      </trkpt>
      <trkpt lat="44.57518" lon="1.80101">
        <ele>297</ele>
        <time>2019-08-05T09:31:52.306Z</time>
      </trkpt>
      <trkpt lat="44.5752" lon="1.80111">
        <ele>297</ele>
        <time>2019-08-05T09:31:57.297Z</time>
      </trkpt>
      <trkpt lat="44.57523" lon="1.80119">
        <ele>297</ele>
        <time>2019-08-05T09:32:02.284Z</time>
      </trkpt>
      <trkpt lat="44.57525" lon="1.80124">
        <ele>297</ele>
        <time>2019-08-05T09:32:06.299Z</time>
      </trkpt>
      <trkpt lat="44.57529" lon="1.8013">
        <ele>296</ele>
        <time>2019-08-05T09:32:11.305Z</time>
      </trkpt>
      <trkpt lat="44.57532" lon="1.80136">
        <ele>296</ele>
        <time>2019-08-05T09:32:16.304Z</time>
      </trkpt>
      <trkpt lat="44.57534" lon="1.80145">
        <ele>296</ele>
        <time>2019-08-05T09:32:21.319Z</time>
      </trkpt>
      <trkpt lat="44.57537" lon="1.80153">
        <ele>297</ele>
        <time>2019-08-05T09:32:26.300Z</time>
      </trkpt>
      <trkpt lat="44.57539" lon="1.80164">
        <ele>297</ele>
        <time>2019-08-05T09:32:31.300Z</time>
      </trkpt>
      <trkpt lat="44.57542" lon="1.80174">
        <ele>300</ele>
        <time>2019-08-05T09:32:36.279Z</time>
      </trkpt>
      <trkpt lat="44.57544" lon="1.80183">
        <ele>301</ele>
        <time>2019-08-05T09:32:40.298Z</time>
      </trkpt>
      <trkpt lat="44.57546" lon="1.8019">
        <ele>301</ele>
        <time>2019-08-05T09:32:45.308Z</time>
      </trkpt>
      <trkpt lat="44.57548" lon="1.80197">
        <ele>301</ele>
        <time>2019-08-05T09:32:50.293Z</time>
      </trkpt>
      <trkpt lat="44.57552" lon="1.80205">
        <ele>301</ele>
        <time>2019-08-05T09:32:55.301Z</time>
      </trkpt>
      <trkpt lat="44.57554" lon="1.80213">
        <ele>301</ele>
        <time>2019-08-05T09:32:59.333Z</time>
      </trkpt>
      <trkpt lat="44.57559" lon="1.80226">
        <ele>301</ele>
        <time>2019-08-05T09:33:04.304Z</time>
      </trkpt>
      <trkpt lat="44.57563" lon="1.80235">
        <ele>301</ele>
        <time>2019-08-05T09:33:09.299Z</time>
      </trkpt>
      <trkpt lat="44.57567" lon="1.80244">
        <ele>300</ele>
        <time>2019-08-05T09:33:14.293Z</time>
      </trkpt>
      <trkpt lat="44.57568" lon="1.80252">
        <ele>300</ele>
        <time>2019-08-05T09:33:18.297Z</time>
      </trkpt>
      <trkpt lat="44.57573" lon="1.80261">
        <ele>300</ele>
        <time>2019-08-05T09:33:23.307Z</time>
      </trkpt>
      <trkpt lat="44.57578" lon="1.80271">
        <ele>300</ele>
        <time>2019-08-05T09:33:28.297Z</time>
      </trkpt>
      <trkpt lat="44.5758" lon="1.80278">
        <ele>300</ele>
        <time>2019-08-05T09:33:33.302Z</time>
      </trkpt>
      <trkpt lat="44.57584" lon="1.80286">
        <ele>300</ele>
        <time>2019-08-05T09:33:38.282Z</time>
      </trkpt>
      <trkpt lat="44.57587" lon="1.80291">
        <ele>300</ele>
        <time>2019-08-05T09:33:42.294Z</time>
      </trkpt>
      <trkpt lat="44.57591" lon="1.80297">
        <ele>300</ele>
        <time>2019-08-05T09:33:47.304Z</time>
      </trkpt>
      <trkpt lat="44.57595" lon="1.80302">
        <ele>300</ele>
        <time>2019-08-05T09:33:52.281Z</time>
      </trkpt>
      <trkpt lat="44.57597" lon="1.80308">
        <ele>301</ele>
        <time>2019-08-05T09:33:56.296Z</time>
      </trkpt>
      <trkpt lat="44.576" lon="1.80316">
        <ele>301</ele>
        <time>2019-08-05T09:34:01.302Z</time>
      </trkpt>
      <trkpt lat="44.57601" lon="1.80326">
        <ele>302</ele>
        <time>2019-08-05T09:34:06.296Z</time>
      </trkpt>
      <trkpt lat="44.57603" lon="1.80334">
        <ele>302</ele>
        <time>2019-08-05T09:34:11.343Z</time>
      </trkpt>
      <trkpt lat="44.57607" lon="1.80341">
        <ele>302</ele>
        <time>2019-08-05T09:34:16.306Z</time>
      </trkpt>
      <trkpt lat="44.57611" lon="1.80347">
        <ele>302</ele>
        <time>2019-08-05T09:34:21.301Z</time>
      </trkpt>
      <trkpt lat="44.57614" lon="1.80355">
        <ele>304</ele>
        <time>2019-08-05T09:34:25.323Z</time>
      </trkpt>
      <trkpt lat="44.57615" lon="1.80365">
        <ele>304</ele>
        <time>2019-08-05T09:34:30.290Z</time>
      </trkpt>
      <trkpt lat="44.57618" lon="1.8037">
        <ele>304</ele>
        <time>2019-08-05T09:34:35.310Z</time>
      </trkpt>
      <trkpt lat="44.57622" lon="1.80378">
        <ele>307</ele>
        <time>2019-08-05T09:34:40.312Z</time>
      </trkpt>
      <trkpt lat="44.57627" lon="1.80386">
        <ele>306</ele>
        <time>2019-08-05T09:34:45.309Z</time>
      </trkpt>
      <trkpt lat="44.57629" lon="1.80393">
        <ele>306</ele>
        <time>2019-08-05T09:34:49.327Z</time>
      </trkpt>
      <trkpt lat="44.57631" lon="1.80399">
        <ele>306</ele>
        <time>2019-08-05T09:34:54.291Z</time>
      </trkpt>
      <trkpt lat="44.57635" lon="1.80409">
        <ele>307</ele>
        <time>2019-08-05T09:34:59.306Z</time>
      </trkpt>
      <trkpt lat="44.57637" lon="1.80416">
        <ele>307</ele>
        <time>2019-08-05T09:35:04.306Z</time>
      </trkpt>
      <trkpt lat="44.57636" lon="1.80423">
        <ele>307</ele>
        <time>2019-08-05T09:35:09.309Z</time>
      </trkpt>
      <trkpt lat="44.57638" lon="1.80432">
        <ele>308</ele>
        <time>2019-08-05T09:35:14.286Z</time>
      </trkpt>
      <trkpt lat="44.57639" lon="1.80438">
        <ele>308</ele>
        <time>2019-08-05T09:35:18.313Z</time>
      </trkpt>
      <trkpt lat="44.57642" lon="1.80445">
        <ele>308</ele>
        <time>2019-08-05T09:35:23.309Z</time>
      </trkpt>
      <trkpt lat="44.57645" lon="1.80455">
        <ele>308</ele>
        <time>2019-08-05T09:35:28.292Z</time>
      </trkpt>
      <trkpt lat="44.57649" lon="1.80463">
        <ele>309</ele>
        <time>2019-08-05T09:35:33.306Z</time>
      </trkpt>
      <trkpt lat="44.57655" lon="1.80472">
        <ele>308</ele>
        <time>2019-08-05T09:35:38.309Z</time>
      </trkpt>
      <trkpt lat="44.5766" lon="1.80479">
        <ele>308</ele>
        <time>2019-08-05T09:35:42.326Z</time>
      </trkpt>
      <trkpt lat="44.57664" lon="1.8049">
        <ele>309</ele>
        <time>2019-08-05T09:35:47.303Z</time>
      </trkpt>
      <trkpt lat="44.57669" lon="1.80501">
        <ele>309</ele>
        <time>2019-08-05T09:35:52.289Z</time>
      </trkpt>
      <trkpt lat="44.57675" lon="1.8051">
        <ele>309</ele>
        <time>2019-08-05T09:35:57.330Z</time>
      </trkpt>
      <trkpt lat="44.57678" lon="1.80515">
        <ele>309</ele>
        <time>2019-08-05T09:36:02.288Z</time>
      </trkpt>
      <trkpt lat="44.5768" lon="1.8052">
        <ele>309</ele>
        <time>2019-08-05T09:36:07.353Z</time>
      </trkpt>
      <trkpt lat="44.57683" lon="1.80526">
        <ele>309</ele>
        <time>2019-08-05T09:36:12.286Z</time>
      </trkpt>
      <trkpt lat="44.57687" lon="1.80535">
        <ele>309</ele>
        <time>2019-08-05T09:36:17.302Z</time>
      </trkpt>
      <trkpt lat="44.57688" lon="1.80546">
        <ele>308</ele>
        <time>2019-08-05T09:36:22.308Z</time>
      </trkpt>
      <trkpt lat="44.57691" lon="1.80551">
        <ele>308</ele>
        <time>2019-08-05T09:36:27.317Z</time>
      </trkpt>
      <trkpt lat="44.57693" lon="1.80556">
        <ele>308</ele>
        <time>2019-08-05T09:36:32.297Z</time>
      </trkpt>
      <trkpt lat="44.57696" lon="1.80561">
        <ele>308</ele>
        <time>2019-08-05T09:36:37.302Z</time>
      </trkpt>
      <trkpt lat="44.577" lon="1.80571">
        <ele>308</ele>
        <time>2019-08-05T09:36:42.288Z</time>
      </trkpt>
      <trkpt lat="44.57702" lon="1.80581">
        <ele>308</ele>
        <time>2019-08-05T09:36:46.291Z</time>
      </trkpt>
      <trkpt lat="44.57703" lon="1.8059">
        <ele>308</ele>
        <time>2019-08-05T09:36:50.318Z</time>
      </trkpt>
      <trkpt lat="44.57704" lon="1.80599">
        <ele>308</ele>
        <time>2019-08-05T09:36:55.303Z</time>
      </trkpt>
      <trkpt lat="44.57706" lon="1.80608">
        <ele>308</ele>
        <time>2019-08-05T09:37:00.339Z</time>
      </trkpt>
      <trkpt lat="44.57707" lon="1.80613">
        <ele>308</ele>
        <time>2019-08-05T09:37:05.306Z</time>
      </trkpt>
      <trkpt lat="44.57709" lon="1.80617">
        <ele>306</ele>
        <time>2019-08-05T09:37:10.301Z</time>
      </trkpt>
      <trkpt lat="44.57712" lon="1.8062">
        <ele>306</ele>
        <time>2019-08-05T09:37:14.319Z</time>
      </trkpt>
      <trkpt lat="44.57715" lon="1.80625">
        <ele>306</ele>
        <time>2019-08-05T09:37:19.310Z</time>
      </trkpt>
      <trkpt lat="44.57721" lon="1.80631">
        <ele>306</ele>
        <time>2019-08-05T09:37:24.299Z</time>
      </trkpt>
      <trkpt lat="44.57724" lon="1.80635">
        <ele>306</ele>
        <time>2019-08-05T09:37:28.319Z</time>
      </trkpt>
      <trkpt lat="44.57728" lon="1.80643">
        <ele>306</ele>
        <time>2019-08-05T09:37:33.309Z</time>
      </trkpt>
      <trkpt lat="44.57734" lon="1.80649">
        <ele>306</ele>
        <time>2019-08-05T09:37:38.301Z</time>
      </trkpt>
      <trkpt lat="44.57739" lon="1.80659">
        <ele>304</ele>
        <time>2019-08-05T09:37:43.325Z</time>
      </trkpt>
      <trkpt lat="44.57746" lon="1.80668">
        <ele>304</ele>
        <time>2019-08-05T09:37:48.300Z</time>
      </trkpt>
      <trkpt lat="44.57751" lon="1.80676">
        <ele>304</ele>
        <time>2019-08-05T09:37:53.312Z</time>
      </trkpt>
      <trkpt lat="44.5776" lon="1.80685">
        <ele>304</ele>
        <time>2019-08-05T09:37:58.304Z</time>
      </trkpt>
      <trkpt lat="44.57765" lon="1.80693">
        <ele>303</ele>
        <time>2019-08-05T09:38:03.314Z</time>
      </trkpt>
      <trkpt lat="44.5777" lon="1.807">
        <ele>303</ele>
        <time>2019-08-05T09:38:08.302Z</time>
      </trkpt>
      <trkpt lat="44.57774" lon="1.80706">
        <ele>303</ele>
        <time>2019-08-05T09:38:12.321Z</time>
      </trkpt>
      <trkpt lat="44.57778" lon="1.80716">
        <ele>304</ele>
        <time>2019-08-05T09:38:17.300Z</time>
      </trkpt>
      <trkpt lat="44.57783" lon="1.80724">
        <ele>304</ele>
        <time>2019-08-05T09:38:22.293Z</time>
      </trkpt>
      <trkpt lat="44.57786" lon="1.80733">
        <ele>304</ele>
        <time>2019-08-05T09:38:27.313Z</time>
      </trkpt>
      <trkpt lat="44.57791" lon="1.80737">
        <ele>303</ele>
        <time>2019-08-05T09:38:32.311Z</time>
      </trkpt>
      <trkpt lat="44.57796" lon="1.80745">
        <ele>304</ele>
        <time>2019-08-05T09:38:37.318Z</time>
      </trkpt>
      <trkpt lat="44.57804" lon="1.80762">
        <ele>304</ele>
        <time>2019-08-05T09:39:46.289Z</time>
      </trkpt>
      <trkpt lat="44.57804" lon="1.80762">
        <ele>304</ele>
        <time>2019-08-05T09:39:50.293Z</time>
      </trkpt>
      <trkpt lat="44.57805" lon="1.80763">
        <ele>304</ele>
        <time>2019-08-05T09:39:55.309Z</time>
      </trkpt>
      <trkpt lat="44.57805" lon="1.80764">
        <ele>304</ele>
        <time>2019-08-05T09:40:00.286Z</time>
      </trkpt>
      <trkpt lat="44.57805" lon="1.80764">
        <ele>304</ele>
        <time>2019-08-05T09:40:04.291Z</time>
      </trkpt>
      <trkpt lat="44.57806" lon="1.80771">
        <ele>304</ele>
        <time>2019-08-05T09:40:09.304Z</time>
      </trkpt>
      <trkpt lat="44.57809" lon="1.8078">
        <ele>304</ele>
        <time>2019-08-05T09:40:13.320Z</time>
      </trkpt>
      <trkpt lat="44.5781" lon="1.80791">
        <ele>304</ele>
        <time>2019-08-05T09:40:18.318Z</time>
      </trkpt>
      <trkpt lat="44.57812" lon="1.808">
        <ele>303</ele>
        <time>2019-08-05T09:40:22.345Z</time>
      </trkpt>
      <trkpt lat="44.57815" lon="1.80804">
        <ele>303</ele>
        <time>2019-08-05T09:40:27.310Z</time>
      </trkpt>
      <trkpt lat="44.57819" lon="1.80809">
        <ele>303</ele>
        <time>2019-08-05T09:40:31.324Z</time>
      </trkpt>
      <trkpt lat="44.57825" lon="1.80819">
        <ele>304</ele>
        <time>2019-08-05T09:40:36.304Z</time>
      </trkpt>
      <trkpt lat="44.57836" lon="1.80834">
        <ele>302</ele>
        <time>2019-08-05T09:40:41.307Z</time>
      </trkpt>
      <trkpt lat="44.57844" lon="1.80843">
        <ele>302</ele>
        <time>2019-08-05T09:40:45.317Z</time>
      </trkpt>
      <trkpt lat="44.5785" lon="1.80851">
        <ele>303</ele>
        <time>2019-08-05T09:40:50.311Z</time>
      </trkpt>
      <trkpt lat="44.57854" lon="1.80856">
        <ele>303</ele>
        <time>2019-08-05T09:40:55.300Z</time>
      </trkpt>
      <trkpt lat="44.57857" lon="1.8086">
        <ele>303</ele>
        <time>2019-08-05T09:40:59.339Z</time>
      </trkpt>
      <trkpt lat="44.57861" lon="1.80866">
        <ele>303</ele>
        <time>2019-08-05T09:41:04.314Z</time>
      </trkpt>
      <trkpt lat="44.57866" lon="1.80872">
        <ele>303</ele>
        <time>2019-08-05T09:41:09.311Z</time>
      </trkpt>
      <trkpt lat="44.57874" lon="1.80871">
        <ele>303</ele>
        <time>2019-08-05T09:41:14.310Z</time>
      </trkpt>
      <trkpt lat="44.57882" lon="1.80878">
        <ele>304</ele>
        <time>2019-08-05T09:41:19.317Z</time>
      </trkpt>
      <trkpt lat="44.57886" lon="1.80884">
        <ele>304</ele>
        <time>2019-08-05T09:41:24.326Z</time>
      </trkpt>
      <trkpt lat="44.57893" lon="1.8089">
        <ele>304</ele>
        <time>2019-08-05T09:41:29.318Z</time>
      </trkpt>
      <trkpt lat="44.57899" lon="1.80895">
        <ele>304</ele>
        <time>2019-08-05T09:41:34.325Z</time>
      </trkpt>
      <trkpt lat="44.57907" lon="1.80898">
        <ele>304</ele>
        <time>2019-08-05T09:41:38.335Z</time>
      </trkpt>
      <trkpt lat="44.57915" lon="1.80902">
        <ele>304</ele>
        <time>2019-08-05T09:41:43.306Z</time>
      </trkpt>
      <trkpt lat="44.57919" lon="1.80907">
        <ele>306</ele>
        <time>2019-08-05T09:41:48.332Z</time>
      </trkpt>
      <trkpt lat="44.57924" lon="1.80912">
        <ele>306</ele>
        <time>2019-08-05T09:41:53.319Z</time>
      </trkpt>
      <trkpt lat="44.57929" lon="1.80916">
        <ele>306</ele>
        <time>2019-08-05T09:41:58.325Z</time>
      </trkpt>
      <trkpt lat="44.57935" lon="1.80919">
        <ele>307</ele>
        <time>2019-08-05T09:42:03.326Z</time>
      </trkpt>
      <trkpt lat="44.57943" lon="1.80922">
        <ele>307</ele>
        <time>2019-08-05T09:42:08.309Z</time>
      </trkpt>
      <trkpt lat="44.57951" lon="1.80927">
        <ele>307</ele>
        <time>2019-08-05T09:42:13.306Z</time>
      </trkpt>
      <trkpt lat="44.57957" lon="1.80931">
        <ele>309</ele>
        <time>2019-08-05T09:42:17.324Z</time>
      </trkpt>
      <trkpt lat="44.57964" lon="1.80936">
        <ele>309</ele>
        <time>2019-08-05T09:42:22.324Z</time>
      </trkpt>
      <trkpt lat="44.57967" lon="1.80939">
        <ele>309</ele>
        <time>2019-08-05T09:42:27.316Z</time>
      </trkpt>
      <trkpt lat="44.57967" lon="1.80939">
        <ele>309</ele>
        <time>2019-08-05T09:42:32.330Z</time>
      </trkpt>
      <trkpt lat="44.57969" lon="1.80942">
        <ele>309</ele>
        <time>2019-08-05T09:42:37.309Z</time>
      </trkpt>
      <trkpt lat="44.57975" lon="1.80947">
        <ele>309</ele>
        <time>2019-08-05T09:42:42.309Z</time>
      </trkpt>
      <trkpt lat="44.5798" lon="1.80956">
        <ele>309</ele>
        <time>2019-08-05T09:42:47.310Z</time>
      </trkpt>
      <trkpt lat="44.57985" lon="1.80963">
        <ele>310</ele>
        <time>2019-08-05T09:42:52.320Z</time>
      </trkpt>
      <trkpt lat="44.57991" lon="1.80971">
        <ele>310</ele>
        <time>2019-08-05T09:42:57.306Z</time>
      </trkpt>
      <trkpt lat="44.57996" lon="1.80979">
        <ele>310</ele>
        <time>2019-08-05T09:43:02.313Z</time>
      </trkpt>
      <trkpt lat="44.58" lon="1.80986">
        <ele>310</ele>
        <time>2019-08-05T09:43:07.306Z</time>
      </trkpt>
      <trkpt lat="44.58004" lon="1.80994">
        <ele>311</ele>
        <time>2019-08-05T09:43:12.320Z</time>
      </trkpt>
      <trkpt lat="44.58009" lon="1.81">
        <ele>311</ele>
        <time>2019-08-05T09:43:17.315Z</time>
      </trkpt>
      <trkpt lat="44.58013" lon="1.81006">
        <ele>311</ele>
        <time>2019-08-05T09:43:22.312Z</time>
      </trkpt>
      <trkpt lat="44.58018" lon="1.81018">
        <ele>315</ele>
        <time>2019-08-05T09:43:27.306Z</time>
      </trkpt>
      <trkpt lat="44.58027" lon="1.8103">
        <ele>315</ele>
        <time>2019-08-05T09:43:32.308Z</time>
      </trkpt>
      <trkpt lat="44.58032" lon="1.81036">
        <ele>315</ele>
        <time>2019-08-05T09:43:37.306Z</time>
      </trkpt>
      <trkpt lat="44.58037" lon="1.8104">
        <ele>315</ele>
        <time>2019-08-05T09:43:42.296Z</time>
      </trkpt>
      <trkpt lat="44.58042" lon="1.81045">
        <ele>317</ele>
        <time>2019-08-05T09:43:47.288Z</time>
      </trkpt>
      <trkpt lat="44.58046" lon="1.81049">
        <ele>317</ele>
        <time>2019-08-05T09:43:51.314Z</time>
      </trkpt>
      <trkpt lat="44.58051" lon="1.81057">
        <ele>317</ele>
        <time>2019-08-05T09:43:56.329Z</time>
      </trkpt>
      <trkpt lat="44.58055" lon="1.81064">
        <ele>317</ele>
        <time>2019-08-05T09:44:01.311Z</time>
      </trkpt>
      <trkpt lat="44.5806" lon="1.81069">
        <ele>317</ele>
        <time>2019-08-05T09:44:06.331Z</time>
      </trkpt>
      <trkpt lat="44.58066" lon="1.81074">
        <ele>319</ele>
        <time>2019-08-05T09:44:11.310Z</time>
      </trkpt>
      <trkpt lat="44.5807" lon="1.8108">
        <ele>321</ele>
        <time>2019-08-05T09:44:16.329Z</time>
      </trkpt>
      <trkpt lat="44.58075" lon="1.81086">
        <ele>321</ele>
        <time>2019-08-05T09:44:21.314Z</time>
      </trkpt>
      <trkpt lat="44.58079" lon="1.81093">
        <ele>321</ele>
        <time>2019-08-05T09:44:26.325Z</time>
      </trkpt>
      <trkpt lat="44.5808" lon="1.81097">
        <ele>321</ele>
        <time>2019-08-05T09:44:31.303Z</time>
      </trkpt>
      <trkpt lat="44.58084" lon="1.81102">
        <ele>322</ele>
        <time>2019-08-05T09:44:36.321Z</time>
      </trkpt>
      <trkpt lat="44.58089" lon="1.81109">
        <ele>322</ele>
        <time>2019-08-05T09:44:41.307Z</time>
      </trkpt>
      <trkpt lat="44.58094" lon="1.81116">
        <ele>322</ele>
        <time>2019-08-05T09:44:46.340Z</time>
      </trkpt>
      <trkpt lat="44.58096" lon="1.81123">
        <ele>322</ele>
        <time>2019-08-05T09:44:51.316Z</time>
      </trkpt>
      <trkpt lat="44.581" lon="1.81133">
        <ele>326</ele>
        <time>2019-08-05T09:44:56.316Z</time>
      </trkpt>
      <trkpt lat="44.58105" lon="1.81139">
        <ele>326</ele>
        <time>2019-08-05T09:45:01.308Z</time>
      </trkpt>
      <trkpt lat="44.58109" lon="1.81148">
        <ele>326</ele>
        <time>2019-08-05T09:45:06.331Z</time>
      </trkpt>
      <trkpt lat="44.58115" lon="1.81155">
        <ele>327</ele>
        <time>2019-08-05T09:45:11.313Z</time>
      </trkpt>
      <trkpt lat="44.58119" lon="1.81161">
        <ele>327</ele>
        <time>2019-08-05T09:45:16.335Z</time>
      </trkpt>
      <trkpt lat="44.58124" lon="1.81167">
        <ele>327</ele>
        <time>2019-08-05T09:45:21.315Z</time>
      </trkpt>
      <trkpt lat="44.58127" lon="1.81174">
        <ele>330</ele>
        <time>2019-08-05T09:45:26.322Z</time>
      </trkpt>
      <trkpt lat="44.5813" lon="1.81182">
        <ele>331</ele>
        <time>2019-08-05T09:45:31.302Z</time>
      </trkpt>
      <trkpt lat="44.58133" lon="1.81188">
        <ele>331</ele>
        <time>2019-08-05T09:45:36.319Z</time>
      </trkpt>
      <trkpt lat="44.58134" lon="1.81195">
        <ele>331</ele>
        <time>2019-08-05T09:45:41.302Z</time>
      </trkpt>
      <trkpt lat="44.58136" lon="1.812">
        <ele>331</ele>
        <time>2019-08-05T09:45:45.339Z</time>
      </trkpt>
      <trkpt lat="44.5814" lon="1.81201">
        <ele>331</ele>
        <time>2019-08-05T09:45:50.354Z</time>
      </trkpt>
      <trkpt lat="44.58144" lon="1.81208">
        <ele>331</ele>
        <time>2019-08-05T09:45:55.306Z</time>
      </trkpt>
      <trkpt lat="44.5815" lon="1.81213">
        <ele>329</ele>
        <time>2019-08-05T09:46:00.326Z</time>
      </trkpt>
      <trkpt lat="44.58156" lon="1.81221">
        <ele>332</ele>
        <time>2019-08-05T09:46:05.305Z</time>
      </trkpt>
      <trkpt lat="44.5816" lon="1.81226">
        <ele>332</ele>
        <time>2019-08-05T09:46:09.333Z</time>
      </trkpt>
      <trkpt lat="44.58164" lon="1.81233">
        <ele>332</ele>
        <time>2019-08-05T09:46:14.316Z</time>
      </trkpt>
      <trkpt lat="44.58167" lon="1.81238">
        <ele>329</ele>
        <time>2019-08-05T09:46:18.294Z</time>
      </trkpt>
      <trkpt lat="44.58171" lon="1.81245">
        <ele>329</ele>
        <time>2019-08-05T09:46:23.283Z</time>
      </trkpt>
      <trkpt lat="44.58175" lon="1.81253">
        <ele>329</ele>
        <time>2019-08-05T09:46:28.303Z</time>
      </trkpt>
      <trkpt lat="44.58179" lon="1.81259">
        <ele>329</ele>
        <time>2019-08-05T09:46:33.309Z</time>
      </trkpt>
      <trkpt lat="44.58183" lon="1.81265">
        <ele>330</ele>
        <time>2019-08-05T09:46:38.305Z</time>
      </trkpt>
      <trkpt lat="44.58186" lon="1.81272">
        <ele>330</ele>
        <time>2019-08-05T09:46:43.305Z</time>
      </trkpt>
      <trkpt lat="44.58189" lon="1.81279">
        <ele>330</ele>
        <time>2019-08-05T09:46:48.316Z</time>
      </trkpt>
      <trkpt lat="44.58199" lon="1.81287">
        <ele>330</ele>
        <time>2019-08-05T09:46:53.311Z</time>
      </trkpt>
      <trkpt lat="44.58204" lon="1.81295">
        <ele>325</ele>
        <time>2019-08-05T09:46:58.299Z</time>
      </trkpt>
      <trkpt lat="44.58207" lon="1.81301">
        <ele>325</ele>
        <time>2019-08-05T09:47:02.319Z</time>
      </trkpt>
      <trkpt lat="44.58213" lon="1.81307">
        <ele>328</ele>
        <time>2019-08-05T09:47:07.304Z</time>
      </trkpt>
      <trkpt lat="44.5822" lon="1.8131">
        <ele>328</ele>
        <time>2019-08-05T09:47:12.316Z</time>
      </trkpt>
      <trkpt lat="44.58226" lon="1.81314">
        <ele>328</ele>
        <time>2019-08-05T09:47:17.308Z</time>
      </trkpt>
      <trkpt lat="44.58233" lon="1.81319">
        <ele>328</ele>
        <time>2019-08-05T09:47:22.305Z</time>
      </trkpt>
      <trkpt lat="44.5824" lon="1.81325">
        <ele>325</ele>
        <time>2019-08-05T09:47:27.303Z</time>
      </trkpt>
      <trkpt lat="44.58242" lon="1.81329">
        <ele>325</ele>
        <time>2019-08-05T09:47:31.321Z</time>
      </trkpt>
      <trkpt lat="44.58245" lon="1.81335">
        <ele>325</ele>
        <time>2019-08-05T09:47:36.310Z</time>
      </trkpt>
      <trkpt lat="44.58249" lon="1.81342">
        <ele>325</ele>
        <time>2019-08-05T09:47:40.315Z</time>
      </trkpt>
      <trkpt lat="44.58253" lon="1.81348">
        <ele>321</ele>
        <time>2019-08-05T09:47:45.310Z</time>
      </trkpt>
      <trkpt lat="44.58256" lon="1.81351">
        <ele>321</ele>
        <time>2019-08-05T09:47:50.307Z</time>
      </trkpt>
      <trkpt lat="44.58263" lon="1.81355">
        <ele>321</ele>
        <time>2019-08-05T09:47:55.320Z</time>
      </trkpt>
      <trkpt lat="44.5827" lon="1.81359">
        <ele>323</ele>
        <time>2019-08-05T09:48:00.305Z</time>
      </trkpt>
      <trkpt lat="44.58275" lon="1.81366">
        <ele>323</ele>
        <time>2019-08-05T09:48:05.317Z</time>
      </trkpt>
      <trkpt lat="44.58278" lon="1.81371">
        <ele>323</ele>
        <time>2019-08-05T09:48:09.334Z</time>
      </trkpt>
      <trkpt lat="44.58283" lon="1.81379">
        <ele>320</ele>
        <time>2019-08-05T09:48:14.313Z</time>
      </trkpt>
      <trkpt lat="44.58289" lon="1.81386">
        <ele>320</ele>
        <time>2019-08-05T09:48:19.315Z</time>
      </trkpt>
      <trkpt lat="44.58289" lon="1.81389">
        <ele>320</ele>
        <time>2019-08-05T09:48:24.310Z</time>
      </trkpt>
      <trkpt lat="44.58291" lon="1.81392">
        <ele>320</ele>
        <time>2019-08-05T09:48:29.311Z</time>
      </trkpt>
      <trkpt lat="44.58298" lon="1.81399">
        <ele>323</ele>
        <time>2019-08-05T09:48:34.328Z</time>
      </trkpt>
      <trkpt lat="44.58303" lon="1.81408">
        <ele>320</ele>
        <time>2019-08-05T09:48:39.304Z</time>
      </trkpt>
      <trkpt lat="44.58309" lon="1.81417">
        <ele>320</ele>
        <time>2019-08-05T09:48:44.305Z</time>
      </trkpt>
      <trkpt lat="44.58315" lon="1.81426">
        <ele>320</ele>
        <time>2019-08-05T09:48:48.316Z</time>
      </trkpt>
      <trkpt lat="44.58323" lon="1.81433">
        <ele>321</ele>
        <time>2019-08-05T09:48:53.301Z</time>
      </trkpt>
      <trkpt lat="44.58328" lon="1.81441">
        <ele>321</ele>
        <time>2019-08-05T09:48:58.298Z</time>
      </trkpt>
      <trkpt lat="44.58329" lon="1.81448">
        <ele>321</ele>
        <time>2019-08-05T09:49:03.312Z</time>
      </trkpt>
      <trkpt lat="44.5833" lon="1.81456">
        <ele>321</ele>
        <time>2019-08-05T09:49:08.307Z</time>
      </trkpt>
      <trkpt lat="44.58334" lon="1.81463">
        <ele>320</ele>
        <time>2019-08-05T09:49:13.320Z</time>
      </trkpt>
      <trkpt lat="44.58339" lon="1.81467">
        <ele>320</ele>
        <time>2019-08-05T09:49:18.327Z</time>
      </trkpt>
      <trkpt lat="44.58345" lon="1.81473">
        <ele>320</ele>
        <time>2019-08-05T09:49:23.309Z</time>
      </trkpt>
      <trkpt lat="44.58351" lon="1.81478">
        <ele>324</ele>
        <time>2019-08-05T09:49:28.312Z</time>
      </trkpt>
      <trkpt lat="44.58355" lon="1.81488">
        <ele>323</ele>
        <time>2019-08-05T09:49:33.313Z</time>
      </trkpt>
      <trkpt lat="44.58358" lon="1.81499">
        <ele>323</ele>
        <time>2019-08-05T09:49:38.322Z</time>
      </trkpt>
      <trkpt lat="44.5836" lon="1.81507">
        <ele>323</ele>
        <time>2019-08-05T09:49:42.337Z</time>
      </trkpt>
      <trkpt lat="44.58372" lon="1.81534">
        <ele>323</ele>
        <time>2019-08-05T09:49:47.323Z</time>
      </trkpt>
      <trkpt lat="44.5839" lon="1.81574">
        <ele>326</ele>
        <time>2019-08-05T09:49:52.316Z</time>
      </trkpt>
      <trkpt lat="44.58408" lon="1.81617">
        <ele>329</ele>
        <time>2019-08-05T09:49:57.309Z</time>
      </trkpt>
      <trkpt lat="44.5842" lon="1.8164">
        <ele>330</ele>
        <time>2019-08-05T09:50:01.342Z</time>
      </trkpt>
      <trkpt lat="44.58429" lon="1.81651">
        <ele>330</ele>
        <time>2019-08-05T09:50:06.312Z</time>
      </trkpt>
      <trkpt lat="44.58435" lon="1.81658">
        <ele>329</ele>
        <time>2019-08-05T09:50:11.301Z</time>
      </trkpt>
      <trkpt lat="44.58442" lon="1.81666">
        <ele>329</ele>
        <time>2019-08-05T09:50:16.313Z</time>
      </trkpt>
      <trkpt lat="44.58447" lon="1.81674">
        <ele>329</ele>
        <time>2019-08-05T09:50:21.311Z</time>
      </trkpt>
      <trkpt lat="44.58453" lon="1.81684">
        <ele>329</ele>
        <time>2019-08-05T09:50:26.318Z</time>
      </trkpt>
      <trkpt lat="44.58458" lon="1.81692">
        <ele>329</ele>
        <time>2019-08-05T09:50:31.300Z</time>
      </trkpt>
      <trkpt lat="44.58461" lon="1.817">
        <ele>329</ele>
        <time>2019-08-05T09:50:35.319Z</time>
      </trkpt>
      <trkpt lat="44.58463" lon="1.81713">
        <ele>330</ele>
        <time>2019-08-05T09:50:40.337Z</time>
      </trkpt>
      <trkpt lat="44.58466" lon="1.81723">
        <ele>330</ele>
        <time>2019-08-05T09:50:45.336Z</time>
      </trkpt>
      <trkpt lat="44.58469" lon="1.81732">
        <ele>330</ele>
        <time>2019-08-05T09:50:50.332Z</time>
      </trkpt>
      <trkpt lat="44.58472" lon="1.81742">
        <ele>332</ele>
        <time>2019-08-05T09:50:55.325Z</time>
      </trkpt>
      <trkpt lat="44.58475" lon="1.81751">
        <ele>332</ele>
        <time>2019-08-05T09:51:00.312Z</time>
      </trkpt>
      <trkpt lat="44.58477" lon="1.81759">
        <ele>332</ele>
        <time>2019-08-05T09:51:05.316Z</time>
      </trkpt>
      <trkpt lat="44.58479" lon="1.81765">
        <ele>334</ele>
        <time>2019-08-05T09:51:09.329Z</time>
      </trkpt>
      <trkpt lat="44.58482" lon="1.81773">
        <ele>334</ele>
        <time>2019-08-05T09:51:14.325Z</time>
      </trkpt>
      <trkpt lat="44.58486" lon="1.81781">
        <ele>333</ele>
        <time>2019-08-05T09:51:19.316Z</time>
      </trkpt>
      <trkpt lat="44.5849" lon="1.81791">
        <ele>333</ele>
        <time>2019-08-05T09:51:24.333Z</time>
      </trkpt>
      <trkpt lat="44.58494" lon="1.81799">
        <ele>335</ele>
        <time>2019-08-05T09:51:29.309Z</time>
      </trkpt>
      <trkpt lat="44.58499" lon="1.81806">
        <ele>335</ele>
        <time>2019-08-05T09:51:34.326Z</time>
      </trkpt>
      <trkpt lat="44.58504" lon="1.81814">
        <ele>335</ele>
        <time>2019-08-05T09:51:39.294Z</time>
      </trkpt>
      <trkpt lat="44.58508" lon="1.81819">
        <ele>335</ele>
        <time>2019-08-05T09:51:43.306Z</time>
      </trkpt>
      <trkpt lat="44.58513" lon="1.81826">
        <ele>336</ele>
        <time>2019-08-05T09:51:48.318Z</time>
      </trkpt>
      <trkpt lat="44.58517" lon="1.81833">
        <ele>334</ele>
        <time>2019-08-05T09:51:53.311Z</time>
      </trkpt>
      <trkpt lat="44.58522" lon="1.81842">
        <ele>334</ele>
        <time>2019-08-05T09:51:58.303Z</time>
      </trkpt>
      <trkpt lat="44.58525" lon="1.81848">
        <ele>336</ele>
        <time>2019-08-05T09:52:03.310Z</time>
      </trkpt>
      <trkpt lat="44.58528" lon="1.81857">
        <ele>336</ele>
        <time>2019-08-05T09:52:08.310Z</time>
      </trkpt>
      <trkpt lat="44.58529" lon="1.81865">
        <ele>336</ele>
        <time>2019-08-05T09:52:12.321Z</time>
      </trkpt>
      <trkpt lat="44.58531" lon="1.81874">
        <ele>336</ele>
        <time>2019-08-05T09:52:17.295Z</time>
      </trkpt>
      <trkpt lat="44.58536" lon="1.81883">
        <ele>337</ele>
        <time>2019-08-05T09:52:22.314Z</time>
      </trkpt>
      <trkpt lat="44.58541" lon="1.81892">
        <ele>337</ele>
        <time>2019-08-05T09:52:27.301Z</time>
      </trkpt>
      <trkpt lat="44.58546" lon="1.819">
        <ele>337</ele>
        <time>2019-08-05T09:52:32.311Z</time>
      </trkpt>
      <trkpt lat="44.58557" lon="1.81915">
        <ele>339</ele>
        <time>2019-08-05T09:52:37.304Z</time>
      </trkpt>
      <trkpt lat="44.58568" lon="1.81938">
        <ele>340</ele>
        <time>2019-08-05T09:52:42.320Z</time>
      </trkpt>
      <trkpt lat="44.58576" lon="1.81965">
        <ele>340</ele>
        <time>2019-08-05T09:52:47.305Z</time>
      </trkpt>
      <trkpt lat="44.5858" lon="1.8199">
        <ele>341</ele>
        <time>2019-08-05T09:52:52.314Z</time>
      </trkpt>
      <trkpt lat="44.58583" lon="1.82001">
        <ele>341</ele>
        <time>2019-08-05T09:52:57.303Z</time>
      </trkpt>
      <trkpt lat="44.58588" lon="1.82008">
        <ele>341</ele>
        <time>2019-08-05T09:53:02.308Z</time>
      </trkpt>
      <trkpt lat="44.58594" lon="1.82018">
        <ele>342</ele>
        <time>2019-08-05T09:53:07.307Z</time>
      </trkpt>
      <trkpt lat="44.58598" lon="1.82029">
        <ele>340</ele>
        <time>2019-08-05T09:53:12.311Z</time>
      </trkpt>
      <trkpt lat="44.586" lon="1.82039">
        <ele>340</ele>
        <time>2019-08-05T09:53:17.305Z</time>
      </trkpt>
      <trkpt lat="44.58601" lon="1.82053">
        <ele>341</ele>
        <time>2019-08-05T09:53:22.309Z</time>
      </trkpt>
      <trkpt lat="44.58604" lon="1.82064">
        <ele>341</ele>
        <time>2019-08-05T09:53:27.305Z</time>
      </trkpt>
      <trkpt lat="44.58607" lon="1.82072">
        <ele>342</ele>
        <time>2019-08-05T09:53:32.302Z</time>
      </trkpt>
      <trkpt lat="44.5861" lon="1.8208">
        <ele>342</ele>
        <time>2019-08-05T09:53:37.306Z</time>
      </trkpt>
      <trkpt lat="44.58614" lon="1.8209">
        <ele>342</ele>
        <time>2019-08-05T09:53:42.301Z</time>
      </trkpt>
      <trkpt lat="44.58617" lon="1.82099">
        <ele>344</ele>
        <time>2019-08-05T09:53:47.296Z</time>
      </trkpt>
      <trkpt lat="44.5862" lon="1.82109">
        <ele>344</ele>
        <time>2019-08-05T09:53:52.311Z</time>
      </trkpt>
      <trkpt lat="44.5862" lon="1.82119">
        <ele>344</ele>
        <time>2019-08-05T09:53:57.301Z</time>
      </trkpt>
      <trkpt lat="44.5862" lon="1.82128">
        <ele>345</ele>
        <time>2019-08-05T09:54:02.315Z</time>
      </trkpt>
      <trkpt lat="44.58618" lon="1.82136">
        <ele>345</ele>
        <time>2019-08-05T09:54:07.294Z</time>
      </trkpt>
      <trkpt lat="44.58615" lon="1.82144">
        <ele>345</ele>
        <time>2019-08-05T09:54:12.313Z</time>
      </trkpt>
      <trkpt lat="44.58613" lon="1.82151">
        <ele>345</ele>
        <time>2019-08-05T09:54:16.352Z</time>
      </trkpt>
      <trkpt lat="44.5861" lon="1.82161">
        <ele>346</ele>
        <time>2019-08-05T09:54:21.301Z</time>
      </trkpt>
      <trkpt lat="44.58609" lon="1.82171">
        <ele>346</ele>
        <time>2019-08-05T09:54:26.306Z</time>
      </trkpt>
      <trkpt lat="44.58609" lon="1.8218">
        <ele>346</ele>
        <time>2019-08-05T09:54:31.292Z</time>
      </trkpt>
      <trkpt lat="44.58608" lon="1.82189">
        <ele>345</ele>
        <time>2019-08-05T09:54:36.304Z</time>
      </trkpt>
      <trkpt lat="44.58609" lon="1.822">
        <ele>345</ele>
        <time>2019-08-05T09:54:41.290Z</time>
      </trkpt>
      <trkpt lat="44.58613" lon="1.82208">
        <ele>345</ele>
        <time>2019-08-05T09:54:46.296Z</time>
      </trkpt>
      <trkpt lat="44.58617" lon="1.82215">
        <ele>345</ele>
        <time>2019-08-05T09:54:50.314Z</time>
      </trkpt>
      <trkpt lat="44.58622" lon="1.82224">
        <ele>345</ele>
        <time>2019-08-05T09:54:55.295Z</time>
      </trkpt>
      <trkpt lat="44.58625" lon="1.82231">
        <ele>348</ele>
        <time>2019-08-05T09:54:59.310Z</time>
      </trkpt>
      <trkpt lat="44.58629" lon="1.82239">
        <ele>347</ele>
        <time>2019-08-05T09:55:04.305Z</time>
      </trkpt>
      <trkpt lat="44.58633" lon="1.82247">
        <ele>347</ele>
        <time>2019-08-05T09:55:09.292Z</time>
      </trkpt>
      <trkpt lat="44.58637" lon="1.82254">
        <ele>347</ele>
        <time>2019-08-05T09:55:14.319Z</time>
      </trkpt>
      <trkpt lat="44.58641" lon="1.82263">
        <ele>347</ele>
        <time>2019-08-05T09:55:19.299Z</time>
      </trkpt>
      <trkpt lat="44.58644" lon="1.8227">
        <ele>344</ele>
        <time>2019-08-05T09:55:24.318Z</time>
      </trkpt>
      <trkpt lat="44.58647" lon="1.82276">
        <ele>344</ele>
        <time>2019-08-05T09:55:29.301Z</time>
      </trkpt>
      <trkpt lat="44.58651" lon="1.82283">
        <ele>344</ele>
        <time>2019-08-05T09:55:34.300Z</time>
      </trkpt>
      <trkpt lat="44.58654" lon="1.8229">
        <ele>345</ele>
        <time>2019-08-05T09:55:38.305Z</time>
      </trkpt>
      <trkpt lat="44.58657" lon="1.82299">
        <ele>342</ele>
        <time>2019-08-05T09:55:43.294Z</time>
      </trkpt>
      <trkpt lat="44.58658" lon="1.82304">
        <ele>342</ele>
        <time>2019-08-05T09:55:47.318Z</time>
      </trkpt>
      <trkpt lat="44.58659" lon="1.82307">
        <ele>342</ele>
        <time>2019-08-05T09:55:52.311Z</time>
      </trkpt>
      <trkpt lat="44.5866" lon="1.82312">
        <ele>342</ele>
        <time>2019-08-05T09:55:57.327Z</time>
      </trkpt>
      <trkpt lat="44.58663" lon="1.82315">
        <ele>342</ele>
        <time>2019-08-05T09:56:02.311Z</time>
      </trkpt>
      <trkpt lat="44.58668" lon="1.82325">
        <ele>339</ele>
        <time>2019-08-05T09:56:07.306Z</time>
      </trkpt>
      <trkpt lat="44.58674" lon="1.82333">
        <ele>339</ele>
        <time>2019-08-05T09:56:12.310Z</time>
      </trkpt>
      <trkpt lat="44.58683" lon="1.82338">
        <ele>340</ele>
        <time>2019-08-05T09:56:17.294Z</time>
      </trkpt>
      <trkpt lat="44.58688" lon="1.82344">
        <ele>340</ele>
        <time>2019-08-05T09:56:22.308Z</time>
      </trkpt>
      <trkpt lat="44.58694" lon="1.82351">
        <ele>335</ele>
        <time>2019-08-05T09:56:27.301Z</time>
      </trkpt>
      <trkpt lat="44.58698" lon="1.82357">
        <ele>335</ele>
        <time>2019-08-05T09:56:32.304Z</time>
      </trkpt>
      <trkpt lat="44.58702" lon="1.8236">
        <ele>335</ele>
        <time>2019-08-05T09:56:36.314Z</time>
      </trkpt>
      <trkpt lat="44.58711" lon="1.82364">
        <ele>336</ele>
        <time>2019-08-05T09:56:41.299Z</time>
      </trkpt>
      <trkpt lat="44.58719" lon="1.82372">
        <ele>336</ele>
        <time>2019-08-05T09:56:46.290Z</time>
      </trkpt>
      <trkpt lat="44.58725" lon="1.82378">
        <ele>332</ele>
        <time>2019-08-05T09:56:51.308Z</time>
      </trkpt>
      <trkpt lat="44.58732" lon="1.82387">
        <ele>332</ele>
        <time>2019-08-05T09:56:56.310Z</time>
      </trkpt>
      <trkpt lat="44.58736" lon="1.82395">
        <ele>332</ele>
        <time>2019-08-05T09:57:01.305Z</time>
      </trkpt>
      <trkpt lat="44.5874" lon="1.82401">
        <ele>335</ele>
        <time>2019-08-05T09:57:06.310Z</time>
      </trkpt>
      <trkpt lat="44.58746" lon="1.82407">
        <ele>328</ele>
        <time>2019-08-05T09:57:11.313Z</time>
      </trkpt>
      <trkpt lat="44.58751" lon="1.82412">
        <ele>328</ele>
        <time>2019-08-05T09:57:16.310Z</time>
      </trkpt>
      <trkpt lat="44.58756" lon="1.82416">
        <ele>328</ele>
        <time>2019-08-05T09:57:20.330Z</time>
      </trkpt>
      <trkpt lat="44.58762" lon="1.82421">
        <ele>328</ele>
        <time>2019-08-05T09:57:25.314Z</time>
      </trkpt>
      <trkpt lat="44.58769" lon="1.82427">
        <ele>330</ele>
        <time>2019-08-05T09:57:30.313Z</time>
      </trkpt>
      <trkpt lat="44.58774" lon="1.82431">
        <ele>324</ele>
        <time>2019-08-05T09:57:35.313Z</time>
      </trkpt>
      <trkpt lat="44.58779" lon="1.82435">
        <ele>324</ele>
        <time>2019-08-05T09:57:40.307Z</time>
      </trkpt>
      <trkpt lat="44.58785" lon="1.82441">
        <ele>324</ele>
        <time>2019-08-05T09:57:45.345Z</time>
      </trkpt>
      <trkpt lat="44.58789" lon="1.82447">
        <ele>324</ele>
        <time>2019-08-05T09:57:50.331Z</time>
      </trkpt>
      <trkpt lat="44.58795" lon="1.82452">
        <ele>327</ele>
        <time>2019-08-05T09:57:55.338Z</time>
      </trkpt>
      <trkpt lat="44.58802" lon="1.82459">
        <ele>321</ele>
        <time>2019-08-05T09:58:00.305Z</time>
      </trkpt>
      <trkpt lat="44.58808" lon="1.82467">
        <ele>321</ele>
        <time>2019-08-05T09:58:05.309Z</time>
      </trkpt>
      <trkpt lat="44.58813" lon="1.82474">
        <ele>321</ele>
        <time>2019-08-05T09:58:09.331Z</time>
      </trkpt>
      <trkpt lat="44.58817" lon="1.8248">
        <ele>321</ele>
        <time>2019-08-05T09:58:14.316Z</time>
      </trkpt>
      <trkpt lat="44.58818" lon="1.82484">
        <ele>321</ele>
        <time>2019-08-05T09:58:19.309Z</time>
      </trkpt>
      <trkpt lat="44.58824" lon="1.82492">
        <ele>318</ele>
        <time>2019-08-05T09:58:24.318Z</time>
      </trkpt>
      <trkpt lat="44.58829" lon="1.82498">
        <ele>318</ele>
        <time>2019-08-05T09:58:29.318Z</time>
      </trkpt>
      <trkpt lat="44.58836" lon="1.82507">
        <ele>318</ele>
        <time>2019-08-05T09:58:34.301Z</time>
      </trkpt>
      <trkpt lat="44.58842" lon="1.82515">
        <ele>312</ele>
        <time>2019-08-05T09:58:39.309Z</time>
      </trkpt>
      <trkpt lat="44.58846" lon="1.82517">
        <ele>312</ele>
        <time>2019-08-05T09:58:44.316Z</time>
      </trkpt>
      <trkpt lat="44.58853" lon="1.82524">
        <ele>316</ele>
        <time>2019-08-05T09:58:49.314Z</time>
      </trkpt>
      <trkpt lat="44.58857" lon="1.8253">
        <ele>316</ele>
        <time>2019-08-05T09:58:53.331Z</time>
      </trkpt>
      <trkpt lat="44.58863" lon="1.82535">
        <ele>316</ele>
        <time>2019-08-05T09:58:58.320Z</time>
      </trkpt>
      <trkpt lat="44.58868" lon="1.82537">
        <ele>316</ele>
        <time>2019-08-05T09:59:03.306Z</time>
      </trkpt>
      <trkpt lat="44.58874" lon="1.82541">
        <ele>316</ele>
        <time>2019-08-05T09:59:08.307Z</time>
      </trkpt>
      <trkpt lat="44.58877" lon="1.82544">
        <ele>312</ele>
        <time>2019-08-05T09:59:13.311Z</time>
      </trkpt>
      <trkpt lat="44.58879" lon="1.82546">
        <ele>312</ele>
        <time>2019-08-05T09:59:18.319Z</time>
      </trkpt>
      <trkpt lat="44.58883" lon="1.8255">
        <ele>312</ele>
        <time>2019-08-05T09:59:23.306Z</time>
      </trkpt>
      <trkpt lat="44.58888" lon="1.82554">
        <ele>312</ele>
        <time>2019-08-05T09:59:28.314Z</time>
      </trkpt>
      <trkpt lat="44.58895" lon="1.82558">
        <ele>312</ele>
        <time>2019-08-05T09:59:33.304Z</time>
      </trkpt>
      <trkpt lat="44.58901" lon="1.82564">
        <ele>312</ele>
        <time>2019-08-05T09:59:37.324Z</time>
      </trkpt>
      <trkpt lat="44.58906" lon="1.82569">
        <ele>315</ele>
        <time>2019-08-05T09:59:42.322Z</time>
      </trkpt>
      <trkpt lat="44.58911" lon="1.82572">
        <ele>310</ele>
        <time>2019-08-05T09:59:47.299Z</time>
      </trkpt>
      <trkpt lat="44.58916" lon="1.82579">
        <ele>310</ele>
        <time>2019-08-05T09:59:52.300Z</time>
      </trkpt>
      <trkpt lat="44.58923" lon="1.82583">
        <ele>310</ele>
        <time>2019-08-05T09:59:57.318Z</time>
      </trkpt>
      <trkpt lat="44.58931" lon="1.82589">
        <ele>313</ele>
        <time>2019-08-05T10:00:02.315Z</time>
      </trkpt>
      <trkpt lat="44.58938" lon="1.82598">
        <ele>309</ele>
        <time>2019-08-05T10:00:07.314Z</time>
      </trkpt>
      <trkpt lat="44.58945" lon="1.82606">
        <ele>309</ele>
        <time>2019-08-05T10:00:12.316Z</time>
      </trkpt>
      <trkpt lat="44.58949" lon="1.82612">
        <ele>309</ele>
        <time>2019-08-05T10:00:17.305Z</time>
      </trkpt>
      <trkpt lat="44.58944" lon="1.82615">
        <ele>309</ele>
        <time>2019-08-05T10:01:16.308Z</time>
      </trkpt>
      <trkpt lat="44.58946" lon="1.82619">
        <ele>309</ele>
        <time>2019-08-05T10:01:20.327Z</time>
      </trkpt>
      <trkpt lat="44.5895" lon="1.82626">
        <ele>305</ele>
        <time>2019-08-05T10:01:25.320Z</time>
      </trkpt>
      <trkpt lat="44.58954" lon="1.82632">
        <ele>305</ele>
        <time>2019-08-05T10:01:30.313Z</time>
      </trkpt>
      <trkpt lat="44.58954" lon="1.82633">
        <ele>305</ele>
        <time>2019-08-05T10:01:35.318Z</time>
      </trkpt>
      <trkpt lat="44.58955" lon="1.8264">
        <ele>305</ele>
        <time>2019-08-05T10:01:40.305Z</time>
      </trkpt>
      <trkpt lat="44.58959" lon="1.82647">
        <ele>308</ele>
        <time>2019-08-05T10:01:45.308Z</time>
      </trkpt>
      <trkpt lat="44.58964" lon="1.82656">
        <ele>305</ele>
        <time>2019-08-05T10:01:50.301Z</time>
      </trkpt>
      <trkpt lat="44.58968" lon="1.82663">
        <ele>305</ele>
        <time>2019-08-05T10:01:54.318Z</time>
      </trkpt>
      <trkpt lat="44.58972" lon="1.82672">
        <ele>305</ele>
        <time>2019-08-05T10:01:59.305Z</time>
      </trkpt>
      <trkpt lat="44.58975" lon="1.82681">
        <ele>303</ele>
        <time>2019-08-05T10:02:04.323Z</time>
      </trkpt>
      <trkpt lat="44.58977" lon="1.82692">
        <ele>303</ele>
        <time>2019-08-05T10:02:09.329Z</time>
      </trkpt>
      <trkpt lat="44.58978" lon="1.82703">
        <ele>303</ele>
        <time>2019-08-05T10:02:14.316Z</time>
      </trkpt>
      <trkpt lat="44.58977" lon="1.82714">
        <ele>305</ele>
        <time>2019-08-05T10:02:19.311Z</time>
      </trkpt>
      <trkpt lat="44.58973" lon="1.82722">
        <ele>305</ele>
        <time>2019-08-05T10:02:24.308Z</time>
      </trkpt>
      <trkpt lat="44.58969" lon="1.82726">
        <ele>305</ele>
        <time>2019-08-05T10:02:29.306Z</time>
      </trkpt>
      <trkpt lat="44.58962" lon="1.82731">
        <ele>305</ele>
        <time>2019-08-05T10:02:34.310Z</time>
      </trkpt>
      <trkpt lat="44.58958" lon="1.8274">
        <ele>307</ele>
        <time>2019-08-05T10:02:48.328Z</time>
      </trkpt>
      <trkpt lat="44.58966" lon="1.82734">
        <ele>305</ele>
        <time>2019-08-05T10:02:53.316Z</time>
      </trkpt>
      <trkpt lat="44.58974" lon="1.8273">
        <ele>305</ele>
        <time>2019-08-05T10:02:58.304Z</time>
      </trkpt>
      <trkpt lat="44.5898" lon="1.82726">
        <ele>305</ele>
        <time>2019-08-05T10:03:03.314Z</time>
      </trkpt>
      <trkpt lat="44.58997" lon="1.82713">
        <ele>311</ele>
        <time>2019-08-05T10:03:08.314Z</time>
      </trkpt>
      <trkpt lat="44.5903" lon="1.82707">
        <ele>316</ele>
        <time>2019-08-05T10:03:13.311Z</time>
      </trkpt>
      <trkpt lat="44.59058" lon="1.82696">
        <ele>319</ele>
        <time>2019-08-05T10:03:18.300Z</time>
      </trkpt>
      <trkpt lat="44.59083" lon="1.82684">
        <ele>321</ele>
        <time>2019-08-05T10:03:23.310Z</time>
      </trkpt>
      <trkpt lat="44.59102" lon="1.82679">
        <ele>324</ele>
        <time>2019-08-05T10:03:28.305Z</time>
      </trkpt>
      <trkpt lat="44.59112" lon="1.82683">
        <ele>324</ele>
        <time>2019-08-05T10:03:33.305Z</time>
      </trkpt>
      <trkpt lat="44.59116" lon="1.8269">
        <ele>324</ele>
        <time>2019-08-05T10:03:38.312Z</time>
      </trkpt>
      <trkpt lat="44.5912" lon="1.82699">
        <ele>324</ele>
        <time>2019-08-05T10:03:43.305Z</time>
      </trkpt>
      <trkpt lat="44.59126" lon="1.82709">
        <ele>327</ele>
        <time>2019-08-05T10:03:48.305Z</time>
      </trkpt>
      <trkpt lat="44.59132" lon="1.82717">
        <ele>327</ele>
        <time>2019-08-05T10:03:53.284Z</time>
      </trkpt>
      <trkpt lat="44.59136" lon="1.82723">
        <ele>327</ele>
        <time>2019-08-05T10:03:57.314Z</time>
      </trkpt>
      <trkpt lat="44.59137" lon="1.8273">
        <ele>327</ele>
        <time>2019-08-05T10:04:02.312Z</time>
      </trkpt>
      <trkpt lat="44.59142" lon="1.82739">
        <ele>326</ele>
        <time>2019-08-05T10:04:07.312Z</time>
      </trkpt>
      <trkpt lat="44.59148" lon="1.82745">
        <ele>326</ele>
        <time>2019-08-05T10:04:12.308Z</time>
      </trkpt>
      <trkpt lat="44.59156" lon="1.82747">
        <ele>329</ele>
        <time>2019-08-05T10:04:17.304Z</time>
      </trkpt>
      <trkpt lat="44.59162" lon="1.82747">
        <ele>329</ele>
        <time>2019-08-05T10:04:21.319Z</time>
      </trkpt>
      <trkpt lat="44.59167" lon="1.82745">
        <ele>329</ele>
        <time>2019-08-05T10:04:26.318Z</time>
      </trkpt>
      <trkpt lat="44.59174" lon="1.82743">
        <ele>329</ele>
        <time>2019-08-05T10:04:31.304Z</time>
      </trkpt>
      <trkpt lat="44.5918" lon="1.82742">
        <ele>329</ele>
        <time>2019-08-05T10:04:35.314Z</time>
      </trkpt>
      <trkpt lat="44.59184" lon="1.82739">
        <ele>332</ele>
        <time>2019-08-05T10:04:40.309Z</time>
      </trkpt>
      <trkpt lat="44.59189" lon="1.82737">
        <ele>332</ele>
        <time>2019-08-05T10:04:44.311Z</time>
      </trkpt>
      <trkpt lat="44.59195" lon="1.82734">
        <ele>333</ele>
        <time>2019-08-05T10:04:49.314Z</time>
      </trkpt>
      <trkpt lat="44.592" lon="1.8273">
        <ele>333</ele>
        <time>2019-08-05T10:04:54.308Z</time>
      </trkpt>
      <trkpt lat="44.59205" lon="1.82726">
        <ele>333</ele>
        <time>2019-08-05T10:04:59.311Z</time>
      </trkpt>
      <trkpt lat="44.59211" lon="1.82727">
        <ele>335</ele>
        <time>2019-08-05T10:05:03.319Z</time>
      </trkpt>
      <trkpt lat="44.5922" lon="1.82728">
        <ele>335</ele>
        <time>2019-08-05T10:05:08.306Z</time>
      </trkpt>
      <trkpt lat="44.59225" lon="1.82727">
        <ele>335</ele>
        <time>2019-08-05T10:05:12.328Z</time>
      </trkpt>
      <trkpt lat="44.59225" lon="1.82727">
        <ele>335</ele>
        <time>2019-08-05T10:05:17.345Z</time>
      </trkpt>
      <trkpt lat="44.5923" lon="1.82725">
        <ele>335</ele>
        <time>2019-08-05T10:05:22.299Z</time>
      </trkpt>
      <trkpt lat="44.59237" lon="1.82722">
        <ele>338</ele>
        <time>2019-08-05T10:05:27.314Z</time>
      </trkpt>
      <trkpt lat="44.59243" lon="1.82718">
        <ele>338</ele>
        <time>2019-08-05T10:05:32.316Z</time>
      </trkpt>
      <trkpt lat="44.59249" lon="1.82711">
        <ele>338</ele>
        <time>2019-08-05T10:05:37.314Z</time>
      </trkpt>
      <trkpt lat="44.59255" lon="1.82709">
        <ele>338</ele>
        <time>2019-08-05T10:05:42.304Z</time>
      </trkpt>
      <trkpt lat="44.59263" lon="1.82708">
        <ele>338</ele>
        <time>2019-08-05T10:05:47.308Z</time>
      </trkpt>
      <trkpt lat="44.59267" lon="1.82715">
        <ele>340</ele>
        <time>2019-08-05T10:05:52.293Z</time>
      </trkpt>
      <trkpt lat="44.59262" lon="1.82725">
        <ele>338</ele>
        <time>2019-08-05T10:05:57.303Z</time>
      </trkpt>
      <trkpt lat="44.59257" lon="1.82735">
        <ele>338</ele>
        <time>2019-08-05T10:06:02.311Z</time>
      </trkpt>
      <trkpt lat="44.59253" lon="1.82744">
        <ele>337</ele>
        <time>2019-08-05T10:06:07.333Z</time>
      </trkpt>
      <trkpt lat="44.59252" lon="1.82752">
        <ele>337</ele>
        <time>2019-08-05T10:06:12.315Z</time>
      </trkpt>
      <trkpt lat="44.59253" lon="1.8276">
        <ele>337</ele>
        <time>2019-08-05T10:06:17.313Z</time>
      </trkpt>
      <trkpt lat="44.59254" lon="1.82768">
        <ele>336</ele>
        <time>2019-08-05T10:06:22.313Z</time>
      </trkpt>
      <trkpt lat="44.59257" lon="1.82777">
        <ele>336</ele>
        <time>2019-08-05T10:06:27.328Z</time>
      </trkpt>
      <trkpt lat="44.59263" lon="1.82785">
        <ele>336</ele>
        <time>2019-08-05T10:06:32.313Z</time>
      </trkpt>
      <trkpt lat="44.5927" lon="1.82796">
        <ele>336</ele>
        <time>2019-08-05T10:06:37.299Z</time>
      </trkpt>
      <trkpt lat="44.59275" lon="1.82803">
        <ele>336</ele>
        <time>2019-08-05T10:06:41.314Z</time>
      </trkpt>
      <trkpt lat="44.59277" lon="1.82805">
        <ele>336</ele>
        <time>2019-08-05T10:06:46.301Z</time>
      </trkpt>
      <trkpt lat="44.59281" lon="1.8281">
        <ele>336</ele>
        <time>2019-08-05T10:06:50.313Z</time>
      </trkpt>
      <trkpt lat="44.59288" lon="1.82817">
        <ele>336</ele>
        <time>2019-08-05T10:06:55.305Z</time>
      </trkpt>
      <trkpt lat="44.59297" lon="1.82824">
        <ele>336</ele>
        <time>2019-08-05T10:07:00.301Z</time>
      </trkpt>
      <trkpt lat="44.59307" lon="1.82834">
        <ele>336</ele>
        <time>2019-08-05T10:07:09.285Z</time>
      </trkpt>
      <trkpt lat="44.59312" lon="1.82838">
        <ele>336</ele>
        <time>2019-08-05T10:07:14.285Z</time>
      </trkpt>
      <trkpt lat="44.59318" lon="1.82844">
        <ele>336</ele>
        <time>2019-08-05T10:07:18.323Z</time>
      </trkpt>
      <trkpt lat="44.59323" lon="1.82851">
        <ele>337</ele>
        <time>2019-08-05T10:07:23.310Z</time>
      </trkpt>
      <trkpt lat="44.59329" lon="1.82857">
        <ele>337</ele>
        <time>2019-08-05T10:07:28.318Z</time>
      </trkpt>
      <trkpt lat="44.59333" lon="1.8286">
        <ele>337</ele>
        <time>2019-08-05T10:07:33.321Z</time>
      </trkpt>
      <trkpt lat="44.59339" lon="1.82864">
        <ele>337</ele>
        <time>2019-08-05T10:07:38.311Z</time>
      </trkpt>
      <trkpt lat="44.59346" lon="1.82871">
        <ele>337</ele>
        <time>2019-08-05T10:07:43.306Z</time>
      </trkpt>
      <trkpt lat="44.59351" lon="1.82876">
        <ele>335</ele>
        <time>2019-08-05T10:07:47.303Z</time>
      </trkpt>
      <trkpt lat="44.59353" lon="1.82877">
        <ele>335</ele>
        <time>2019-08-05T10:07:49.286Z</time>
      </trkpt>
      <trkpt lat="44.59358" lon="1.82881">
        <ele>335</ele>
        <time>2019-08-05T10:07:54.290Z</time>
      </trkpt>
      <trkpt lat="44.59362" lon="1.82884">
        <ele>335</ele>
        <time>2019-08-05T10:07:59.289Z</time>
      </trkpt>
      <trkpt lat="44.5937" lon="1.82884">
        <ele>335</ele>
        <time>2019-08-05T10:08:04.287Z</time>
      </trkpt>
      <trkpt lat="44.59374" lon="1.82884">
        <ele>335</ele>
        <time>2019-08-05T10:08:08.311Z</time>
      </trkpt>
      <trkpt lat="44.59382" lon="1.82886">
        <ele>333</ele>
        <time>2019-08-05T10:08:13.280Z</time>
      </trkpt>
      <trkpt lat="44.59388" lon="1.82887">
        <ele>333</ele>
        <time>2019-08-05T10:08:17.291Z</time>
      </trkpt>
      <trkpt lat="44.59393" lon="1.82889">
        <ele>333</ele>
        <time>2019-08-05T10:08:21.316Z</time>
      </trkpt>
      <trkpt lat="44.59402" lon="1.82891">
        <ele>333</ele>
        <time>2019-08-05T10:08:27.317Z</time>
      </trkpt>
      <trkpt lat="44.59408" lon="1.82892">
        <ele>331</ele>
        <time>2019-08-05T10:08:31.312Z</time>
      </trkpt>
      <trkpt lat="44.59414" lon="1.82897">
        <ele>331</ele>
        <time>2019-08-05T10:08:36.309Z</time>
      </trkpt>
      <trkpt lat="44.59419" lon="1.829">
        <ele>331</ele>
        <time>2019-08-05T10:08:41.305Z</time>
      </trkpt>
      <trkpt lat="44.59425" lon="1.82898">
        <ele>331</ele>
        <time>2019-08-05T10:08:46.310Z</time>
      </trkpt>
      <trkpt lat="44.59432" lon="1.82899">
        <ele>331</ele>
        <time>2019-08-05T10:08:51.358Z</time>
      </trkpt>
      <trkpt lat="44.59435" lon="1.82902">
        <ele>331</ele>
        <time>2019-08-05T10:08:56.315Z</time>
      </trkpt>
      <trkpt lat="44.59441" lon="1.82903">
        <ele>329</ele>
        <time>2019-08-05T10:09:01.344Z</time>
      </trkpt>
      <trkpt lat="44.59448" lon="1.82905">
        <ele>329</ele>
        <time>2019-08-05T10:09:06.306Z</time>
      </trkpt>
      <trkpt lat="44.59454" lon="1.82907">
        <ele>329</ele>
        <time>2019-08-05T10:09:10.327Z</time>
      </trkpt>
      <trkpt lat="44.5946" lon="1.82911">
        <ele>328</ele>
        <time>2019-08-05T10:09:15.326Z</time>
      </trkpt>
      <trkpt lat="44.59466" lon="1.82913">
        <ele>328</ele>
        <time>2019-08-05T10:09:20.317Z</time>
      </trkpt>
      <trkpt lat="44.59474" lon="1.82915">
        <ele>328</ele>
        <time>2019-08-05T10:09:25.306Z</time>
      </trkpt>
      <trkpt lat="44.59483" lon="1.8292">
        <ele>328</ele>
        <time>2019-08-05T10:09:30.301Z</time>
      </trkpt>
      <trkpt lat="44.59492" lon="1.82923">
        <ele>326</ele>
        <time>2019-08-05T10:09:35.298Z</time>
      </trkpt>
      <trkpt lat="44.59499" lon="1.82924">
        <ele>326</ele>
        <time>2019-08-05T10:09:39.310Z</time>
      </trkpt>
      <trkpt lat="44.59507" lon="1.82923">
        <ele>326</ele>
        <time>2019-08-05T10:09:44.312Z</time>
      </trkpt>
      <trkpt lat="44.59513" lon="1.82924">
        <ele>326</ele>
        <time>2019-08-05T10:09:49.312Z</time>
      </trkpt>
      <trkpt lat="44.59516" lon="1.82927">
        <ele>323</ele>
        <time>2019-08-05T10:09:54.316Z</time>
      </trkpt>
      <trkpt lat="44.59519" lon="1.82935">
        <ele>320</ele>
        <time>2019-08-05T10:09:59.323Z</time>
      </trkpt>
      <trkpt lat="44.59519" lon="1.8294">
        <ele>320</ele>
        <time>2019-08-05T10:10:04.315Z</time>
      </trkpt>
      <trkpt lat="44.59519" lon="1.82945">
        <ele>320</ele>
        <time>2019-08-05T10:10:09.283Z</time>
      </trkpt>
      <trkpt lat="44.59521" lon="1.82948">
        <ele>320</ele>
        <time>2019-08-05T10:10:13.309Z</time>
      </trkpt>
      <trkpt lat="44.59522" lon="1.8295">
        <ele>320</ele>
        <time>2019-08-05T10:10:17.320Z</time>
      </trkpt>
      <trkpt lat="44.59525" lon="1.82954">
        <ele>320</ele>
        <time>2019-08-05T10:10:22.306Z</time>
      </trkpt>
      <trkpt lat="44.59527" lon="1.82956">
        <ele>320</ele>
        <time>2019-08-05T10:10:27.299Z</time>
      </trkpt>
      <trkpt lat="44.59531" lon="1.82961">
        <ele>317</ele>
        <time>2019-08-05T10:10:32.324Z</time>
      </trkpt>
      <trkpt lat="44.59535" lon="1.82968">
        <ele>317</ele>
        <time>2019-08-05T10:10:37.311Z</time>
      </trkpt>
      <trkpt lat="44.59538" lon="1.82971">
        <ele>317</ele>
        <time>2019-08-05T10:10:42.306Z</time>
      </trkpt>
      <trkpt lat="44.59541" lon="1.82976">
        <ele>317</ele>
        <time>2019-08-05T10:10:47.306Z</time>
      </trkpt>
      <trkpt lat="44.59543" lon="1.82981">
        <ele>315</ele>
        <time>2019-08-05T10:10:51.318Z</time>
      </trkpt>
      <trkpt lat="44.59545" lon="1.82985">
        <ele>315</ele>
        <time>2019-08-05T10:10:56.305Z</time>
      </trkpt>
      <trkpt lat="44.59549" lon="1.82989">
        <ele>312</ele>
        <time>2019-08-05T10:11:01.302Z</time>
      </trkpt>
      <trkpt lat="44.59553" lon="1.82993">
        <ele>312</ele>
        <time>2019-08-05T10:11:06.309Z</time>
      </trkpt>
      <trkpt lat="44.59559" lon="1.83001">
        <ele>312</ele>
        <time>2019-08-05T10:11:11.286Z</time>
      </trkpt>
      <trkpt lat="44.59563" lon="1.83006">
        <ele>312</ele>
        <time>2019-08-05T10:11:15.332Z</time>
      </trkpt>
      <trkpt lat="44.59571" lon="1.83017">
        <ele>307</ele>
        <time>2019-08-05T10:11:20.304Z</time>
      </trkpt>
      <trkpt lat="44.59578" lon="1.83025">
        <ele>307</ele>
        <time>2019-08-05T10:11:25.338Z</time>
      </trkpt>
      <trkpt lat="44.59582" lon="1.83031">
        <ele>307</ele>
        <time>2019-08-05T10:11:30.312Z</time>
      </trkpt>
      <trkpt lat="44.59588" lon="1.83035">
        <ele>307</ele>
        <time>2019-08-05T10:11:35.320Z</time>
      </trkpt>
      <trkpt lat="44.59594" lon="1.8304">
        <ele>307</ele>
        <time>2019-08-05T10:11:40.312Z</time>
      </trkpt>
      <trkpt lat="44.596" lon="1.83045">
        <ele>305</ele>
        <time>2019-08-05T10:11:45.317Z</time>
      </trkpt>
      <trkpt lat="44.59605" lon="1.83051">
        <ele>305</ele>
        <time>2019-08-05T10:11:50.314Z</time>
      </trkpt>
      <trkpt lat="44.5961" lon="1.83057">
        <ele>305</ele>
        <time>2019-08-05T10:11:55.318Z</time>
      </trkpt>
      <trkpt lat="44.59616" lon="1.83061">
        <ele>305</ele>
        <time>2019-08-05T10:12:00.303Z</time>
      </trkpt>
      <trkpt lat="44.59621" lon="1.83062">
        <ele>305</ele>
        <time>2019-08-05T10:12:05.312Z</time>
      </trkpt>
      <trkpt lat="44.59628" lon="1.83063">
        <ele>303</ele>
        <time>2019-08-05T10:12:10.300Z</time>
      </trkpt>
      <trkpt lat="44.59636" lon="1.83066">
        <ele>303</ele>
        <time>2019-08-05T10:12:15.315Z</time>
      </trkpt>
      <trkpt lat="44.59645" lon="1.83069">
        <ele>303</ele>
        <time>2019-08-05T10:12:20.314Z</time>
      </trkpt>
      <trkpt lat="44.59652" lon="1.83073">
        <ele>303</ele>
        <time>2019-08-05T10:12:25.316Z</time>
      </trkpt>
      <trkpt lat="44.5966" lon="1.8307">
        <ele>302</ele>
        <time>2019-08-05T10:12:30.307Z</time>
      </trkpt>
      <trkpt lat="44.59666" lon="1.83065">
        <ele>300</ele>
        <time>2019-08-05T10:12:35.314Z</time>
      </trkpt>
      <trkpt lat="44.59669" lon="1.83065">
        <ele>300</ele>
        <time>2019-08-05T10:12:40.315Z</time>
      </trkpt>
      <trkpt lat="44.59675" lon="1.83061">
        <ele>300</ele>
        <time>2019-08-05T10:12:45.313Z</time>
      </trkpt>
      <trkpt lat="44.59679" lon="1.83056">
        <ele>300</ele>
        <time>2019-08-05T10:12:50.309Z</time>
      </trkpt>
      <trkpt lat="44.59683" lon="1.83056">
        <ele>300</ele>
        <time>2019-08-05T10:12:55.322Z</time>
      </trkpt>
      <trkpt lat="44.59685" lon="1.83056">
        <ele>300</ele>
        <time>2019-08-05T10:13:00.292Z</time>
      </trkpt>
      <trkpt lat="44.59691" lon="1.83058">
        <ele>300</ele>
        <time>2019-08-05T10:13:04.317Z</time>
      </trkpt>
      <trkpt lat="44.59695" lon="1.8306">
        <ele>300</ele>
        <time>2019-08-05T10:13:09.304Z</time>
      </trkpt>
      <trkpt lat="44.59699" lon="1.83062">
        <ele>300</ele>
        <time>2019-08-05T10:13:14.308Z</time>
      </trkpt>
      <trkpt lat="44.59705" lon="1.83063">
        <ele>300</ele>
        <time>2019-08-05T10:13:19.334Z</time>
      </trkpt>
      <trkpt lat="44.59711" lon="1.83066">
        <ele>303</ele>
        <time>2019-08-05T10:13:24.332Z</time>
      </trkpt>
      <trkpt lat="44.59716" lon="1.83067">
        <ele>303</ele>
        <time>2019-08-05T10:13:29.313Z</time>
      </trkpt>
      <trkpt lat="44.5972" lon="1.83072">
        <ele>302</ele>
        <time>2019-08-05T10:13:34.316Z</time>
      </trkpt>
      <trkpt lat="44.59725" lon="1.83073">
        <ele>302</ele>
        <time>2019-08-05T10:13:39.317Z</time>
      </trkpt>
      <trkpt lat="44.59727" lon="1.83074">
        <ele>302</ele>
        <time>2019-08-05T10:13:44.306Z</time>
      </trkpt>
      <trkpt lat="44.59728" lon="1.83079">
        <ele>302</ele>
        <time>2019-08-05T10:13:48.314Z</time>
      </trkpt>
      <trkpt lat="44.5973" lon="1.83085">
        <ele>302</ele>
        <time>2019-08-05T10:13:53.308Z</time>
      </trkpt>
      <trkpt lat="44.59732" lon="1.8309">
        <ele>302</ele>
        <time>2019-08-05T10:13:58.314Z</time>
      </trkpt>
      <trkpt lat="44.59733" lon="1.83095">
        <ele>302</ele>
        <time>2019-08-05T10:14:03.306Z</time>
      </trkpt>
      <trkpt lat="44.59734" lon="1.83102">
        <ele>301</ele>
        <time>2019-08-05T10:14:08.309Z</time>
      </trkpt>
      <trkpt lat="44.59737" lon="1.83109">
        <ele>295</ele>
        <time>2019-08-05T10:14:13.304Z</time>
      </trkpt>
      <trkpt lat="44.59737" lon="1.83111">
        <ele>295</ele>
        <time>2019-08-05T10:14:18.318Z</time>
      </trkpt>
      <trkpt lat="44.5974" lon="1.83118">
        <ele>295</ele>
        <time>2019-08-05T10:14:23.321Z</time>
      </trkpt>
      <trkpt lat="44.59746" lon="1.83121">
        <ele>295</ele>
        <time>2019-08-05T10:14:28.292Z</time>
      </trkpt>
      <trkpt lat="44.59751" lon="1.83124">
        <ele>295</ele>
        <time>2019-08-05T10:14:33.290Z</time>
      </trkpt>
      <trkpt lat="44.59754" lon="1.83127">
        <ele>291</ele>
        <time>2019-08-05T10:14:37.293Z</time>
      </trkpt>
      <trkpt lat="44.5976" lon="1.83132">
        <ele>291</ele>
        <time>2019-08-05T10:14:42.312Z</time>
      </trkpt>
      <trkpt lat="44.59761" lon="1.83141">
        <ele>291</ele>
        <time>2019-08-05T10:14:47.298Z</time>
      </trkpt>
      <trkpt lat="44.59763" lon="1.83149">
        <ele>291</ele>
        <time>2019-08-05T10:14:51.322Z</time>
      </trkpt>
      <trkpt lat="44.59766" lon="1.83161">
        <ele>287</ele>
        <time>2019-08-05T10:14:56.292Z</time>
      </trkpt>
      <trkpt lat="44.59771" lon="1.8317">
        <ele>287</ele>
        <time>2019-08-05T10:15:00.307Z</time>
      </trkpt>
      <trkpt lat="44.59773" lon="1.83176">
        <ele>287</ele>
        <time>2019-08-05T10:15:04.319Z</time>
      </trkpt>
      <trkpt lat="44.59774" lon="1.83185">
        <ele>286</ele>
        <time>2019-08-05T10:15:09.293Z</time>
      </trkpt>
      <trkpt lat="44.59774" lon="1.83191">
        <ele>286</ele>
        <time>2019-08-05T10:15:13.309Z</time>
      </trkpt>
      <trkpt lat="44.59774" lon="1.83194">
        <ele>286</ele>
        <time>2019-08-05T10:15:18.311Z</time>
      </trkpt>
      <trkpt lat="44.59775" lon="1.832">
        <ele>286</ele>
        <time>2019-08-05T10:15:23.314Z</time>
      </trkpt>
      <trkpt lat="44.59775" lon="1.83212">
        <ele>286</ele>
        <time>2019-08-05T10:15:28.298Z</time>
      </trkpt>
      <trkpt lat="44.59772" lon="1.83225">
        <ele>286</ele>
        <time>2019-08-05T10:15:32.314Z</time>
      </trkpt>
      <trkpt lat="44.59772" lon="1.83237">
        <ele>285</ele>
        <time>2019-08-05T10:15:37.304Z</time>
      </trkpt>
      <trkpt lat="44.59768" lon="1.83242">
        <ele>285</ele>
        <time>2019-08-05T10:15:42.308Z</time>
      </trkpt>
      <trkpt lat="44.59768" lon="1.83243">
        <ele>285</ele>
        <time>2019-08-05T10:15:46.316Z</time>
      </trkpt>
      <trkpt lat="44.59768" lon="1.8325">
        <ele>285</ele>
        <time>2019-08-05T10:15:51.289Z</time>
      </trkpt>
      <trkpt lat="44.59767" lon="1.83259">
        <ele>285</ele>
        <time>2019-08-05T10:15:56.308Z</time>
      </trkpt>
      <trkpt lat="44.59766" lon="1.83265">
        <ele>283</ele>
        <time>2019-08-05T10:16:00.331Z</time>
      </trkpt>
      <trkpt lat="44.59762" lon="1.83274">
        <ele>279</ele>
        <time>2019-08-05T10:16:05.302Z</time>
      </trkpt>
      <trkpt lat="44.59759" lon="1.83283">
        <ele>279</ele>
        <time>2019-08-05T10:16:10.303Z</time>
      </trkpt>
      <trkpt lat="44.59756" lon="1.83292">
        <ele>278</ele>
        <time>2019-08-05T10:16:15.302Z</time>
      </trkpt>
      <trkpt lat="44.59754" lon="1.83304">
        <ele>278</ele>
        <time>2019-08-05T10:16:20.309Z</time>
      </trkpt>
      <trkpt lat="44.5975" lon="1.83312">
        <ele>278</ele>
        <time>2019-08-05T10:16:25.302Z</time>
      </trkpt>
      <trkpt lat="44.59748" lon="1.83322">
        <ele>279</ele>
        <time>2019-08-05T10:16:29.314Z</time>
      </trkpt>
      <trkpt lat="44.59747" lon="1.83336">
        <ele>279</ele>
        <time>2019-08-05T10:16:34.310Z</time>
      </trkpt>
      <trkpt lat="44.59745" lon="1.83341">
        <ele>279</ele>
        <time>2019-08-05T10:16:39.304Z</time>
      </trkpt>
      <trkpt lat="44.59747" lon="1.83339">
        <ele>279</ele>
        <time>2019-08-05T10:17:03.312Z</time>
      </trkpt>
      <trkpt lat="44.59747" lon="1.83339">
        <ele>279</ele>
        <time>2019-08-05T10:17:08.311Z</time>
      </trkpt>
      <trkpt lat="44.59747" lon="1.83339">
        <ele>279</ele>
        <time>2019-08-05T10:17:13.284Z</time>
      </trkpt>
      <trkpt lat="44.59747" lon="1.83345">
        <ele>279</ele>
        <time>2019-08-05T10:17:17.310Z</time>
      </trkpt>
      <trkpt lat="44.59746" lon="1.83355">
        <ele>278</ele>
        <time>2019-08-05T10:17:22.310Z</time>
      </trkpt>
      <trkpt lat="44.59741" lon="1.8336">
        <ele>278</ele>
        <time>2019-08-05T10:17:27.297Z</time>
      </trkpt>
      <trkpt lat="44.59735" lon="1.8337">
        <ele>271</ele>
        <time>2019-08-05T10:17:32.295Z</time>
      </trkpt>
      <trkpt lat="44.59731" lon="1.83383">
        <ele>269</ele>
        <time>2019-08-05T10:17:37.303Z</time>
      </trkpt>
      <trkpt lat="44.59728" lon="1.83391">
        <ele>269</ele>
        <time>2019-08-05T10:17:42.313Z</time>
      </trkpt>
      <trkpt lat="44.59726" lon="1.834">
        <ele>269</ele>
        <time>2019-08-05T10:17:47.318Z</time>
      </trkpt>
      <trkpt lat="44.59723" lon="1.83406">
        <ele>268</ele>
        <time>2019-08-05T10:17:52.303Z</time>
      </trkpt>
      <trkpt lat="44.59722" lon="1.83413">
        <ele>268</ele>
        <time>2019-08-05T10:17:56.314Z</time>
      </trkpt>
      <trkpt lat="44.59719" lon="1.83419">
        <ele>268</ele>
        <time>2019-08-05T10:18:01.325Z</time>
      </trkpt>
      <trkpt lat="44.59718" lon="1.83429">
        <ele>268</ele>
        <time>2019-08-05T10:18:06.326Z</time>
      </trkpt>
      <trkpt lat="44.59716" lon="1.83439">
        <ele>266</ele>
        <time>2019-08-05T10:18:11.290Z</time>
      </trkpt>
      <trkpt lat="44.59714" lon="1.83447">
        <ele>266</ele>
        <time>2019-08-05T10:18:16.307Z</time>
      </trkpt>
      <trkpt lat="44.5971" lon="1.83457">
        <ele>266</ele>
        <time>2019-08-05T10:18:21.313Z</time>
      </trkpt>
      <trkpt lat="44.59707" lon="1.83465">
        <ele>260</ele>
        <time>2019-08-05T10:18:26.311Z</time>
      </trkpt>
      <trkpt lat="44.59705" lon="1.83474">
        <ele>260</ele>
        <time>2019-08-05T10:18:31.302Z</time>
      </trkpt>
      <trkpt lat="44.59702" lon="1.83481">
        <ele>260</ele>
        <time>2019-08-05T10:18:35.332Z</time>
      </trkpt>
      <trkpt lat="44.597" lon="1.83491">
        <ele>262</ele>
        <time>2019-08-05T10:18:40.296Z</time>
      </trkpt>
      <trkpt lat="44.59698" lon="1.83504">
        <ele>262</ele>
        <time>2019-08-05T10:18:45.305Z</time>
      </trkpt>
      <trkpt lat="44.59696" lon="1.8351">
        <ele>262</ele>
        <time>2019-08-05T10:18:50.300Z</time>
      </trkpt>
      <trkpt lat="44.59693" lon="1.83518">
        <ele>263</ele>
        <time>2019-08-05T10:18:55.306Z</time>
      </trkpt>
      <trkpt lat="44.59689" lon="1.83521">
        <ele>263</ele>
        <time>2019-08-05T10:19:00.294Z</time>
      </trkpt>
      <trkpt lat="44.59687" lon="1.83527">
        <ele>263</ele>
        <time>2019-08-05T10:19:05.298Z</time>
      </trkpt>
      <trkpt lat="44.59685" lon="1.83536">
        <ele>263</ele>
        <time>2019-08-05T10:19:09.310Z</time>
      </trkpt>
      <trkpt lat="44.5968" lon="1.83544">
        <ele>257</ele>
        <time>2019-08-05T10:19:13.322Z</time>
      </trkpt>
      <trkpt lat="44.59678" lon="1.83555">
        <ele>257</ele>
        <time>2019-08-05T10:19:18.317Z</time>
      </trkpt>
      <trkpt lat="44.59676" lon="1.83569">
        <ele>257</ele>
        <time>2019-08-05T10:19:23.300Z</time>
      </trkpt>
      <trkpt lat="44.59675" lon="1.83576">
        <ele>255</ele>
        <time>2019-08-05T10:19:28.299Z</time>
      </trkpt>
      <trkpt lat="44.59673" lon="1.83582">
        <ele>255</ele>
        <time>2019-08-05T10:19:33.298Z</time>
      </trkpt>
      <trkpt lat="44.59671" lon="1.83589">
        <ele>255</ele>
        <time>2019-08-05T10:19:38.296Z</time>
      </trkpt>
      <trkpt lat="44.59669" lon="1.83598">
        <ele>254</ele>
        <time>2019-08-05T10:19:43.300Z</time>
      </trkpt>
      <trkpt lat="44.59666" lon="1.83607">
        <ele>254</ele>
        <time>2019-08-05T10:19:48.297Z</time>
      </trkpt>
      <trkpt lat="44.59664" lon="1.83616">
        <ele>254</ele>
        <time>2019-08-05T10:19:53.302Z</time>
      </trkpt>
      <trkpt lat="44.59662" lon="1.83628">
        <ele>252</ele>
        <time>2019-08-05T10:19:58.304Z</time>
      </trkpt>
      <trkpt lat="44.59659" lon="1.83638">
        <ele>252</ele>
        <time>2019-08-05T10:20:03.292Z</time>
      </trkpt>
      <trkpt lat="44.59656" lon="1.83643">
        <ele>252</ele>
        <time>2019-08-05T10:20:07.342Z</time>
      </trkpt>
      <trkpt lat="44.59655" lon="1.83651">
        <ele>252</ele>
        <time>2019-08-05T10:20:12.311Z</time>
      </trkpt>
      <trkpt lat="44.59655" lon="1.83656">
        <ele>251</ele>
        <time>2019-08-05T10:20:16.331Z</time>
      </trkpt>
      <trkpt lat="44.59656" lon="1.83665">
        <ele>251</ele>
        <time>2019-08-05T10:20:21.312Z</time>
      </trkpt>
      <trkpt lat="44.59658" lon="1.83673">
        <ele>251</ele>
        <time>2019-08-05T10:20:26.308Z</time>
      </trkpt>
      <trkpt lat="44.59659" lon="1.83681">
        <ele>248</ele>
        <time>2019-08-05T10:20:31.290Z</time>
      </trkpt>
      <trkpt lat="44.59664" lon="1.83691">
        <ele>248</ele>
        <time>2019-08-05T10:20:36.295Z</time>
      </trkpt>
      <trkpt lat="44.59666" lon="1.837">
        <ele>248</ele>
        <time>2019-08-05T10:20:40.332Z</time>
      </trkpt>
      <trkpt lat="44.59668" lon="1.83709">
        <ele>242</ele>
        <time>2019-08-05T10:20:45.306Z</time>
      </trkpt>
      <trkpt lat="44.59671" lon="1.83716">
        <ele>242</ele>
        <time>2019-08-05T10:20:49.325Z</time>
      </trkpt>
      <trkpt lat="44.59672" lon="1.83724">
        <ele>242</ele>
        <time>2019-08-05T10:20:54.299Z</time>
      </trkpt>
      <trkpt lat="44.59675" lon="1.83732">
        <ele>242</ele>
        <time>2019-08-05T10:20:59.299Z</time>
      </trkpt>
      <trkpt lat="44.59677" lon="1.83739">
        <ele>236</ele>
        <time>2019-08-05T10:21:04.290Z</time>
      </trkpt>
      <trkpt lat="44.5968" lon="1.83748">
        <ele>236</ele>
        <time>2019-08-05T10:21:09.318Z</time>
      </trkpt>
      <trkpt lat="44.59682" lon="1.83758">
        <ele>246</ele>
        <time>2019-08-05T10:21:14.296Z</time>
      </trkpt>
      <trkpt lat="44.59685" lon="1.83766">
        <ele>239</ele>
        <time>2019-08-05T10:21:19.311Z</time>
      </trkpt>
      <trkpt lat="44.59686" lon="1.83773">
        <ele>239</ele>
        <time>2019-08-05T10:21:23.337Z</time>
      </trkpt>
      <trkpt lat="44.5969" lon="1.83783">
        <ele>239</ele>
        <time>2019-08-05T10:21:28.305Z</time>
      </trkpt>
      <trkpt lat="44.59693" lon="1.83793">
        <ele>232</ele>
        <time>2019-08-05T10:21:33.310Z</time>
      </trkpt>
      <trkpt lat="44.59695" lon="1.83802">
        <ele>232</ele>
        <time>2019-08-05T10:21:38.304Z</time>
      </trkpt>
      <trkpt lat="44.59698" lon="1.8381">
        <ele>232</ele>
        <time>2019-08-05T10:21:43.304Z</time>
      </trkpt>
      <trkpt lat="44.597" lon="1.83818">
        <ele>232</ele>
        <time>2019-08-05T10:21:48.306Z</time>
      </trkpt>
      <trkpt lat="44.59702" lon="1.83826">
        <ele>226</ele>
        <time>2019-08-05T10:21:53.303Z</time>
      </trkpt>
      <trkpt lat="44.59706" lon="1.83835">
        <ele>226</ele>
        <time>2019-08-05T10:21:58.297Z</time>
      </trkpt>
      <trkpt lat="44.59709" lon="1.83842">
        <ele>235</ele>
        <time>2019-08-05T10:22:02.317Z</time>
      </trkpt>
      <trkpt lat="44.59712" lon="1.83851">
        <ele>229</ele>
        <time>2019-08-05T10:22:07.296Z</time>
      </trkpt>
      <trkpt lat="44.59713" lon="1.83854">
        <ele>229</ele>
        <time>2019-08-05T10:22:11.326Z</time>
      </trkpt>
      <trkpt lat="44.59711" lon="1.8386">
        <ele>229</ele>
        <time>2019-08-05T10:22:56.285Z</time>
      </trkpt>
      <trkpt lat="44.59709" lon="1.83852">
        <ele>229</ele>
        <time>2019-08-05T10:23:00.297Z</time>
      </trkpt>
      <trkpt lat="44.59708" lon="1.83844">
        <ele>226</ele>
        <time>2019-08-05T10:23:05.309Z</time>
      </trkpt>
      <trkpt lat="44.59706" lon="1.83839">
        <ele>226</ele>
        <time>2019-08-05T10:23:10.305Z</time>
      </trkpt>
      <trkpt lat="44.59701" lon="1.8383">
        <ele>226</ele>
        <time>2019-08-05T10:23:15.313Z</time>
      </trkpt>
      <trkpt lat="44.59696" lon="1.83823">
        <ele>226</ele>
        <time>2019-08-05T10:23:20.309Z</time>
      </trkpt>
      <trkpt lat="44.59693" lon="1.83817">
        <ele>232</ele>
        <time>2019-08-05T10:23:25.306Z</time>
      </trkpt>
      <trkpt lat="44.59689" lon="1.83806">
        <ele>232</ele>
        <time>2019-08-05T10:23:30.301Z</time>
      </trkpt>
      <trkpt lat="44.59687" lon="1.83797">
        <ele>232</ele>
        <time>2019-08-05T10:23:34.323Z</time>
      </trkpt>
      <trkpt lat="44.59683" lon="1.83792">
        <ele>232</ele>
        <time>2019-08-05T10:23:39.303Z</time>
      </trkpt>
      <trkpt lat="44.59679" lon="1.83787">
        <ele>232</ele>
        <time>2019-08-05T10:23:44.333Z</time>
      </trkpt>
      <trkpt lat="44.59674" lon="1.8378">
        <ele>232</ele>
        <time>2019-08-05T10:23:49.325Z</time>
      </trkpt>
      <trkpt lat="44.5967" lon="1.83777">
        <ele>232</ele>
        <time>2019-08-05T10:23:54.304Z</time>
      </trkpt>
      <trkpt lat="44.59665" lon="1.8377">
        <ele>232</ele>
        <time>2019-08-05T10:23:59.290Z</time>
      </trkpt>
      <trkpt lat="44.59663" lon="1.83765">
        <ele>232</ele>
        <time>2019-08-05T10:24:03.301Z</time>
      </trkpt>
      <trkpt lat="44.5966" lon="1.83756">
        <ele>236</ele>
        <time>2019-08-05T10:24:08.311Z</time>
      </trkpt>
      <trkpt lat="44.59655" lon="1.8375">
        <ele>236</ele>
        <time>2019-08-05T10:24:13.314Z</time>
      </trkpt>
      <trkpt lat="44.5965" lon="1.83752">
        <ele>234</ele>
        <time>2019-08-05T10:24:18.306Z</time>
      </trkpt>
      <trkpt lat="44.59652" lon="1.83751">
        <ele>234</ele>
        <time>2019-08-05T10:24:23.310Z</time>
      </trkpt>
      <trkpt lat="44.59656" lon="1.83754">
        <ele>236</ele>
        <time>2019-08-05T10:24:28.311Z</time>
      </trkpt>
      <trkpt lat="44.5966" lon="1.83761">
        <ele>236</ele>
        <time>2019-08-05T10:24:33.314Z</time>
      </trkpt>
      <trkpt lat="44.59665" lon="1.83767">
        <ele>232</ele>
        <time>2019-08-05T10:24:38.319Z</time>
      </trkpt>
      <trkpt lat="44.59669" lon="1.83776">
        <ele>232</ele>
        <time>2019-08-05T10:24:43.310Z</time>
      </trkpt>
      <trkpt lat="44.59676" lon="1.83785">
        <ele>232</ele>
        <time>2019-08-05T10:24:48.303Z</time>
      </trkpt>
      <trkpt lat="44.5968" lon="1.83791">
        <ele>232</ele>
        <time>2019-08-05T10:24:52.315Z</time>
      </trkpt>
      <trkpt lat="44.59681" lon="1.83797">
        <ele>232</ele>
        <time>2019-08-05T10:24:57.294Z</time>
      </trkpt>
      <trkpt lat="44.59683" lon="1.838">
        <ele>232</ele>
        <time>2019-08-05T10:25:01.333Z</time>
      </trkpt>
      <trkpt lat="44.59685" lon="1.83806">
        <ele>232</ele>
        <time>2019-08-05T10:25:06.307Z</time>
      </trkpt>
      <trkpt lat="44.59687" lon="1.83812">
        <ele>232</ele>
        <time>2019-08-05T10:25:10.319Z</time>
      </trkpt>
      <trkpt lat="44.59692" lon="1.8382">
        <ele>226</ele>
        <time>2019-08-05T10:25:15.299Z</time>
      </trkpt>
      <trkpt lat="44.59692" lon="1.83825">
        <ele>226</ele>
        <time>2019-08-05T10:25:20.310Z</time>
      </trkpt>
      <trkpt lat="44.59695" lon="1.83831">
        <ele>226</ele>
        <time>2019-08-05T10:25:25.298Z</time>
      </trkpt>
      <trkpt lat="44.59699" lon="1.83838">
        <ele>226</ele>
        <time>2019-08-05T10:25:30.307Z</time>
      </trkpt>
      <trkpt lat="44.59702" lon="1.83845">
        <ele>226</ele>
        <time>2019-08-05T10:25:35.321Z</time>
      </trkpt>
      <trkpt lat="44.59704" lon="1.83853">
        <ele>221</ele>
        <time>2019-08-05T10:25:40.311Z</time>
      </trkpt>
      <trkpt lat="44.59709" lon="1.8386">
        <ele>229</ele>
        <time>2019-08-05T10:25:45.297Z</time>
      </trkpt>
      <trkpt lat="44.59712" lon="1.83864">
        <ele>229</ele>
        <time>2019-08-05T10:25:49.309Z</time>
      </trkpt>
      <trkpt lat="44.59716" lon="1.83868">
        <ele>229</ele>
        <time>2019-08-05T10:26:03.314Z</time>
      </trkpt>
      <trkpt lat="44.59713" lon="1.83866">
        <ele>229</ele>
        <time>2019-08-05T10:26:08.345Z</time>
      </trkpt>
      <trkpt lat="44.59707" lon="1.83864">
        <ele>221</ele>
        <time>2019-08-05T10:26:13.311Z</time>
      </trkpt>
      <trkpt lat="44.59705" lon="1.8386">
        <ele>221</ele>
        <time>2019-08-05T10:26:18.318Z</time>
      </trkpt>
      <trkpt lat="44.59702" lon="1.83853">
        <ele>221</ele>
        <time>2019-08-05T10:26:23.300Z</time>
      </trkpt>
      <trkpt lat="44.597" lon="1.83843">
        <ele>226</ele>
        <time>2019-08-05T10:26:28.308Z</time>
      </trkpt>
      <trkpt lat="44.59698" lon="1.83839">
        <ele>226</ele>
        <time>2019-08-05T10:26:33.295Z</time>
      </trkpt>
      <trkpt lat="44.59696" lon="1.83836">
        <ele>226</ele>
        <time>2019-08-05T10:26:37.330Z</time>
      </trkpt>
      <trkpt lat="44.59692" lon="1.8383">
        <ele>226</ele>
        <time>2019-08-05T10:26:42.297Z</time>
      </trkpt>
      <trkpt lat="44.59688" lon="1.83825">
        <ele>226</ele>
        <time>2019-08-05T10:26:47.304Z</time>
      </trkpt>
      <trkpt lat="44.59683" lon="1.83817">
        <ele>232</ele>
        <time>2019-08-05T10:26:51.320Z</time>
      </trkpt>
      <trkpt lat="44.59679" lon="1.83805">
        <ele>227</ele>
        <time>2019-08-05T10:26:56.303Z</time>
      </trkpt>
      <trkpt lat="44.59676" lon="1.83799">
        <ele>227</ele>
        <time>2019-08-05T10:27:01.316Z</time>
      </trkpt>
      <trkpt lat="44.59673" lon="1.83795">
        <ele>227</ele>
        <time>2019-08-05T10:27:06.308Z</time>
      </trkpt>
      <trkpt lat="44.59671" lon="1.83787">
        <ele>232</ele>
        <time>2019-08-05T10:27:11.302Z</time>
      </trkpt>
      <trkpt lat="44.59668" lon="1.83782">
        <ele>232</ele>
        <time>2019-08-05T10:27:16.306Z</time>
      </trkpt>
      <trkpt lat="44.59664" lon="1.83777">
        <ele>232</ele>
        <time>2019-08-05T10:27:21.301Z</time>
      </trkpt>
      <trkpt lat="44.59663" lon="1.83772">
        <ele>232</ele>
        <time>2019-08-05T10:27:26.304Z</time>
      </trkpt>
      <trkpt lat="44.5966" lon="1.83764">
        <ele>232</ele>
        <time>2019-08-05T10:27:31.294Z</time>
      </trkpt>
      <trkpt lat="44.59659" lon="1.8376">
        <ele>236</ele>
        <time>2019-08-05T10:27:35.316Z</time>
      </trkpt>
      <trkpt lat="44.59655" lon="1.83754">
        <ele>236</ele>
        <time>2019-08-05T10:27:40.312Z</time>
      </trkpt>
      <trkpt lat="44.59653" lon="1.83753">
        <ele>236</ele>
        <time>2019-08-05T10:27:45.306Z</time>
      </trkpt>
      <trkpt lat="44.59652" lon="1.83752">
        <ele>234</ele>
        <time>2019-08-05T10:27:50.308Z</time>
      </trkpt>
      <trkpt lat="44.59649" lon="1.83759">
        <ele>234</ele>
        <time>2019-08-05T10:27:55.312Z</time>
      </trkpt>
      <trkpt lat="44.59646" lon="1.83765">
        <ele>232</ele>
        <time>2019-08-05T10:28:00.312Z</time>
      </trkpt>
      <trkpt lat="44.59643" lon="1.83771">
        <ele>232</ele>
        <time>2019-08-05T10:28:05.299Z</time>
      </trkpt>
      <trkpt lat="44.59642" lon="1.83779">
        <ele>232</ele>
        <time>2019-08-05T10:28:10.307Z</time>
      </trkpt>
      <trkpt lat="44.5964" lon="1.83786">
        <ele>232</ele>
        <time>2019-08-05T10:28:15.303Z</time>
      </trkpt>
      <trkpt lat="44.59638" lon="1.83795">
        <ele>228</ele>
        <time>2019-08-05T10:28:20.319Z</time>
      </trkpt>
      <trkpt lat="44.59638" lon="1.83801">
        <ele>228</ele>
        <time>2019-08-05T10:28:25.304Z</time>
      </trkpt>
      <trkpt lat="44.59637" lon="1.83813">
        <ele>228</ele>
        <time>2019-08-05T10:28:29.322Z</time>
      </trkpt>
      <trkpt lat="44.59635" lon="1.83821">
        <ele>223</ele>
        <time>2019-08-05T10:28:34.306Z</time>
      </trkpt>
      <trkpt lat="44.59633" lon="1.83826">
        <ele>223</ele>
        <time>2019-08-05T10:28:39.314Z</time>
      </trkpt>
      <trkpt lat="44.59628" lon="1.83834">
        <ele>223</ele>
        <time>2019-08-05T10:28:44.275Z</time>
      </trkpt>
      <trkpt lat="44.59627" lon="1.83842">
        <ele>223</ele>
        <time>2019-08-05T10:28:48.317Z</time>
      </trkpt>
      <trkpt lat="44.59624" lon="1.83849">
        <ele>230</ele>
        <time>2019-08-05T10:28:53.309Z</time>
      </trkpt>
      <trkpt lat="44.59622" lon="1.83848">
        <ele>230</ele>
        <time>2019-08-05T10:28:58.314Z</time>
      </trkpt>
      <trkpt lat="44.5962" lon="1.83854">
        <ele>230</ele>
        <time>2019-08-05T10:29:03.304Z</time>
      </trkpt>
      <trkpt lat="44.59617" lon="1.83864">
        <ele>230</ele>
        <time>2019-08-05T10:29:08.302Z</time>
      </trkpt>
      <trkpt lat="44.59613" lon="1.83869">
        <ele>230</ele>
        <time>2019-08-05T10:29:12.320Z</time>
      </trkpt>
      <trkpt lat="44.59609" lon="1.83875">
        <ele>224</ele>
        <time>2019-08-05T10:29:17.313Z</time>
      </trkpt>
      <trkpt lat="44.59603" lon="1.83875">
        <ele>224</ele>
        <time>2019-08-05T10:29:22.294Z</time>
      </trkpt>
      <trkpt lat="44.59598" lon="1.83881">
        <ele>224</ele>
        <time>2019-08-05T10:29:27.296Z</time>
      </trkpt>
      <trkpt lat="44.59595" lon="1.83882">
        <ele>224</ele>
        <time>2019-08-05T10:29:32.294Z</time>
      </trkpt>
      <trkpt lat="44.5959" lon="1.83888">
        <ele>224</ele>
        <time>2019-08-05T10:29:37.308Z</time>
      </trkpt>
      <trkpt lat="44.59583" lon="1.8389">
        <ele>224</ele>
        <time>2019-08-05T10:29:42.310Z</time>
      </trkpt>
      <trkpt lat="44.59577" lon="1.83884">
        <ele>224</ele>
        <time>2019-08-05T10:29:47.305Z</time>
      </trkpt>
      <trkpt lat="44.59572" lon="1.83882">
        <ele>224</ele>
        <time>2019-08-05T10:29:52.316Z</time>
      </trkpt>
      <trkpt lat="44.59568" lon="1.83882">
        <ele>219</ele>
        <time>2019-08-05T10:29:57.326Z</time>
      </trkpt>
      <trkpt lat="44.59567" lon="1.83881">
        <ele>219</ele>
        <time>2019-08-05T10:30:02.305Z</time>
      </trkpt>
      <trkpt lat="44.59563" lon="1.8388">
        <ele>219</ele>
        <time>2019-08-05T10:30:07.335Z</time>
      </trkpt>
      <trkpt lat="44.59558" lon="1.83877">
        <ele>219</ele>
        <time>2019-08-05T10:30:12.300Z</time>
      </trkpt>
      <trkpt lat="44.59556" lon="1.83876">
        <ele>219</ele>
        <time>2019-08-05T10:30:16.325Z</time>
      </trkpt>
      <trkpt lat="44.59556" lon="1.83877">
        <ele>219</ele>
        <time>2019-08-05T10:30:21.313Z</time>
      </trkpt>
      <trkpt lat="44.59554" lon="1.83875">
        <ele>227</ele>
        <time>2019-08-05T10:30:26.293Z</time>
      </trkpt>
      <trkpt lat="44.59551" lon="1.83877">
        <ele>219</ele>
        <time>2019-08-05T10:30:30.316Z</time>
      </trkpt>
      <trkpt lat="44.59549" lon="1.83876">
        <ele>219</ele>
        <time>2019-08-05T10:30:34.348Z</time>
      </trkpt>
      <trkpt lat="44.59546" lon="1.83876">
        <ele>219</ele>
        <time>2019-08-05T10:30:39.313Z</time>
      </trkpt>
      <trkpt lat="44.59545" lon="1.83875">
        <ele>219</ele>
        <time>2019-08-05T10:30:44.296Z</time>
      </trkpt>
      <trkpt lat="44.59542" lon="1.83873">
        <ele>227</ele>
        <time>2019-08-05T10:30:48.315Z</time>
      </trkpt>
      <trkpt lat="44.59541" lon="1.83869">
        <ele>221</ele>
        <time>2019-08-05T10:30:53.301Z</time>
      </trkpt>
      <trkpt lat="44.59541" lon="1.83868">
        <ele>221</ele>
        <time>2019-08-05T10:30:58.304Z</time>
      </trkpt>
      <trkpt lat="44.59537" lon="1.83862">
        <ele>221</ele>
        <time>2019-08-05T10:31:03.285Z</time>
      </trkpt>
      <trkpt lat="44.59535" lon="1.83861">
        <ele>221</ele>
        <time>2019-08-05T10:31:07.305Z</time>
      </trkpt>
      <trkpt lat="44.59528" lon="1.83859">
        <ele>221</ele>
        <time>2019-08-05T10:31:11.315Z</time>
      </trkpt>
      <trkpt lat="44.59521" lon="1.83857">
        <ele>221</ele>
        <time>2019-08-05T10:31:16.297Z</time>
      </trkpt>
      <trkpt lat="44.59518" lon="1.83852">
        <ele>221</ele>
        <time>2019-08-05T10:31:21.321Z</time>
      </trkpt>
      <trkpt lat="44.59513" lon="1.83849">
        <ele>211</ele>
        <time>2019-08-05T10:31:26.287Z</time>
      </trkpt>
      <trkpt lat="44.59508" lon="1.8385">
        <ele>211</ele>
        <time>2019-08-05T10:31:31.303Z</time>
      </trkpt>
      <trkpt lat="44.59504" lon="1.83852">
        <ele>211</ele>
        <time>2019-08-05T10:31:36.294Z</time>
      </trkpt>
      <trkpt lat="44.59499" lon="1.83851">
        <ele>211</ele>
        <time>2019-08-05T10:31:40.307Z</time>
      </trkpt>
      <trkpt lat="44.59493" lon="1.83851">
        <ele>211</ele>
        <time>2019-08-05T10:31:50.301Z</time>
      </trkpt>
      <trkpt lat="44.59493" lon="1.83852">
        <ele>211</ele>
        <time>2019-08-05T10:31:54.319Z</time>
      </trkpt>
      <trkpt lat="44.59488" lon="1.83849">
        <ele>211</ele>
        <time>2019-08-05T10:31:59.314Z</time>
      </trkpt>
      <trkpt lat="44.59487" lon="1.83847">
        <ele>222</ele>
        <time>2019-08-05T10:32:04.303Z</time>
      </trkpt>
      <trkpt lat="44.59486" lon="1.83846">
        <ele>222</ele>
        <time>2019-08-05T10:32:09.309Z</time>
      </trkpt>
      <trkpt lat="44.59484" lon="1.83848">
        <ele>202</ele>
        <time>2019-08-05T10:32:14.308Z</time>
      </trkpt>
      <trkpt lat="44.59481" lon="1.83851">
        <ele>202</ele>
        <time>2019-08-05T10:32:18.328Z</time>
      </trkpt>
      <trkpt lat="44.59477" lon="1.83852">
        <ele>202</ele>
        <time>2019-08-05T10:32:23.307Z</time>
      </trkpt>
      <trkpt lat="44.59476" lon="1.83853">
        <ele>202</ele>
        <time>2019-08-05T10:32:28.280Z</time>
      </trkpt>
      <trkpt lat="44.59474" lon="1.83859">
        <ele>202</ele>
        <time>2019-08-05T10:32:33.304Z</time>
      </trkpt>
      <trkpt lat="44.59474" lon="1.83859">
        <ele>202</ele>
        <time>2019-08-05T10:32:37.351Z</time>
      </trkpt>
      <trkpt lat="44.59475" lon="1.83863">
        <ele>202</ele>
        <time>2019-08-05T10:32:42.299Z</time>
      </trkpt>
      <trkpt lat="44.59477" lon="1.83865">
        <ele>202</ele>
        <time>2019-08-05T10:32:47.308Z</time>
      </trkpt>
      <trkpt lat="44.59482" lon="1.83868">
        <ele>202</ele>
        <time>2019-08-05T10:32:52.307Z</time>
      </trkpt>
      <trkpt lat="44.59485" lon="1.83872">
        <ele>202</ele>
        <time>2019-08-05T10:32:57.318Z</time>
      </trkpt>
      <trkpt lat="44.59488" lon="1.83875">
        <ele>201</ele>
        <time>2019-08-05T10:33:02.295Z</time>
      </trkpt>
      <trkpt lat="44.59491" lon="1.8388">
        <ele>201</ele>
        <time>2019-08-05T10:33:06.320Z</time>
      </trkpt>
      <trkpt lat="44.59497" lon="1.83883">
        <ele>201</ele>
        <time>2019-08-05T10:33:11.319Z</time>
      </trkpt>
      <trkpt lat="44.59501" lon="1.83892">
        <ele>201</ele>
        <time>2019-08-05T10:33:20.316Z</time>
      </trkpt>
      <trkpt lat="44.59502" lon="1.83892">
        <ele>201</ele>
        <time>2019-08-05T10:33:25.348Z</time>
      </trkpt>
      <trkpt lat="44.59502" lon="1.83894">
        <ele>201</ele>
        <time>2019-08-05T10:33:30.318Z</time>
      </trkpt>
      <trkpt lat="44.59503" lon="1.83896">
        <ele>201</ele>
        <time>2019-08-05T10:33:35.303Z</time>
      </trkpt>
      <trkpt lat="44.59505" lon="1.83899">
        <ele>201</ele>
        <time>2019-08-05T10:33:40.316Z</time>
      </trkpt>
      <trkpt lat="44.59506" lon="1.839">
        <ele>201</ele>
        <time>2019-08-05T10:33:45.306Z</time>
      </trkpt>
      <trkpt lat="44.59509" lon="1.83906">
        <ele>191</ele>
        <time>2019-08-05T10:33:50.298Z</time>
      </trkpt>
      <trkpt lat="44.59513" lon="1.83909">
        <ele>191</ele>
        <time>2019-08-05T10:33:55.297Z</time>
      </trkpt>
      <trkpt lat="44.59513" lon="1.83909">
        <ele>191</ele>
        <time>2019-08-05T10:34:00.303Z</time>
      </trkpt>
      <trkpt lat="44.59514" lon="1.8391">
        <ele>199</ele>
        <time>2019-08-05T10:34:05.318Z</time>
      </trkpt>
      <trkpt lat="44.59515" lon="1.83913">
        <ele>199</ele>
        <time>2019-08-05T10:34:10.291Z</time>
      </trkpt>
      <trkpt lat="44.59516" lon="1.83918">
        <ele>199</ele>
        <time>2019-08-05T10:34:15.306Z</time>
      </trkpt>
      <trkpt lat="44.59517" lon="1.83926">
        <ele>199</ele>
        <time>2019-08-05T10:34:20.305Z</time>
      </trkpt>
      <trkpt lat="44.59522" lon="1.83934">
        <ele>189</ele>
        <time>2019-08-05T10:34:25.305Z</time>
      </trkpt>
      <trkpt lat="44.59525" lon="1.83944">
        <ele>189</ele>
        <time>2019-08-05T10:34:30.319Z</time>
      </trkpt>
      <trkpt lat="44.59524" lon="1.83949">
        <ele>189</ele>
        <time>2019-08-05T10:34:35.311Z</time>
      </trkpt>
      <trkpt lat="44.59526" lon="1.83953">
        <ele>189</ele>
        <time>2019-08-05T10:34:40.301Z</time>
      </trkpt>
      <trkpt lat="44.59528" lon="1.83958">
        <ele>189</ele>
        <time>2019-08-05T10:34:44.323Z</time>
      </trkpt>
      <trkpt lat="44.59529" lon="1.83966">
        <ele>182</ele>
        <time>2019-08-05T10:34:49.313Z</time>
      </trkpt>
      <trkpt lat="44.59532" lon="1.83968">
        <ele>182</ele>
        <time>2019-08-05T10:34:54.307Z</time>
      </trkpt>
      <trkpt lat="44.59534" lon="1.83976">
        <ele>182</ele>
        <time>2019-08-05T10:34:59.307Z</time>
      </trkpt>
      <trkpt lat="44.59537" lon="1.83984">
        <ele>182</ele>
        <time>2019-08-05T10:35:04.305Z</time>
      </trkpt>
      <trkpt lat="44.5954" lon="1.83983">
        <ele>182</ele>
        <time>2019-08-05T10:35:09.317Z</time>
      </trkpt>
      <trkpt lat="44.59543" lon="1.83992">
        <ele>184</ele>
        <time>2019-08-05T10:35:14.318Z</time>
      </trkpt>
      <trkpt lat="44.59547" lon="1.83996">
        <ele>184</ele>
        <time>2019-08-05T10:35:19.297Z</time>
      </trkpt>
      <trkpt lat="44.59548" lon="1.83996">
        <ele>184</ele>
        <time>2019-08-05T10:35:24.302Z</time>
      </trkpt>
      <trkpt lat="44.59551" lon="1.83999">
        <ele>184</ele>
        <time>2019-08-05T10:35:29.307Z</time>
      </trkpt>
      <trkpt lat="44.59553" lon="1.84003">
        <ele>184</ele>
        <time>2019-08-05T10:35:34.298Z</time>
      </trkpt>
      <trkpt lat="44.59557" lon="1.84008">
        <ele>184</ele>
        <time>2019-08-05T10:35:38.321Z</time>
      </trkpt>
      <trkpt lat="44.59562" lon="1.84016">
        <ele>180</ele>
        <time>2019-08-05T10:35:43.302Z</time>
      </trkpt>
      <trkpt lat="44.59566" lon="1.84023">
        <ele>180</ele>
        <time>2019-08-05T10:35:48.301Z</time>
      </trkpt>
      <trkpt lat="44.59566" lon="1.84035">
        <ele>180</ele>
        <time>2019-08-05T10:35:53.301Z</time>
      </trkpt>
      <trkpt lat="44.5956" lon="1.84036">
        <ele>180</ele>
        <time>2019-08-05T10:35:58.296Z</time>
      </trkpt>
      <trkpt lat="44.59557" lon="1.84035">
        <ele>180</ele>
        <time>2019-08-05T10:36:02.303Z</time>
      </trkpt>
      <trkpt lat="44.59551" lon="1.84034">
        <ele>180</ele>
        <time>2019-08-05T10:36:07.297Z</time>
      </trkpt>
      <trkpt lat="44.59543" lon="1.84036">
        <ele>180</ele>
        <time>2019-08-05T10:36:12.294Z</time>
      </trkpt>
      <trkpt lat="44.59538" lon="1.84038">
        <ele>175</ele>
        <time>2019-08-05T10:36:17.305Z</time>
      </trkpt>
      <trkpt lat="44.59535" lon="1.84043">
        <ele>172</ele>
        <time>2019-08-05T10:36:22.298Z</time>
      </trkpt>
      <trkpt lat="44.59533" lon="1.84052">
        <ele>172</ele>
        <time>2019-08-05T10:36:26.312Z</time>
      </trkpt>
      <trkpt lat="44.59532" lon="1.8406">
        <ele>172</ele>
        <time>2019-08-05T10:36:31.303Z</time>
      </trkpt>
      <trkpt lat="44.59529" lon="1.84065">
        <ele>172</ele>
        <time>2019-08-05T10:36:36.315Z</time>
      </trkpt>
      <trkpt lat="44.59528" lon="1.8406">
        <ele>172</ele>
        <time>2019-08-05T10:36:41.300Z</time>
      </trkpt>
      <trkpt lat="44.59528" lon="1.84062">
        <ele>172</ele>
        <time>2019-08-05T10:36:46.297Z</time>
      </trkpt>
      <trkpt lat="44.59528" lon="1.84064">
        <ele>172</ele>
        <time>2019-08-05T10:36:51.318Z</time>
      </trkpt>
      <trkpt lat="44.59523" lon="1.84067">
        <ele>172</ele>
        <time>2019-08-05T10:36:56.314Z</time>
      </trkpt>
      <trkpt lat="44.59521" lon="1.84071">
        <ele>169</ele>
        <time>2019-08-05T10:37:01.303Z</time>
      </trkpt>
      <trkpt lat="44.59515" lon="1.84067">
        <ele>172</ele>
        <time>2019-08-05T10:38:13.293Z</time>
      </trkpt>
      <trkpt lat="44.59515" lon="1.84066">
        <ele>172</ele>
        <time>2019-08-05T10:38:18.285Z</time>
      </trkpt>
      <trkpt lat="44.59512" lon="1.84064">
        <ele>168</ele>
        <time>2019-08-05T10:38:22.309Z</time>
      </trkpt>
      <trkpt lat="44.59509" lon="1.84054">
        <ele>168</ele>
        <time>2019-08-05T10:38:27.310Z</time>
      </trkpt>
      <trkpt lat="44.59504" lon="1.84042">
        <ele>170</ele>
        <time>2019-08-05T10:38:32.295Z</time>
      </trkpt>
      <trkpt lat="44.59502" lon="1.84034">
        <ele>170</ele>
        <time>2019-08-05T10:38:37.306Z</time>
      </trkpt>
      <trkpt lat="44.59499" lon="1.84023">
        <ele>170</ele>
        <time>2019-08-05T10:38:42.298Z</time>
      </trkpt>
      <trkpt lat="44.59495" lon="1.84014">
        <ele>170</ele>
        <time>2019-08-05T10:38:46.334Z</time>
      </trkpt>
      <trkpt lat="44.5949" lon="1.84006">
        <ele>172</ele>
        <time>2019-08-05T10:38:51.306Z</time>
      </trkpt>
      <trkpt lat="44.59488" lon="1.84">
        <ele>172</ele>
        <time>2019-08-05T10:38:56.314Z</time>
      </trkpt>
      <trkpt lat="44.59486" lon="1.83996">
        <ele>168</ele>
        <time>2019-08-05T10:39:01.308Z</time>
      </trkpt>
      <trkpt lat="44.59482" lon="1.83992">
        <ele>168</ele>
        <time>2019-08-05T10:39:06.303Z</time>
      </trkpt>
      <trkpt lat="44.59476" lon="1.83982">
        <ele>171</ele>
        <time>2019-08-05T10:39:11.302Z</time>
      </trkpt>
      <trkpt lat="44.59472" lon="1.83974">
        <ele>171</ele>
        <time>2019-08-05T10:39:16.297Z</time>
      </trkpt>
      <trkpt lat="44.59468" lon="1.83964">
        <ele>171</ele>
        <time>2019-08-05T10:39:21.313Z</time>
      </trkpt>
      <trkpt lat="44.59463" lon="1.83956">
        <ele>176</ele>
        <time>2019-08-05T10:39:26.318Z</time>
      </trkpt>
      <trkpt lat="44.59456" lon="1.83949">
        <ele>172</ele>
        <time>2019-08-05T10:39:31.295Z</time>
      </trkpt>
      <trkpt lat="44.59452" lon="1.83943">
        <ele>172</ele>
        <time>2019-08-05T10:39:35.310Z</time>
      </trkpt>
      <trkpt lat="44.59448" lon="1.83935">
        <ele>172</ele>
        <time>2019-08-05T10:39:40.298Z</time>
      </trkpt>
      <trkpt lat="44.59446" lon="1.83927">
        <ele>178</ele>
        <time>2019-08-05T10:39:44.310Z</time>
      </trkpt>
      <trkpt lat="44.59443" lon="1.83918">
        <ele>178</ele>
        <time>2019-08-05T10:39:49.316Z</time>
      </trkpt>
      <trkpt lat="44.59438" lon="1.83913">
        <ele>178</ele>
        <time>2019-08-05T10:39:54.306Z</time>
      </trkpt>
      <trkpt lat="44.59433" lon="1.83909">
        <ele>178</ele>
        <time>2019-08-05T10:39:59.296Z</time>
      </trkpt>
      <trkpt lat="44.59428" lon="1.83904">
        <ele>173</ele>
        <time>2019-08-05T10:40:03.307Z</time>
      </trkpt>
      <trkpt lat="44.59423" lon="1.83901">
        <ele>179</ele>
        <time>2019-08-05T10:40:07.342Z</time>
      </trkpt>
      <trkpt lat="44.59417" lon="1.83896">
        <ele>179</ele>
        <time>2019-08-05T10:40:12.308Z</time>
      </trkpt>
      <trkpt lat="44.59409" lon="1.83889">
        <ele>179</ele>
        <time>2019-08-05T10:40:17.315Z</time>
      </trkpt>
      <trkpt lat="44.59403" lon="1.83886">
        <ele>179</ele>
        <time>2019-08-05T10:40:22.295Z</time>
      </trkpt>
      <trkpt lat="44.59397" lon="1.83881">
        <ele>175</ele>
        <time>2019-08-05T10:40:26.326Z</time>
      </trkpt>
      <trkpt lat="44.59389" lon="1.83875">
        <ele>175</ele>
        <time>2019-08-05T10:40:31.301Z</time>
      </trkpt>
      <trkpt lat="44.59384" lon="1.83873">
        <ele>188</ele>
        <time>2019-08-05T10:40:35.313Z</time>
      </trkpt>
      <trkpt lat="44.59376" lon="1.83866">
        <ele>188</ele>
        <time>2019-08-05T10:40:40.309Z</time>
      </trkpt>
      <trkpt lat="44.59369" lon="1.83862">
        <ele>174</ele>
        <time>2019-08-05T10:40:45.298Z</time>
      </trkpt>
      <trkpt lat="44.59363" lon="1.8386">
        <ele>174</ele>
        <time>2019-08-05T10:40:49.327Z</time>
      </trkpt>
      <trkpt lat="44.59354" lon="1.83856">
        <ele>174</ele>
        <time>2019-08-05T10:40:54.296Z</time>
      </trkpt>
      <trkpt lat="44.59349" lon="1.83856">
        <ele>174</ele>
        <time>2019-08-05T10:40:58.316Z</time>
      </trkpt>
      <trkpt lat="44.59339" lon="1.83856">
        <ele>171</ele>
        <time>2019-08-05T10:41:03.286Z</time>
      </trkpt>
      <trkpt lat="44.59333" lon="1.83858">
        <ele>171</ele>
        <time>2019-08-05T10:41:07.305Z</time>
      </trkpt>
      <trkpt lat="44.59325" lon="1.83861">
        <ele>171</ele>
        <time>2019-08-05T10:41:12.299Z</time>
      </trkpt>
      <trkpt lat="44.59322" lon="1.83859">
        <ele>171</ele>
        <time>2019-08-05T10:41:17.315Z</time>
      </trkpt>
      <trkpt lat="44.59321" lon="1.83861">
        <ele>171</ele>
        <time>2019-08-05T10:41:22.309Z</time>
      </trkpt>
      <trkpt lat="44.59318" lon="1.83865">
        <ele>170</ele>
        <time>2019-08-05T10:41:27.306Z</time>
      </trkpt>
      <trkpt lat="44.59315" lon="1.83876">
        <ele>169</ele>
        <time>2019-08-05T10:41:32.304Z</time>
      </trkpt>
      <trkpt lat="44.59313" lon="1.83882">
        <ele>169</ele>
        <time>2019-08-05T10:41:37.306Z</time>
      </trkpt>
      <trkpt lat="44.59311" lon="1.83889">
        <ele>169</ele>
        <time>2019-08-05T10:41:42.298Z</time>
      </trkpt>
      <trkpt lat="44.59309" lon="1.83899">
        <ele>169</ele>
        <time>2019-08-05T10:41:47.326Z</time>
      </trkpt>
      <trkpt lat="44.59308" lon="1.83905">
        <ele>168</ele>
        <time>2019-08-05T10:41:52.301Z</time>
      </trkpt>
      <trkpt lat="44.59308" lon="1.8391">
        <ele>168</ele>
        <time>2019-08-05T10:41:56.314Z</time>
      </trkpt>
      <trkpt lat="44.59302" lon="1.83919">
        <ele>168</ele>
        <time>2019-08-05T10:42:01.294Z</time>
      </trkpt>
      <trkpt lat="44.59301" lon="1.8393">
        <ele>168</ele>
        <time>2019-08-05T10:42:05.320Z</time>
      </trkpt>
      <trkpt lat="44.59298" lon="1.83941">
        <ele>168</ele>
        <time>2019-08-05T10:42:10.301Z</time>
      </trkpt>
      <trkpt lat="44.59297" lon="1.83949">
        <ele>168</ele>
        <time>2019-08-05T10:42:15.298Z</time>
      </trkpt>
      <trkpt lat="44.59297" lon="1.8396">
        <ele>170</ele>
        <time>2019-08-05T10:42:20.312Z</time>
      </trkpt>
      <trkpt lat="44.59298" lon="1.83963">
        <ele>170</ele>
        <time>2019-08-05T10:42:25.298Z</time>
      </trkpt>
      <trkpt lat="44.59299" lon="1.83967">
        <ele>170</ele>
        <time>2019-08-05T10:42:30.314Z</time>
      </trkpt>
      <trkpt lat="44.59299" lon="1.83968">
        <ele>170</ele>
        <time>2019-08-05T10:42:35.308Z</time>
      </trkpt>
      <trkpt lat="44.59299" lon="1.83972">
        <ele>170</ele>
        <time>2019-08-05T10:42:39.327Z</time>
      </trkpt>
      <trkpt lat="44.593" lon="1.83983">
        <ele>170</ele>
        <time>2019-08-05T10:42:44.296Z</time>
      </trkpt>
      <trkpt lat="44.59298" lon="1.83993">
        <ele>172</ele>
        <time>2019-08-05T10:42:49.299Z</time>
      </trkpt>
      <trkpt lat="44.59294" lon="1.84003">
        <ele>172</ele>
        <time>2019-08-05T10:42:54.311Z</time>
      </trkpt>
      <trkpt lat="44.59291" lon="1.84009">
        <ele>171</ele>
        <time>2019-08-05T10:42:58.332Z</time>
      </trkpt>
      <trkpt lat="44.59283" lon="1.84014">
        <ele>172</ele>
        <time>2019-08-05T10:43:03.297Z</time>
      </trkpt>
      <trkpt lat="44.59276" lon="1.84019">
        <ele>172</ele>
        <time>2019-08-05T10:43:07.305Z</time>
      </trkpt>
      <trkpt lat="44.5927" lon="1.84019">
        <ele>172</ele>
        <time>2019-08-05T10:43:11.313Z</time>
      </trkpt>
      <trkpt lat="44.59263" lon="1.84022">
        <ele>171</ele>
        <time>2019-08-05T10:43:16.286Z</time>
      </trkpt>
      <trkpt lat="44.59261" lon="1.84023">
        <ele>171</ele>
        <time>2019-08-05T10:43:20.316Z</time>
      </trkpt>
      <trkpt lat="44.59256" lon="1.84024">
        <ele>171</ele>
        <time>2019-08-05T10:43:25.295Z</time>
      </trkpt>
      <trkpt lat="44.59251" lon="1.84031">
        <ele>171</ele>
        <time>2019-08-05T10:43:29.313Z</time>
      </trkpt>
      <trkpt lat="44.59241" lon="1.84034">
        <ele>171</ele>
        <time>2019-08-05T10:43:34.301Z</time>
      </trkpt>
      <trkpt lat="44.59235" lon="1.84035">
        <ele>173</ele>
        <time>2019-08-05T10:43:39.309Z</time>
      </trkpt>
      <trkpt lat="44.59229" lon="1.84039">
        <ele>173</ele>
        <time>2019-08-05T10:43:44.309Z</time>
      </trkpt>
      <trkpt lat="44.59225" lon="1.84043">
        <ele>173</ele>
        <time>2019-08-05T10:43:49.313Z</time>
      </trkpt>
      <trkpt lat="44.59223" lon="1.84048">
        <ele>173</ele>
        <time>2019-08-05T10:43:54.305Z</time>
      </trkpt>
      <trkpt lat="44.59223" lon="1.84048">
        <ele>173</ele>
        <time>2019-08-05T10:43:59.322Z</time>
      </trkpt>
      <trkpt lat="44.59222" lon="1.84051">
        <ele>173</ele>
        <time>2019-08-05T10:44:04.302Z</time>
      </trkpt>
      <trkpt lat="44.59223" lon="1.8406">
        <ele>173</ele>
        <time>2019-08-05T10:44:09.308Z</time>
      </trkpt>
      <trkpt lat="44.59222" lon="1.84063">
        <ele>173</ele>
        <time>2019-08-05T10:44:14.308Z</time>
      </trkpt>
      <trkpt lat="44.59217" lon="1.84065">
        <ele>173</ele>
        <time>2019-08-05T10:44:19.290Z</time>
      </trkpt>
      <trkpt lat="44.59217" lon="1.84065">
        <ele>173</ele>
        <time>2019-08-05T10:44:38.306Z</time>
      </trkpt>
      <trkpt lat="44.59221" lon="1.84064">
        <ele>173</ele>
        <time>2019-08-05T10:44:43.311Z</time>
      </trkpt>
      <trkpt lat="44.59225" lon="1.84063">
        <ele>173</ele>
        <time>2019-08-05T10:44:48.301Z</time>
      </trkpt>
      <trkpt lat="44.59226" lon="1.84063">
        <ele>173</ele>
        <time>2019-08-05T10:44:53.299Z</time>
      </trkpt>
      <trkpt lat="44.59233" lon="1.84065">
        <ele>173</ele>
        <time>2019-08-05T10:44:58.306Z</time>
      </trkpt>
      <trkpt lat="44.59236" lon="1.84063">
        <ele>173</ele>
        <time>2019-08-05T10:45:18.307Z</time>
      </trkpt>
      <trkpt lat="44.59239" lon="1.84062">
        <ele>172</ele>
        <time>2019-08-05T10:45:23.318Z</time>
      </trkpt>
      <trkpt lat="44.59251" lon="1.84069">
        <ele>172</ele>
        <time>2019-08-05T10:45:28.310Z</time>
      </trkpt>
      <trkpt lat="44.59259" lon="1.84072">
        <ele>175</ele>
        <time>2019-08-05T10:45:33.312Z</time>
      </trkpt>
      <trkpt lat="44.59267" lon="1.84078">
        <ele>176</ele>
        <time>2019-08-05T10:45:38.307Z</time>
      </trkpt>
      <trkpt lat="44.59273" lon="1.8408">
        <ele>176</ele>
        <time>2019-08-05T10:45:43.302Z</time>
      </trkpt>
      <trkpt lat="44.59277" lon="1.84082">
        <ele>176</ele>
        <time>2019-08-05T10:45:48.307Z</time>
      </trkpt>
      <trkpt lat="44.59281" lon="1.84086">
        <ele>176</ele>
        <time>2019-08-05T10:45:53.305Z</time>
      </trkpt>
      <trkpt lat="44.59285" lon="1.84086">
        <ele>176</ele>
        <time>2019-08-05T10:45:58.313Z</time>
      </trkpt>
      <trkpt lat="44.5929" lon="1.8409">
        <ele>176</ele>
        <time>2019-08-05T10:46:03.298Z</time>
      </trkpt>
      <trkpt lat="44.59295" lon="1.84095">
        <ele>179</ele>
        <time>2019-08-05T10:46:08.331Z</time>
      </trkpt>
      <trkpt lat="44.59301" lon="1.841">
        <ele>184</ele>
        <time>2019-08-05T10:46:13.306Z</time>
      </trkpt>
      <trkpt lat="44.59306" lon="1.84106">
        <ele>184</ele>
        <time>2019-08-05T10:46:18.302Z</time>
      </trkpt>
      <trkpt lat="44.59311" lon="1.84114">
        <ele>184</ele>
        <time>2019-08-05T10:46:23.294Z</time>
      </trkpt>
      <trkpt lat="44.59313" lon="1.84124">
        <ele>184</ele>
        <time>2019-08-05T10:46:28.316Z</time>
      </trkpt>
      <trkpt lat="44.5931" lon="1.84134">
        <ele>188</ele>
        <time>2019-08-05T10:46:33.292Z</time>
      </trkpt>
      <trkpt lat="44.5931" lon="1.8414">
        <ele>188</ele>
        <time>2019-08-05T10:46:37.311Z</time>
      </trkpt>
      <trkpt lat="44.59309" lon="1.84149">
        <ele>188</ele>
        <time>2019-08-05T10:46:42.303Z</time>
      </trkpt>
      <trkpt lat="44.59307" lon="1.84155">
        <ele>189</ele>
        <time>2019-08-05T10:46:46.313Z</time>
      </trkpt>
      <trkpt lat="44.59304" lon="1.84165">
        <ele>189</ele>
        <time>2019-08-05T10:46:51.308Z</time>
      </trkpt>
      <trkpt lat="44.59301" lon="1.84172">
        <ele>189</ele>
        <time>2019-08-05T10:46:56.310Z</time>
      </trkpt>
      <trkpt lat="44.59296" lon="1.8418">
        <ele>189</ele>
        <time>2019-08-05T10:47:01.293Z</time>
      </trkpt>
      <trkpt lat="44.59291" lon="1.84188">
        <ele>190</ele>
        <time>2019-08-05T10:47:06.285Z</time>
      </trkpt>
      <trkpt lat="44.59288" lon="1.84195">
        <ele>190</ele>
        <time>2019-08-05T10:47:10.299Z</time>
      </trkpt>
      <trkpt lat="44.59283" lon="1.84203">
        <ele>190</ele>
        <time>2019-08-05T10:47:15.284Z</time>
      </trkpt>
      <trkpt lat="44.59279" lon="1.84209">
        <ele>189</ele>
        <time>2019-08-05T10:47:20.298Z</time>
      </trkpt>
      <trkpt lat="44.59276" lon="1.84213">
        <ele>189</ele>
        <time>2019-08-05T10:47:24.317Z</time>
      </trkpt>
      <trkpt lat="44.59273" lon="1.84218">
        <ele>189</ele>
        <time>2019-08-05T10:47:29.292Z</time>
      </trkpt>
      <trkpt lat="44.59271" lon="1.84221">
        <ele>189</ele>
        <time>2019-08-05T10:47:33.298Z</time>
      </trkpt>
      <trkpt lat="44.59269" lon="1.8423">
        <ele>189</ele>
        <time>2019-08-05T10:47:38.300Z</time>
      </trkpt>
      <trkpt lat="44.59268" lon="1.84236">
        <ele>189</ele>
        <time>2019-08-05T10:47:43.295Z</time>
      </trkpt>
      <trkpt lat="44.59264" lon="1.84243">
        <ele>191</ele>
        <time>2019-08-05T10:47:48.322Z</time>
      </trkpt>
      <trkpt lat="44.5926" lon="1.84249">
        <ele>192</ele>
        <time>2019-08-05T10:47:53.312Z</time>
      </trkpt>
      <trkpt lat="44.59258" lon="1.8426">
        <ele>192</ele>
        <time>2019-08-05T10:47:58.291Z</time>
      </trkpt>
      <trkpt lat="44.59257" lon="1.84268">
        <ele>194</ele>
        <time>2019-08-05T10:48:03.303Z</time>
      </trkpt>
      <trkpt lat="44.59258" lon="1.84276">
        <ele>194</ele>
        <time>2019-08-05T10:48:08.320Z</time>
      </trkpt>
      <trkpt lat="44.59261" lon="1.84285">
        <ele>194</ele>
        <time>2019-08-05T10:48:13.303Z</time>
      </trkpt>
      <trkpt lat="44.59266" lon="1.84291">
        <ele>190</ele>
        <time>2019-08-05T10:48:18.316Z</time>
      </trkpt>
      <trkpt lat="44.59271" lon="1.84297">
        <ele>192</ele>
        <time>2019-08-05T10:48:23.296Z</time>
      </trkpt>
      <trkpt lat="44.59275" lon="1.84303">
        <ele>192</ele>
        <time>2019-08-05T10:48:28.298Z</time>
      </trkpt>
      <trkpt lat="44.59278" lon="1.84311">
        <ele>192</ele>
        <time>2019-08-05T10:48:33.297Z</time>
      </trkpt>
      <trkpt lat="44.59282" lon="1.84319">
        <ele>192</ele>
        <time>2019-08-05T10:48:38.306Z</time>
      </trkpt>
      <trkpt lat="44.59285" lon="1.84327">
        <ele>192</ele>
        <time>2019-08-05T10:48:42.320Z</time>
      </trkpt>
      <trkpt lat="44.59285" lon="1.84334">
        <ele>192</ele>
        <time>2019-08-05T10:48:47.291Z</time>
      </trkpt>
      <trkpt lat="44.59287" lon="1.84346">
        <ele>192</ele>
        <time>2019-08-05T10:48:51.307Z</time>
      </trkpt>
      <trkpt lat="44.59286" lon="1.84357">
        <ele>192</ele>
        <time>2019-08-05T10:48:56.314Z</time>
      </trkpt>
      <trkpt lat="44.59287" lon="1.84365">
        <ele>192</ele>
        <time>2019-08-05T10:49:01.297Z</time>
      </trkpt>
      <trkpt lat="44.59288" lon="1.84371">
        <ele>192</ele>
        <time>2019-08-05T10:49:06.291Z</time>
      </trkpt>
      <trkpt lat="44.59288" lon="1.84382">
        <ele>193</ele>
        <time>2019-08-05T10:49:11.285Z</time>
      </trkpt>
      <trkpt lat="44.59288" lon="1.84388">
        <ele>193</ele>
        <time>2019-08-05T10:49:15.296Z</time>
      </trkpt>
      <trkpt lat="44.59289" lon="1.84396">
        <ele>193</ele>
        <time>2019-08-05T10:49:20.307Z</time>
      </trkpt>
      <trkpt lat="44.59289" lon="1.844">
        <ele>193</ele>
        <time>2019-08-05T10:49:25.297Z</time>
      </trkpt>
      <trkpt lat="44.5929" lon="1.84401">
        <ele>193</ele>
        <time>2019-08-05T10:49:30.305Z</time>
      </trkpt>
      <trkpt lat="44.5929" lon="1.84406">
        <ele>194</ele>
        <time>2019-08-05T10:49:34.322Z</time>
      </trkpt>
      <trkpt lat="44.59292" lon="1.84415">
        <ele>177</ele>
        <time>2019-08-05T10:49:39.291Z</time>
      </trkpt>
      <trkpt lat="44.59294" lon="1.84422">
        <ele>177</ele>
        <time>2019-08-05T10:49:44.325Z</time>
      </trkpt>
      <trkpt lat="44.59298" lon="1.84434">
        <ele>179</ele>
        <time>2019-08-05T10:49:49.280Z</time>
      </trkpt>
      <trkpt lat="44.59298" lon="1.84443">
        <ele>179</ele>
        <time>2019-08-05T10:49:53.293Z</time>
      </trkpt>
      <trkpt lat="44.59298" lon="1.84456">
        <ele>179</ele>
        <time>2019-08-05T10:49:58.299Z</time>
      </trkpt>
      <trkpt lat="44.59296" lon="1.84466">
        <ele>181</ele>
        <time>2019-08-05T10:50:03.285Z</time>
      </trkpt>
      <trkpt lat="44.59298" lon="1.84474">
        <ele>181</ele>
        <time>2019-08-05T10:50:07.303Z</time>
      </trkpt>
      <trkpt lat="44.59298" lon="1.84483">
        <ele>181</ele>
        <time>2019-08-05T10:50:12.312Z</time>
      </trkpt>
      <trkpt lat="44.59301" lon="1.84498">
        <ele>181</ele>
        <time>2019-08-05T10:50:17.299Z</time>
      </trkpt>
      <trkpt lat="44.59301" lon="1.84508">
        <ele>181</ele>
        <time>2019-08-05T10:50:22.304Z</time>
      </trkpt>
      <trkpt lat="44.59298" lon="1.84516">
        <ele>183</ele>
        <time>2019-08-05T10:50:27.290Z</time>
      </trkpt>
      <trkpt lat="44.593" lon="1.84526">
        <ele>183</ele>
        <time>2019-08-05T10:50:32.294Z</time>
      </trkpt>
      <trkpt lat="44.593" lon="1.84535">
        <ele>183</ele>
        <time>2019-08-05T10:50:37.281Z</time>
      </trkpt>
      <trkpt lat="44.59302" lon="1.84546">
        <ele>183</ele>
        <time>2019-08-05T10:50:42.327Z</time>
      </trkpt>
      <trkpt lat="44.59301" lon="1.84556">
        <ele>183</ele>
        <time>2019-08-05T10:50:47.287Z</time>
      </trkpt>
      <trkpt lat="44.59302" lon="1.84567">
        <ele>183</ele>
        <time>2019-08-05T10:50:52.306Z</time>
      </trkpt>
      <trkpt lat="44.59303" lon="1.84577">
        <ele>183</ele>
        <time>2019-08-05T10:50:57.286Z</time>
      </trkpt>
      <trkpt lat="44.59305" lon="1.84587">
        <ele>183</ele>
        <time>2019-08-05T10:51:02.291Z</time>
      </trkpt>
      <trkpt lat="44.59306" lon="1.84595">
        <ele>183</ele>
        <time>2019-08-05T10:51:07.301Z</time>
      </trkpt>
      <trkpt lat="44.59306" lon="1.84606">
        <ele>183</ele>
        <time>2019-08-05T10:51:12.298Z</time>
      </trkpt>
      <trkpt lat="44.59306" lon="1.84616">
        <ele>183</ele>
        <time>2019-08-05T10:51:17.301Z</time>
      </trkpt>
      <trkpt lat="44.59309" lon="1.84625">
        <ele>183</ele>
        <time>2019-08-05T10:51:22.299Z</time>
      </trkpt>
      <trkpt lat="44.59311" lon="1.84636">
        <ele>184</ele>
        <time>2019-08-05T10:51:27.287Z</time>
      </trkpt>
      <trkpt lat="44.59311" lon="1.84646">
        <ele>184</ele>
        <time>2019-08-05T10:51:32.317Z</time>
      </trkpt>
      <trkpt lat="44.59313" lon="1.84653">
        <ele>185</ele>
        <time>2019-08-05T10:51:36.338Z</time>
      </trkpt>
      <trkpt lat="44.59316" lon="1.84662">
        <ele>185</ele>
        <time>2019-08-05T10:51:41.301Z</time>
      </trkpt>
      <trkpt lat="44.59318" lon="1.84672">
        <ele>185</ele>
        <time>2019-08-05T10:51:46.302Z</time>
      </trkpt>
      <trkpt lat="44.59319" lon="1.8468">
        <ele>185</ele>
        <time>2019-08-05T10:51:51.282Z</time>
      </trkpt>
      <trkpt lat="44.59319" lon="1.8468">
        <ele>185</ele>
        <time>2019-08-05T10:51:56.307Z</time>
      </trkpt>
      <trkpt lat="44.59319" lon="1.84681">
        <ele>183</ele>
        <time>2019-08-05T10:52:01.298Z</time>
      </trkpt>
      <trkpt lat="44.59321" lon="1.84688">
        <ele>176</ele>
        <time>2019-08-05T10:52:06.305Z</time>
      </trkpt>
      <trkpt lat="44.59324" lon="1.847">
        <ele>176</ele>
        <time>2019-08-05T10:52:11.308Z</time>
      </trkpt>
      <trkpt lat="44.59325" lon="1.84709">
        <ele>174</ele>
        <time>2019-08-05T10:52:16.300Z</time>
      </trkpt>
      <trkpt lat="44.59326" lon="1.84719">
        <ele>174</ele>
        <time>2019-08-05T10:52:21.298Z</time>
      </trkpt>
      <trkpt lat="44.59329" lon="1.84729">
        <ele>174</ele>
        <time>2019-08-05T10:52:26.305Z</time>
      </trkpt>
      <trkpt lat="44.5933" lon="1.84738">
        <ele>174</ele>
        <time>2019-08-05T10:52:31.294Z</time>
      </trkpt>
      <trkpt lat="44.59332" lon="1.84749">
        <ele>174</ele>
        <time>2019-08-05T10:52:36.297Z</time>
      </trkpt>
      <trkpt lat="44.59331" lon="1.84759">
        <ele>174</ele>
        <time>2019-08-05T10:52:41.287Z</time>
      </trkpt>
      <trkpt lat="44.5933" lon="1.84769">
        <ele>174</ele>
        <time>2019-08-05T10:52:46.302Z</time>
      </trkpt>
      <trkpt lat="44.59331" lon="1.84781">
        <ele>174</ele>
        <time>2019-08-05T10:52:51.277Z</time>
      </trkpt>
      <trkpt lat="44.59334" lon="1.84791">
        <ele>174</ele>
        <time>2019-08-05T10:52:55.289Z</time>
      </trkpt>
      <trkpt lat="44.59334" lon="1.84804">
        <ele>174</ele>
        <time>2019-08-05T10:53:00.311Z</time>
      </trkpt>
      <trkpt lat="44.59334" lon="1.84812">
        <ele>174</ele>
        <time>2019-08-05T10:53:05.290Z</time>
      </trkpt>
      <trkpt lat="44.59335" lon="1.84822">
        <ele>176</ele>
        <time>2019-08-05T10:53:10.287Z</time>
      </trkpt>
      <trkpt lat="44.59335" lon="1.8483">
        <ele>176</ele>
        <time>2019-08-05T10:53:15.306Z</time>
      </trkpt>
      <trkpt lat="44.59338" lon="1.84843">
        <ele>176</ele>
        <time>2019-08-05T10:53:20.296Z</time>
      </trkpt>
      <trkpt lat="44.59342" lon="1.84851">
        <ele>176</ele>
        <time>2019-08-05T10:53:24.315Z</time>
      </trkpt>
      <trkpt lat="44.59345" lon="1.84861">
        <ele>176</ele>
        <time>2019-08-05T10:53:29.307Z</time>
      </trkpt>
      <trkpt lat="44.59347" lon="1.8487">
        <ele>176</ele>
        <time>2019-08-05T10:53:34.302Z</time>
      </trkpt>
      <trkpt lat="44.59348" lon="1.8488">
        <ele>171</ele>
        <time>2019-08-05T10:53:39.287Z</time>
      </trkpt>
      <trkpt lat="44.59347" lon="1.8489">
        <ele>171</ele>
        <time>2019-08-05T10:53:44.304Z</time>
      </trkpt>
      <trkpt lat="44.59347" lon="1.84903">
        <ele>169</ele>
        <time>2019-08-05T10:53:49.305Z</time>
      </trkpt>
      <trkpt lat="44.59346" lon="1.84914">
        <ele>175</ele>
        <time>2019-08-05T10:53:54.307Z</time>
      </trkpt>
      <trkpt lat="44.59346" lon="1.84925">
        <ele>175</ele>
        <time>2019-08-05T10:53:59.296Z</time>
      </trkpt>
      <trkpt lat="44.59346" lon="1.84933">
        <ele>175</ele>
        <time>2019-08-05T10:54:03.324Z</time>
      </trkpt>
      <trkpt lat="44.59344" lon="1.84943">
        <ele>175</ele>
        <time>2019-08-05T10:54:08.310Z</time>
      </trkpt>
      <trkpt lat="44.59344" lon="1.84955">
        <ele>175</ele>
        <time>2019-08-05T10:54:13.305Z</time>
      </trkpt>
      <trkpt lat="44.59345" lon="1.84964">
        <ele>177</ele>
        <time>2019-08-05T10:54:18.291Z</time>
      </trkpt>
      <trkpt lat="44.59348" lon="1.84975">
        <ele>169</ele>
        <time>2019-08-05T10:54:23.320Z</time>
      </trkpt>
      <trkpt lat="44.59347" lon="1.84985">
        <ele>177</ele>
        <time>2019-08-05T10:54:28.307Z</time>
      </trkpt>
      <trkpt lat="44.5935" lon="1.84995">
        <ele>171</ele>
        <time>2019-08-05T10:54:33.300Z</time>
      </trkpt>
      <trkpt lat="44.59354" lon="1.85004">
        <ele>171</ele>
        <time>2019-08-05T10:54:38.309Z</time>
      </trkpt>
      <trkpt lat="44.59355" lon="1.85014">
        <ele>174</ele>
        <time>2019-08-05T10:54:43.350Z</time>
      </trkpt>
      <trkpt lat="44.59356" lon="1.85019">
        <ele>174</ele>
        <time>2019-08-05T10:54:48.298Z</time>
      </trkpt>
      <trkpt lat="44.59357" lon="1.85023">
        <ele>174</ele>
        <time>2019-08-05T10:54:53.306Z</time>
      </trkpt>
      <trkpt lat="44.59358" lon="1.85033">
        <ele>174</ele>
        <time>2019-08-05T10:54:58.310Z</time>
      </trkpt>
      <trkpt lat="44.59359" lon="1.85044">
        <ele>174</ele>
        <time>2019-08-05T10:55:03.309Z</time>
      </trkpt>
      <trkpt lat="44.5936" lon="1.85051">
        <ele>174</ele>
        <time>2019-08-05T10:55:07.336Z</time>
      </trkpt>
      <trkpt lat="44.59361" lon="1.85061">
        <ele>174</ele>
        <time>2019-08-05T10:55:12.313Z</time>
      </trkpt>
      <trkpt lat="44.59361" lon="1.85074">
        <ele>174</ele>
        <time>2019-08-05T10:55:17.332Z</time>
      </trkpt>
      <trkpt lat="44.59361" lon="1.85084">
        <ele>174</ele>
        <time>2019-08-05T10:55:22.298Z</time>
      </trkpt>
      <trkpt lat="44.5936" lon="1.85095">
        <ele>174</ele>
        <time>2019-08-05T10:55:27.300Z</time>
      </trkpt>
      <trkpt lat="44.59361" lon="1.85103">
        <ele>173</ele>
        <time>2019-08-05T10:55:32.295Z</time>
      </trkpt>
      <trkpt lat="44.59362" lon="1.8511">
        <ele>173</ele>
        <time>2019-08-05T10:55:37.314Z</time>
      </trkpt>
      <trkpt lat="44.59363" lon="1.85118">
        <ele>173</ele>
        <time>2019-08-05T10:55:42.293Z</time>
      </trkpt>
      <trkpt lat="44.59366" lon="1.8513">
        <ele>173</ele>
        <time>2019-08-05T10:55:47.324Z</time>
      </trkpt>
      <trkpt lat="44.59366" lon="1.85138">
        <ele>173</ele>
        <time>2019-08-05T10:55:52.306Z</time>
      </trkpt>
      <trkpt lat="44.59367" lon="1.85147">
        <ele>173</ele>
        <time>2019-08-05T10:55:57.313Z</time>
      </trkpt>
      <trkpt lat="44.59368" lon="1.85156">
        <ele>174</ele>
        <time>2019-08-05T10:56:01.300Z</time>
      </trkpt>
      <trkpt lat="44.59367" lon="1.85164">
        <ele>174</ele>
        <time>2019-08-05T10:56:06.296Z</time>
      </trkpt>
      <trkpt lat="44.59365" lon="1.85174">
        <ele>174</ele>
        <time>2019-08-05T10:56:10.315Z</time>
      </trkpt>
      <trkpt lat="44.59365" lon="1.85185">
        <ele>174</ele>
        <time>2019-08-05T10:56:15.299Z</time>
      </trkpt>
      <trkpt lat="44.59364" lon="1.85195">
        <ele>174</ele>
        <time>2019-08-05T10:56:19.305Z</time>
      </trkpt>
      <trkpt lat="44.59362" lon="1.85206">
        <ele>174</ele>
        <time>2019-08-05T10:56:24.322Z</time>
      </trkpt>
      <trkpt lat="44.59361" lon="1.85216">
        <ele>174</ele>
        <time>2019-08-05T10:56:29.298Z</time>
      </trkpt>
      <trkpt lat="44.5936" lon="1.85225">
        <ele>174</ele>
        <time>2019-08-05T10:56:34.305Z</time>
      </trkpt>
      <trkpt lat="44.59357" lon="1.85238">
        <ele>171</ele>
        <time>2019-08-05T10:56:39.307Z</time>
      </trkpt>
      <trkpt lat="44.59354" lon="1.85251">
        <ele>171</ele>
        <time>2019-08-05T10:56:44.301Z</time>
      </trkpt>
      <trkpt lat="44.59351" lon="1.85264">
        <ele>170</ele>
        <time>2019-08-05T10:56:49.318Z</time>
      </trkpt>
      <trkpt lat="44.59352" lon="1.85276">
        <ele>170</ele>
        <time>2019-08-05T10:56:54.333Z</time>
      </trkpt>
      <trkpt lat="44.59351" lon="1.85286">
        <ele>170</ele>
        <time>2019-08-05T10:56:59.343Z</time>
      </trkpt>
      <trkpt lat="44.59349" lon="1.85296">
        <ele>168</ele>
        <time>2019-08-05T10:57:04.306Z</time>
      </trkpt>
      <trkpt lat="44.59347" lon="1.85303">
        <ele>175</ele>
        <time>2019-08-05T10:57:08.324Z</time>
      </trkpt>
      <trkpt lat="44.59347" lon="1.85313">
        <ele>168</ele>
        <time>2019-08-05T10:57:13.318Z</time>
      </trkpt>
      <trkpt lat="44.59349" lon="1.85323">
        <ele>167</ele>
        <time>2019-08-05T10:57:18.300Z</time>
      </trkpt>
      <trkpt lat="44.5935" lon="1.85336">
        <ele>167</ele>
        <time>2019-08-05T10:57:23.326Z</time>
      </trkpt>
      <trkpt lat="44.59346" lon="1.8534">
        <ele>173</ele>
        <time>2019-08-05T10:57:27.308Z</time>
      </trkpt>
      <trkpt lat="44.59344" lon="1.85347">
        <ele>173</ele>
        <time>2019-08-05T10:57:32.310Z</time>
      </trkpt>
      <trkpt lat="44.59346" lon="1.85351">
        <ele>174</ele>
        <time>2019-08-05T10:57:36.320Z</time>
      </trkpt>
      <trkpt lat="44.5935" lon="1.85358">
        <ele>168</ele>
        <time>2019-08-05T10:57:41.295Z</time>
      </trkpt>
      <trkpt lat="44.59353" lon="1.85364">
        <ele>168</ele>
        <time>2019-08-05T10:57:46.303Z</time>
      </trkpt>
      <trkpt lat="44.59356" lon="1.85365">
        <ele>168</ele>
        <time>2019-08-05T10:57:51.295Z</time>
      </trkpt>
      <trkpt lat="44.59359" lon="1.85364">
        <ele>168</ele>
        <time>2019-08-05T10:57:56.299Z</time>
      </trkpt>
      <trkpt lat="44.59366" lon="1.85369">
        <ele>168</ele>
        <time>2019-08-05T10:58:01.326Z</time>
      </trkpt>
      <trkpt lat="44.5937" lon="1.85371">
        <ele>168</ele>
        <time>2019-08-05T10:58:29.321Z</time>
      </trkpt>
      <trkpt lat="44.5937" lon="1.85374">
        <ele>168</ele>
        <time>2019-08-05T10:58:34.298Z</time>
      </trkpt>
      <trkpt lat="44.59367" lon="1.85376">
        <ele>169</ele>
        <time>2019-08-05T10:58:39.325Z</time>
      </trkpt>
      <trkpt lat="44.59363" lon="1.85375">
        <ele>168</ele>
        <time>2019-08-05T10:58:43.293Z</time>
      </trkpt>
      <trkpt lat="44.59358" lon="1.8537">
        <ele>168</ele>
        <time>2019-08-05T10:58:48.295Z</time>
      </trkpt>
      <trkpt lat="44.59351" lon="1.85369">
        <ele>168</ele>
        <time>2019-08-05T10:58:53.309Z</time>
      </trkpt>
      <trkpt lat="44.59347" lon="1.85377">
        <ele>175</ele>
        <time>2019-08-05T10:58:58.300Z</time>
      </trkpt>
      <trkpt lat="44.59344" lon="1.85375">
        <ele>175</ele>
        <time>2019-08-05T10:59:03.345Z</time>
      </trkpt>
      <trkpt lat="44.59343" lon="1.85372">
        <ele>174</ele>
        <time>2019-08-05T10:59:08.304Z</time>
      </trkpt>
      <trkpt lat="44.5934" lon="1.85366">
        <ele>174</ele>
        <time>2019-08-05T10:59:13.311Z</time>
      </trkpt>
      <trkpt lat="44.59339" lon="1.85371">
        <ele>174</ele>
        <time>2019-08-05T10:59:18.298Z</time>
      </trkpt>
      <trkpt lat="44.59338" lon="1.85383">
        <ele>175</ele>
        <time>2019-08-05T10:59:23.301Z</time>
      </trkpt>
      <trkpt lat="44.59337" lon="1.85394">
        <ele>175</ele>
        <time>2019-08-05T10:59:28.311Z</time>
      </trkpt>
      <trkpt lat="44.59336" lon="1.85405">
        <ele>173</ele>
        <time>2019-08-05T10:59:33.295Z</time>
      </trkpt>
      <trkpt lat="44.59334" lon="1.85412">
        <ele>173</ele>
        <time>2019-08-05T10:59:37.304Z</time>
      </trkpt>
      <trkpt lat="44.59333" lon="1.85419">
        <ele>173</ele>
        <time>2019-08-05T10:59:42.330Z</time>
      </trkpt>
      <trkpt lat="44.59331" lon="1.85425">
        <ele>173</ele>
        <time>2019-08-05T10:59:47.290Z</time>
      </trkpt>
      <trkpt lat="44.59329" lon="1.85433">
        <ele>172</ele>
        <time>2019-08-05T10:59:51.308Z</time>
      </trkpt>
      <trkpt lat="44.59326" lon="1.85443">
        <ele>172</ele>
        <time>2019-08-05T10:59:56.316Z</time>
      </trkpt>
      <trkpt lat="44.59324" lon="1.85451">
        <ele>172</ele>
        <time>2019-08-05T11:00:01.324Z</time>
      </trkpt>
      <trkpt lat="44.59322" lon="1.85461">
        <ele>171</ele>
        <time>2019-08-05T11:00:06.300Z</time>
      </trkpt>
      <trkpt lat="44.5932" lon="1.85468">
        <ele>171</ele>
        <time>2019-08-05T11:00:11.303Z</time>
      </trkpt>
      <trkpt lat="44.59315" lon="1.85476">
        <ele>181</ele>
        <time>2019-08-05T11:00:15.300Z</time>
      </trkpt>
      <trkpt lat="44.59311" lon="1.85486">
        <ele>181</ele>
        <time>2019-08-05T11:00:20.293Z</time>
      </trkpt>
      <trkpt lat="44.59309" lon="1.85495">
        <ele>181</ele>
        <time>2019-08-05T11:00:24.302Z</time>
      </trkpt>
      <trkpt lat="44.59308" lon="1.85505">
        <ele>181</ele>
        <time>2019-08-05T11:00:29.304Z</time>
      </trkpt>
      <trkpt lat="44.59306" lon="1.85515">
        <ele>179</ele>
        <time>2019-08-05T11:00:34.309Z</time>
      </trkpt>
      <trkpt lat="44.59301" lon="1.85523">
        <ele>179</ele>
        <time>2019-08-05T11:00:39.320Z</time>
      </trkpt>
      <trkpt lat="44.59299" lon="1.8553">
        <ele>179</ele>
        <time>2019-08-05T11:00:44.334Z</time>
      </trkpt>
      <trkpt lat="44.59296" lon="1.85541">
        <ele>179</ele>
        <time>2019-08-05T11:00:49.302Z</time>
      </trkpt>
      <trkpt lat="44.59292" lon="1.85553">
        <ele>173</ele>
        <time>2019-08-05T11:00:54.306Z</time>
      </trkpt>
      <trkpt lat="44.59289" lon="1.85562">
        <ele>189</ele>
        <time>2019-08-05T11:00:59.306Z</time>
      </trkpt>
      <trkpt lat="44.59287" lon="1.85574">
        <ele>183</ele>
        <time>2019-08-05T11:01:04.314Z</time>
      </trkpt>
      <trkpt lat="44.59285" lon="1.85585">
        <ele>183</ele>
        <time>2019-08-05T11:01:09.302Z</time>
      </trkpt>
      <trkpt lat="44.59284" lon="1.8559">
        <ele>183</ele>
        <time>2019-08-05T11:01:13.351Z</time>
      </trkpt>
      <trkpt lat="44.59285" lon="1.85598">
        <ele>179</ele>
        <time>2019-08-05T11:01:18.298Z</time>
      </trkpt>
      <trkpt lat="44.59286" lon="1.8561">
        <ele>179</ele>
        <time>2019-08-05T11:01:23.305Z</time>
      </trkpt>
      <trkpt lat="44.59283" lon="1.85621">
        <ele>179</ele>
        <time>2019-08-05T11:01:28.311Z</time>
      </trkpt>
      <trkpt lat="44.59281" lon="1.85629">
        <ele>176</ele>
        <time>2019-08-05T11:01:33.307Z</time>
      </trkpt>
      <trkpt lat="44.5928" lon="1.85633">
        <ele>176</ele>
        <time>2019-08-05T11:01:38.310Z</time>
      </trkpt>
      <trkpt lat="44.59281" lon="1.85637">
        <ele>176</ele>
        <time>2019-08-05T11:01:43.319Z</time>
      </trkpt>
      <trkpt lat="44.59284" lon="1.8564">
        <ele>176</ele>
        <time>2019-08-05T11:01:48.313Z</time>
      </trkpt>
      <trkpt lat="44.59284" lon="1.85641">
        <ele>176</ele>
        <time>2019-08-05T11:01:53.298Z</time>
      </trkpt>
      <trkpt lat="44.59285" lon="1.85644">
        <ele>176</ele>
        <time>2019-08-05T11:01:57.313Z</time>
      </trkpt>
      <trkpt lat="44.59285" lon="1.85649">
        <ele>176</ele>
        <time>2019-08-05T11:02:02.301Z</time>
      </trkpt>
      <trkpt lat="44.59284" lon="1.85655">
        <ele>174</ele>
        <time>2019-08-05T11:02:07.312Z</time>
      </trkpt>
      <trkpt lat="44.59285" lon="1.85658">
        <ele>174</ele>
        <time>2019-08-05T11:02:12.313Z</time>
      </trkpt>
      <trkpt lat="44.59284" lon="1.85669">
        <ele>174</ele>
        <time>2019-08-05T11:03:29.292Z</time>
      </trkpt>
      <trkpt lat="44.59285" lon="1.85672">
        <ele>174</ele>
        <time>2019-08-05T11:03:34.302Z</time>
      </trkpt>
      <trkpt lat="44.59284" lon="1.85678">
        <ele>174</ele>
        <time>2019-08-05T11:03:39.307Z</time>
      </trkpt>
      <trkpt lat="44.59285" lon="1.85681">
        <ele>173</ele>
        <time>2019-08-05T11:03:44.306Z</time>
      </trkpt>
      <trkpt lat="44.59285" lon="1.85682">
        <ele>173</ele>
        <time>2019-08-05T11:03:49.300Z</time>
      </trkpt>
      <trkpt lat="44.59283" lon="1.85674">
        <ele>174</ele>
        <time>2019-08-05T11:04:26.331Z</time>
      </trkpt>
      <trkpt lat="44.59283" lon="1.85672">
        <ele>174</ele>
        <time>2019-08-05T11:04:31.307Z</time>
      </trkpt>
      <trkpt lat="44.59283" lon="1.85671">
        <ele>174</ele>
        <time>2019-08-05T11:04:36.322Z</time>
      </trkpt>
      <trkpt lat="44.59282" lon="1.85667">
        <ele>174</ele>
        <time>2019-08-05T11:04:41.308Z</time>
      </trkpt>
      <trkpt lat="44.59282" lon="1.85664">
        <ele>174</ele>
        <time>2019-08-05T11:04:46.287Z</time>
      </trkpt>
      <trkpt lat="44.59282" lon="1.85663">
        <ele>174</ele>
        <time>2019-08-05T11:05:37.333Z</time>
      </trkpt>
      <trkpt lat="44.59283" lon="1.85669">
        <ele>174</ele>
        <time>2019-08-05T11:05:42.301Z</time>
      </trkpt>
      <trkpt lat="44.59283" lon="1.8567">
        <ele>174</ele>
        <time>2019-08-05T11:05:44.289Z</time>
      </trkpt>
      <trkpt lat="44.59272" lon="1.85662">
        <ele>174</ele>
        <time>2019-08-05T11:59:15.232Z</time>
      </trkpt>
      <trkpt lat="44.59268" lon="1.85663">
        <ele>174</ele>
        <time>2019-08-05T11:59:19.411Z</time>
      </trkpt>
      <trkpt lat="44.59267" lon="1.85674">
        <ele>174</ele>
        <time>2019-08-05T11:59:33.396Z</time>
      </trkpt>
      <trkpt lat="44.59269" lon="1.85665">
        <ele>174</ele>
        <time>2019-08-05T11:59:46.433Z</time>
      </trkpt>
      <trkpt lat="44.59267" lon="1.85662">
        <ele>174</ele>
        <time>2019-08-05T11:59:51.431Z</time>
      </trkpt>
      <trkpt lat="44.59266" lon="1.85661">
        <ele>174</ele>
        <time>2019-08-05T11:59:55.424Z</time>
      </trkpt>
      <trkpt lat="44.59258" lon="1.8566">
        <ele>185</ele>
        <time>2019-08-05T12:00:00.448Z</time>
      </trkpt>
      <trkpt lat="44.59264" lon="1.85655">
        <ele>174</ele>
        <time>2019-08-05T12:01:00.458Z</time>
      </trkpt>
      <trkpt lat="44.59265" lon="1.85654">
        <ele>174</ele>
        <time>2019-08-05T12:01:05.489Z</time>
      </trkpt>
      <trkpt lat="44.59265" lon="1.85654">
        <ele>174</ele>
        <time>2019-08-05T12:01:10.437Z</time>
      </trkpt>
      <trkpt lat="44.59266" lon="1.85651">
        <ele>176</ele>
        <time>2019-08-05T12:01:14.430Z</time>
      </trkpt>
      <trkpt lat="44.59266" lon="1.8565">
        <ele>176</ele>
        <time>2019-08-05T12:01:18.443Z</time>
      </trkpt>
      <trkpt lat="44.59268" lon="1.85637">
        <ele>176</ele>
        <time>2019-08-05T12:02:37.434Z</time>
      </trkpt>
      <trkpt lat="44.59269" lon="1.85637">
        <ele>176</ele>
        <time>2019-08-05T12:02:41.425Z</time>
      </trkpt>
      <trkpt lat="44.59269" lon="1.85636">
        <ele>176</ele>
        <time>2019-08-05T12:02:46.438Z</time>
      </trkpt>
      <trkpt lat="44.59269" lon="1.85635">
        <ele>176</ele>
        <time>2019-08-05T12:02:51.435Z</time>
      </trkpt>
      <trkpt lat="44.59268" lon="1.85634">
        <ele>176</ele>
        <time>2019-08-05T12:02:55.455Z</time>
      </trkpt>
      <trkpt lat="44.59265" lon="1.85636">
        <ele>176</ele>
        <time>2019-08-05T12:03:00.452Z</time>
      </trkpt>
      <trkpt lat="44.59262" lon="1.85642">
        <ele>188</ele>
        <time>2019-08-05T12:03:05.429Z</time>
      </trkpt>
      <trkpt lat="44.59259" lon="1.85648">
        <ele>188</ele>
        <time>2019-08-05T12:03:09.446Z</time>
      </trkpt>
      <trkpt lat="44.59253" lon="1.85659">
        <ele>185</ele>
        <time>2019-08-05T12:03:14.458Z</time>
      </trkpt>
      <trkpt lat="44.59248" lon="1.85665">
        <ele>185</ele>
        <time>2019-08-05T12:03:19.457Z</time>
      </trkpt>
      <trkpt lat="44.59249" lon="1.85671">
        <ele>185</ele>
        <time>2019-08-05T12:03:24.447Z</time>
      </trkpt>
      <trkpt lat="44.59245" lon="1.8568">
        <ele>185</ele>
        <time>2019-08-05T12:03:28.435Z</time>
      </trkpt>
      <trkpt lat="44.59246" lon="1.85689">
        <ele>183</ele>
        <time>2019-08-05T12:03:33.442Z</time>
      </trkpt>
      <trkpt lat="44.59243" lon="1.85696">
        <ele>183</ele>
        <time>2019-08-05T12:03:38.442Z</time>
      </trkpt>
      <trkpt lat="44.59241" lon="1.85704">
        <ele>183</ele>
        <time>2019-08-05T12:03:43.448Z</time>
      </trkpt>
      <trkpt lat="44.59242" lon="1.85714">
        <ele>180</ele>
        <time>2019-08-05T12:03:48.449Z</time>
      </trkpt>
      <trkpt lat="44.59242" lon="1.85723">
        <ele>180</ele>
        <time>2019-08-05T12:03:53.439Z</time>
      </trkpt>
      <trkpt lat="44.59243" lon="1.85732">
        <ele>180</ele>
        <time>2019-08-05T12:03:58.435Z</time>
      </trkpt>
      <trkpt lat="44.59243" lon="1.85738">
        <ele>178</ele>
        <time>2019-08-05T12:04:03.429Z</time>
      </trkpt>
      <trkpt lat="44.59245" lon="1.85745">
        <ele>178</ele>
        <time>2019-08-05T12:04:07.449Z</time>
      </trkpt>
      <trkpt lat="44.59244" lon="1.85752">
        <ele>178</ele>
        <time>2019-08-05T12:04:12.430Z</time>
      </trkpt>
      <trkpt lat="44.59244" lon="1.85762">
        <ele>178</ele>
        <time>2019-08-05T12:04:17.443Z</time>
      </trkpt>
      <trkpt lat="44.59243" lon="1.85769">
        <ele>177</ele>
        <time>2019-08-05T12:04:21.439Z</time>
      </trkpt>
      <trkpt lat="44.59242" lon="1.85779">
        <ele>177</ele>
        <time>2019-08-05T12:04:26.443Z</time>
      </trkpt>
      <trkpt lat="44.5924" lon="1.85789">
        <ele>177</ele>
        <time>2019-08-05T12:04:31.434Z</time>
      </trkpt>
      <trkpt lat="44.5924" lon="1.858">
        <ele>174</ele>
        <time>2019-08-05T12:04:36.436Z</time>
      </trkpt>
      <trkpt lat="44.59243" lon="1.8581">
        <ele>174</ele>
        <time>2019-08-05T12:04:40.439Z</time>
      </trkpt>
      <trkpt lat="44.59246" lon="1.85817">
        <ele>174</ele>
        <time>2019-08-05T12:04:44.447Z</time>
      </trkpt>
      <trkpt lat="44.59247" lon="1.85827">
        <ele>172</ele>
        <time>2019-08-05T12:04:49.438Z</time>
      </trkpt>
      <trkpt lat="44.59248" lon="1.85834">
        <ele>172</ele>
        <time>2019-08-05T12:04:53.453Z</time>
      </trkpt>
      <trkpt lat="44.5925" lon="1.85844">
        <ele>172</ele>
        <time>2019-08-05T12:04:58.448Z</time>
      </trkpt>
      <trkpt lat="44.59251" lon="1.85852">
        <ele>171</ele>
        <time>2019-08-05T12:05:03.441Z</time>
      </trkpt>
      <trkpt lat="44.59251" lon="1.85863">
        <ele>171</ele>
        <time>2019-08-05T12:05:08.418Z</time>
      </trkpt>
      <trkpt lat="44.59251" lon="1.85869">
        <ele>171</ele>
        <time>2019-08-05T12:05:12.445Z</time>
      </trkpt>
      <trkpt lat="44.5925" lon="1.85878">
        <ele>172</ele>
        <time>2019-08-05T12:05:17.438Z</time>
      </trkpt>
      <trkpt lat="44.59248" lon="1.85889">
        <ele>172</ele>
        <time>2019-08-05T12:05:22.442Z</time>
      </trkpt>
      <trkpt lat="44.59247" lon="1.85897">
        <ele>172</ele>
        <time>2019-08-05T12:05:27.442Z</time>
      </trkpt>
      <trkpt lat="44.59246" lon="1.85907">
        <ele>173</ele>
        <time>2019-08-05T12:05:32.438Z</time>
      </trkpt>
      <trkpt lat="44.59246" lon="1.85915">
        <ele>173</ele>
        <time>2019-08-05T12:05:36.448Z</time>
      </trkpt>
      <trkpt lat="44.59244" lon="1.85926">
        <ele>173</ele>
        <time>2019-08-05T12:05:41.433Z</time>
      </trkpt>
      <trkpt lat="44.59243" lon="1.85937">
        <ele>175</ele>
        <time>2019-08-05T12:05:46.438Z</time>
      </trkpt>
      <trkpt lat="44.59243" lon="1.85941">
        <ele>175</ele>
        <time>2019-08-05T12:05:51.453Z</time>
      </trkpt>
      <trkpt lat="44.59244" lon="1.85945">
        <ele>175</ele>
        <time>2019-08-05T12:05:55.433Z</time>
      </trkpt>
      <trkpt lat="44.59242" lon="1.85953">
        <ele>175</ele>
        <time>2019-08-05T12:06:00.439Z</time>
      </trkpt>
      <trkpt lat="44.59242" lon="1.85961">
        <ele>174</ele>
        <time>2019-08-05T12:06:05.437Z</time>
      </trkpt>
      <trkpt lat="44.59242" lon="1.85968">
        <ele>174</ele>
        <time>2019-08-05T12:06:09.450Z</time>
      </trkpt>
      <trkpt lat="44.5924" lon="1.85977">
        <ele>174</ele>
        <time>2019-08-05T12:06:14.435Z</time>
      </trkpt>
      <trkpt lat="44.59238" lon="1.85988">
        <ele>172</ele>
        <time>2019-08-05T12:06:19.435Z</time>
      </trkpt>
      <trkpt lat="44.59236" lon="1.85995">
        <ele>181</ele>
        <time>2019-08-05T12:06:24.442Z</time>
      </trkpt>
      <trkpt lat="44.59232" lon="1.86002">
        <ele>181</ele>
        <time>2019-08-05T12:06:28.437Z</time>
      </trkpt>
      <trkpt lat="44.59231" lon="1.86013">
        <ele>181</ele>
        <time>2019-08-05T12:06:33.446Z</time>
      </trkpt>
      <trkpt lat="44.59229" lon="1.86021">
        <ele>178</ele>
        <time>2019-08-05T12:06:38.435Z</time>
      </trkpt>
      <trkpt lat="44.59227" lon="1.86032">
        <ele>178</ele>
        <time>2019-08-05T12:06:43.434Z</time>
      </trkpt>
      <trkpt lat="44.59225" lon="1.8604">
        <ele>178</ele>
        <time>2019-08-05T12:06:48.439Z</time>
      </trkpt>
      <trkpt lat="44.59225" lon="1.86048">
        <ele>176</ele>
        <time>2019-08-05T12:06:53.436Z</time>
      </trkpt>
      <trkpt lat="44.59224" lon="1.86058">
        <ele>176</ele>
        <time>2019-08-05T12:06:58.431Z</time>
      </trkpt>
      <trkpt lat="44.59224" lon="1.86066">
        <ele>176</ele>
        <time>2019-08-05T12:07:02.431Z</time>
      </trkpt>
      <trkpt lat="44.59223" lon="1.86077">
        <ele>173</ele>
        <time>2019-08-05T12:07:07.434Z</time>
      </trkpt>
      <trkpt lat="44.59223" lon="1.86088">
        <ele>173</ele>
        <time>2019-08-05T12:07:12.437Z</time>
      </trkpt>
      <trkpt lat="44.59223" lon="1.86096">
        <ele>173</ele>
        <time>2019-08-05T12:07:16.468Z</time>
      </trkpt>
      <trkpt lat="44.59222" lon="1.86112">
        <ele>173</ele>
        <time>2019-08-05T12:07:21.435Z</time>
      </trkpt>
      <trkpt lat="44.59221" lon="1.8615">
        <ele>171</ele>
        <time>2019-08-05T12:07:26.438Z</time>
      </trkpt>
      <trkpt lat="44.5922" lon="1.86188">
        <ele>172</ele>
        <time>2019-08-05T12:07:31.441Z</time>
      </trkpt>
      <trkpt lat="44.59221" lon="1.86218">
        <ele>172</ele>
        <time>2019-08-05T12:07:36.447Z</time>
      </trkpt>
      <trkpt lat="44.59219" lon="1.86249">
        <ele>171</ele>
        <time>2019-08-05T12:07:41.406Z</time>
      </trkpt>
      <trkpt lat="44.59212" lon="1.86278">
        <ele>173</ele>
        <time>2019-08-05T12:07:45.459Z</time>
      </trkpt>
      <trkpt lat="44.59211" lon="1.86298">
        <ele>173</ele>
        <time>2019-08-05T12:07:50.430Z</time>
      </trkpt>
      <trkpt lat="44.59211" lon="1.86307">
        <ele>173</ele>
        <time>2019-08-05T12:07:54.437Z</time>
      </trkpt>
      <trkpt lat="44.5921" lon="1.86316">
        <ele>173</ele>
        <time>2019-08-05T12:07:59.443Z</time>
      </trkpt>
      <trkpt lat="44.59208" lon="1.86324">
        <ele>178</ele>
        <time>2019-08-05T12:08:04.439Z</time>
      </trkpt>
      <trkpt lat="44.59208" lon="1.86332">
        <ele>173</ele>
        <time>2019-08-05T12:08:08.451Z</time>
      </trkpt>
      <trkpt lat="44.59208" lon="1.86339">
        <ele>178</ele>
        <time>2019-08-05T12:08:13.429Z</time>
      </trkpt>
      <trkpt lat="44.59207" lon="1.86348">
        <ele>182</ele>
        <time>2019-08-05T12:08:18.431Z</time>
      </trkpt>
      <trkpt lat="44.59206" lon="1.86356">
        <ele>182</ele>
        <time>2019-08-05T12:08:22.434Z</time>
      </trkpt>
      <trkpt lat="44.59205" lon="1.86361">
        <ele>182</ele>
        <time>2019-08-05T12:08:27.441Z</time>
      </trkpt>
      <trkpt lat="44.59204" lon="1.86366">
        <ele>182</ele>
        <time>2019-08-05T12:08:32.438Z</time>
      </trkpt>
      <trkpt lat="44.59203" lon="1.8637">
        <ele>182</ele>
        <time>2019-08-05T12:08:36.449Z</time>
      </trkpt>
      <trkpt lat="44.59201" lon="1.86379">
        <ele>184</ele>
        <time>2019-08-05T12:08:40.431Z</time>
      </trkpt>
      <trkpt lat="44.59199" lon="1.86386">
        <ele>184</ele>
        <time>2019-08-05T12:08:44.447Z</time>
      </trkpt>
      <trkpt lat="44.59193" lon="1.86401">
        <ele>184</ele>
        <time>2019-08-05T12:08:49.440Z</time>
      </trkpt>
      <trkpt lat="44.59193" lon="1.86405">
        <ele>183</ele>
        <time>2019-08-05T12:08:53.438Z</time>
      </trkpt>
      <trkpt lat="44.59192" lon="1.8641">
        <ele>183</ele>
        <time>2019-08-05T12:08:58.434Z</time>
      </trkpt>
      <trkpt lat="44.59192" lon="1.86413">
        <ele>183</ele>
        <time>2019-08-05T12:09:02.437Z</time>
      </trkpt>
      <trkpt lat="44.59189" lon="1.8642">
        <ele>183</ele>
        <time>2019-08-05T12:09:06.452Z</time>
      </trkpt>
      <trkpt lat="44.59184" lon="1.86441">
        <ele>181</ele>
        <time>2019-08-05T12:09:11.442Z</time>
      </trkpt>
      <trkpt lat="44.59183" lon="1.86447">
        <ele>181</ele>
        <time>2019-08-05T12:09:15.456Z</time>
      </trkpt>
      <trkpt lat="44.59184" lon="1.8645">
        <ele>181</ele>
        <time>2019-08-05T12:09:20.443Z</time>
      </trkpt>
      <trkpt lat="44.59184" lon="1.8646">
        <ele>179</ele>
        <time>2019-08-05T12:09:25.438Z</time>
      </trkpt>
      <trkpt lat="44.59186" lon="1.86465">
        <ele>179</ele>
        <time>2019-08-05T12:09:29.446Z</time>
      </trkpt>
      <trkpt lat="44.59187" lon="1.86468">
        <ele>179</ele>
        <time>2019-08-05T12:09:34.444Z</time>
      </trkpt>
      <trkpt lat="44.59187" lon="1.86472">
        <ele>179</ele>
        <time>2019-08-05T12:09:39.422Z</time>
      </trkpt>
      <trkpt lat="44.59187" lon="1.86478">
        <ele>179</ele>
        <time>2019-08-05T12:09:43.442Z</time>
      </trkpt>
      <trkpt lat="44.59188" lon="1.86489">
        <ele>179</ele>
        <time>2019-08-05T12:09:48.444Z</time>
      </trkpt>
      <trkpt lat="44.5919" lon="1.86501">
        <ele>179</ele>
        <time>2019-08-05T12:09:53.440Z</time>
      </trkpt>
      <trkpt lat="44.5919" lon="1.86509">
        <ele>179</ele>
        <time>2019-08-05T12:09:58.442Z</time>
      </trkpt>
      <trkpt lat="44.59188" lon="1.86517">
        <ele>177</ele>
        <time>2019-08-05T12:10:03.436Z</time>
      </trkpt>
      <trkpt lat="44.59184" lon="1.86526">
        <ele>177</ele>
        <time>2019-08-05T12:10:08.443Z</time>
      </trkpt>
      <trkpt lat="44.59183" lon="1.86534">
        <ele>177</ele>
        <time>2019-08-05T12:10:13.447Z</time>
      </trkpt>
      <trkpt lat="44.59182" lon="1.86538">
        <ele>177</ele>
        <time>2019-08-05T12:10:18.431Z</time>
      </trkpt>
      <trkpt lat="44.59175" lon="1.86544">
        <ele>182</ele>
        <time>2019-08-05T12:10:23.429Z</time>
      </trkpt>
      <trkpt lat="44.59173" lon="1.86551">
        <ele>182</ele>
        <time>2019-08-05T12:10:28.434Z</time>
      </trkpt>
      <trkpt lat="44.5917" lon="1.86553">
        <ele>182</ele>
        <time>2019-08-05T12:10:33.441Z</time>
      </trkpt>
      <trkpt lat="44.59165" lon="1.86559">
        <ele>182</ele>
        <time>2019-08-05T12:10:38.442Z</time>
      </trkpt>
      <trkpt lat="44.59159" lon="1.86567">
        <ele>182</ele>
        <time>2019-08-05T12:10:43.437Z</time>
      </trkpt>
      <trkpt lat="44.59153" lon="1.86573">
        <ele>177</ele>
        <time>2019-08-05T12:10:47.433Z</time>
      </trkpt>
      <trkpt lat="44.59148" lon="1.86577">
        <ele>188</ele>
        <time>2019-08-05T12:10:51.436Z</time>
      </trkpt>
      <trkpt lat="44.59145" lon="1.86586">
        <ele>188</ele>
        <time>2019-08-05T12:10:56.438Z</time>
      </trkpt>
      <trkpt lat="44.59143" lon="1.86592">
        <ele>188</ele>
        <time>2019-08-05T12:11:00.442Z</time>
      </trkpt>
      <trkpt lat="44.59141" lon="1.866">
        <ele>184</ele>
        <time>2019-08-05T12:11:05.436Z</time>
      </trkpt>
      <trkpt lat="44.59135" lon="1.86609">
        <ele>184</ele>
        <time>2019-08-05T12:11:10.433Z</time>
      </trkpt>
      <trkpt lat="44.59133" lon="1.86619">
        <ele>184</ele>
        <time>2019-08-05T12:11:15.446Z</time>
      </trkpt>
      <trkpt lat="44.5913" lon="1.86627">
        <ele>182</ele>
        <time>2019-08-05T12:11:20.439Z</time>
      </trkpt>
      <trkpt lat="44.59127" lon="1.86634">
        <ele>182</ele>
        <time>2019-08-05T12:11:25.471Z</time>
      </trkpt>
      <trkpt lat="44.59122" lon="1.86641">
        <ele>193</ele>
        <time>2019-08-05T12:11:30.435Z</time>
      </trkpt>
      <trkpt lat="44.59118" lon="1.86644">
        <ele>193</ele>
        <time>2019-08-05T12:11:34.434Z</time>
      </trkpt>
      <trkpt lat="44.59117" lon="1.86651">
        <ele>193</ele>
        <time>2019-08-05T12:11:39.440Z</time>
      </trkpt>
      <trkpt lat="44.59115" lon="1.86662">
        <ele>188</ele>
        <time>2019-08-05T12:11:44.435Z</time>
      </trkpt>
      <trkpt lat="44.59112" lon="1.86666">
        <ele>188</ele>
        <time>2019-08-05T12:11:48.444Z</time>
      </trkpt>
      <trkpt lat="44.59109" lon="1.86671">
        <ele>188</ele>
        <time>2019-08-05T12:11:53.447Z</time>
      </trkpt>
      <trkpt lat="44.59108" lon="1.86676">
        <ele>188</ele>
        <time>2019-08-05T12:11:58.436Z</time>
      </trkpt>
      <trkpt lat="44.59106" lon="1.86683">
        <ele>183</ele>
        <time>2019-08-05T12:12:03.432Z</time>
      </trkpt>
      <trkpt lat="44.59103" lon="1.86689">
        <ele>183</ele>
        <time>2019-08-05T12:12:08.432Z</time>
      </trkpt>
      <trkpt lat="44.59101" lon="1.86692">
        <ele>183</ele>
        <time>2019-08-05T12:12:13.435Z</time>
      </trkpt>
      <trkpt lat="44.59099" lon="1.86694">
        <ele>183</ele>
        <time>2019-08-05T12:12:17.444Z</time>
      </trkpt>
      <trkpt lat="44.59093" lon="1.86708">
        <ele>192</ele>
        <time>2019-08-05T12:12:22.437Z</time>
      </trkpt>
      <trkpt lat="44.59089" lon="1.86719">
        <ele>185</ele>
        <time>2019-08-05T12:12:27.441Z</time>
      </trkpt>
      <trkpt lat="44.59084" lon="1.86721">
        <ele>185</ele>
        <time>2019-08-05T12:12:32.453Z</time>
      </trkpt>
      <trkpt lat="44.59078" lon="1.86726">
        <ele>185</ele>
        <time>2019-08-05T12:12:37.439Z</time>
      </trkpt>
      <trkpt lat="44.59074" lon="1.86736">
        <ele>185</ele>
        <time>2019-08-05T12:12:41.443Z</time>
      </trkpt>
      <trkpt lat="44.5907" lon="1.86747">
        <ele>180</ele>
        <time>2019-08-05T12:12:46.439Z</time>
      </trkpt>
      <trkpt lat="44.59068" lon="1.86757">
        <ele>186</ele>
        <time>2019-08-05T12:12:51.436Z</time>
      </trkpt>
      <trkpt lat="44.59064" lon="1.86764">
        <ele>186</ele>
        <time>2019-08-05T12:12:56.429Z</time>
      </trkpt>
      <trkpt lat="44.5906" lon="1.8677">
        <ele>182</ele>
        <time>2019-08-05T12:13:00.434Z</time>
      </trkpt>
      <trkpt lat="44.59054" lon="1.86776">
        <ele>182</ele>
        <time>2019-08-05T12:13:05.434Z</time>
      </trkpt>
      <trkpt lat="44.59051" lon="1.86782">
        <ele>182</ele>
        <time>2019-08-05T12:13:09.445Z</time>
      </trkpt>
      <trkpt lat="44.59047" lon="1.86793">
        <ele>178</ele>
        <time>2019-08-05T12:13:14.439Z</time>
      </trkpt>
      <trkpt lat="44.59044" lon="1.868">
        <ele>178</ele>
        <time>2019-08-05T12:13:18.435Z</time>
      </trkpt>
      <trkpt lat="44.59039" lon="1.86808">
        <ele>192</ele>
        <time>2019-08-05T12:13:23.447Z</time>
      </trkpt>
      <trkpt lat="44.59034" lon="1.86808">
        <ele>192</ele>
        <time>2019-08-05T12:13:28.439Z</time>
      </trkpt>
      <trkpt lat="44.59032" lon="1.8681">
        <ele>192</ele>
        <time>2019-08-05T12:13:32.428Z</time>
      </trkpt>
      <trkpt lat="44.59028" lon="1.86822">
        <ele>186</ele>
        <time>2019-08-05T12:13:37.439Z</time>
      </trkpt>
      <trkpt lat="44.59024" lon="1.86829">
        <ele>186</ele>
        <time>2019-08-05T12:13:42.436Z</time>
      </trkpt>
      <trkpt lat="44.59018" lon="1.86838">
        <ele>186</ele>
        <time>2019-08-05T12:13:47.434Z</time>
      </trkpt>
      <trkpt lat="44.59015" lon="1.86845">
        <ele>186</ele>
        <time>2019-08-05T12:13:51.444Z</time>
      </trkpt>
      <trkpt lat="44.59013" lon="1.8685">
        <ele>199</ele>
        <time>2019-08-05T12:13:56.434Z</time>
      </trkpt>
      <trkpt lat="44.59014" lon="1.86853">
        <ele>178</ele>
        <time>2019-08-05T12:14:01.441Z</time>
      </trkpt>
      <trkpt lat="44.59013" lon="1.86858">
        <ele>199</ele>
        <time>2019-08-05T12:14:05.441Z</time>
      </trkpt>
      <trkpt lat="44.59007" lon="1.86865">
        <ele>199</ele>
        <time>2019-08-05T12:14:10.438Z</time>
      </trkpt>
      <trkpt lat="44.59001" lon="1.8687">
        <ele>199</ele>
        <time>2019-08-05T12:14:14.449Z</time>
      </trkpt>
      <trkpt lat="44.58997" lon="1.86879">
        <ele>186</ele>
        <time>2019-08-05T12:14:19.451Z</time>
      </trkpt>
      <trkpt lat="44.58994" lon="1.86888">
        <ele>186</ele>
        <time>2019-08-05T12:14:24.444Z</time>
      </trkpt>
      <trkpt lat="44.58991" lon="1.86896">
        <ele>186</ele>
        <time>2019-08-05T12:14:29.433Z</time>
      </trkpt>
      <trkpt lat="44.58987" lon="1.86902">
        <ele>186</ele>
        <time>2019-08-05T12:14:34.438Z</time>
      </trkpt>
      <trkpt lat="44.58986" lon="1.86908">
        <ele>200</ele>
        <time>2019-08-05T12:14:39.427Z</time>
      </trkpt>
      <trkpt lat="44.58982" lon="1.86914">
        <ele>200</ele>
        <time>2019-08-05T12:14:43.438Z</time>
      </trkpt>
      <trkpt lat="44.5898" lon="1.86917">
        <ele>200</ele>
        <time>2019-08-05T12:14:48.429Z</time>
      </trkpt>
      <trkpt lat="44.58978" lon="1.8692">
        <ele>200</ele>
        <time>2019-08-05T12:14:52.435Z</time>
      </trkpt>
      <trkpt lat="44.58975" lon="1.8693">
        <ele>200</ele>
        <time>2019-08-05T12:14:57.408Z</time>
      </trkpt>
      <trkpt lat="44.58973" lon="1.86935">
        <ele>193</ele>
        <time>2019-08-05T12:15:01.440Z</time>
      </trkpt>
      <trkpt lat="44.58969" lon="1.8694">
        <ele>193</ele>
        <time>2019-08-05T12:15:05.433Z</time>
      </trkpt>
      <trkpt lat="44.58969" lon="1.86948">
        <ele>193</ele>
        <time>2019-08-05T12:15:10.442Z</time>
      </trkpt>
      <trkpt lat="44.58969" lon="1.86952">
        <ele>193</ele>
        <time>2019-08-05T12:15:15.445Z</time>
      </trkpt>
      <trkpt lat="44.58966" lon="1.86963">
        <ele>185</ele>
        <time>2019-08-05T12:15:20.438Z</time>
      </trkpt>
      <trkpt lat="44.58963" lon="1.86973">
        <ele>185</ele>
        <time>2019-08-05T12:15:25.440Z</time>
      </trkpt>
      <trkpt lat="44.5896" lon="1.86978">
        <ele>185</ele>
        <time>2019-08-05T12:15:30.450Z</time>
      </trkpt>
      <trkpt lat="44.5896" lon="1.86986">
        <ele>178</ele>
        <time>2019-08-05T12:15:35.441Z</time>
      </trkpt>
      <trkpt lat="44.58958" lon="1.86996">
        <ele>197</ele>
        <time>2019-08-05T12:15:40.443Z</time>
      </trkpt>
      <trkpt lat="44.58956" lon="1.87002">
        <ele>197</ele>
        <time>2019-08-05T12:15:44.442Z</time>
      </trkpt>
      <trkpt lat="44.58953" lon="1.87007">
        <ele>197</ele>
        <time>2019-08-05T12:15:48.446Z</time>
      </trkpt>
      <trkpt lat="44.58954" lon="1.87019">
        <ele>192</ele>
        <time>2019-08-05T12:15:53.438Z</time>
      </trkpt>
      <trkpt lat="44.58954" lon="1.87028">
        <ele>192</ele>
        <time>2019-08-05T12:15:57.445Z</time>
      </trkpt>
      <trkpt lat="44.58954" lon="1.8704">
        <ele>192</ele>
        <time>2019-08-05T12:16:02.442Z</time>
      </trkpt>
      <trkpt lat="44.58951" lon="1.87048">
        <ele>188</ele>
        <time>2019-08-05T12:16:07.441Z</time>
      </trkpt>
      <trkpt lat="44.5895" lon="1.87056">
        <ele>188</ele>
        <time>2019-08-05T12:16:12.433Z</time>
      </trkpt>
      <trkpt lat="44.5895" lon="1.87062">
        <ele>188</ele>
        <time>2019-08-05T12:16:16.436Z</time>
      </trkpt>
      <trkpt lat="44.5895" lon="1.8707">
        <ele>184</ele>
        <time>2019-08-05T12:16:21.447Z</time>
      </trkpt>
      <trkpt lat="44.58951" lon="1.8708">
        <ele>184</ele>
        <time>2019-08-05T12:16:25.437Z</time>
      </trkpt>
      <trkpt lat="44.5895" lon="1.87089">
        <ele>184</ele>
        <time>2019-08-05T12:16:30.442Z</time>
      </trkpt>
      <trkpt lat="44.58949" lon="1.87092">
        <ele>184</ele>
        <time>2019-08-05T12:16:34.438Z</time>
      </trkpt>
      <trkpt lat="44.58949" lon="1.87101">
        <ele>184</ele>
        <time>2019-08-05T12:16:39.448Z</time>
      </trkpt>
      <trkpt lat="44.5895" lon="1.87108">
        <ele>184</ele>
        <time>2019-08-05T12:16:43.452Z</time>
      </trkpt>
      <trkpt lat="44.58948" lon="1.87114">
        <ele>184</ele>
        <time>2019-08-05T12:16:48.445Z</time>
      </trkpt>
      <trkpt lat="44.58947" lon="1.87119">
        <ele>184</ele>
        <time>2019-08-05T12:16:53.439Z</time>
      </trkpt>
      <trkpt lat="44.58947" lon="1.87126">
        <ele>183</ele>
        <time>2019-08-05T12:16:57.446Z</time>
      </trkpt>
      <trkpt lat="44.58946" lon="1.87134">
        <ele>183</ele>
        <time>2019-08-05T12:17:02.433Z</time>
      </trkpt>
      <trkpt lat="44.58949" lon="1.87147">
        <ele>183</ele>
        <time>2019-08-05T12:17:07.437Z</time>
      </trkpt>
      <trkpt lat="44.58951" lon="1.87157">
        <ele>184</ele>
        <time>2019-08-05T12:17:12.432Z</time>
      </trkpt>
      <trkpt lat="44.58952" lon="1.87166">
        <ele>184</ele>
        <time>2019-08-05T12:17:16.457Z</time>
      </trkpt>
      <trkpt lat="44.58955" lon="1.87174">
        <ele>184</ele>
        <time>2019-08-05T12:17:21.446Z</time>
      </trkpt>
      <trkpt lat="44.5896" lon="1.87194">
        <ele>173</ele>
        <time>2019-08-05T12:17:39.441Z</time>
      </trkpt>
      <trkpt lat="44.58961" lon="1.87195">
        <ele>173</ele>
        <time>2019-08-05T12:17:44.445Z</time>
      </trkpt>
      <trkpt lat="44.58961" lon="1.87198">
        <ele>173</ele>
        <time>2019-08-05T12:17:49.450Z</time>
      </trkpt>
      <trkpt lat="44.58961" lon="1.872">
        <ele>173</ele>
        <time>2019-08-05T12:17:54.439Z</time>
      </trkpt>
      <trkpt lat="44.5896" lon="1.87202">
        <ele>173</ele>
        <time>2019-08-05T12:17:58.434Z</time>
      </trkpt>
      <trkpt lat="44.58957" lon="1.87202">
        <ele>187</ele>
        <time>2019-08-05T12:18:13.430Z</time>
      </trkpt>
      <trkpt lat="44.58958" lon="1.87202">
        <ele>187</ele>
        <time>2019-08-05T12:18:18.423Z</time>
      </trkpt>
      <trkpt lat="44.58961" lon="1.87212">
        <ele>177</ele>
        <time>2019-08-05T12:18:23.435Z</time>
      </trkpt>
      <trkpt lat="44.58964" lon="1.87221">
        <ele>177</ele>
        <time>2019-08-05T12:18:28.421Z</time>
      </trkpt>
      <trkpt lat="44.58965" lon="1.87223">
        <ele>177</ele>
        <time>2019-08-05T12:18:32.435Z</time>
      </trkpt>
      <trkpt lat="44.58965" lon="1.87226">
        <ele>177</ele>
        <time>2019-08-05T12:18:36.446Z</time>
      </trkpt>
      <trkpt lat="44.58967" lon="1.87228">
        <ele>177</ele>
        <time>2019-08-05T12:18:41.452Z</time>
      </trkpt>
      <trkpt lat="44.5897" lon="1.87233">
        <ele>177</ele>
        <time>2019-08-05T12:18:46.422Z</time>
      </trkpt>
      <trkpt lat="44.58975" lon="1.87239">
        <ele>181</ele>
        <time>2019-08-05T12:18:50.431Z</time>
      </trkpt>
      <trkpt lat="44.58978" lon="1.87244">
        <ele>181</ele>
        <time>2019-08-05T12:18:54.431Z</time>
      </trkpt>
      <trkpt lat="44.58981" lon="1.87248">
        <ele>181</ele>
        <time>2019-08-05T12:18:58.437Z</time>
      </trkpt>
      <trkpt lat="44.58986" lon="1.87254">
        <ele>181</ele>
        <time>2019-08-05T12:19:03.437Z</time>
      </trkpt>
      <trkpt lat="44.58988" lon="1.87258">
        <ele>173</ele>
        <time>2019-08-05T12:19:07.441Z</time>
      </trkpt>
      <trkpt lat="44.58991" lon="1.87264">
        <ele>173</ele>
        <time>2019-08-05T12:19:12.434Z</time>
      </trkpt>
      <trkpt lat="44.58995" lon="1.87268">
        <ele>175</ele>
        <time>2019-08-05T12:19:17.444Z</time>
      </trkpt>
      <trkpt lat="44.58999" lon="1.87275">
        <ele>175</ele>
        <time>2019-08-05T12:19:21.436Z</time>
      </trkpt>
      <trkpt lat="44.59012" lon="1.87286">
        <ele>175</ele>
        <time>2019-08-05T12:19:26.444Z</time>
      </trkpt>
      <trkpt lat="44.59019" lon="1.87292">
        <ele>172</ele>
        <time>2019-08-05T12:19:31.440Z</time>
      </trkpt>
      <trkpt lat="44.59022" lon="1.87297">
        <ele>172</ele>
        <time>2019-08-05T12:19:35.453Z</time>
      </trkpt>
      <trkpt lat="44.59029" lon="1.87302">
        <ele>172</ele>
        <time>2019-08-05T12:19:39.441Z</time>
      </trkpt>
      <trkpt lat="44.59039" lon="1.87311">
        <ele>172</ele>
        <time>2019-08-05T12:19:44.437Z</time>
      </trkpt>
      <trkpt lat="44.59042" lon="1.87314">
        <ele>170</ele>
        <time>2019-08-05T12:19:48.450Z</time>
      </trkpt>
      <trkpt lat="44.59043" lon="1.87317">
        <ele>170</ele>
        <time>2019-08-05T12:19:53.432Z</time>
      </trkpt>
      <trkpt lat="44.59047" lon="1.87325">
        <ele>169</ele>
        <time>2019-08-05T12:19:58.449Z</time>
      </trkpt>
      <trkpt lat="44.59053" lon="1.8733">
        <ele>169</ele>
        <time>2019-08-05T12:20:03.434Z</time>
      </trkpt>
      <trkpt lat="44.59062" lon="1.87342">
        <ele>169</ele>
        <time>2019-08-05T12:20:23.436Z</time>
      </trkpt>
      <trkpt lat="44.59062" lon="1.87342">
        <ele>169</ele>
        <time>2019-08-05T12:20:27.447Z</time>
      </trkpt>
      <trkpt lat="44.59062" lon="1.87343">
        <ele>169</ele>
        <time>2019-08-05T12:20:32.438Z</time>
      </trkpt>
      <trkpt lat="44.59063" lon="1.87344">
        <ele>169</ele>
        <time>2019-08-05T12:20:36.443Z</time>
      </trkpt>
      <trkpt lat="44.59066" lon="1.87349">
        <ele>169</ele>
        <time>2019-08-05T12:20:40.431Z</time>
      </trkpt>
      <trkpt lat="44.5907" lon="1.87358">
        <ele>167</ele>
        <time>2019-08-05T12:20:45.428Z</time>
      </trkpt>
      <trkpt lat="44.59064" lon="1.87366">
        <ele>169</ele>
        <time>2019-08-05T12:20:50.440Z</time>
      </trkpt>
      <trkpt lat="44.59059" lon="1.87373">
        <ele>169</ele>
        <time>2019-08-05T12:20:55.435Z</time>
      </trkpt>
      <trkpt lat="44.59052" lon="1.8738">
        <ele>169</ele>
        <time>2019-08-05T12:21:00.443Z</time>
      </trkpt>
      <trkpt lat="44.59046" lon="1.87388">
        <ele>169</ele>
        <time>2019-08-05T12:21:05.438Z</time>
      </trkpt>
      <trkpt lat="44.59041" lon="1.87394">
        <ele>171</ele>
        <time>2019-08-05T12:21:10.421Z</time>
      </trkpt>
      <trkpt lat="44.59038" lon="1.874">
        <ele>171</ele>
        <time>2019-08-05T12:21:14.442Z</time>
      </trkpt>
      <trkpt lat="44.59035" lon="1.87408">
        <ele>173</ele>
        <time>2019-08-05T12:21:19.436Z</time>
      </trkpt>
      <trkpt lat="44.59034" lon="1.87413">
        <ele>173</ele>
        <time>2019-08-05T12:21:23.435Z</time>
      </trkpt>
      <trkpt lat="44.59033" lon="1.87419">
        <ele>173</ele>
        <time>2019-08-05T12:21:28.438Z</time>
      </trkpt>
      <trkpt lat="44.59028" lon="1.87423">
        <ele>173</ele>
        <time>2019-08-05T12:21:33.427Z</time>
      </trkpt>
      <trkpt lat="44.59026" lon="1.87426">
        <ele>173</ele>
        <time>2019-08-05T12:21:37.433Z</time>
      </trkpt>
      <trkpt lat="44.59022" lon="1.8743">
        <ele>173</ele>
        <time>2019-08-05T12:21:42.437Z</time>
      </trkpt>
      <trkpt lat="44.59018" lon="1.87431">
        <ele>175</ele>
        <time>2019-08-05T12:21:46.432Z</time>
      </trkpt>
      <trkpt lat="44.59015" lon="1.87433">
        <ele>175</ele>
        <time>2019-08-05T12:21:50.437Z</time>
      </trkpt>
      <trkpt lat="44.59009" lon="1.87439">
        <ele>179</ele>
        <time>2019-08-05T12:21:55.437Z</time>
      </trkpt>
      <trkpt lat="44.59004" lon="1.87445">
        <ele>179</ele>
        <time>2019-08-05T12:22:00.439Z</time>
      </trkpt>
      <trkpt lat="44.59001" lon="1.87447">
        <ele>179</ele>
        <time>2019-08-05T12:22:04.439Z</time>
      </trkpt>
      <trkpt lat="44.58997" lon="1.87456">
        <ele>179</ele>
        <time>2019-08-05T12:22:09.423Z</time>
      </trkpt>
      <trkpt lat="44.58994" lon="1.87461">
        <ele>179</ele>
        <time>2019-08-05T12:22:13.446Z</time>
      </trkpt>
      <trkpt lat="44.58992" lon="1.87462">
        <ele>179</ele>
        <time>2019-08-05T12:22:18.439Z</time>
      </trkpt>
      <trkpt lat="44.5899" lon="1.87468">
        <ele>179</ele>
        <time>2019-08-05T12:22:23.443Z</time>
      </trkpt>
      <trkpt lat="44.58991" lon="1.87479">
        <ele>179</ele>
        <time>2019-08-05T12:22:28.431Z</time>
      </trkpt>
      <trkpt lat="44.58992" lon="1.87489">
        <ele>181</ele>
        <time>2019-08-05T12:22:32.440Z</time>
      </trkpt>
      <trkpt lat="44.58993" lon="1.87497">
        <ele>181</ele>
        <time>2019-08-05T12:22:36.429Z</time>
      </trkpt>
      <trkpt lat="44.58995" lon="1.87505">
        <ele>181</ele>
        <time>2019-08-05T12:22:40.440Z</time>
      </trkpt>
      <trkpt lat="44.58999" lon="1.87517">
        <ele>185</ele>
        <time>2019-08-05T12:22:45.442Z</time>
      </trkpt>
      <trkpt lat="44.59001" lon="1.87523">
        <ele>185</ele>
        <time>2019-08-05T12:22:50.443Z</time>
      </trkpt>
      <trkpt lat="44.58997" lon="1.87525">
        <ele>185</ele>
        <time>2019-08-05T12:22:55.439Z</time>
      </trkpt>
      <trkpt lat="44.58993" lon="1.87532">
        <ele>185</ele>
        <time>2019-08-05T12:23:00.452Z</time>
      </trkpt>
      <trkpt lat="44.58991" lon="1.87541">
        <ele>185</ele>
        <time>2019-08-05T12:23:05.417Z</time>
      </trkpt>
      <trkpt lat="44.5899" lon="1.87549">
        <ele>192</ele>
        <time>2019-08-05T12:23:09.443Z</time>
      </trkpt>
      <trkpt lat="44.58989" lon="1.87555">
        <ele>192</ele>
        <time>2019-08-05T12:23:13.447Z</time>
      </trkpt>
      <trkpt lat="44.58987" lon="1.87567">
        <ele>192</ele>
        <time>2019-08-05T12:23:18.450Z</time>
      </trkpt>
      <trkpt lat="44.58985" lon="1.87574">
        <ele>195</ele>
        <time>2019-08-05T12:23:23.439Z</time>
      </trkpt>
      <trkpt lat="44.58982" lon="1.87579">
        <ele>195</ele>
        <time>2019-08-05T12:23:28.444Z</time>
      </trkpt>
      <trkpt lat="44.58981" lon="1.87585">
        <ele>195</ele>
        <time>2019-08-05T12:23:33.443Z</time>
      </trkpt>
      <trkpt lat="44.58978" lon="1.87592">
        <ele>195</ele>
        <time>2019-08-05T12:23:38.439Z</time>
      </trkpt>
      <trkpt lat="44.58974" lon="1.87598">
        <ele>199</ele>
        <time>2019-08-05T12:23:43.438Z</time>
      </trkpt>
      <trkpt lat="44.58973" lon="1.87605">
        <ele>199</ele>
        <time>2019-08-05T12:23:47.434Z</time>
      </trkpt>
      <trkpt lat="44.58973" lon="1.87614">
        <ele>199</ele>
        <time>2019-08-05T12:23:52.435Z</time>
      </trkpt>
      <trkpt lat="44.58974" lon="1.87629">
        <ele>201</ele>
        <time>2019-08-05T12:23:57.430Z</time>
      </trkpt>
      <trkpt lat="44.58976" lon="1.87638">
        <ele>201</ele>
        <time>2019-08-05T12:24:02.420Z</time>
      </trkpt>
      <trkpt lat="44.5898" lon="1.87647">
        <ele>201</ele>
        <time>2019-08-05T12:24:07.436Z</time>
      </trkpt>
      <trkpt lat="44.58976" lon="1.87654">
        <ele>203</ele>
        <time>2019-08-05T12:24:12.423Z</time>
      </trkpt>
      <trkpt lat="44.58977" lon="1.87664">
        <ele>203</ele>
        <time>2019-08-05T12:24:17.437Z</time>
      </trkpt>
      <trkpt lat="44.58977" lon="1.87669">
        <ele>203</ele>
        <time>2019-08-05T12:24:22.440Z</time>
      </trkpt>
      <trkpt lat="44.58977" lon="1.87677">
        <ele>203</ele>
        <time>2019-08-05T12:24:27.437Z</time>
      </trkpt>
      <trkpt lat="44.58981" lon="1.87686">
        <ele>206</ele>
        <time>2019-08-05T12:24:32.436Z</time>
      </trkpt>
      <trkpt lat="44.58981" lon="1.87691">
        <ele>206</ele>
        <time>2019-08-05T12:24:37.438Z</time>
      </trkpt>
      <trkpt lat="44.58979" lon="1.87696">
        <ele>206</ele>
        <time>2019-08-05T12:24:42.430Z</time>
      </trkpt>
      <trkpt lat="44.58978" lon="1.87704">
        <ele>206</ele>
        <time>2019-08-05T12:24:46.435Z</time>
      </trkpt>
      <trkpt lat="44.5898" lon="1.87714">
        <ele>214</ele>
        <time>2019-08-05T12:24:51.439Z</time>
      </trkpt>
      <trkpt lat="44.58981" lon="1.87716">
        <ele>214</ele>
        <time>2019-08-05T12:24:56.444Z</time>
      </trkpt>
      <trkpt lat="44.5898" lon="1.87721">
        <ele>214</ele>
        <time>2019-08-05T12:25:01.436Z</time>
      </trkpt>
      <trkpt lat="44.58981" lon="1.87733">
        <ele>214</ele>
        <time>2019-08-05T12:25:06.437Z</time>
      </trkpt>
      <trkpt lat="44.58976" lon="1.87739">
        <ele>217</ele>
        <time>2019-08-05T12:25:10.439Z</time>
      </trkpt>
      <trkpt lat="44.58973" lon="1.87747">
        <ele>217</ele>
        <time>2019-08-05T12:25:15.439Z</time>
      </trkpt>
      <trkpt lat="44.58972" lon="1.87754">
        <ele>217</ele>
        <time>2019-08-05T12:25:19.434Z</time>
      </trkpt>
      <trkpt lat="44.58976" lon="1.87764">
        <ele>217</ele>
        <time>2019-08-05T12:25:24.433Z</time>
      </trkpt>
      <trkpt lat="44.58978" lon="1.8777">
        <ele>222</ele>
        <time>2019-08-05T12:25:28.432Z</time>
      </trkpt>
      <trkpt lat="44.58976" lon="1.87778">
        <ele>222</ele>
        <time>2019-08-05T12:25:33.453Z</time>
      </trkpt>
      <trkpt lat="44.58973" lon="1.87785">
        <ele>222</ele>
        <time>2019-08-05T12:25:38.432Z</time>
      </trkpt>
      <trkpt lat="44.58971" lon="1.8779">
        <ele>222</ele>
        <time>2019-08-05T12:25:42.446Z</time>
      </trkpt>
      <trkpt lat="44.5897" lon="1.87798">
        <ele>229</ele>
        <time>2019-08-05T12:25:47.437Z</time>
      </trkpt>
      <trkpt lat="44.58971" lon="1.87806">
        <ele>229</ele>
        <time>2019-08-05T12:25:52.426Z</time>
      </trkpt>
      <trkpt lat="44.58969" lon="1.87808">
        <ele>229</ele>
        <time>2019-08-05T12:25:57.440Z</time>
      </trkpt>
      <trkpt lat="44.58968" lon="1.87813">
        <ele>229</ele>
        <time>2019-08-05T12:26:02.443Z</time>
      </trkpt>
      <trkpt lat="44.58968" lon="1.8782">
        <ele>235</ele>
        <time>2019-08-05T12:26:07.434Z</time>
      </trkpt>
      <trkpt lat="44.58968" lon="1.87824">
        <ele>235</ele>
        <time>2019-08-05T12:26:11.427Z</time>
      </trkpt>
      <trkpt lat="44.58969" lon="1.87826">
        <ele>235</ele>
        <time>2019-08-05T12:26:15.435Z</time>
      </trkpt>
      <trkpt lat="44.58969" lon="1.87831">
        <ele>235</ele>
        <time>2019-08-05T12:26:20.437Z</time>
      </trkpt>
      <trkpt lat="44.58967" lon="1.8784">
        <ele>235</ele>
        <time>2019-08-05T12:26:25.441Z</time>
      </trkpt>
      <trkpt lat="44.58966" lon="1.87849">
        <ele>239</ele>
        <time>2019-08-05T12:26:29.436Z</time>
      </trkpt>
      <trkpt lat="44.58968" lon="1.87856">
        <ele>239</ele>
        <time>2019-08-05T12:26:34.437Z</time>
      </trkpt>
      <trkpt lat="44.58966" lon="1.87863">
        <ele>239</ele>
        <time>2019-08-05T12:26:39.441Z</time>
      </trkpt>
      <trkpt lat="44.58966" lon="1.87867">
        <ele>239</ele>
        <time>2019-08-05T12:26:44.451Z</time>
      </trkpt>
      <trkpt lat="44.58967" lon="1.87874">
        <ele>239</ele>
        <time>2019-08-05T12:26:48.437Z</time>
      </trkpt>
      <trkpt lat="44.58971" lon="1.87883">
        <ele>241</ele>
        <time>2019-08-05T12:26:53.443Z</time>
      </trkpt>
      <trkpt lat="44.58969" lon="1.87888">
        <ele>241</ele>
        <time>2019-08-05T12:26:58.441Z</time>
      </trkpt>
      <trkpt lat="44.58972" lon="1.87893">
        <ele>241</ele>
        <time>2019-08-05T12:27:03.442Z</time>
      </trkpt>
      <trkpt lat="44.58971" lon="1.879">
        <ele>241</ele>
        <time>2019-08-05T12:27:08.463Z</time>
      </trkpt>
      <trkpt lat="44.58974" lon="1.8791">
        <ele>243</ele>
        <time>2019-08-05T12:27:13.443Z</time>
      </trkpt>
      <trkpt lat="44.58975" lon="1.87918">
        <ele>243</ele>
        <time>2019-08-05T12:27:18.437Z</time>
      </trkpt>
      <trkpt lat="44.58976" lon="1.87924">
        <ele>243</ele>
        <time>2019-08-05T12:27:22.434Z</time>
      </trkpt>
      <trkpt lat="44.58975" lon="1.87929">
        <ele>243</ele>
        <time>2019-08-05T12:27:26.442Z</time>
      </trkpt>
      <trkpt lat="44.58973" lon="1.87936">
        <ele>245</ele>
        <time>2019-08-05T12:27:31.439Z</time>
      </trkpt>
      <trkpt lat="44.58969" lon="1.87942">
        <ele>245</ele>
        <time>2019-08-05T12:27:36.429Z</time>
      </trkpt>
      <trkpt lat="44.58968" lon="1.87943">
        <ele>245</ele>
        <time>2019-08-05T12:27:41.434Z</time>
      </trkpt>
      <trkpt lat="44.58965" lon="1.87946">
        <ele>245</ele>
        <time>2019-08-05T12:27:46.434Z</time>
      </trkpt>
      <trkpt lat="44.58959" lon="1.87952">
        <ele>245</ele>
        <time>2019-08-05T12:27:51.432Z</time>
      </trkpt>
      <trkpt lat="44.58957" lon="1.87957">
        <ele>242</ele>
        <time>2019-08-05T12:27:55.426Z</time>
      </trkpt>
      <trkpt lat="44.58955" lon="1.87958">
        <ele>242</ele>
        <time>2019-08-05T12:28:00.442Z</time>
      </trkpt>
      <trkpt lat="44.58951" lon="1.87967">
        <ele>245</ele>
        <time>2019-08-05T12:28:05.436Z</time>
      </trkpt>
      <trkpt lat="44.58948" lon="1.87973">
        <ele>245</ele>
        <time>2019-08-05T12:28:10.444Z</time>
      </trkpt>
      <trkpt lat="44.58943" lon="1.87981">
        <ele>245</ele>
        <time>2019-08-05T12:28:15.442Z</time>
      </trkpt>
      <trkpt lat="44.58938" lon="1.87989">
        <ele>250</ele>
        <time>2019-08-05T12:28:20.449Z</time>
      </trkpt>
      <trkpt lat="44.58935" lon="1.87995">
        <ele>250</ele>
        <time>2019-08-05T12:28:25.438Z</time>
      </trkpt>
      <trkpt lat="44.58929" lon="1.88002">
        <ele>250</ele>
        <time>2019-08-05T12:28:30.437Z</time>
      </trkpt>
      <trkpt lat="44.58925" lon="1.88008">
        <ele>250</ele>
        <time>2019-08-05T12:28:35.434Z</time>
      </trkpt>
      <trkpt lat="44.5892" lon="1.88015">
        <ele>252</ele>
        <time>2019-08-05T12:28:40.432Z</time>
      </trkpt>
      <trkpt lat="44.58916" lon="1.88019">
        <ele>252</ele>
        <time>2019-08-05T12:28:44.434Z</time>
      </trkpt>
      <trkpt lat="44.58913" lon="1.88023">
        <ele>252</ele>
        <time>2019-08-05T12:28:49.449Z</time>
      </trkpt>
      <trkpt lat="44.58908" lon="1.8803">
        <ele>252</ele>
        <time>2019-08-05T12:28:54.439Z</time>
      </trkpt>
      <trkpt lat="44.58905" lon="1.88036">
        <ele>252</ele>
        <time>2019-08-05T12:28:58.426Z</time>
      </trkpt>
      <trkpt lat="44.58901" lon="1.8804">
        <ele>256</ele>
        <time>2019-08-05T12:29:02.445Z</time>
      </trkpt>
      <trkpt lat="44.58897" lon="1.88049">
        <ele>256</ele>
        <time>2019-08-05T12:29:07.441Z</time>
      </trkpt>
      <trkpt lat="44.58893" lon="1.8806">
        <ele>256</ele>
        <time>2019-08-05T12:29:12.440Z</time>
      </trkpt>
      <trkpt lat="44.5889" lon="1.88066">
        <ele>256</ele>
        <time>2019-08-05T12:29:17.441Z</time>
      </trkpt>
      <trkpt lat="44.58886" lon="1.88072">
        <ele>257</ele>
        <time>2019-08-05T12:29:22.432Z</time>
      </trkpt>
      <trkpt lat="44.58884" lon="1.8808">
        <ele>257</ele>
        <time>2019-08-05T12:29:26.438Z</time>
      </trkpt>
      <trkpt lat="44.58881" lon="1.88087">
        <ele>257</ele>
        <time>2019-08-05T12:29:31.441Z</time>
      </trkpt>
      <trkpt lat="44.58879" lon="1.88096">
        <ele>257</ele>
        <time>2019-08-05T12:29:36.446Z</time>
      </trkpt>
      <trkpt lat="44.58875" lon="1.88102">
        <ele>258</ele>
        <time>2019-08-05T12:29:41.443Z</time>
      </trkpt>
      <trkpt lat="44.5887" lon="1.88108">
        <ele>258</ele>
        <time>2019-08-05T12:29:46.432Z</time>
      </trkpt>
      <trkpt lat="44.58866" lon="1.88112">
        <ele>258</ele>
        <time>2019-08-05T12:29:50.436Z</time>
      </trkpt>
      <trkpt lat="44.58864" lon="1.88118">
        <ele>258</ele>
        <time>2019-08-05T12:29:55.417Z</time>
      </trkpt>
      <trkpt lat="44.58861" lon="1.88125">
        <ele>258</ele>
        <time>2019-08-05T12:29:59.428Z</time>
      </trkpt>
      <trkpt lat="44.58857" lon="1.88131">
        <ele>261</ele>
        <time>2019-08-05T12:30:03.444Z</time>
      </trkpt>
      <trkpt lat="44.58853" lon="1.88139">
        <ele>261</ele>
        <time>2019-08-05T12:30:08.423Z</time>
      </trkpt>
      <trkpt lat="44.5885" lon="1.88148">
        <ele>261</ele>
        <time>2019-08-05T12:30:13.421Z</time>
      </trkpt>
      <trkpt lat="44.58848" lon="1.88155">
        <ele>265</ele>
        <time>2019-08-05T12:30:18.428Z</time>
      </trkpt>
      <trkpt lat="44.58844" lon="1.88164">
        <ele>264</ele>
        <time>2019-08-05T12:30:23.439Z</time>
      </trkpt>
      <trkpt lat="44.58841" lon="1.88174">
        <ele>264</ele>
        <time>2019-08-05T12:30:28.437Z</time>
      </trkpt>
      <trkpt lat="44.58839" lon="1.88178">
        <ele>264</ele>
        <time>2019-08-05T12:30:33.442Z</time>
      </trkpt>
      <trkpt lat="44.58837" lon="1.8818">
        <ele>264</ele>
        <time>2019-08-05T12:30:38.435Z</time>
      </trkpt>
      <trkpt lat="44.58836" lon="1.88183">
        <ele>265</ele>
        <time>2019-08-05T12:30:42.437Z</time>
      </trkpt>
      <trkpt lat="44.58835" lon="1.88187">
        <ele>265</ele>
        <time>2019-08-05T12:30:47.449Z</time>
      </trkpt>
      <trkpt lat="44.58831" lon="1.88198">
        <ele>265</ele>
        <time>2019-08-05T12:30:52.433Z</time>
      </trkpt>
      <trkpt lat="44.5883" lon="1.88206">
        <ele>265</ele>
        <time>2019-08-05T12:30:57.438Z</time>
      </trkpt>
      <trkpt lat="44.5883" lon="1.88211">
        <ele>266</ele>
        <time>2019-08-05T12:31:02.434Z</time>
      </trkpt>
      <trkpt lat="44.5883" lon="1.88214">
        <ele>266</ele>
        <time>2019-08-05T12:31:06.457Z</time>
      </trkpt>
      <trkpt lat="44.58828" lon="1.8822">
        <ele>266</ele>
        <time>2019-08-05T12:31:11.436Z</time>
      </trkpt>
      <trkpt lat="44.58824" lon="1.8823">
        <ele>266</ele>
        <time>2019-08-05T12:31:16.448Z</time>
      </trkpt>
      <trkpt lat="44.5882" lon="1.88239">
        <ele>271</ele>
        <time>2019-08-05T12:31:21.437Z</time>
      </trkpt>
      <trkpt lat="44.58816" lon="1.88249">
        <ele>268</ele>
        <time>2019-08-05T12:31:26.456Z</time>
      </trkpt>
      <trkpt lat="44.58811" lon="1.88256">
        <ele>268</ele>
        <time>2019-08-05T12:31:31.452Z</time>
      </trkpt>
      <trkpt lat="44.58807" lon="1.88263">
        <ele>268</ele>
        <time>2019-08-05T12:31:36.443Z</time>
      </trkpt>
      <trkpt lat="44.58804" lon="1.88267">
        <ele>272</ele>
        <time>2019-08-05T12:31:40.445Z</time>
      </trkpt>
      <trkpt lat="44.58798" lon="1.88274">
        <ele>272</ele>
        <time>2019-08-05T12:31:45.436Z</time>
      </trkpt>
      <trkpt lat="44.58794" lon="1.88279">
        <ele>272</ele>
        <time>2019-08-05T12:31:49.449Z</time>
      </trkpt>
      <trkpt lat="44.58789" lon="1.88285">
        <ele>272</ele>
        <time>2019-08-05T12:31:53.444Z</time>
      </trkpt>
      <trkpt lat="44.58785" lon="1.88291">
        <ele>272</ele>
        <time>2019-08-05T12:31:58.437Z</time>
      </trkpt>
      <trkpt lat="44.5878" lon="1.88295">
        <ele>274</ele>
        <time>2019-08-05T12:32:02.440Z</time>
      </trkpt>
      <trkpt lat="44.58775" lon="1.883">
        <ele>274</ele>
        <time>2019-08-05T12:32:07.414Z</time>
      </trkpt>
      <trkpt lat="44.58771" lon="1.88303">
        <ele>274</ele>
        <time>2019-08-05T12:32:11.431Z</time>
      </trkpt>
      <trkpt lat="44.58767" lon="1.88307">
        <ele>274</ele>
        <time>2019-08-05T12:32:16.437Z</time>
      </trkpt>
      <trkpt lat="44.58764" lon="1.88311">
        <ele>274</ele>
        <time>2019-08-05T12:32:20.450Z</time>
      </trkpt>
      <trkpt lat="44.5876" lon="1.88318">
        <ele>279</ele>
        <time>2019-08-05T12:32:25.450Z</time>
      </trkpt>
      <trkpt lat="44.58758" lon="1.88323">
        <ele>279</ele>
        <time>2019-08-05T12:32:30.436Z</time>
      </trkpt>
      <trkpt lat="44.58755" lon="1.88327">
        <ele>279</ele>
        <time>2019-08-05T12:32:34.430Z</time>
      </trkpt>
      <trkpt lat="44.58755" lon="1.88328">
        <ele>279</ele>
        <time>2019-08-05T12:32:38.435Z</time>
      </trkpt>
      <trkpt lat="44.58752" lon="1.88331">
        <ele>279</ele>
        <time>2019-08-05T12:32:43.427Z</time>
      </trkpt>
      <trkpt lat="44.58748" lon="1.88336">
        <ele>279</ele>
        <time>2019-08-05T12:32:47.441Z</time>
      </trkpt>
      <trkpt lat="44.58744" lon="1.88341">
        <ele>279</ele>
        <time>2019-08-05T12:32:51.430Z</time>
      </trkpt>
      <trkpt lat="44.58739" lon="1.88347">
        <ele>279</ele>
        <time>2019-08-05T12:32:56.445Z</time>
      </trkpt>
      <trkpt lat="44.58734" lon="1.88355">
        <ele>280</ele>
        <time>2019-08-05T12:33:01.436Z</time>
      </trkpt>
      <trkpt lat="44.58731" lon="1.88363">
        <ele>280</ele>
        <time>2019-08-05T12:33:06.449Z</time>
      </trkpt>
      <trkpt lat="44.58729" lon="1.88371">
        <ele>280</ele>
        <time>2019-08-05T12:33:11.431Z</time>
      </trkpt>
      <trkpt lat="44.58727" lon="1.88381">
        <ele>279</ele>
        <time>2019-08-05T12:33:16.436Z</time>
      </trkpt>
      <trkpt lat="44.58726" lon="1.88389">
        <ele>279</ele>
        <time>2019-08-05T12:33:21.442Z</time>
      </trkpt>
      <trkpt lat="44.58724" lon="1.88396">
        <ele>279</ele>
        <time>2019-08-05T12:33:26.442Z</time>
      </trkpt>
      <trkpt lat="44.58722" lon="1.88401">
        <ele>279</ele>
        <time>2019-08-05T12:33:31.440Z</time>
      </trkpt>
      <trkpt lat="44.58722" lon="1.88402">
        <ele>279</ele>
        <time>2019-08-05T12:33:36.405Z</time>
      </trkpt>
      <trkpt lat="44.58721" lon="1.88406">
        <ele>280</ele>
        <time>2019-08-05T12:33:40.406Z</time>
      </trkpt>
      <trkpt lat="44.58719" lon="1.88413">
        <ele>280</ele>
        <time>2019-08-05T12:33:44.437Z</time>
      </trkpt>
      <trkpt lat="44.58715" lon="1.8842">
        <ele>280</ele>
        <time>2019-08-05T12:33:49.434Z</time>
      </trkpt>
      <trkpt lat="44.58715" lon="1.88429">
        <ele>280</ele>
        <time>2019-08-05T12:33:54.431Z</time>
      </trkpt>
      <trkpt lat="44.58714" lon="1.88434">
        <ele>282</ele>
        <time>2019-08-05T12:33:58.444Z</time>
      </trkpt>
      <trkpt lat="44.58712" lon="1.8844">
        <ele>282</ele>
        <time>2019-08-05T12:34:03.440Z</time>
      </trkpt>
      <trkpt lat="44.5871" lon="1.88446">
        <ele>282</ele>
        <time>2019-08-05T12:34:08.447Z</time>
      </trkpt>
      <trkpt lat="44.58705" lon="1.88457">
        <ele>282</ele>
        <time>2019-08-05T12:34:13.439Z</time>
      </trkpt>
      <trkpt lat="44.58704" lon="1.88463">
        <ele>283</ele>
        <time>2019-08-05T12:34:18.439Z</time>
      </trkpt>
      <trkpt lat="44.58701" lon="1.88466">
        <ele>283</ele>
        <time>2019-08-05T12:34:23.438Z</time>
      </trkpt>
      <trkpt lat="44.58694" lon="1.88474">
        <ele>283</ele>
        <time>2019-08-05T12:34:28.445Z</time>
      </trkpt>
      <trkpt lat="44.58686" lon="1.88483">
        <ele>283</ele>
        <time>2019-08-05T12:34:33.436Z</time>
      </trkpt>
      <trkpt lat="44.58679" lon="1.88486">
        <ele>285</ele>
        <time>2019-08-05T12:34:38.437Z</time>
      </trkpt>
      <trkpt lat="44.58672" lon="1.88483">
        <ele>285</ele>
        <time>2019-08-05T12:34:43.437Z</time>
      </trkpt>
      <trkpt lat="44.58669" lon="1.88484">
        <ele>285</ele>
        <time>2019-08-05T12:34:48.442Z</time>
      </trkpt>
      <trkpt lat="44.58666" lon="1.88486">
        <ele>285</ele>
        <time>2019-08-05T12:34:53.450Z</time>
      </trkpt>
      <trkpt lat="44.58661" lon="1.88491">
        <ele>285</ele>
        <time>2019-08-05T12:34:58.428Z</time>
      </trkpt>
      <trkpt lat="44.58657" lon="1.88495">
        <ele>285</ele>
        <time>2019-08-05T12:35:03.435Z</time>
      </trkpt>
      <trkpt lat="44.58652" lon="1.885">
        <ele>289</ele>
        <time>2019-08-05T12:35:08.437Z</time>
      </trkpt>
      <trkpt lat="44.58647" lon="1.88505">
        <ele>289</ele>
        <time>2019-08-05T12:35:13.437Z</time>
      </trkpt>
      <trkpt lat="44.58645" lon="1.8851">
        <ele>289</ele>
        <time>2019-08-05T12:35:18.437Z</time>
      </trkpt>
      <trkpt lat="44.58643" lon="1.88517">
        <ele>288</ele>
        <time>2019-08-05T12:35:23.440Z</time>
      </trkpt>
      <trkpt lat="44.5864" lon="1.8852">
        <ele>288</ele>
        <time>2019-08-05T12:35:28.433Z</time>
      </trkpt>
      <trkpt lat="44.58639" lon="1.88524">
        <ele>288</ele>
        <time>2019-08-05T12:35:32.444Z</time>
      </trkpt>
      <trkpt lat="44.58636" lon="1.88528">
        <ele>288</ele>
        <time>2019-08-05T12:35:37.428Z</time>
      </trkpt>
      <trkpt lat="44.58632" lon="1.88537">
        <ele>288</ele>
        <time>2019-08-05T12:35:42.434Z</time>
      </trkpt>
      <trkpt lat="44.5863" lon="1.88542">
        <ele>288</ele>
        <time>2019-08-05T12:35:47.460Z</time>
      </trkpt>
      <trkpt lat="44.58627" lon="1.8855">
        <ele>288</ele>
        <time>2019-08-05T12:35:52.433Z</time>
      </trkpt>
      <trkpt lat="44.58621" lon="1.88558">
        <ele>292</ele>
        <time>2019-08-05T12:35:57.434Z</time>
      </trkpt>
      <trkpt lat="44.58614" lon="1.88567">
        <ele>292</ele>
        <time>2019-08-05T12:36:02.440Z</time>
      </trkpt>
      <trkpt lat="44.58608" lon="1.88571">
        <ele>292</ele>
        <time>2019-08-05T12:36:07.446Z</time>
      </trkpt>
      <trkpt lat="44.586" lon="1.88575">
        <ele>292</ele>
        <time>2019-08-05T12:36:12.435Z</time>
      </trkpt>
      <trkpt lat="44.58594" lon="1.88578">
        <ele>296</ele>
        <time>2019-08-05T12:36:17.439Z</time>
      </trkpt>
      <trkpt lat="44.58589" lon="1.88583">
        <ele>296</ele>
        <time>2019-08-05T12:36:22.429Z</time>
      </trkpt>
      <trkpt lat="44.58584" lon="1.88586">
        <ele>296</ele>
        <time>2019-08-05T12:36:26.446Z</time>
      </trkpt>
      <trkpt lat="44.58578" lon="1.88592">
        <ele>296</ele>
        <time>2019-08-05T12:36:31.448Z</time>
      </trkpt>
      <trkpt lat="44.58574" lon="1.88595">
        <ele>296</ele>
        <time>2019-08-05T12:36:36.445Z</time>
      </trkpt>
      <trkpt lat="44.58572" lon="1.88596">
        <ele>296</ele>
        <time>2019-08-05T12:36:41.437Z</time>
      </trkpt>
      <trkpt lat="44.58567" lon="1.88596">
        <ele>297</ele>
        <time>2019-08-05T12:36:46.436Z</time>
      </trkpt>
      <trkpt lat="44.58559" lon="1.88597">
        <ele>297</ele>
        <time>2019-08-05T12:36:51.448Z</time>
      </trkpt>
      <trkpt lat="44.58554" lon="1.88607">
        <ele>296</ele>
        <time>2019-08-05T12:36:56.440Z</time>
      </trkpt>
      <trkpt lat="44.58549" lon="1.88612">
        <ele>296</ele>
        <time>2019-08-05T12:37:01.442Z</time>
      </trkpt>
      <trkpt lat="44.58544" lon="1.88615">
        <ele>296</ele>
        <time>2019-08-05T12:37:05.439Z</time>
      </trkpt>
      <trkpt lat="44.58538" lon="1.8862">
        <ele>300</ele>
        <time>2019-08-05T12:37:10.455Z</time>
      </trkpt>
      <trkpt lat="44.58535" lon="1.88621">
        <ele>300</ele>
        <time>2019-08-05T12:37:15.447Z</time>
      </trkpt>
      <trkpt lat="44.58531" lon="1.88622">
        <ele>300</ele>
        <time>2019-08-05T12:37:20.436Z</time>
      </trkpt>
      <trkpt lat="44.58525" lon="1.88624">
        <ele>300</ele>
        <time>2019-08-05T12:37:25.413Z</time>
      </trkpt>
      <trkpt lat="44.58522" lon="1.88625">
        <ele>299</ele>
        <time>2019-08-05T12:37:30.432Z</time>
      </trkpt>
      <trkpt lat="44.58518" lon="1.88631">
        <ele>299</ele>
        <time>2019-08-05T12:37:35.441Z</time>
      </trkpt>
      <trkpt lat="44.58517" lon="1.88632">
        <ele>299</ele>
        <time>2019-08-05T12:37:40.433Z</time>
      </trkpt>
      <trkpt lat="44.58514" lon="1.88634">
        <ele>299</ele>
        <time>2019-08-05T12:37:45.430Z</time>
      </trkpt>
      <trkpt lat="44.58509" lon="1.88637">
        <ele>304</ele>
        <time>2019-08-05T12:37:50.428Z</time>
      </trkpt>
      <trkpt lat="44.58505" lon="1.88639">
        <ele>304</ele>
        <time>2019-08-05T12:37:54.441Z</time>
      </trkpt>
      <trkpt lat="44.58497" lon="1.8864">
        <ele>304</ele>
        <time>2019-08-05T12:37:59.436Z</time>
      </trkpt>
      <trkpt lat="44.58492" lon="1.88641">
        <ele>304</ele>
        <time>2019-08-05T12:38:03.442Z</time>
      </trkpt>
      <trkpt lat="44.58487" lon="1.88642">
        <ele>304</ele>
        <time>2019-08-05T12:38:08.433Z</time>
      </trkpt>
      <trkpt lat="44.58486" lon="1.88642">
        <ele>304</ele>
        <time>2019-08-05T12:38:12.438Z</time>
      </trkpt>
      <trkpt lat="44.58485" lon="1.88646">
        <ele>308</ele>
        <time>2019-08-05T12:38:17.441Z</time>
      </trkpt>
      <trkpt lat="44.58478" lon="1.8865">
        <ele>308</ele>
        <time>2019-08-05T12:38:22.434Z</time>
      </trkpt>
      <trkpt lat="44.58472" lon="1.88652">
        <ele>308</ele>
        <time>2019-08-05T12:38:27.442Z</time>
      </trkpt>
      <trkpt lat="44.58468" lon="1.88656">
        <ele>308</ele>
        <time>2019-08-05T12:38:32.438Z</time>
      </trkpt>
      <trkpt lat="44.58465" lon="1.88661">
        <ele>308</ele>
        <time>2019-08-05T12:38:36.443Z</time>
      </trkpt>
      <trkpt lat="44.5846" lon="1.88666">
        <ele>308</ele>
        <time>2019-08-05T12:38:41.430Z</time>
      </trkpt>
      <trkpt lat="44.58456" lon="1.88671">
        <ele>315</ele>
        <time>2019-08-05T12:38:45.437Z</time>
      </trkpt>
      <trkpt lat="44.58453" lon="1.88677">
        <ele>315</ele>
        <time>2019-08-05T12:38:50.435Z</time>
      </trkpt>
      <trkpt lat="44.58449" lon="1.8868">
        <ele>315</ele>
        <time>2019-08-05T12:38:55.435Z</time>
      </trkpt>
      <trkpt lat="44.58447" lon="1.88684">
        <ele>312</ele>
        <time>2019-08-05T12:38:59.441Z</time>
      </trkpt>
      <trkpt lat="44.58444" lon="1.88689">
        <ele>312</ele>
        <time>2019-08-05T12:39:04.435Z</time>
      </trkpt>
      <trkpt lat="44.5844" lon="1.88693">
        <ele>312</ele>
        <time>2019-08-05T12:39:09.433Z</time>
      </trkpt>
      <trkpt lat="44.58435" lon="1.88698">
        <ele>312</ele>
        <time>2019-08-05T12:39:14.433Z</time>
      </trkpt>
      <trkpt lat="44.58431" lon="1.88706">
        <ele>312</ele>
        <time>2019-08-05T12:39:18.438Z</time>
      </trkpt>
      <trkpt lat="44.58429" lon="1.88713">
        <ele>318</ele>
        <time>2019-08-05T12:39:22.441Z</time>
      </trkpt>
      <trkpt lat="44.58424" lon="1.88719">
        <ele>318</ele>
        <time>2019-08-05T12:39:27.432Z</time>
      </trkpt>
      <trkpt lat="44.58418" lon="1.88725">
        <ele>318</ele>
        <time>2019-08-05T12:39:32.435Z</time>
      </trkpt>
      <trkpt lat="44.58413" lon="1.88736">
        <ele>318</ele>
        <time>2019-08-05T12:39:37.431Z</time>
      </trkpt>
      <trkpt lat="44.58408" lon="1.88743">
        <ele>316</ele>
        <time>2019-08-05T12:39:42.446Z</time>
      </trkpt>
      <trkpt lat="44.58404" lon="1.8874">
        <ele>316</ele>
        <time>2019-08-05T12:39:47.440Z</time>
      </trkpt>
      <trkpt lat="44.58398" lon="1.88732">
        <ele>322</ele>
        <time>2019-08-05T12:39:52.435Z</time>
      </trkpt>
      <trkpt lat="44.58396" lon="1.88722">
        <ele>322</ele>
        <time>2019-08-05T12:39:56.433Z</time>
      </trkpt>
      <trkpt lat="44.58392" lon="1.88713">
        <ele>322</ele>
        <time>2019-08-05T12:40:01.436Z</time>
      </trkpt>
      <trkpt lat="44.58386" lon="1.88708">
        <ele>324</ele>
        <time>2019-08-05T12:40:06.448Z</time>
      </trkpt>
      <trkpt lat="44.58382" lon="1.88705">
        <ele>324</ele>
        <time>2019-08-05T12:40:11.440Z</time>
      </trkpt>
      <trkpt lat="44.58377" lon="1.88703">
        <ele>324</ele>
        <time>2019-08-05T12:40:16.432Z</time>
      </trkpt>
      <trkpt lat="44.58372" lon="1.88698">
        <ele>328</ele>
        <time>2019-08-05T12:40:20.437Z</time>
      </trkpt>
      <trkpt lat="44.58366" lon="1.88696">
        <ele>328</ele>
        <time>2019-08-05T12:40:25.435Z</time>
      </trkpt>
      <trkpt lat="44.5836" lon="1.88692">
        <ele>328</ele>
        <time>2019-08-05T12:40:30.433Z</time>
      </trkpt>
      <trkpt lat="44.58355" lon="1.88685">
        <ele>328</ele>
        <time>2019-08-05T12:40:35.439Z</time>
      </trkpt>
      <trkpt lat="44.5835" lon="1.88677">
        <ele>331</ele>
        <time>2019-08-05T12:40:40.432Z</time>
      </trkpt>
      <trkpt lat="44.58345" lon="1.8867">
        <ele>334</ele>
        <time>2019-08-05T12:40:45.431Z</time>
      </trkpt>
      <trkpt lat="44.58343" lon="1.88664">
        <ele>334</ele>
        <time>2019-08-05T12:40:50.442Z</time>
      </trkpt>
      <trkpt lat="44.58338" lon="1.88659">
        <ele>334</ele>
        <time>2019-08-05T12:40:55.436Z</time>
      </trkpt>
      <trkpt lat="44.58331" lon="1.88655">
        <ele>334</ele>
        <time>2019-08-05T12:41:00.432Z</time>
      </trkpt>
      <trkpt lat="44.58328" lon="1.88654">
        <ele>334</ele>
        <time>2019-08-05T12:41:04.442Z</time>
      </trkpt>
      <trkpt lat="44.58322" lon="1.88648">
        <ele>335</ele>
        <time>2019-08-05T12:41:09.442Z</time>
      </trkpt>
      <trkpt lat="44.5832" lon="1.88643">
        <ele>335</ele>
        <time>2019-08-05T12:41:14.440Z</time>
      </trkpt>
      <trkpt lat="44.58314" lon="1.88639">
        <ele>340</ele>
        <time>2019-08-05T12:41:19.419Z</time>
      </trkpt>
      <trkpt lat="44.5831" lon="1.88635">
        <ele>340</ele>
        <time>2019-08-05T12:41:23.430Z</time>
      </trkpt>
      <trkpt lat="44.58306" lon="1.88631">
        <ele>340</ele>
        <time>2019-08-05T12:41:27.421Z</time>
      </trkpt>
      <trkpt lat="44.583" lon="1.88626">
        <ele>340</ele>
        <time>2019-08-05T12:41:32.449Z</time>
      </trkpt>
      <trkpt lat="44.58296" lon="1.88618">
        <ele>343</ele>
        <time>2019-08-05T12:41:37.420Z</time>
      </trkpt>
      <trkpt lat="44.58292" lon="1.88611">
        <ele>348</ele>
        <time>2019-08-05T12:41:41.417Z</time>
      </trkpt>
      <trkpt lat="44.58288" lon="1.88608">
        <ele>348</ele>
        <time>2019-08-05T12:41:46.432Z</time>
      </trkpt>
      <trkpt lat="44.58282" lon="1.88601">
        <ele>348</ele>
        <time>2019-08-05T12:41:51.422Z</time>
      </trkpt>
      <trkpt lat="44.58276" lon="1.88596">
        <ele>351</ele>
        <time>2019-08-05T12:41:55.422Z</time>
      </trkpt>
      <trkpt lat="44.58272" lon="1.88593">
        <ele>351</ele>
        <time>2019-08-05T12:41:59.419Z</time>
      </trkpt>
      <trkpt lat="44.58268" lon="1.88589">
        <ele>351</ele>
        <time>2019-08-05T12:42:04.441Z</time>
      </trkpt>
      <trkpt lat="44.58265" lon="1.88587">
        <ele>351</ele>
        <time>2019-08-05T12:42:09.417Z</time>
      </trkpt>
      <trkpt lat="44.58259" lon="1.88587">
        <ele>355</ele>
        <time>2019-08-05T12:42:18.442Z</time>
      </trkpt>
      <trkpt lat="44.58259" lon="1.88589">
        <ele>355</ele>
        <time>2019-08-05T12:42:23.440Z</time>
      </trkpt>
      <trkpt lat="44.58257" lon="1.8859">
        <ele>355</ele>
        <time>2019-08-05T12:42:28.433Z</time>
      </trkpt>
      <trkpt lat="44.58256" lon="1.88591">
        <ele>355</ele>
        <time>2019-08-05T12:42:32.464Z</time>
      </trkpt>
      <trkpt lat="44.58251" lon="1.88593">
        <ele>355</ele>
        <time>2019-08-05T12:42:37.418Z</time>
      </trkpt>
      <trkpt lat="44.58245" lon="1.88589">
        <ele>355</ele>
        <time>2019-08-05T12:42:41.434Z</time>
      </trkpt>
      <trkpt lat="44.58241" lon="1.88585">
        <ele>355</ele>
        <time>2019-08-05T12:42:45.427Z</time>
      </trkpt>
      <trkpt lat="44.58237" lon="1.88582">
        <ele>355</ele>
        <time>2019-08-05T12:42:49.441Z</time>
      </trkpt>
      <trkpt lat="44.58233" lon="1.88577">
        <ele>357</ele>
        <time>2019-08-05T12:42:54.432Z</time>
      </trkpt>
      <trkpt lat="44.58225" lon="1.88576">
        <ele>357</ele>
        <time>2019-08-05T12:42:59.424Z</time>
      </trkpt>
      <trkpt lat="44.58223" lon="1.88575">
        <ele>357</ele>
        <time>2019-08-05T12:43:04.430Z</time>
      </trkpt>
      <trkpt lat="44.58222" lon="1.88575">
        <ele>357</ele>
        <time>2019-08-05T12:43:08.442Z</time>
      </trkpt>
      <trkpt lat="44.58217" lon="1.88572">
        <ele>357</ele>
        <time>2019-08-05T12:43:13.431Z</time>
      </trkpt>
      <trkpt lat="44.58212" lon="1.88568">
        <ele>358</ele>
        <time>2019-08-05T12:43:18.451Z</time>
      </trkpt>
      <trkpt lat="44.58207" lon="1.88565">
        <ele>362</ele>
        <time>2019-08-05T12:43:23.422Z</time>
      </trkpt>
      <trkpt lat="44.58203" lon="1.88561">
        <ele>362</ele>
        <time>2019-08-05T12:43:28.445Z</time>
      </trkpt>
      <trkpt lat="44.582" lon="1.88559">
        <ele>362</ele>
        <time>2019-08-05T12:43:32.436Z</time>
      </trkpt>
      <trkpt lat="44.58194" lon="1.88558">
        <ele>362</ele>
        <time>2019-08-05T12:43:37.421Z</time>
      </trkpt>
      <trkpt lat="44.58189" lon="1.88556">
        <ele>362</ele>
        <time>2019-08-05T12:43:41.442Z</time>
      </trkpt>
      <trkpt lat="44.58182" lon="1.88558">
        <ele>362</ele>
        <time>2019-08-05T12:43:46.438Z</time>
      </trkpt>
      <trkpt lat="44.58176" lon="1.88559">
        <ele>368</ele>
        <time>2019-08-05T12:43:51.436Z</time>
      </trkpt>
      <trkpt lat="44.58169" lon="1.8856">
        <ele>368</ele>
        <time>2019-08-05T12:43:56.429Z</time>
      </trkpt>
      <trkpt lat="44.58163" lon="1.8856">
        <ele>368</ele>
        <time>2019-08-05T12:44:00.441Z</time>
      </trkpt>
      <trkpt lat="44.58155" lon="1.88561">
        <ele>368</ele>
        <time>2019-08-05T12:44:05.432Z</time>
      </trkpt>
      <trkpt lat="44.58147" lon="1.88554">
        <ele>374</ele>
        <time>2019-08-05T12:44:10.440Z</time>
      </trkpt>
      <trkpt lat="44.58137" lon="1.88545">
        <ele>374</ele>
        <time>2019-08-05T12:44:15.426Z</time>
      </trkpt>
      <trkpt lat="44.58129" lon="1.88544">
        <ele>374</ele>
        <time>2019-08-05T12:44:19.449Z</time>
      </trkpt>
      <trkpt lat="44.5812" lon="1.88542">
        <ele>377</ele>
        <time>2019-08-05T12:44:24.442Z</time>
      </trkpt>
      <trkpt lat="44.58112" lon="1.88543">
        <ele>377</ele>
        <time>2019-08-05T12:44:29.428Z</time>
      </trkpt>
      <trkpt lat="44.58105" lon="1.88549">
        <ele>377</ele>
        <time>2019-08-05T12:44:34.436Z</time>
      </trkpt>
      <trkpt lat="44.581" lon="1.8855">
        <ele>377</ele>
        <time>2019-08-05T12:44:38.447Z</time>
      </trkpt>
      <trkpt lat="44.58092" lon="1.8855">
        <ele>378</ele>
        <time>2019-08-05T12:44:43.434Z</time>
      </trkpt>
      <trkpt lat="44.58088" lon="1.88552">
        <ele>378</ele>
        <time>2019-08-05T12:44:48.439Z</time>
      </trkpt>
      <trkpt lat="44.58085" lon="1.88553">
        <ele>378</ele>
        <time>2019-08-05T12:44:53.411Z</time>
      </trkpt>
      <trkpt lat="44.58082" lon="1.88555">
        <ele>378</ele>
        <time>2019-08-05T12:44:57.435Z</time>
      </trkpt>
      <trkpt lat="44.58075" lon="1.88558">
        <ele>378</ele>
        <time>2019-08-05T12:45:02.431Z</time>
      </trkpt>
      <trkpt lat="44.58068" lon="1.88558">
        <ele>378</ele>
        <time>2019-08-05T12:45:07.434Z</time>
      </trkpt>
      <trkpt lat="44.58063" lon="1.88558">
        <ele>378</ele>
        <time>2019-08-05T12:45:11.449Z</time>
      </trkpt>
      <trkpt lat="44.58057" lon="1.88558">
        <ele>378</ele>
        <time>2019-08-05T12:45:16.442Z</time>
      </trkpt>
      <trkpt lat="44.58052" lon="1.88557">
        <ele>378</ele>
        <time>2019-08-05T12:45:20.435Z</time>
      </trkpt>
      <trkpt lat="44.58044" lon="1.88553">
        <ele>378</ele>
        <time>2019-08-05T12:45:25.433Z</time>
      </trkpt>
      <trkpt lat="44.58035" lon="1.88549">
        <ele>379</ele>
        <time>2019-08-05T12:45:30.442Z</time>
      </trkpt>
      <trkpt lat="44.58027" lon="1.88545">
        <ele>379</ele>
        <time>2019-08-05T12:45:35.433Z</time>
      </trkpt>
      <trkpt lat="44.5802" lon="1.88542">
        <ele>379</ele>
        <time>2019-08-05T12:45:40.451Z</time>
      </trkpt>
      <trkpt lat="44.58014" lon="1.88539">
        <ele>382</ele>
        <time>2019-08-05T12:45:44.436Z</time>
      </trkpt>
      <trkpt lat="44.58009" lon="1.88534">
        <ele>383</ele>
        <time>2019-08-05T12:45:49.433Z</time>
      </trkpt>
      <trkpt lat="44.58003" lon="1.88529">
        <ele>383</ele>
        <time>2019-08-05T12:45:54.444Z</time>
      </trkpt>
      <trkpt lat="44.57999" lon="1.88528">
        <ele>383</ele>
        <time>2019-08-05T12:45:58.436Z</time>
      </trkpt>
      <trkpt lat="44.57994" lon="1.88526">
        <ele>383</ele>
        <time>2019-08-05T12:46:02.429Z</time>
      </trkpt>
      <trkpt lat="44.57988" lon="1.88523">
        <ele>383</ele>
        <time>2019-08-05T12:46:07.446Z</time>
      </trkpt>
      <trkpt lat="44.57981" lon="1.88519">
        <ele>384</ele>
        <time>2019-08-05T12:46:12.430Z</time>
      </trkpt>
      <trkpt lat="44.57975" lon="1.88516">
        <ele>384</ele>
        <time>2019-08-05T12:46:17.420Z</time>
      </trkpt>
      <trkpt lat="44.57968" lon="1.88512">
        <ele>385</ele>
        <time>2019-08-05T12:46:22.437Z</time>
      </trkpt>
      <trkpt lat="44.57964" lon="1.88509">
        <ele>385</ele>
        <time>2019-08-05T12:46:26.429Z</time>
      </trkpt>
      <trkpt lat="44.5796" lon="1.88506">
        <ele>385</ele>
        <time>2019-08-05T12:46:30.437Z</time>
      </trkpt>
      <trkpt lat="44.57954" lon="1.88503">
        <ele>385</ele>
        <time>2019-08-05T12:46:35.438Z</time>
      </trkpt>
      <trkpt lat="44.57949" lon="1.88499">
        <ele>385</ele>
        <time>2019-08-05T12:46:40.436Z</time>
      </trkpt>
      <trkpt lat="44.57944" lon="1.88494">
        <ele>385</ele>
        <time>2019-08-05T12:46:45.435Z</time>
      </trkpt>
      <trkpt lat="44.57939" lon="1.88492">
        <ele>385</ele>
        <time>2019-08-05T12:46:50.434Z</time>
      </trkpt>
      <trkpt lat="44.57933" lon="1.88489">
        <ele>385</ele>
        <time>2019-08-05T12:46:55.421Z</time>
      </trkpt>
      <trkpt lat="44.57928" lon="1.88487">
        <ele>387</ele>
        <time>2019-08-05T12:46:59.422Z</time>
      </trkpt>
      <trkpt lat="44.57921" lon="1.88481">
        <ele>386</ele>
        <time>2019-08-05T12:47:04.440Z</time>
      </trkpt>
      <trkpt lat="44.57915" lon="1.88475">
        <ele>386</ele>
        <time>2019-08-05T12:47:09.430Z</time>
      </trkpt>
      <trkpt lat="44.5791" lon="1.88471">
        <ele>386</ele>
        <time>2019-08-05T12:47:13.433Z</time>
      </trkpt>
      <trkpt lat="44.57906" lon="1.88467">
        <ele>386</ele>
        <time>2019-08-05T12:47:18.438Z</time>
      </trkpt>
      <trkpt lat="44.57902" lon="1.88464">
        <ele>387</ele>
        <time>2019-08-05T12:47:23.440Z</time>
      </trkpt>
      <trkpt lat="44.57897" lon="1.8846">
        <ele>387</ele>
        <time>2019-08-05T12:47:28.433Z</time>
      </trkpt>
      <trkpt lat="44.57888" lon="1.88455">
        <ele>385</ele>
        <time>2019-08-05T12:47:33.427Z</time>
      </trkpt>
      <trkpt lat="44.57881" lon="1.88449">
        <ele>385</ele>
        <time>2019-08-05T12:47:38.434Z</time>
      </trkpt>
      <trkpt lat="44.57875" lon="1.88444">
        <ele>385</ele>
        <time>2019-08-05T12:47:42.431Z</time>
      </trkpt>
      <trkpt lat="44.57871" lon="1.88441">
        <ele>387</ele>
        <time>2019-08-05T12:47:46.443Z</time>
      </trkpt>
      <trkpt lat="44.57863" lon="1.88436">
        <ele>387</ele>
        <time>2019-08-05T12:47:51.430Z</time>
      </trkpt>
      <trkpt lat="44.57856" lon="1.8843">
        <ele>383</ele>
        <time>2019-08-05T12:47:56.448Z</time>
      </trkpt>
      <trkpt lat="44.5785" lon="1.88425">
        <ele>383</ele>
        <time>2019-08-05T12:48:00.433Z</time>
      </trkpt>
      <trkpt lat="44.57841" lon="1.88421">
        <ele>387</ele>
        <time>2019-08-05T12:48:05.429Z</time>
      </trkpt>
      <trkpt lat="44.57835" lon="1.88417">
        <ele>387</ele>
        <time>2019-08-05T12:48:10.447Z</time>
      </trkpt>
      <trkpt lat="44.57829" lon="1.88409">
        <ele>387</ele>
        <time>2019-08-05T12:48:15.442Z</time>
      </trkpt>
      <trkpt lat="44.57824" lon="1.88403">
        <ele>387</ele>
        <time>2019-08-05T12:48:20.438Z</time>
      </trkpt>
      <trkpt lat="44.57819" lon="1.88399">
        <ele>386</ele>
        <time>2019-08-05T12:48:24.430Z</time>
      </trkpt>
      <trkpt lat="44.57813" lon="1.88394">
        <ele>386</ele>
        <time>2019-08-05T12:48:29.422Z</time>
      </trkpt>
      <trkpt lat="44.57808" lon="1.8839">
        <ele>386</ele>
        <time>2019-08-05T12:48:33.452Z</time>
      </trkpt>
      <trkpt lat="44.57802" lon="1.88385">
        <ele>386</ele>
        <time>2019-08-05T12:48:38.437Z</time>
      </trkpt>
      <trkpt lat="44.57795" lon="1.88382">
        <ele>386</ele>
        <time>2019-08-05T12:48:43.425Z</time>
      </trkpt>
      <trkpt lat="44.57788" lon="1.8838">
        <ele>388</ele>
        <time>2019-08-05T12:48:48.431Z</time>
      </trkpt>
      <trkpt lat="44.57781" lon="1.88379">
        <ele>388</ele>
        <time>2019-08-05T12:48:53.432Z</time>
      </trkpt>
      <trkpt lat="44.57776" lon="1.8838">
        <ele>388</ele>
        <time>2019-08-05T12:48:57.456Z</time>
      </trkpt>
      <trkpt lat="44.5777" lon="1.8838">
        <ele>388</ele>
        <time>2019-08-05T12:49:07.437Z</time>
      </trkpt>
      <trkpt lat="44.57769" lon="1.8838">
        <ele>388</ele>
        <time>2019-08-05T12:49:11.430Z</time>
      </trkpt>
      <trkpt lat="44.57767" lon="1.88379">
        <ele>388</ele>
        <time>2019-08-05T12:49:16.426Z</time>
      </trkpt>
      <trkpt lat="44.57763" lon="1.88379">
        <ele>387</ele>
        <time>2019-08-05T12:49:21.449Z</time>
      </trkpt>
      <trkpt lat="44.57761" lon="1.8838">
        <ele>387</ele>
        <time>2019-08-05T12:49:26.438Z</time>
      </trkpt>
      <trkpt lat="44.5776" lon="1.88381">
        <ele>387</ele>
        <time>2019-08-05T12:49:30.444Z</time>
      </trkpt>
      <trkpt lat="44.57759" lon="1.88387">
        <ele>387</ele>
        <time>2019-08-05T12:49:35.461Z</time>
      </trkpt>
      <trkpt lat="44.57758" lon="1.88395">
        <ele>387</ele>
        <time>2019-08-05T12:49:40.449Z</time>
      </trkpt>
      <trkpt lat="44.57757" lon="1.88404">
        <ele>388</ele>
        <time>2019-08-05T12:49:45.427Z</time>
      </trkpt>
      <trkpt lat="44.57755" lon="1.88422">
        <ele>388</ele>
        <time>2019-08-05T12:51:35.460Z</time>
      </trkpt>
      <trkpt lat="44.57755" lon="1.88422">
        <ele>388</ele>
        <time>2019-08-05T12:51:40.425Z</time>
      </trkpt>
      <trkpt lat="44.57755" lon="1.88422">
        <ele>388</ele>
        <time>2019-08-05T12:51:45.423Z</time>
      </trkpt>
      <trkpt lat="44.57755" lon="1.88422">
        <ele>388</ele>
        <time>2019-08-05T12:51:49.418Z</time>
      </trkpt>
      <trkpt lat="44.57754" lon="1.88423">
        <ele>388</ele>
        <time>2019-08-05T12:51:54.413Z</time>
      </trkpt>
      <trkpt lat="44.57752" lon="1.8843">
        <ele>388</ele>
        <time>2019-08-05T12:52:26.424Z</time>
      </trkpt>
      <trkpt lat="44.57752" lon="1.88432">
        <ele>389</ele>
        <time>2019-08-05T12:52:31.422Z</time>
      </trkpt>
      <trkpt lat="44.57752" lon="1.88434">
        <ele>389</ele>
        <time>2019-08-05T12:52:36.426Z</time>
      </trkpt>
      <trkpt lat="44.57752" lon="1.88435">
        <ele>389</ele>
        <time>2019-08-05T12:52:40.422Z</time>
      </trkpt>
      <trkpt lat="44.5775" lon="1.88442">
        <ele>389</ele>
        <time>2019-08-05T12:52:45.422Z</time>
      </trkpt>
      <trkpt lat="44.57751" lon="1.8845">
        <ele>389</ele>
        <time>2019-08-05T12:52:50.431Z</time>
      </trkpt>
      <trkpt lat="44.57751" lon="1.88459">
        <ele>391</ele>
        <time>2019-08-05T12:52:55.419Z</time>
      </trkpt>
      <trkpt lat="44.57753" lon="1.88466">
        <ele>391</ele>
        <time>2019-08-05T12:52:59.439Z</time>
      </trkpt>
      <trkpt lat="44.5775" lon="1.88476">
        <ele>391</ele>
        <time>2019-08-05T12:53:04.434Z</time>
      </trkpt>
      <trkpt lat="44.57748" lon="1.88485">
        <ele>391</ele>
        <time>2019-08-05T12:53:09.441Z</time>
      </trkpt>
      <trkpt lat="44.57749" lon="1.88491">
        <ele>393</ele>
        <time>2019-08-05T12:53:14.431Z</time>
      </trkpt>
      <trkpt lat="44.5775" lon="1.88496">
        <ele>393</ele>
        <time>2019-08-05T12:53:18.458Z</time>
      </trkpt>
      <trkpt lat="44.57746" lon="1.88511">
        <ele>393</ele>
        <time>2019-08-05T12:53:23.448Z</time>
      </trkpt>
      <trkpt lat="44.57744" lon="1.88517">
        <ele>396</ele>
        <time>2019-08-05T12:53:27.427Z</time>
      </trkpt>
      <trkpt lat="44.57741" lon="1.88526">
        <ele>396</ele>
        <time>2019-08-05T12:53:32.430Z</time>
      </trkpt>
      <trkpt lat="44.57739" lon="1.88536">
        <ele>396</ele>
        <time>2019-08-05T12:53:37.431Z</time>
      </trkpt>
      <trkpt lat="44.57739" lon="1.88544">
        <ele>399</ele>
        <time>2019-08-05T12:53:42.439Z</time>
      </trkpt>
      <trkpt lat="44.57737" lon="1.8855">
        <ele>399</ele>
        <time>2019-08-05T12:53:46.441Z</time>
      </trkpt>
      <trkpt lat="44.57737" lon="1.88558">
        <ele>399</ele>
        <time>2019-08-05T12:53:51.433Z</time>
      </trkpt>
      <trkpt lat="44.57737" lon="1.88561">
        <ele>399</ele>
        <time>2019-08-05T12:53:55.435Z</time>
      </trkpt>
      <trkpt lat="44.57737" lon="1.88562">
        <ele>399</ele>
        <time>2019-08-05T12:54:00.430Z</time>
      </trkpt>
      <trkpt lat="44.57737" lon="1.88567">
        <ele>399</ele>
        <time>2019-08-05T12:54:04.432Z</time>
      </trkpt>
      <trkpt lat="44.57736" lon="1.88575">
        <ele>403</ele>
        <time>2019-08-05T12:54:09.427Z</time>
      </trkpt>
      <trkpt lat="44.57736" lon="1.88582">
        <ele>401</ele>
        <time>2019-08-05T12:54:13.427Z</time>
      </trkpt>
      <trkpt lat="44.57736" lon="1.8859">
        <ele>401</ele>
        <time>2019-08-05T12:54:18.438Z</time>
      </trkpt>
      <trkpt lat="44.57736" lon="1.88599">
        <ele>403</ele>
        <time>2019-08-05T12:54:23.425Z</time>
      </trkpt>
      <trkpt lat="44.57737" lon="1.88608">
        <ele>405</ele>
        <time>2019-08-05T12:54:28.433Z</time>
      </trkpt>
      <trkpt lat="44.57736" lon="1.88618">
        <ele>405</ele>
        <time>2019-08-05T12:54:33.436Z</time>
      </trkpt>
      <trkpt lat="44.57735" lon="1.88625">
        <ele>404</ele>
        <time>2019-08-05T12:54:37.428Z</time>
      </trkpt>
      <trkpt lat="44.57734" lon="1.88635">
        <ele>404</ele>
        <time>2019-08-05T12:54:42.441Z</time>
      </trkpt>
      <trkpt lat="44.57734" lon="1.88643">
        <ele>404</ele>
        <time>2019-08-05T12:54:47.440Z</time>
      </trkpt>
      <trkpt lat="44.57733" lon="1.88652">
        <ele>404</ele>
        <time>2019-08-05T12:54:52.436Z</time>
      </trkpt>
      <trkpt lat="44.57732" lon="1.88659">
        <ele>406</ele>
        <time>2019-08-05T12:54:56.430Z</time>
      </trkpt>
      <trkpt lat="44.57733" lon="1.88667">
        <ele>406</ele>
        <time>2019-08-05T12:55:01.448Z</time>
      </trkpt>
      <trkpt lat="44.57733" lon="1.88677">
        <ele>406</ele>
        <time>2019-08-05T12:55:06.408Z</time>
      </trkpt>
      <trkpt lat="44.57732" lon="1.88682">
        <ele>407</ele>
        <time>2019-08-05T12:55:10.439Z</time>
      </trkpt>
      <trkpt lat="44.57733" lon="1.88686">
        <ele>407</ele>
        <time>2019-08-05T12:55:14.450Z</time>
      </trkpt>
      <trkpt lat="44.57731" lon="1.88691">
        <ele>407</ele>
        <time>2019-08-05T12:55:19.438Z</time>
      </trkpt>
      <trkpt lat="44.5773" lon="1.887">
        <ele>407</ele>
        <time>2019-08-05T12:55:29.438Z</time>
      </trkpt>
      <trkpt lat="44.5773" lon="1.887">
        <ele>407</ele>
        <time>2019-08-05T12:55:34.438Z</time>
      </trkpt>
      <trkpt lat="44.5773" lon="1.887">
        <ele>407</ele>
        <time>2019-08-05T12:55:38.437Z</time>
      </trkpt>
      <trkpt lat="44.5773" lon="1.88707">
        <ele>407</ele>
        <time>2019-08-05T12:55:43.419Z</time>
      </trkpt>
      <trkpt lat="44.57729" lon="1.88714">
        <ele>408</ele>
        <time>2019-08-05T12:55:47.438Z</time>
      </trkpt>
      <trkpt lat="44.57728" lon="1.88715">
        <ele>408</ele>
        <time>2019-08-05T12:55:52.429Z</time>
      </trkpt>
      <trkpt lat="44.57728" lon="1.88718">
        <ele>408</ele>
        <time>2019-08-05T12:55:56.462Z</time>
      </trkpt>
      <trkpt lat="44.57727" lon="1.8873">
        <ele>408</ele>
        <time>2019-08-05T12:56:01.428Z</time>
      </trkpt>
      <trkpt lat="44.57727" lon="1.88736">
        <ele>406</ele>
        <time>2019-08-05T12:56:05.437Z</time>
      </trkpt>
      <trkpt lat="44.57726" lon="1.88741">
        <ele>406</ele>
        <time>2019-08-05T12:56:09.428Z</time>
      </trkpt>
      <trkpt lat="44.57726" lon="1.88746">
        <ele>406</ele>
        <time>2019-08-05T12:56:13.439Z</time>
      </trkpt>
      <trkpt lat="44.57724" lon="1.88755">
        <ele>406</ele>
        <time>2019-08-05T12:56:18.436Z</time>
      </trkpt>
      <trkpt lat="44.57724" lon="1.88764">
        <ele>401</ele>
        <time>2019-08-05T12:56:23.437Z</time>
      </trkpt>
      <trkpt lat="44.57725" lon="1.88774">
        <ele>401</ele>
        <time>2019-08-05T12:56:28.445Z</time>
      </trkpt>
      <trkpt lat="44.57726" lon="1.88781">
        <ele>401</ele>
        <time>2019-08-05T12:56:33.435Z</time>
      </trkpt>
      <trkpt lat="44.57726" lon="1.88787">
        <ele>401</ele>
        <time>2019-08-05T12:56:37.450Z</time>
      </trkpt>
      <trkpt lat="44.57725" lon="1.88792">
        <ele>398</ele>
        <time>2019-08-05T12:56:41.447Z</time>
      </trkpt>
      <trkpt lat="44.57724" lon="1.88798">
        <ele>398</ele>
        <time>2019-08-05T12:56:46.435Z</time>
      </trkpt>
      <trkpt lat="44.57722" lon="1.88804">
        <ele>398</ele>
        <time>2019-08-05T12:56:51.447Z</time>
      </trkpt>
      <trkpt lat="44.57719" lon="1.88811">
        <ele>398</ele>
        <time>2019-08-05T12:56:56.454Z</time>
      </trkpt>
      <trkpt lat="44.5772" lon="1.88816">
        <ele>398</ele>
        <time>2019-08-05T12:57:01.435Z</time>
      </trkpt>
      <trkpt lat="44.57714" lon="1.88821">
        <ele>396</ele>
        <time>2019-08-05T12:57:06.439Z</time>
      </trkpt>
      <trkpt lat="44.57713" lon="1.88825">
        <ele>396</ele>
        <time>2019-08-05T12:57:11.429Z</time>
      </trkpt>
      <trkpt lat="44.57713" lon="1.88831">
        <ele>396</ele>
        <time>2019-08-05T12:57:15.443Z</time>
      </trkpt>
      <trkpt lat="44.57714" lon="1.88837">
        <ele>396</ele>
        <time>2019-08-05T12:57:20.425Z</time>
      </trkpt>
      <trkpt lat="44.57715" lon="1.88842">
        <ele>396</ele>
        <time>2019-08-05T12:57:25.434Z</time>
      </trkpt>
      <trkpt lat="44.57713" lon="1.88847">
        <ele>396</ele>
        <time>2019-08-05T12:57:30.433Z</time>
      </trkpt>
      <trkpt lat="44.57712" lon="1.88854">
        <ele>393</ele>
        <time>2019-08-05T12:57:35.427Z</time>
      </trkpt>
      <trkpt lat="44.57708" lon="1.8886">
        <ele>393</ele>
        <time>2019-08-05T12:57:39.437Z</time>
      </trkpt>
      <trkpt lat="44.57707" lon="1.88865">
        <ele>391</ele>
        <time>2019-08-05T12:57:44.418Z</time>
      </trkpt>
      <trkpt lat="44.57707" lon="1.88874">
        <ele>391</ele>
        <time>2019-08-05T12:57:49.424Z</time>
      </trkpt>
      <trkpt lat="44.57709" lon="1.8888">
        <ele>391</ele>
        <time>2019-08-05T12:57:53.430Z</time>
      </trkpt>
      <trkpt lat="44.5771" lon="1.88888">
        <ele>391</ele>
        <time>2019-08-05T12:57:58.444Z</time>
      </trkpt>
      <trkpt lat="44.57709" lon="1.88898">
        <ele>391</ele>
        <time>2019-08-05T12:58:03.429Z</time>
      </trkpt>
      <trkpt lat="44.57703" lon="1.88903">
        <ele>387</ele>
        <time>2019-08-05T12:58:07.438Z</time>
      </trkpt>
      <trkpt lat="44.57702" lon="1.88912">
        <ele>387</ele>
        <time>2019-08-05T12:58:12.438Z</time>
      </trkpt>
      <trkpt lat="44.57698" lon="1.88919">
        <ele>387</ele>
        <time>2019-08-05T12:58:17.436Z</time>
      </trkpt>
      <trkpt lat="44.57697" lon="1.88931">
        <ele>386</ele>
        <time>2019-08-05T12:58:21.433Z</time>
      </trkpt>
      <trkpt lat="44.5769" lon="1.88946">
        <ele>386</ele>
        <time>2019-08-05T12:58:26.434Z</time>
      </trkpt>
      <trkpt lat="44.57688" lon="1.88954">
        <ele>386</ele>
        <time>2019-08-05T12:58:30.438Z</time>
      </trkpt>
      <trkpt lat="44.57685" lon="1.88969">
        <ele>386</ele>
        <time>2019-08-05T12:58:35.435Z</time>
      </trkpt>
      <trkpt lat="44.57685" lon="1.88982">
        <ele>386</ele>
        <time>2019-08-05T12:58:40.418Z</time>
      </trkpt>
      <trkpt lat="44.57682" lon="1.88988">
        <ele>386</ele>
        <time>2019-08-05T12:58:44.436Z</time>
      </trkpt>
      <trkpt lat="44.57679" lon="1.88995">
        <ele>383</ele>
        <time>2019-08-05T12:58:48.452Z</time>
      </trkpt>
      <trkpt lat="44.57681" lon="1.89003">
        <ele>386</ele>
        <time>2019-08-05T12:58:53.431Z</time>
      </trkpt>
      <trkpt lat="44.57681" lon="1.89009">
        <ele>386</ele>
        <time>2019-08-05T12:58:58.429Z</time>
      </trkpt>
      <trkpt lat="44.5768" lon="1.89017">
        <ele>385</ele>
        <time>2019-08-05T12:59:03.436Z</time>
      </trkpt>
      <trkpt lat="44.57676" lon="1.89024">
        <ele>385</ele>
        <time>2019-08-05T12:59:08.404Z</time>
      </trkpt>
      <trkpt lat="44.57672" lon="1.89031">
        <ele>385</ele>
        <time>2019-08-05T12:59:12.417Z</time>
      </trkpt>
      <trkpt lat="44.57669" lon="1.8904">
        <ele>385</ele>
        <time>2019-08-05T12:59:17.436Z</time>
      </trkpt>
      <trkpt lat="44.57667" lon="1.8905">
        <ele>387</ele>
        <time>2019-08-05T12:59:22.416Z</time>
      </trkpt>
      <trkpt lat="44.57668" lon="1.89058">
        <ele>387</ele>
        <time>2019-08-05T12:59:26.423Z</time>
      </trkpt>
      <trkpt lat="44.57668" lon="1.89067">
        <ele>387</ele>
        <time>2019-08-05T12:59:31.421Z</time>
      </trkpt>
      <trkpt lat="44.57663" lon="1.89075">
        <ele>389</ele>
        <time>2019-08-05T12:59:35.432Z</time>
      </trkpt>
      <trkpt lat="44.57659" lon="1.89085">
        <ele>389</ele>
        <time>2019-08-05T12:59:40.417Z</time>
      </trkpt>
      <trkpt lat="44.57654" lon="1.89104">
        <ele>391</ele>
        <time>2019-08-05T12:59:45.427Z</time>
      </trkpt>
      <trkpt lat="44.57653" lon="1.89111">
        <ele>388</ele>
        <time>2019-08-05T12:59:50.422Z</time>
      </trkpt>
      <trkpt lat="44.57651" lon="1.89119">
        <ele>388</ele>
        <time>2019-08-05T12:59:55.434Z</time>
      </trkpt>
      <trkpt lat="44.5765" lon="1.89128">
        <ele>389</ele>
        <time>2019-08-05T13:00:00.432Z</time>
      </trkpt>
      <trkpt lat="44.57649" lon="1.89144">
        <ele>389</ele>
        <time>2019-08-05T13:00:05.436Z</time>
      </trkpt>
      <trkpt lat="44.57649" lon="1.89153">
        <ele>391</ele>
        <time>2019-08-05T13:00:10.424Z</time>
      </trkpt>
      <trkpt lat="44.57648" lon="1.8916">
        <ele>391</ele>
        <time>2019-08-05T13:00:14.433Z</time>
      </trkpt>
      <trkpt lat="44.57646" lon="1.89176">
        <ele>391</ele>
        <time>2019-08-05T13:00:19.443Z</time>
      </trkpt>
      <trkpt lat="44.57644" lon="1.89187">
        <ele>393</ele>
        <time>2019-08-05T13:00:24.415Z</time>
      </trkpt>
      <trkpt lat="44.57644" lon="1.89194">
        <ele>393</ele>
        <time>2019-08-05T13:00:28.418Z</time>
      </trkpt>
      <trkpt lat="44.57643" lon="1.89201">
        <ele>393</ele>
        <time>2019-08-05T13:00:33.429Z</time>
      </trkpt>
      <trkpt lat="44.57643" lon="1.89207">
        <ele>393</ele>
        <time>2019-08-05T13:00:37.434Z</time>
      </trkpt>
      <trkpt lat="44.57642" lon="1.89212">
        <ele>392</ele>
        <time>2019-08-05T13:00:41.442Z</time>
      </trkpt>
      <trkpt lat="44.57641" lon="1.89216">
        <ele>392</ele>
        <time>2019-08-05T13:00:46.442Z</time>
      </trkpt>
      <trkpt lat="44.57639" lon="1.89222">
        <ele>392</ele>
        <time>2019-08-05T13:00:51.441Z</time>
      </trkpt>
      <trkpt lat="44.5764" lon="1.89225">
        <ele>392</ele>
        <time>2019-08-05T13:00:56.450Z</time>
      </trkpt>
      <trkpt lat="44.57639" lon="1.89232">
        <ele>392</ele>
        <time>2019-08-05T13:01:01.440Z</time>
      </trkpt>
      <trkpt lat="44.5764" lon="1.89238">
        <ele>392</ele>
        <time>2019-08-05T13:01:06.413Z</time>
      </trkpt>
      <trkpt lat="44.57639" lon="1.89245">
        <ele>392</ele>
        <time>2019-08-05T13:01:11.425Z</time>
      </trkpt>
      <trkpt lat="44.57641" lon="1.89255">
        <ele>392</ele>
        <time>2019-08-05T13:01:15.446Z</time>
      </trkpt>
      <trkpt lat="44.57642" lon="1.89263">
        <ele>392</ele>
        <time>2019-08-05T13:01:20.408Z</time>
      </trkpt>
      <trkpt lat="44.57642" lon="1.89268">
        <ele>391</ele>
        <time>2019-08-05T13:01:24.408Z</time>
      </trkpt>
      <trkpt lat="44.57635" lon="1.89274">
        <ele>391</ele>
        <time>2019-08-05T13:01:28.417Z</time>
      </trkpt>
      <trkpt lat="44.57635" lon="1.89282">
        <ele>391</ele>
        <time>2019-08-05T13:01:32.427Z</time>
      </trkpt>
      <trkpt lat="44.57633" lon="1.89297">
        <ele>391</ele>
        <time>2019-08-05T13:01:37.437Z</time>
      </trkpt>
      <trkpt lat="44.5763" lon="1.89319">
        <ele>391</ele>
        <time>2019-08-05T13:01:42.420Z</time>
      </trkpt>
      <trkpt lat="44.57628" lon="1.89323">
        <ele>390</ele>
        <time>2019-08-05T13:01:46.419Z</time>
      </trkpt>
      <trkpt lat="44.57627" lon="1.89329">
        <ele>390</ele>
        <time>2019-08-05T13:01:51.443Z</time>
      </trkpt>
      <trkpt lat="44.57627" lon="1.89335">
        <ele>390</ele>
        <time>2019-08-05T13:01:56.416Z</time>
      </trkpt>
      <trkpt lat="44.57626" lon="1.89339">
        <ele>390</ele>
        <time>2019-08-05T13:02:00.423Z</time>
      </trkpt>
      <trkpt lat="44.57625" lon="1.8935">
        <ele>389</ele>
        <time>2019-08-05T13:02:04.432Z</time>
      </trkpt>
      <trkpt lat="44.57623" lon="1.89358">
        <ele>389</ele>
        <time>2019-08-05T13:02:09.431Z</time>
      </trkpt>
      <trkpt lat="44.57623" lon="1.89359">
        <ele>389</ele>
        <time>2019-08-05T13:02:13.447Z</time>
      </trkpt>
      <trkpt lat="44.57624" lon="1.8936">
        <ele>389</ele>
        <time>2019-08-05T13:02:18.431Z</time>
      </trkpt>
      <trkpt lat="44.57624" lon="1.89362">
        <ele>389</ele>
        <time>2019-08-05T13:02:23.431Z</time>
      </trkpt>
      <trkpt lat="44.57623" lon="1.89365">
        <ele>389</ele>
        <time>2019-08-05T13:02:27.434Z</time>
      </trkpt>
      <trkpt lat="44.57623" lon="1.89367">
        <ele>389</ele>
        <time>2019-08-05T13:02:32.425Z</time>
      </trkpt>
      <trkpt lat="44.57623" lon="1.8937">
        <ele>389</ele>
        <time>2019-08-05T13:02:36.421Z</time>
      </trkpt>
      <trkpt lat="44.57622" lon="1.89376">
        <ele>387</ele>
        <time>2019-08-05T13:02:41.425Z</time>
      </trkpt>
      <trkpt lat="44.57622" lon="1.89377">
        <ele>387</ele>
        <time>2019-08-05T13:02:45.434Z</time>
      </trkpt>
      <trkpt lat="44.57621" lon="1.89382">
        <ele>387</ele>
        <time>2019-08-05T13:02:55.413Z</time>
      </trkpt>
      <trkpt lat="44.57621" lon="1.89382">
        <ele>387</ele>
        <time>2019-08-05T13:02:59.428Z</time>
      </trkpt>
      <trkpt lat="44.5762" lon="1.8939">
        <ele>387</ele>
        <time>2019-08-05T13:03:04.432Z</time>
      </trkpt>
      <trkpt lat="44.57619" lon="1.89393">
        <ele>387</ele>
        <time>2019-08-05T13:03:09.425Z</time>
      </trkpt>
      <trkpt lat="44.57618" lon="1.894">
        <ele>387</ele>
        <time>2019-08-05T13:03:14.422Z</time>
      </trkpt>
      <trkpt lat="44.57618" lon="1.89406">
        <ele>385</ele>
        <time>2019-08-05T13:03:19.439Z</time>
      </trkpt>
      <trkpt lat="44.57618" lon="1.89411">
        <ele>385</ele>
        <time>2019-08-05T13:03:23.427Z</time>
      </trkpt>
      <trkpt lat="44.57618" lon="1.89415">
        <ele>385</ele>
        <time>2019-08-05T13:03:27.435Z</time>
      </trkpt>
      <trkpt lat="44.5762" lon="1.89421">
        <ele>385</ele>
        <time>2019-08-05T13:03:32.433Z</time>
      </trkpt>
      <trkpt lat="44.57619" lon="1.8943">
        <ele>385</ele>
        <time>2019-08-05T13:03:37.457Z</time>
      </trkpt>
      <trkpt lat="44.57619" lon="1.89442">
        <ele>383</ele>
        <time>2019-08-05T13:03:42.438Z</time>
      </trkpt>
      <trkpt lat="44.57621" lon="1.89451">
        <ele>383</ele>
        <time>2019-08-05T13:03:47.432Z</time>
      </trkpt>
      <trkpt lat="44.57622" lon="1.89457">
        <ele>383</ele>
        <time>2019-08-05T13:03:51.431Z</time>
      </trkpt>
      <trkpt lat="44.57624" lon="1.89464">
        <ele>381</ele>
        <time>2019-08-05T13:03:55.448Z</time>
      </trkpt>
      <trkpt lat="44.57623" lon="1.89473">
        <ele>381</ele>
        <time>2019-08-05T13:04:00.426Z</time>
      </trkpt>
      <trkpt lat="44.57622" lon="1.89481">
        <ele>381</ele>
        <time>2019-08-05T13:04:05.441Z</time>
      </trkpt>
      <trkpt lat="44.57621" lon="1.89489">
        <ele>379</ele>
        <time>2019-08-05T13:04:10.405Z</time>
      </trkpt>
      <trkpt lat="44.57621" lon="1.89497">
        <ele>379</ele>
        <time>2019-08-05T13:04:14.429Z</time>
      </trkpt>
      <trkpt lat="44.5762" lon="1.89504">
        <ele>379</ele>
        <time>2019-08-05T13:04:18.437Z</time>
      </trkpt>
      <trkpt lat="44.5762" lon="1.89512">
        <ele>379</ele>
        <time>2019-08-05T13:04:23.434Z</time>
      </trkpt>
      <trkpt lat="44.57619" lon="1.89523">
        <ele>377</ele>
        <time>2019-08-05T13:04:28.408Z</time>
      </trkpt>
      <trkpt lat="44.57619" lon="1.89531">
        <ele>377</ele>
        <time>2019-08-05T13:04:36.421Z</time>
      </trkpt>
      <trkpt lat="44.57619" lon="1.89533">
        <ele>377</ele>
        <time>2019-08-05T13:04:41.435Z</time>
      </trkpt>
      <trkpt lat="44.5762" lon="1.89534">
        <ele>377</ele>
        <time>2019-08-05T13:04:46.421Z</time>
      </trkpt>
      <trkpt lat="44.57621" lon="1.89538">
        <ele>377</ele>
        <time>2019-08-05T13:04:51.426Z</time>
      </trkpt>
      <trkpt lat="44.57622" lon="1.89544">
        <ele>376</ele>
        <time>2019-08-05T13:04:56.419Z</time>
      </trkpt>
      <trkpt lat="44.57622" lon="1.89551">
        <ele>376</ele>
        <time>2019-08-05T13:05:00.428Z</time>
      </trkpt>
      <trkpt lat="44.57621" lon="1.89562">
        <ele>376</ele>
        <time>2019-08-05T13:05:05.430Z</time>
      </trkpt>
      <trkpt lat="44.57622" lon="1.89572">
        <ele>375</ele>
        <time>2019-08-05T13:05:09.453Z</time>
      </trkpt>
      <trkpt lat="44.57622" lon="1.89586">
        <ele>375</ele>
        <time>2019-08-05T13:05:14.425Z</time>
      </trkpt>
      <trkpt lat="44.57622" lon="1.896">
        <ele>374</ele>
        <time>2019-08-05T13:05:19.442Z</time>
      </trkpt>
      <trkpt lat="44.57622" lon="1.89609">
        <ele>374</ele>
        <time>2019-08-05T13:05:23.426Z</time>
      </trkpt>
      <trkpt lat="44.57623" lon="1.89618">
        <ele>374</ele>
        <time>2019-08-05T13:05:28.459Z</time>
      </trkpt>
      <trkpt lat="44.57623" lon="1.89627">
        <ele>372</ele>
        <time>2019-08-05T13:05:33.440Z</time>
      </trkpt>
      <trkpt lat="44.57624" lon="1.89635">
        <ele>372</ele>
        <time>2019-08-05T13:05:38.431Z</time>
      </trkpt>
      <trkpt lat="44.57623" lon="1.89643">
        <ele>372</ele>
        <time>2019-08-05T13:05:43.431Z</time>
      </trkpt>
      <trkpt lat="44.57622" lon="1.89648">
        <ele>372</ele>
        <time>2019-08-05T13:05:47.439Z</time>
      </trkpt>
      <trkpt lat="44.57624" lon="1.89658">
        <ele>372</ele>
        <time>2019-08-05T13:05:52.441Z</time>
      </trkpt>
      <trkpt lat="44.57625" lon="1.89667">
        <ele>372</ele>
        <time>2019-08-05T13:05:57.434Z</time>
      </trkpt>
      <trkpt lat="44.57625" lon="1.89672">
        <ele>372</ele>
        <time>2019-08-05T13:06:01.443Z</time>
      </trkpt>
      <trkpt lat="44.57624" lon="1.89684">
        <ele>371</ele>
        <time>2019-08-05T13:06:06.434Z</time>
      </trkpt>
      <trkpt lat="44.57625" lon="1.89693">
        <ele>373</ele>
        <time>2019-08-05T13:06:10.438Z</time>
      </trkpt>
      <trkpt lat="44.57626" lon="1.897">
        <ele>373</ele>
        <time>2019-08-05T13:06:15.425Z</time>
      </trkpt>
      <trkpt lat="44.57627" lon="1.89706">
        <ele>373</ele>
        <time>2019-08-05T13:06:19.434Z</time>
      </trkpt>
      <trkpt lat="44.57628" lon="1.89712">
        <ele>372</ele>
        <time>2019-08-05T13:06:24.432Z</time>
      </trkpt>
      <trkpt lat="44.57627" lon="1.89724">
        <ele>372</ele>
        <time>2019-08-05T13:06:29.438Z</time>
      </trkpt>
      <trkpt lat="44.57627" lon="1.89728">
        <ele>372</ele>
        <time>2019-08-05T13:06:34.439Z</time>
      </trkpt>
      <trkpt lat="44.57627" lon="1.89731">
        <ele>372</ele>
        <time>2019-08-05T13:06:39.440Z</time>
      </trkpt>
      <trkpt lat="44.57627" lon="1.89732">
        <ele>372</ele>
        <time>2019-08-05T13:06:44.427Z</time>
      </trkpt>
      <trkpt lat="44.57628" lon="1.89739">
        <ele>372</ele>
        <time>2019-08-05T13:06:49.441Z</time>
      </trkpt>
      <trkpt lat="44.57629" lon="1.89749">
        <ele>372</ele>
        <time>2019-08-05T13:06:54.441Z</time>
      </trkpt>
      <trkpt lat="44.57628" lon="1.89759">
        <ele>372</ele>
        <time>2019-08-05T13:06:59.443Z</time>
      </trkpt>
      <trkpt lat="44.57628" lon="1.89769">
        <ele>373</ele>
        <time>2019-08-05T13:07:04.446Z</time>
      </trkpt>
      <trkpt lat="44.57628" lon="1.89779">
        <ele>373</ele>
        <time>2019-08-05T13:07:09.436Z</time>
      </trkpt>
      <trkpt lat="44.5763" lon="1.89789">
        <ele>373</ele>
        <time>2019-08-05T13:07:14.435Z</time>
      </trkpt>
      <trkpt lat="44.5763" lon="1.89801">
        <ele>374</ele>
        <time>2019-08-05T13:07:19.433Z</time>
      </trkpt>
      <trkpt lat="44.57631" lon="1.8981">
        <ele>374</ele>
        <time>2019-08-05T13:07:24.434Z</time>
      </trkpt>
      <trkpt lat="44.57631" lon="1.89819">
        <ele>374</ele>
        <time>2019-08-05T13:07:28.439Z</time>
      </trkpt>
      <trkpt lat="44.57631" lon="1.89831">
        <ele>375</ele>
        <time>2019-08-05T13:07:33.438Z</time>
      </trkpt>
      <trkpt lat="44.57629" lon="1.89842">
        <ele>375</ele>
        <time>2019-08-05T13:07:38.437Z</time>
      </trkpt>
      <trkpt lat="44.57629" lon="1.89852">
        <ele>377</ele>
        <time>2019-08-05T13:07:43.441Z</time>
      </trkpt>
      <trkpt lat="44.57629" lon="1.89861">
        <ele>377</ele>
        <time>2019-08-05T13:07:48.450Z</time>
      </trkpt>
      <trkpt lat="44.57632" lon="1.8987">
        <ele>377</ele>
        <time>2019-08-05T13:07:53.442Z</time>
      </trkpt>
      <trkpt lat="44.57634" lon="1.8988">
        <ele>379</ele>
        <time>2019-08-05T13:07:58.434Z</time>
      </trkpt>
      <trkpt lat="44.57635" lon="1.89886">
        <ele>379</ele>
        <time>2019-08-05T13:08:02.437Z</time>
      </trkpt>
      <trkpt lat="44.57635" lon="1.89895">
        <ele>379</ele>
        <time>2019-08-05T13:08:07.446Z</time>
      </trkpt>
      <trkpt lat="44.57636" lon="1.89901">
        <ele>379</ele>
        <time>2019-08-05T13:08:11.448Z</time>
      </trkpt>
      <trkpt lat="44.57636" lon="1.89908">
        <ele>382</ele>
        <time>2019-08-05T13:08:15.435Z</time>
      </trkpt>
      <trkpt lat="44.57636" lon="1.89915">
        <ele>382</ele>
        <time>2019-08-05T13:08:20.439Z</time>
      </trkpt>
      <trkpt lat="44.57636" lon="1.89923">
        <ele>382</ele>
        <time>2019-08-05T13:08:25.414Z</time>
      </trkpt>
      <trkpt lat="44.57636" lon="1.89931">
        <ele>385</ele>
        <time>2019-08-05T13:08:29.441Z</time>
      </trkpt>
      <trkpt lat="44.57637" lon="1.89939">
        <ele>385</ele>
        <time>2019-08-05T13:08:34.426Z</time>
      </trkpt>
      <trkpt lat="44.57636" lon="1.89947">
        <ele>385</ele>
        <time>2019-08-05T13:08:39.442Z</time>
      </trkpt>
      <trkpt lat="44.57637" lon="1.89956">
        <ele>385</ele>
        <time>2019-08-05T13:08:44.408Z</time>
      </trkpt>
      <trkpt lat="44.57636" lon="1.89962">
        <ele>386</ele>
        <time>2019-08-05T13:08:48.428Z</time>
      </trkpt>
      <trkpt lat="44.57637" lon="1.89968">
        <ele>386</ele>
        <time>2019-08-05T13:08:52.443Z</time>
      </trkpt>
      <trkpt lat="44.57636" lon="1.89978">
        <ele>386</ele>
        <time>2019-08-05T13:08:57.442Z</time>
      </trkpt>
      <trkpt lat="44.57637" lon="1.89987">
        <ele>386</ele>
        <time>2019-08-05T13:09:02.440Z</time>
      </trkpt>
      <trkpt lat="44.57636" lon="1.89993">
        <ele>386</ele>
        <time>2019-08-05T13:09:06.449Z</time>
      </trkpt>
      <trkpt lat="44.57636" lon="1.90001">
        <ele>386</ele>
        <time>2019-08-05T13:09:11.438Z</time>
      </trkpt>
      <trkpt lat="44.57636" lon="1.90007">
        <ele>386</ele>
        <time>2019-08-05T13:09:16.439Z</time>
      </trkpt>
      <trkpt lat="44.57636" lon="1.90012">
        <ele>386</ele>
        <time>2019-08-05T13:09:21.434Z</time>
      </trkpt>
      <trkpt lat="44.57636" lon="1.90012">
        <ele>386</ele>
        <time>2019-08-05T13:09:25.439Z</time>
      </trkpt>
      <trkpt lat="44.57636" lon="1.90015">
        <ele>387</ele>
        <time>2019-08-05T13:09:30.432Z</time>
      </trkpt>
      <trkpt lat="44.57636" lon="1.90019">
        <ele>387</ele>
        <time>2019-08-05T13:09:39.446Z</time>
      </trkpt>
      <trkpt lat="44.57636" lon="1.9002">
        <ele>387</ele>
        <time>2019-08-05T13:09:44.437Z</time>
      </trkpt>
      <trkpt lat="44.57636" lon="1.90021">
        <ele>387</ele>
        <time>2019-08-05T13:09:48.444Z</time>
      </trkpt>
      <trkpt lat="44.57635" lon="1.90027">
        <ele>387</ele>
        <time>2019-08-05T13:09:52.429Z</time>
      </trkpt>
      <trkpt lat="44.57633" lon="1.90033">
        <ele>387</ele>
        <time>2019-08-05T13:09:57.434Z</time>
      </trkpt>
      <trkpt lat="44.57633" lon="1.90038">
        <ele>387</ele>
        <time>2019-08-05T13:10:02.433Z</time>
      </trkpt>
      <trkpt lat="44.57633" lon="1.90046">
        <ele>388</ele>
        <time>2019-08-05T13:10:07.430Z</time>
      </trkpt>
      <trkpt lat="44.57631" lon="1.90053">
        <ele>388</ele>
        <time>2019-08-05T13:10:11.447Z</time>
      </trkpt>
      <trkpt lat="44.5763" lon="1.90062">
        <ele>388</ele>
        <time>2019-08-05T13:10:16.454Z</time>
      </trkpt>
      <trkpt lat="44.5763" lon="1.90072">
        <ele>389</ele>
        <time>2019-08-05T13:10:21.436Z</time>
      </trkpt>
      <trkpt lat="44.57629" lon="1.90082">
        <ele>389</ele>
        <time>2019-08-05T13:10:26.446Z</time>
      </trkpt>
      <trkpt lat="44.57629" lon="1.9009">
        <ele>389</ele>
        <time>2019-08-05T13:10:31.442Z</time>
      </trkpt>
      <trkpt lat="44.57629" lon="1.901">
        <ele>388</ele>
        <time>2019-08-05T13:10:36.448Z</time>
      </trkpt>
      <trkpt lat="44.57627" lon="1.90109">
        <ele>388</ele>
        <time>2019-08-05T13:10:41.437Z</time>
      </trkpt>
      <trkpt lat="44.57625" lon="1.9012">
        <ele>388</ele>
        <time>2019-08-05T13:10:46.464Z</time>
      </trkpt>
      <trkpt lat="44.57625" lon="1.90127">
        <ele>386</ele>
        <time>2019-08-05T13:10:51.450Z</time>
      </trkpt>
      <trkpt lat="44.57624" lon="1.90135">
        <ele>386</ele>
        <time>2019-08-05T13:10:56.454Z</time>
      </trkpt>
      <trkpt lat="44.57623" lon="1.90142">
        <ele>386</ele>
        <time>2019-08-05T13:11:01.437Z</time>
      </trkpt>
      <trkpt lat="44.57622" lon="1.90149">
        <ele>386</ele>
        <time>2019-08-05T13:11:05.435Z</time>
      </trkpt>
      <trkpt lat="44.57617" lon="1.90155">
        <ele>384</ele>
        <time>2019-08-05T13:11:10.431Z</time>
      </trkpt>
      <trkpt lat="44.57615" lon="1.90163">
        <ele>384</ele>
        <time>2019-08-05T13:11:14.432Z</time>
      </trkpt>
      <trkpt lat="44.57613" lon="1.90171">
        <ele>384</ele>
        <time>2019-08-05T13:11:19.446Z</time>
      </trkpt>
      <trkpt lat="44.57612" lon="1.90182">
        <ele>383</ele>
        <time>2019-08-05T13:11:24.435Z</time>
      </trkpt>
      <trkpt lat="44.57615" lon="1.90193">
        <ele>383</ele>
        <time>2019-08-05T13:11:29.443Z</time>
      </trkpt>
      <trkpt lat="44.57616" lon="1.90204">
        <ele>383</ele>
        <time>2019-08-05T13:11:34.437Z</time>
      </trkpt>
      <trkpt lat="44.57616" lon="1.90216">
        <ele>380</ele>
        <time>2019-08-05T13:11:39.426Z</time>
      </trkpt>
      <trkpt lat="44.57616" lon="1.9022">
        <ele>380</ele>
        <time>2019-08-05T13:11:43.435Z</time>
      </trkpt>
      <trkpt lat="44.57615" lon="1.90226">
        <ele>380</ele>
        <time>2019-08-05T13:11:47.437Z</time>
      </trkpt>
      <trkpt lat="44.57614" lon="1.90232">
        <ele>380</ele>
        <time>2019-08-05T13:11:51.443Z</time>
      </trkpt>
      <trkpt lat="44.57618" lon="1.90241">
        <ele>376</ele>
        <time>2019-08-05T13:11:56.432Z</time>
      </trkpt>
      <trkpt lat="44.57619" lon="1.9025">
        <ele>376</ele>
        <time>2019-08-05T13:12:01.450Z</time>
      </trkpt>
      <trkpt lat="44.5762" lon="1.90261">
        <ele>376</ele>
        <time>2019-08-05T13:12:06.436Z</time>
      </trkpt>
      <trkpt lat="44.57622" lon="1.9027">
        <ele>372</ele>
        <time>2019-08-05T13:12:11.442Z</time>
      </trkpt>
      <trkpt lat="44.57623" lon="1.90278">
        <ele>372</ele>
        <time>2019-08-05T13:12:15.428Z</time>
      </trkpt>
      <trkpt lat="44.57623" lon="1.90289">
        <ele>372</ele>
        <time>2019-08-05T13:12:20.436Z</time>
      </trkpt>
      <trkpt lat="44.57624" lon="1.90297">
        <ele>367</ele>
        <time>2019-08-05T13:12:24.435Z</time>
      </trkpt>
      <trkpt lat="44.57624" lon="1.90307">
        <ele>367</ele>
        <time>2019-08-05T13:12:29.440Z</time>
      </trkpt>
      <trkpt lat="44.57625" lon="1.90315">
        <ele>373</ele>
        <time>2019-08-05T13:12:34.440Z</time>
      </trkpt>
      <trkpt lat="44.57626" lon="1.90325">
        <ele>368</ele>
        <time>2019-08-05T13:12:39.437Z</time>
      </trkpt>
      <trkpt lat="44.57628" lon="1.90335">
        <ele>368</ele>
        <time>2019-08-05T13:12:44.436Z</time>
      </trkpt>
      <trkpt lat="44.5763" lon="1.90341">
        <ele>368</ele>
        <time>2019-08-05T13:12:49.449Z</time>
      </trkpt>
      <trkpt lat="44.57632" lon="1.9035">
        <ele>364</ele>
        <time>2019-08-05T13:12:54.439Z</time>
      </trkpt>
      <trkpt lat="44.57633" lon="1.9036">
        <ele>364</ele>
        <time>2019-08-05T13:12:59.439Z</time>
      </trkpt>
      <trkpt lat="44.57635" lon="1.90369">
        <ele>364</ele>
        <time>2019-08-05T13:13:04.432Z</time>
      </trkpt>
      <trkpt lat="44.57635" lon="1.90373">
        <ele>364</ele>
        <time>2019-08-05T13:13:09.422Z</time>
      </trkpt>
      <trkpt lat="44.57635" lon="1.90375">
        <ele>364</ele>
        <time>2019-08-05T13:13:13.439Z</time>
      </trkpt>
      <trkpt lat="44.57636" lon="1.90377">
        <ele>362</ele>
        <time>2019-08-05T13:13:18.443Z</time>
      </trkpt>
      <trkpt lat="44.57636" lon="1.90381">
        <ele>362</ele>
        <time>2019-08-05T13:13:22.439Z</time>
      </trkpt>
      <trkpt lat="44.57637" lon="1.90389">
        <ele>362</ele>
        <time>2019-08-05T13:13:27.443Z</time>
      </trkpt>
      <trkpt lat="44.57638" lon="1.90396">
        <ele>362</ele>
        <time>2019-08-05T13:13:32.441Z</time>
      </trkpt>
      <trkpt lat="44.57639" lon="1.90404">
        <ele>361</ele>
        <time>2019-08-05T13:13:37.443Z</time>
      </trkpt>
      <trkpt lat="44.5764" lon="1.90408">
        <ele>361</ele>
        <time>2019-08-05T13:13:42.439Z</time>
      </trkpt>
      <trkpt lat="44.57642" lon="1.90413">
        <ele>361</ele>
        <time>2019-08-05T13:13:47.445Z</time>
      </trkpt>
      <trkpt lat="44.5764" lon="1.90419">
        <ele>361</ele>
        <time>2019-08-05T13:13:51.440Z</time>
      </trkpt>
      <trkpt lat="44.57639" lon="1.90425">
        <ele>361</ele>
        <time>2019-08-05T13:13:55.431Z</time>
      </trkpt>
      <trkpt lat="44.57638" lon="1.90427">
        <ele>361</ele>
        <time>2019-08-05T13:14:00.443Z</time>
      </trkpt>
      <trkpt lat="44.57638" lon="1.9043">
        <ele>361</ele>
        <time>2019-08-05T13:14:05.436Z</time>
      </trkpt>
      <trkpt lat="44.57637" lon="1.90436">
        <ele>361</ele>
        <time>2019-08-05T13:14:10.438Z</time>
      </trkpt>
      <trkpt lat="44.57636" lon="1.90446">
        <ele>361</ele>
        <time>2019-08-05T13:14:15.441Z</time>
      </trkpt>
      <trkpt lat="44.57635" lon="1.90451">
        <ele>361</ele>
        <time>2019-08-05T13:14:20.426Z</time>
      </trkpt>
      <trkpt lat="44.57631" lon="1.90458">
        <ele>361</ele>
        <time>2019-08-05T13:14:25.429Z</time>
      </trkpt>
      <trkpt lat="44.57628" lon="1.90463">
        <ele>359</ele>
        <time>2019-08-05T13:14:29.430Z</time>
      </trkpt>
      <trkpt lat="44.57625" lon="1.90469">
        <ele>358</ele>
        <time>2019-08-05T13:14:33.442Z</time>
      </trkpt>
      <trkpt lat="44.57621" lon="1.90475">
        <ele>358</ele>
        <time>2019-08-05T13:14:38.434Z</time>
      </trkpt>
      <trkpt lat="44.57617" lon="1.90483">
        <ele>358</ele>
        <time>2019-08-05T13:14:43.434Z</time>
      </trkpt>
      <trkpt lat="44.57614" lon="1.90492">
        <ele>357</ele>
        <time>2019-08-05T13:14:47.666Z</time>
      </trkpt>
      <trkpt lat="44.57612" lon="1.90499">
        <ele>357</ele>
        <time>2019-08-05T13:14:52.436Z</time>
      </trkpt>
      <trkpt lat="44.57607" lon="1.90506">
        <ele>357</ele>
        <time>2019-08-05T13:14:57.438Z</time>
      </trkpt>
      <trkpt lat="44.57604" lon="1.90513">
        <ele>357</ele>
        <time>2019-08-05T13:15:01.444Z</time>
      </trkpt>
      <trkpt lat="44.57601" lon="1.90521">
        <ele>359</ele>
        <time>2019-08-05T13:15:06.436Z</time>
      </trkpt>
      <trkpt lat="44.57598" lon="1.90529">
        <ele>359</ele>
        <time>2019-08-05T13:15:11.430Z</time>
      </trkpt>
      <trkpt lat="44.57596" lon="1.90542">
        <ele>355</ele>
        <time>2019-08-05T13:15:16.437Z</time>
      </trkpt>
      <trkpt lat="44.57595" lon="1.90551">
        <ele>355</ele>
        <time>2019-08-05T13:15:20.440Z</time>
      </trkpt>
      <trkpt lat="44.57594" lon="1.90559">
        <ele>355</ele>
        <time>2019-08-05T13:15:24.440Z</time>
      </trkpt>
      <trkpt lat="44.57592" lon="1.9057">
        <ele>355</ele>
        <time>2019-08-05T13:15:29.438Z</time>
      </trkpt>
      <trkpt lat="44.57593" lon="1.90572">
        <ele>355</ele>
        <time>2019-08-05T13:15:34.423Z</time>
      </trkpt>
      <trkpt lat="44.57593" lon="1.9058">
        <ele>355</ele>
        <time>2019-08-05T13:15:38.447Z</time>
      </trkpt>
      <trkpt lat="44.57589" lon="1.90594">
        <ele>355</ele>
        <time>2019-08-05T13:15:43.435Z</time>
      </trkpt>
      <trkpt lat="44.57588" lon="1.90607">
        <ele>354</ele>
        <time>2019-08-05T13:15:53.443Z</time>
      </trkpt>
      <trkpt lat="44.57586" lon="1.90609">
        <ele>354</ele>
        <time>2019-08-05T13:15:57.441Z</time>
      </trkpt>
      <trkpt lat="44.57585" lon="1.9061">
        <ele>354</ele>
        <time>2019-08-05T13:16:02.431Z</time>
      </trkpt>
      <trkpt lat="44.57584" lon="1.90613">
        <ele>354</ele>
        <time>2019-08-05T13:16:07.440Z</time>
      </trkpt>
      <trkpt lat="44.57582" lon="1.90617">
        <ele>354</ele>
        <time>2019-08-05T13:16:11.443Z</time>
      </trkpt>
      <trkpt lat="44.5758" lon="1.90623">
        <ele>354</ele>
        <time>2019-08-05T13:16:15.438Z</time>
      </trkpt>
      <trkpt lat="44.57579" lon="1.9063">
        <ele>353</ele>
        <time>2019-08-05T13:16:20.435Z</time>
      </trkpt>
      <trkpt lat="44.57578" lon="1.90637">
        <ele>353</ele>
        <time>2019-08-05T13:16:25.438Z</time>
      </trkpt>
      <trkpt lat="44.57575" lon="1.90642">
        <ele>353</ele>
        <time>2019-08-05T13:16:29.436Z</time>
      </trkpt>
      <trkpt lat="44.57571" lon="1.90647">
        <ele>353</ele>
        <time>2019-08-05T13:16:33.438Z</time>
      </trkpt>
      <trkpt lat="44.57568" lon="1.90655">
        <ele>349</ele>
        <time>2019-08-05T13:16:38.424Z</time>
      </trkpt>
      <trkpt lat="44.57565" lon="1.90666">
        <ele>349</ele>
        <time>2019-08-05T13:16:43.450Z</time>
      </trkpt>
      <trkpt lat="44.57565" lon="1.90674">
        <ele>349</ele>
        <time>2019-08-05T13:16:48.429Z</time>
      </trkpt>
      <trkpt lat="44.57565" lon="1.90687">
        <ele>349</ele>
        <time>2019-08-05T13:16:53.429Z</time>
      </trkpt>
      <trkpt lat="44.57567" lon="1.90692">
        <ele>349</ele>
        <time>2019-08-05T13:16:57.429Z</time>
      </trkpt>
      <trkpt lat="44.57566" lon="1.90697">
        <ele>349</ele>
        <time>2019-08-05T13:17:01.436Z</time>
      </trkpt>
      <trkpt lat="44.57566" lon="1.90699">
        <ele>349</ele>
        <time>2019-08-05T13:17:06.430Z</time>
      </trkpt>
      <trkpt lat="44.57564" lon="1.90702">
        <ele>349</ele>
        <time>2019-08-05T13:17:11.439Z</time>
      </trkpt>
      <trkpt lat="44.57563" lon="1.90703">
        <ele>349</ele>
        <time>2019-08-05T13:17:16.442Z</time>
      </trkpt>
      <trkpt lat="44.57563" lon="1.90704">
        <ele>349</ele>
        <time>2019-08-05T13:17:20.444Z</time>
      </trkpt>
      <trkpt lat="44.5756" lon="1.90713">
        <ele>347</ele>
        <time>2019-08-05T13:17:24.434Z</time>
      </trkpt>
      <trkpt lat="44.57557" lon="1.90721">
        <ele>347</ele>
        <time>2019-08-05T13:17:28.454Z</time>
      </trkpt>
      <trkpt lat="44.57557" lon="1.90726">
        <ele>347</ele>
        <time>2019-08-05T13:17:33.433Z</time>
      </trkpt>
      <trkpt lat="44.57555" lon="1.90732">
        <ele>347</ele>
        <time>2019-08-05T13:17:38.429Z</time>
      </trkpt>
      <trkpt lat="44.57554" lon="1.90735">
        <ele>347</ele>
        <time>2019-08-05T13:17:42.434Z</time>
      </trkpt>
      <trkpt lat="44.57551" lon="1.90744">
        <ele>345</ele>
        <time>2019-08-05T13:17:46.446Z</time>
      </trkpt>
      <trkpt lat="44.5755" lon="1.90751">
        <ele>345</ele>
        <time>2019-08-05T13:17:51.444Z</time>
      </trkpt>
      <trkpt lat="44.57549" lon="1.90753">
        <ele>345</ele>
        <time>2019-08-05T13:17:55.442Z</time>
      </trkpt>
      <trkpt lat="44.57544" lon="1.9077">
        <ele>343</ele>
        <time>2019-08-05T13:18:00.427Z</time>
      </trkpt>
      <trkpt lat="44.57542" lon="1.90782">
        <ele>343</ele>
        <time>2019-08-05T13:18:05.436Z</time>
      </trkpt>
      <trkpt lat="44.57541" lon="1.90787">
        <ele>340</ele>
        <time>2019-08-05T13:18:10.424Z</time>
      </trkpt>
      <trkpt lat="44.57539" lon="1.90792">
        <ele>338</ele>
        <time>2019-08-05T13:18:14.437Z</time>
      </trkpt>
      <trkpt lat="44.57538" lon="1.90801">
        <ele>338</ele>
        <time>2019-08-05T13:18:19.432Z</time>
      </trkpt>
      <trkpt lat="44.57537" lon="1.90804">
        <ele>338</ele>
        <time>2019-08-05T13:18:24.431Z</time>
      </trkpt>
      <trkpt lat="44.57534" lon="1.9081">
        <ele>338</ele>
        <time>2019-08-05T13:18:29.433Z</time>
      </trkpt>
      <trkpt lat="44.57533" lon="1.90816">
        <ele>338</ele>
        <time>2019-08-05T13:18:34.436Z</time>
      </trkpt>
      <trkpt lat="44.57531" lon="1.90826">
        <ele>336</ele>
        <time>2019-08-05T13:18:39.439Z</time>
      </trkpt>
      <trkpt lat="44.5753" lon="1.90834">
        <ele>336</ele>
        <time>2019-08-05T13:18:43.443Z</time>
      </trkpt>
      <trkpt lat="44.57529" lon="1.9084">
        <ele>336</ele>
        <time>2019-08-05T13:18:48.432Z</time>
      </trkpt>
      <trkpt lat="44.57528" lon="1.90846">
        <ele>336</ele>
        <time>2019-08-05T13:18:52.430Z</time>
      </trkpt>
      <trkpt lat="44.57527" lon="1.9085">
        <ele>335</ele>
        <time>2019-08-05T13:18:57.446Z</time>
      </trkpt>
      <trkpt lat="44.57523" lon="1.9086">
        <ele>335</ele>
        <time>2019-08-05T13:19:01.448Z</time>
      </trkpt>
      <trkpt lat="44.57519" lon="1.9087">
        <ele>335</ele>
        <time>2019-08-05T13:19:06.432Z</time>
      </trkpt>
      <trkpt lat="44.57516" lon="1.90879">
        <ele>334</ele>
        <time>2019-08-05T13:19:10.437Z</time>
      </trkpt>
      <trkpt lat="44.57514" lon="1.90885">
        <ele>334</ele>
        <time>2019-08-05T13:19:14.447Z</time>
      </trkpt>
      <trkpt lat="44.57512" lon="1.90887">
        <ele>332</ele>
        <time>2019-08-05T13:19:18.443Z</time>
      </trkpt>
      <trkpt lat="44.57511" lon="1.90888">
        <ele>332</ele>
        <time>2019-08-05T13:19:23.432Z</time>
      </trkpt>
      <trkpt lat="44.57508" lon="1.90895">
        <ele>332</ele>
        <time>2019-08-05T13:19:28.438Z</time>
      </trkpt>
      <trkpt lat="44.57505" lon="1.90897">
        <ele>332</ele>
        <time>2019-08-05T13:19:33.442Z</time>
      </trkpt>
      <trkpt lat="44.57503" lon="1.90899">
        <ele>332</ele>
        <time>2019-08-05T13:19:38.424Z</time>
      </trkpt>
      <trkpt lat="44.575" lon="1.90903">
        <ele>332</ele>
        <time>2019-08-05T13:19:42.433Z</time>
      </trkpt>
      <trkpt lat="44.57497" lon="1.90914">
        <ele>332</ele>
        <time>2019-08-05T13:19:47.438Z</time>
      </trkpt>
      <trkpt lat="44.57493" lon="1.90922">
        <ele>332</ele>
        <time>2019-08-05T13:19:52.423Z</time>
      </trkpt>
      <trkpt lat="44.5749" lon="1.90926">
        <ele>332</ele>
        <time>2019-08-05T13:19:57.432Z</time>
      </trkpt>
      <trkpt lat="44.57487" lon="1.9093">
        <ele>332</ele>
        <time>2019-08-05T13:20:01.436Z</time>
      </trkpt>
      <trkpt lat="44.57482" lon="1.90946">
        <ele>328</ele>
        <time>2019-08-05T13:20:06.431Z</time>
      </trkpt>
      <trkpt lat="44.57477" lon="1.90955">
        <ele>328</ele>
        <time>2019-08-05T13:20:11.431Z</time>
      </trkpt>
      <trkpt lat="44.57473" lon="1.90964">
        <ele>329</ele>
        <time>2019-08-05T13:20:16.424Z</time>
      </trkpt>
      <trkpt lat="44.5747" lon="1.9097">
        <ele>329</ele>
        <time>2019-08-05T13:20:21.433Z</time>
      </trkpt>
      <trkpt lat="44.57467" lon="1.90976">
        <ele>329</ele>
        <time>2019-08-05T13:20:26.430Z</time>
      </trkpt>
      <trkpt lat="44.57464" lon="1.90981">
        <ele>329</ele>
        <time>2019-08-05T13:20:31.436Z</time>
      </trkpt>
      <trkpt lat="44.5746" lon="1.90985">
        <ele>329</ele>
        <time>2019-08-05T13:20:35.433Z</time>
      </trkpt>
      <trkpt lat="44.57459" lon="1.90991">
        <ele>329</ele>
        <time>2019-08-05T13:20:39.434Z</time>
      </trkpt>
      <trkpt lat="44.57459" lon="1.90995">
        <ele>329</ele>
        <time>2019-08-05T13:20:44.436Z</time>
      </trkpt>
      <trkpt lat="44.57456" lon="1.90997">
        <ele>331</ele>
        <time>2019-08-05T13:20:49.426Z</time>
      </trkpt>
      <trkpt lat="44.57452" lon="1.91003">
        <ele>331</ele>
        <time>2019-08-05T13:20:54.435Z</time>
      </trkpt>
      <trkpt lat="44.57453" lon="1.91014">
        <ele>331</ele>
        <time>2019-08-05T13:21:48.434Z</time>
      </trkpt>
      <trkpt lat="44.57456" lon="1.91009">
        <ele>331</ele>
        <time>2019-08-05T13:21:53.419Z</time>
      </trkpt>
      <trkpt lat="44.57461" lon="1.91007">
        <ele>329</ele>
        <time>2019-08-05T13:21:58.426Z</time>
      </trkpt>
      <trkpt lat="44.57465" lon="1.91004">
        <ele>329</ele>
        <time>2019-08-05T13:22:02.430Z</time>
      </trkpt>
      <trkpt lat="44.57473" lon="1.90998">
        <ele>329</ele>
        <time>2019-08-05T13:22:07.435Z</time>
      </trkpt>
      <trkpt lat="44.57481" lon="1.90994">
        <ele>329</ele>
        <time>2019-08-05T13:22:12.427Z</time>
      </trkpt>
      <trkpt lat="44.57485" lon="1.90993">
        <ele>329</ele>
        <time>2019-08-05T13:22:16.438Z</time>
      </trkpt>
      <trkpt lat="44.57492" lon="1.90993">
        <ele>328</ele>
        <time>2019-08-05T13:22:21.439Z</time>
      </trkpt>
      <trkpt lat="44.57498" lon="1.90989">
        <ele>328</ele>
        <time>2019-08-05T13:22:26.441Z</time>
      </trkpt>
      <trkpt lat="44.57503" lon="1.90986">
        <ele>329</ele>
        <time>2019-08-05T13:22:30.441Z</time>
      </trkpt>
      <trkpt lat="44.57508" lon="1.90983">
        <ele>329</ele>
        <time>2019-08-05T13:22:34.433Z</time>
      </trkpt>
      <trkpt lat="44.57513" lon="1.90979">
        <ele>329</ele>
        <time>2019-08-05T13:22:39.440Z</time>
      </trkpt>
      <trkpt lat="44.5752" lon="1.90976">
        <ele>329</ele>
        <time>2019-08-05T13:22:44.435Z</time>
      </trkpt>
      <trkpt lat="44.57525" lon="1.90974">
        <ele>329</ele>
        <time>2019-08-05T13:22:49.424Z</time>
      </trkpt>
      <trkpt lat="44.57528" lon="1.90975">
        <ele>329</ele>
        <time>2019-08-05T13:22:53.440Z</time>
      </trkpt>
      <trkpt lat="44.57535" lon="1.90977">
        <ele>329</ele>
        <time>2019-08-05T13:22:58.440Z</time>
      </trkpt>
      <trkpt lat="44.57542" lon="1.90979">
        <ele>329</ele>
        <time>2019-08-05T13:23:02.433Z</time>
      </trkpt>
      <trkpt lat="44.5755" lon="1.90981">
        <ele>327</ele>
        <time>2019-08-05T13:23:07.442Z</time>
      </trkpt>
      <trkpt lat="44.57555" lon="1.9098">
        <ele>327</ele>
        <time>2019-08-05T13:23:11.429Z</time>
      </trkpt>
      <trkpt lat="44.57561" lon="1.9098">
        <ele>327</ele>
        <time>2019-08-05T13:23:15.447Z</time>
      </trkpt>
      <trkpt lat="44.57568" lon="1.90981">
        <ele>327</ele>
        <time>2019-08-05T13:23:20.433Z</time>
      </trkpt>
      <trkpt lat="44.57572" lon="1.90982">
        <ele>326</ele>
        <time>2019-08-05T13:23:25.443Z</time>
      </trkpt>
      <trkpt lat="44.57576" lon="1.90983">
        <ele>326</ele>
        <time>2019-08-05T13:23:30.420Z</time>
      </trkpt>
      <trkpt lat="44.57579" lon="1.90985">
        <ele>326</ele>
        <time>2019-08-05T13:23:34.426Z</time>
      </trkpt>
      <trkpt lat="44.57584" lon="1.90986">
        <ele>323</ele>
        <time>2019-08-05T13:23:39.435Z</time>
      </trkpt>
      <trkpt lat="44.57589" lon="1.9099">
        <ele>323</ele>
        <time>2019-08-05T13:23:44.431Z</time>
      </trkpt>
      <trkpt lat="44.57595" lon="1.90995">
        <ele>323</ele>
        <time>2019-08-05T13:23:49.429Z</time>
      </trkpt>
      <trkpt lat="44.57596" lon="1.90996">
        <ele>323</ele>
        <time>2019-08-05T13:23:53.431Z</time>
      </trkpt>
      <trkpt lat="44.57602" lon="1.91">
        <ele>322</ele>
        <time>2019-08-05T13:23:58.428Z</time>
      </trkpt>
      <trkpt lat="44.57605" lon="1.91002">
        <ele>322</ele>
        <time>2019-08-05T13:24:02.434Z</time>
      </trkpt>
      <trkpt lat="44.5761" lon="1.91004">
        <ele>322</ele>
        <time>2019-08-05T13:24:07.432Z</time>
      </trkpt>
      <trkpt lat="44.57612" lon="1.91005">
        <ele>322</ele>
        <time>2019-08-05T13:24:12.435Z</time>
      </trkpt>
      <trkpt lat="44.57616" lon="1.91007">
        <ele>322</ele>
        <time>2019-08-05T13:24:17.430Z</time>
      </trkpt>
      <trkpt lat="44.5762" lon="1.9101">
        <ele>322</ele>
        <time>2019-08-05T13:24:21.434Z</time>
      </trkpt>
      <trkpt lat="44.57624" lon="1.91013">
        <ele>322</ele>
        <time>2019-08-05T13:24:25.433Z</time>
      </trkpt>
      <trkpt lat="44.57629" lon="1.91017">
        <ele>319</ele>
        <time>2019-08-05T13:24:30.432Z</time>
      </trkpt>
      <trkpt lat="44.57633" lon="1.91023">
        <ele>319</ele>
        <time>2019-08-05T13:24:35.430Z</time>
      </trkpt>
      <trkpt lat="44.57637" lon="1.91026">
        <ele>319</ele>
        <time>2019-08-05T13:24:40.429Z</time>
      </trkpt>
      <trkpt lat="44.5764" lon="1.9103">
        <ele>319</ele>
        <time>2019-08-05T13:24:44.437Z</time>
      </trkpt>
      <trkpt lat="44.57643" lon="1.91033">
        <ele>319</ele>
        <time>2019-08-05T13:24:49.443Z</time>
      </trkpt>
      <trkpt lat="44.57646" lon="1.91037">
        <ele>319</ele>
        <time>2019-08-05T13:24:54.434Z</time>
      </trkpt>
      <trkpt lat="44.5765" lon="1.91042">
        <ele>319</ele>
        <time>2019-08-05T13:24:58.443Z</time>
      </trkpt>
      <trkpt lat="44.57654" lon="1.91048">
        <ele>311</ele>
        <time>2019-08-05T13:25:03.438Z</time>
      </trkpt>
      <trkpt lat="44.57657" lon="1.91055">
        <ele>311</ele>
        <time>2019-08-05T13:25:08.430Z</time>
      </trkpt>
      <trkpt lat="44.5766" lon="1.9106">
        <ele>311</ele>
        <time>2019-08-05T13:25:13.445Z</time>
      </trkpt>
      <trkpt lat="44.57665" lon="1.91065">
        <ele>311</ele>
        <time>2019-08-05T13:25:18.427Z</time>
      </trkpt>
      <trkpt lat="44.57669" lon="1.91069">
        <ele>308</ele>
        <time>2019-08-05T13:25:23.429Z</time>
      </trkpt>
      <trkpt lat="44.57673" lon="1.91075">
        <ele>308</ele>
        <time>2019-08-05T13:25:28.432Z</time>
      </trkpt>
      <trkpt lat="44.57676" lon="1.9108">
        <ele>308</ele>
        <time>2019-08-05T13:25:32.433Z</time>
      </trkpt>
      <trkpt lat="44.57682" lon="1.91087">
        <ele>309</ele>
        <time>2019-08-05T13:25:37.437Z</time>
      </trkpt>
      <trkpt lat="44.57688" lon="1.91093">
        <ele>309</ele>
        <time>2019-08-05T13:25:42.435Z</time>
      </trkpt>
      <trkpt lat="44.57693" lon="1.91097">
        <ele>309</ele>
        <time>2019-08-05T13:25:46.437Z</time>
      </trkpt>
      <trkpt lat="44.57699" lon="1.91101">
        <ele>305</ele>
        <time>2019-08-05T13:25:51.435Z</time>
      </trkpt>
      <trkpt lat="44.57704" lon="1.91107">
        <ele>305</ele>
        <time>2019-08-05T13:25:55.444Z</time>
      </trkpt>
      <trkpt lat="44.57708" lon="1.91111">
        <ele>305</ele>
        <time>2019-08-05T13:25:59.440Z</time>
      </trkpt>
      <trkpt lat="44.57713" lon="1.91117">
        <ele>305</ele>
        <time>2019-08-05T13:26:04.438Z</time>
      </trkpt>
      <trkpt lat="44.57718" lon="1.91123">
        <ele>305</ele>
        <time>2019-08-05T13:26:09.434Z</time>
      </trkpt>
      <trkpt lat="44.57723" lon="1.91128">
        <ele>304</ele>
        <time>2019-08-05T13:26:14.441Z</time>
      </trkpt>
      <trkpt lat="44.5773" lon="1.91131">
        <ele>304</ele>
        <time>2019-08-05T13:26:19.427Z</time>
      </trkpt>
      <trkpt lat="44.57736" lon="1.91135">
        <ele>304</ele>
        <time>2019-08-05T13:26:23.438Z</time>
      </trkpt>
      <trkpt lat="44.57742" lon="1.91138">
        <ele>302</ele>
        <time>2019-08-05T13:26:27.443Z</time>
      </trkpt>
      <trkpt lat="44.5775" lon="1.9114">
        <ele>302</ele>
        <time>2019-08-05T13:26:32.435Z</time>
      </trkpt>
      <trkpt lat="44.57757" lon="1.91141">
        <ele>302</ele>
        <time>2019-08-05T13:26:37.434Z</time>
      </trkpt>
      <trkpt lat="44.57763" lon="1.91143">
        <ele>302</ele>
        <time>2019-08-05T13:26:41.447Z</time>
      </trkpt>
      <trkpt lat="44.57768" lon="1.91145">
        <ele>300</ele>
        <time>2019-08-05T13:26:45.426Z</time>
      </trkpt>
      <trkpt lat="44.57775" lon="1.91147">
        <ele>300</ele>
        <time>2019-08-05T13:27:04.443Z</time>
      </trkpt>
      <trkpt lat="44.57776" lon="1.91147">
        <ele>300</ele>
        <time>2019-08-05T13:27:08.455Z</time>
      </trkpt>
      <trkpt lat="44.5778" lon="1.9115">
        <ele>300</ele>
        <time>2019-08-05T13:27:13.445Z</time>
      </trkpt>
      <trkpt lat="44.57781" lon="1.91151">
        <ele>300</ele>
        <time>2019-08-05T13:27:17.444Z</time>
      </trkpt>
      <trkpt lat="44.57787" lon="1.91154">
        <ele>302</ele>
        <time>2019-08-05T13:27:22.438Z</time>
      </trkpt>
      <trkpt lat="44.57794" lon="1.91157">
        <ele>299</ele>
        <time>2019-08-05T13:27:27.434Z</time>
      </trkpt>
      <trkpt lat="44.57799" lon="1.91153">
        <ele>299</ele>
        <time>2019-08-05T13:27:32.438Z</time>
      </trkpt>
      <trkpt lat="44.57807" lon="1.91157">
        <ele>299</ele>
        <time>2019-08-05T13:27:37.429Z</time>
      </trkpt>
      <trkpt lat="44.57811" lon="1.91163">
        <ele>299</ele>
        <time>2019-08-05T13:27:41.439Z</time>
      </trkpt>
      <trkpt lat="44.57816" lon="1.91166">
        <ele>299</ele>
        <time>2019-08-05T13:27:45.437Z</time>
      </trkpt>
      <trkpt lat="44.57823" lon="1.91168">
        <ele>299</ele>
        <time>2019-08-05T13:27:50.441Z</time>
      </trkpt>
      <trkpt lat="44.5783" lon="1.91167">
        <ele>299</ele>
        <time>2019-08-05T13:27:55.435Z</time>
      </trkpt>
      <trkpt lat="44.57839" lon="1.91166">
        <ele>299</ele>
        <time>2019-08-05T13:28:00.441Z</time>
      </trkpt>
      <trkpt lat="44.57846" lon="1.91164">
        <ele>299</ele>
        <time>2019-08-05T13:28:04.439Z</time>
      </trkpt>
      <trkpt lat="44.57852" lon="1.91161">
        <ele>302</ele>
        <time>2019-08-05T13:28:09.442Z</time>
      </trkpt>
      <trkpt lat="44.57857" lon="1.91159">
        <ele>302</ele>
        <time>2019-08-05T13:28:13.428Z</time>
      </trkpt>
      <trkpt lat="44.57866" lon="1.91154">
        <ele>302</ele>
        <time>2019-08-05T13:28:18.424Z</time>
      </trkpt>
      <trkpt lat="44.57871" lon="1.91153">
        <ele>302</ele>
        <time>2019-08-05T13:28:23.433Z</time>
      </trkpt>
      <trkpt lat="44.57876" lon="1.9115">
        <ele>303</ele>
        <time>2019-08-05T13:28:27.429Z</time>
      </trkpt>
      <trkpt lat="44.57881" lon="1.91145">
        <ele>303</ele>
        <time>2019-08-05T13:28:31.426Z</time>
      </trkpt>
      <trkpt lat="44.57886" lon="1.91143">
        <ele>303</ele>
        <time>2019-08-05T13:28:36.441Z</time>
      </trkpt>
      <trkpt lat="44.57894" lon="1.91141">
        <ele>303</ele>
        <time>2019-08-05T13:28:41.444Z</time>
      </trkpt>
      <trkpt lat="44.57899" lon="1.91141">
        <ele>303</ele>
        <time>2019-08-05T13:28:45.453Z</time>
      </trkpt>
      <trkpt lat="44.57904" lon="1.91136">
        <ele>305</ele>
        <time>2019-08-05T13:28:50.428Z</time>
      </trkpt>
      <trkpt lat="44.57909" lon="1.9113">
        <ele>305</ele>
        <time>2019-08-05T13:28:55.447Z</time>
      </trkpt>
      <trkpt lat="44.57914" lon="1.91121">
        <ele>305</ele>
        <time>2019-08-05T13:29:00.435Z</time>
      </trkpt>
      <trkpt lat="44.57918" lon="1.91118">
        <ele>305</ele>
        <time>2019-08-05T13:29:04.433Z</time>
      </trkpt>
      <trkpt lat="44.57923" lon="1.91111">
        <ele>305</ele>
        <time>2019-08-05T13:29:09.440Z</time>
      </trkpt>
      <trkpt lat="44.57929" lon="1.91104">
        <ele>305</ele>
        <time>2019-08-05T13:29:14.428Z</time>
      </trkpt>
      <trkpt lat="44.57932" lon="1.91098">
        <ele>307</ele>
        <time>2019-08-05T13:29:19.435Z</time>
      </trkpt>
      <trkpt lat="44.57935" lon="1.91094">
        <ele>308</ele>
        <time>2019-08-05T13:29:24.443Z</time>
      </trkpt>
      <trkpt lat="44.57937" lon="1.91088">
        <ele>308</ele>
        <time>2019-08-05T13:29:29.435Z</time>
      </trkpt>
      <trkpt lat="44.57943" lon="1.91084">
        <ele>308</ele>
        <time>2019-08-05T13:29:34.440Z</time>
      </trkpt>
      <trkpt lat="44.57948" lon="1.91082">
        <ele>308</ele>
        <time>2019-08-05T13:29:39.439Z</time>
      </trkpt>
      <trkpt lat="44.57951" lon="1.91078">
        <ele>308</ele>
        <time>2019-08-05T13:29:43.438Z</time>
      </trkpt>
      <trkpt lat="44.57957" lon="1.91076">
        <ele>308</ele>
        <time>2019-08-05T13:29:48.432Z</time>
      </trkpt>
      <trkpt lat="44.57962" lon="1.91075">
        <ele>310</ele>
        <time>2019-08-05T13:29:53.423Z</time>
      </trkpt>
      <trkpt lat="44.57966" lon="1.91073">
        <ele>310</ele>
        <time>2019-08-05T13:29:57.434Z</time>
      </trkpt>
      <trkpt lat="44.57973" lon="1.91075">
        <ele>310</ele>
        <time>2019-08-05T13:30:02.430Z</time>
      </trkpt>
      <trkpt lat="44.57978" lon="1.91079">
        <ele>310</ele>
        <time>2019-08-05T13:30:07.437Z</time>
      </trkpt>
      <trkpt lat="44.57978" lon="1.91086">
        <ele>310</ele>
        <time>2019-08-05T13:30:12.434Z</time>
      </trkpt>
      <trkpt lat="44.57978" lon="1.91094">
        <ele>310</ele>
        <time>2019-08-05T13:30:17.439Z</time>
      </trkpt>
      <trkpt lat="44.57979" lon="1.91103">
        <ele>309</ele>
        <time>2019-08-05T13:30:22.423Z</time>
      </trkpt>
      <trkpt lat="44.5798" lon="1.91109">
        <ele>309</ele>
        <time>2019-08-05T13:30:26.433Z</time>
      </trkpt>
      <trkpt lat="44.57981" lon="1.91118">
        <ele>309</ele>
        <time>2019-08-05T13:30:31.419Z</time>
      </trkpt>
      <trkpt lat="44.5798" lon="1.91127">
        <ele>308</ele>
        <time>2019-08-05T13:30:36.436Z</time>
      </trkpt>
      <trkpt lat="44.57978" lon="1.91135">
        <ele>308</ele>
        <time>2019-08-05T13:30:41.424Z</time>
      </trkpt>
      <trkpt lat="44.57977" lon="1.91143">
        <ele>308</ele>
        <time>2019-08-05T13:30:45.433Z</time>
      </trkpt>
      <trkpt lat="44.57976" lon="1.9115">
        <ele>308</ele>
        <time>2019-08-05T13:30:49.434Z</time>
      </trkpt>
      <trkpt lat="44.57974" lon="1.9116">
        <ele>308</ele>
        <time>2019-08-05T13:30:54.443Z</time>
      </trkpt>
      <trkpt lat="44.57971" lon="1.91167">
        <ele>308</ele>
        <time>2019-08-05T13:30:58.435Z</time>
      </trkpt>
      <trkpt lat="44.57969" lon="1.91177">
        <ele>308</ele>
        <time>2019-08-05T13:31:03.434Z</time>
      </trkpt>
      <trkpt lat="44.57966" lon="1.91185">
        <ele>307</ele>
        <time>2019-08-05T13:31:08.420Z</time>
      </trkpt>
      <trkpt lat="44.57963" lon="1.91194">
        <ele>307</ele>
        <time>2019-08-05T13:31:13.432Z</time>
      </trkpt>
      <trkpt lat="44.57961" lon="1.91202">
        <ele>307</ele>
        <time>2019-08-05T13:31:18.438Z</time>
      </trkpt>
      <trkpt lat="44.5796" lon="1.91206">
        <ele>307</ele>
        <time>2019-08-05T13:31:22.426Z</time>
      </trkpt>
      <trkpt lat="44.57959" lon="1.91213">
        <ele>305</ele>
        <time>2019-08-05T13:31:27.430Z</time>
      </trkpt>
      <trkpt lat="44.57961" lon="1.91227">
        <ele>305</ele>
        <time>2019-08-05T13:32:26.430Z</time>
      </trkpt>
      <trkpt lat="44.57959" lon="1.9123">
        <ele>305</ele>
        <time>2019-08-05T13:32:31.445Z</time>
      </trkpt>
      <trkpt lat="44.57957" lon="1.91236">
        <ele>305</ele>
        <time>2019-08-05T13:32:36.430Z</time>
      </trkpt>
      <trkpt lat="44.57955" lon="1.9124">
        <ele>305</ele>
        <time>2019-08-05T13:32:41.459Z</time>
      </trkpt>
      <trkpt lat="44.57953" lon="1.91245">
        <ele>305</ele>
        <time>2019-08-05T13:32:46.433Z</time>
      </trkpt>
      <trkpt lat="44.57951" lon="1.91253">
        <ele>305</ele>
        <time>2019-08-05T13:32:51.433Z</time>
      </trkpt>
      <trkpt lat="44.57948" lon="1.91259">
        <ele>305</ele>
        <time>2019-08-05T13:32:56.440Z</time>
      </trkpt>
      <trkpt lat="44.57946" lon="1.91266">
        <ele>304</ele>
        <time>2019-08-05T13:33:01.434Z</time>
      </trkpt>
      <trkpt lat="44.57944" lon="1.9127">
        <ele>304</ele>
        <time>2019-08-05T13:33:05.442Z</time>
      </trkpt>
      <trkpt lat="44.57942" lon="1.91274">
        <ele>304</ele>
        <time>2019-08-05T13:33:09.446Z</time>
      </trkpt>
      <trkpt lat="44.5794" lon="1.91281">
        <ele>304</ele>
        <time>2019-08-05T13:33:14.433Z</time>
      </trkpt>
      <trkpt lat="44.57937" lon="1.91289">
        <ele>304</ele>
        <time>2019-08-05T13:33:19.432Z</time>
      </trkpt>
      <trkpt lat="44.57936" lon="1.91294">
        <ele>304</ele>
        <time>2019-08-05T13:33:24.426Z</time>
      </trkpt>
      <trkpt lat="44.57936" lon="1.91296">
        <ele>304</ele>
        <time>2019-08-05T13:33:28.438Z</time>
      </trkpt>
      <trkpt lat="44.57935" lon="1.913">
        <ele>304</ele>
        <time>2019-08-05T13:33:33.439Z</time>
      </trkpt>
      <trkpt lat="44.57934" lon="1.91308">
        <ele>304</ele>
        <time>2019-08-05T13:33:38.451Z</time>
      </trkpt>
      <trkpt lat="44.57933" lon="1.91314">
        <ele>304</ele>
        <time>2019-08-05T13:33:42.429Z</time>
      </trkpt>
      <trkpt lat="44.57931" lon="1.91322">
        <ele>302</ele>
        <time>2019-08-05T13:33:47.435Z</time>
      </trkpt>
      <trkpt lat="44.57927" lon="1.91326">
        <ele>301</ele>
        <time>2019-08-05T13:33:52.427Z</time>
      </trkpt>
      <trkpt lat="44.57925" lon="1.91332">
        <ele>301</ele>
        <time>2019-08-05T13:33:56.451Z</time>
      </trkpt>
      <trkpt lat="44.57923" lon="1.91338">
        <ele>301</ele>
        <time>2019-08-05T13:34:01.441Z</time>
      </trkpt>
      <trkpt lat="44.57922" lon="1.91347">
        <ele>301</ele>
        <time>2019-08-05T13:34:06.430Z</time>
      </trkpt>
      <trkpt lat="44.57921" lon="1.91355">
        <ele>300</ele>
        <time>2019-08-05T13:34:10.441Z</time>
      </trkpt>
      <trkpt lat="44.5792" lon="1.91369">
        <ele>300</ele>
        <time>2019-08-05T13:34:15.435Z</time>
      </trkpt>
      <trkpt lat="44.57919" lon="1.9138">
        <ele>299</ele>
        <time>2019-08-05T13:34:20.433Z</time>
      </trkpt>
      <trkpt lat="44.57918" lon="1.91386">
        <ele>299</ele>
        <time>2019-08-05T13:34:25.434Z</time>
      </trkpt>
      <trkpt lat="44.57918" lon="1.91393">
        <ele>299</ele>
        <time>2019-08-05T13:34:30.434Z</time>
      </trkpt>
      <trkpt lat="44.57916" lon="1.91402">
        <ele>299</ele>
        <time>2019-08-05T13:34:35.444Z</time>
      </trkpt>
      <trkpt lat="44.57914" lon="1.91409">
        <ele>297</ele>
        <time>2019-08-05T13:34:40.435Z</time>
      </trkpt>
      <trkpt lat="44.57911" lon="1.91417">
        <ele>297</ele>
        <time>2019-08-05T13:34:45.440Z</time>
      </trkpt>
      <trkpt lat="44.57908" lon="1.91427">
        <ele>297</ele>
        <time>2019-08-05T13:34:50.444Z</time>
      </trkpt>
      <trkpt lat="44.57907" lon="1.91438">
        <ele>294</ele>
        <time>2019-08-05T13:34:55.441Z</time>
      </trkpt>
      <trkpt lat="44.57906" lon="1.91448">
        <ele>294</ele>
        <time>2019-08-05T13:35:00.439Z</time>
      </trkpt>
      <trkpt lat="44.57906" lon="1.91453">
        <ele>294</ele>
        <time>2019-08-05T13:35:04.437Z</time>
      </trkpt>
      <trkpt lat="44.57905" lon="1.91455">
        <ele>294</ele>
        <time>2019-08-05T13:35:09.441Z</time>
      </trkpt>
      <trkpt lat="44.57906" lon="1.91463">
        <ele>291</ele>
        <time>2019-08-05T13:35:14.441Z</time>
      </trkpt>
      <trkpt lat="44.57907" lon="1.91472">
        <ele>291</ele>
        <time>2019-08-05T13:35:19.446Z</time>
      </trkpt>
      <trkpt lat="44.57907" lon="1.91483">
        <ele>291</ele>
        <time>2019-08-05T13:35:24.430Z</time>
      </trkpt>
      <trkpt lat="44.57905" lon="1.91493">
        <ele>290</ele>
        <time>2019-08-05T13:35:29.438Z</time>
      </trkpt>
      <trkpt lat="44.57906" lon="1.91501">
        <ele>290</ele>
        <time>2019-08-05T13:35:33.450Z</time>
      </trkpt>
      <trkpt lat="44.57905" lon="1.9151">
        <ele>290</ele>
        <time>2019-08-05T13:35:38.452Z</time>
      </trkpt>
      <trkpt lat="44.57903" lon="1.91516">
        <ele>290</ele>
        <time>2019-08-05T13:35:43.440Z</time>
      </trkpt>
      <trkpt lat="44.57901" lon="1.9152">
        <ele>291</ele>
        <time>2019-08-05T13:35:48.436Z</time>
      </trkpt>
      <trkpt lat="44.57899" lon="1.91523">
        <ele>291</ele>
        <time>2019-08-05T13:35:52.445Z</time>
      </trkpt>
      <trkpt lat="44.57896" lon="1.91535">
        <ele>291</ele>
        <time>2019-08-05T13:35:57.445Z</time>
      </trkpt>
      <trkpt lat="44.57895" lon="1.91547">
        <ele>290</ele>
        <time>2019-08-05T13:36:01.438Z</time>
      </trkpt>
      <trkpt lat="44.57892" lon="1.91556">
        <ele>290</ele>
        <time>2019-08-05T13:36:06.439Z</time>
      </trkpt>
      <trkpt lat="44.5789" lon="1.91566">
        <ele>290</ele>
        <time>2019-08-05T13:36:11.449Z</time>
      </trkpt>
      <trkpt lat="44.57888" lon="1.91576">
        <ele>288</ele>
        <time>2019-08-05T13:36:16.432Z</time>
      </trkpt>
      <trkpt lat="44.57885" lon="1.91582">
        <ele>288</ele>
        <time>2019-08-05T13:36:20.435Z</time>
      </trkpt>
      <trkpt lat="44.57884" lon="1.91589">
        <ele>288</ele>
        <time>2019-08-05T13:36:24.444Z</time>
      </trkpt>
      <trkpt lat="44.57885" lon="1.91599">
        <ele>285</ele>
        <time>2019-08-05T13:36:29.446Z</time>
      </trkpt>
      <trkpt lat="44.57884" lon="1.91608">
        <ele>285</ele>
        <time>2019-08-05T13:36:34.436Z</time>
      </trkpt>
      <trkpt lat="44.57885" lon="1.91616">
        <ele>285</ele>
        <time>2019-08-05T13:36:39.450Z</time>
      </trkpt>
      <trkpt lat="44.57885" lon="1.91624">
        <ele>285</ele>
        <time>2019-08-05T13:36:44.445Z</time>
      </trkpt>
      <trkpt lat="44.57884" lon="1.91634">
        <ele>284</ele>
        <time>2019-08-05T13:36:49.429Z</time>
      </trkpt>
      <trkpt lat="44.57884" lon="1.91642">
        <ele>284</ele>
        <time>2019-08-05T13:36:53.433Z</time>
      </trkpt>
      <trkpt lat="44.57883" lon="1.91652">
        <ele>284</ele>
        <time>2019-08-05T13:36:57.429Z</time>
      </trkpt>
      <trkpt lat="44.57883" lon="1.91657">
        <ele>285</ele>
        <time>2019-08-05T13:37:02.423Z</time>
      </trkpt>
      <trkpt lat="44.57882" lon="1.91665">
        <ele>285</ele>
        <time>2019-08-05T13:37:07.456Z</time>
      </trkpt>
      <trkpt lat="44.57881" lon="1.91674">
        <ele>285</ele>
        <time>2019-08-05T13:37:11.438Z</time>
      </trkpt>
      <trkpt lat="44.57879" lon="1.91679">
        <ele>285</ele>
        <time>2019-08-05T13:37:15.433Z</time>
      </trkpt>
      <trkpt lat="44.57877" lon="1.91687">
        <ele>285</ele>
        <time>2019-08-05T13:37:20.437Z</time>
      </trkpt>
      <trkpt lat="44.57871" lon="1.91698">
        <ele>287</ele>
        <time>2019-08-05T13:37:25.438Z</time>
      </trkpt>
      <trkpt lat="44.57865" lon="1.91714">
        <ele>284</ele>
        <time>2019-08-05T13:37:30.438Z</time>
      </trkpt>
      <trkpt lat="44.57857" lon="1.91741">
        <ele>281</ele>
        <time>2019-08-05T13:37:35.446Z</time>
      </trkpt>
      <trkpt lat="44.57853" lon="1.91757">
        <ele>281</ele>
        <time>2019-08-05T13:37:40.432Z</time>
      </trkpt>
      <trkpt lat="44.57852" lon="1.91766">
        <ele>279</ele>
        <time>2019-08-05T13:37:44.451Z</time>
      </trkpt>
      <trkpt lat="44.5785" lon="1.91776">
        <ele>279</ele>
        <time>2019-08-05T13:37:49.432Z</time>
      </trkpt>
      <trkpt lat="44.57848" lon="1.91786">
        <ele>279</ele>
        <time>2019-08-05T13:37:53.446Z</time>
      </trkpt>
      <trkpt lat="44.57845" lon="1.91798">
        <ele>280</ele>
        <time>2019-08-05T13:37:58.442Z</time>
      </trkpt>
      <trkpt lat="44.57843" lon="1.91808">
        <ele>280</ele>
        <time>2019-08-05T13:38:03.429Z</time>
      </trkpt>
      <trkpt lat="44.57841" lon="1.91822">
        <ele>281</ele>
        <time>2019-08-05T13:38:08.440Z</time>
      </trkpt>
      <trkpt lat="44.57841" lon="1.91829">
        <ele>281</ele>
        <time>2019-08-05T13:38:12.438Z</time>
      </trkpt>
      <trkpt lat="44.57842" lon="1.9184">
        <ele>281</ele>
        <time>2019-08-05T13:38:17.438Z</time>
      </trkpt>
      <trkpt lat="44.57844" lon="1.9185">
        <ele>282</ele>
        <time>2019-08-05T13:38:22.431Z</time>
      </trkpt>
      <trkpt lat="44.57846" lon="1.91857">
        <ele>282</ele>
        <time>2019-08-05T13:38:27.442Z</time>
      </trkpt>
      <trkpt lat="44.57848" lon="1.91866">
        <ele>280</ele>
        <time>2019-08-05T13:38:32.445Z</time>
      </trkpt>
      <trkpt lat="44.57849" lon="1.91875">
        <ele>283</ele>
        <time>2019-08-05T13:38:37.430Z</time>
      </trkpt>
      <trkpt lat="44.57851" lon="1.91887">
        <ele>283</ele>
        <time>2019-08-05T13:38:42.444Z</time>
      </trkpt>
      <trkpt lat="44.57853" lon="1.91897">
        <ele>283</ele>
        <time>2019-08-05T13:38:47.436Z</time>
      </trkpt>
      <trkpt lat="44.57852" lon="1.91907">
        <ele>286</ele>
        <time>2019-08-05T13:38:52.442Z</time>
      </trkpt>
      <trkpt lat="44.57852" lon="1.91916">
        <ele>286</ele>
        <time>2019-08-05T13:38:56.426Z</time>
      </trkpt>
      <trkpt lat="44.5785" lon="1.91925">
        <ele>286</ele>
        <time>2019-08-05T13:39:00.438Z</time>
      </trkpt>
      <trkpt lat="44.57849" lon="1.91933">
        <ele>287</ele>
        <time>2019-08-05T13:39:04.433Z</time>
      </trkpt>
      <trkpt lat="44.57849" lon="1.91942">
        <ele>287</ele>
        <time>2019-08-05T13:39:09.430Z</time>
      </trkpt>
      <trkpt lat="44.57849" lon="1.91947">
        <ele>287</ele>
        <time>2019-08-05T13:39:14.438Z</time>
      </trkpt>
      <trkpt lat="44.57849" lon="1.9195">
        <ele>287</ele>
        <time>2019-08-05T13:39:18.443Z</time>
      </trkpt>
      <trkpt lat="44.57848" lon="1.91956">
        <ele>287</ele>
        <time>2019-08-05T13:39:23.428Z</time>
      </trkpt>
      <trkpt lat="44.57848" lon="1.91961">
        <ele>289</ele>
        <time>2019-08-05T13:39:28.415Z</time>
      </trkpt>
      <trkpt lat="44.57847" lon="1.9197">
        <ele>291</ele>
        <time>2019-08-05T13:39:33.422Z</time>
      </trkpt>
      <trkpt lat="44.57845" lon="1.91979">
        <ele>291</ele>
        <time>2019-08-05T13:39:37.430Z</time>
      </trkpt>
      <trkpt lat="44.57843" lon="1.91988">
        <ele>293</ele>
        <time>2019-08-05T13:39:42.449Z</time>
      </trkpt>
      <trkpt lat="44.57839" lon="1.91995">
        <ele>293</ele>
        <time>2019-08-05T13:39:47.427Z</time>
      </trkpt>
      <trkpt lat="44.57837" lon="1.92001">
        <ele>293</ele>
        <time>2019-08-05T13:39:51.425Z</time>
      </trkpt>
      <trkpt lat="44.57834" lon="1.92006">
        <ele>293</ele>
        <time>2019-08-05T13:39:56.433Z</time>
      </trkpt>
      <trkpt lat="44.57832" lon="1.92014">
        <ele>296</ele>
        <time>2019-08-05T13:40:01.432Z</time>
      </trkpt>
      <trkpt lat="44.57829" lon="1.92025">
        <ele>296</ele>
        <time>2019-08-05T13:40:06.427Z</time>
      </trkpt>
      <trkpt lat="44.57827" lon="1.92035">
        <ele>296</ele>
        <time>2019-08-05T13:40:10.441Z</time>
      </trkpt>
      <trkpt lat="44.57824" lon="1.92044">
        <ele>299</ele>
        <time>2019-08-05T13:40:15.444Z</time>
      </trkpt>
      <trkpt lat="44.5782" lon="1.92052">
        <ele>299</ele>
        <time>2019-08-05T13:40:20.434Z</time>
      </trkpt>
      <trkpt lat="44.57817" lon="1.92057">
        <ele>298</ele>
        <time>2019-08-05T13:40:24.433Z</time>
      </trkpt>
      <trkpt lat="44.57814" lon="1.92066">
        <ele>298</ele>
        <time>2019-08-05T13:40:29.436Z</time>
      </trkpt>
      <trkpt lat="44.57811" lon="1.92076">
        <ele>299</ele>
        <time>2019-08-05T13:40:34.442Z</time>
      </trkpt>
      <trkpt lat="44.57808" lon="1.92084">
        <ele>299</ele>
        <time>2019-08-05T13:40:39.481Z</time>
      </trkpt>
      <trkpt lat="44.57806" lon="1.92092">
        <ele>299</ele>
        <time>2019-08-05T13:40:44.462Z</time>
      </trkpt>
      <trkpt lat="44.57804" lon="1.921">
        <ele>301</ele>
        <time>2019-08-05T13:40:49.441Z</time>
      </trkpt>
      <trkpt lat="44.57799" lon="1.92108">
        <ele>301</ele>
        <time>2019-08-05T13:40:54.455Z</time>
      </trkpt>
      <trkpt lat="44.57797" lon="1.92116">
        <ele>301</ele>
        <time>2019-08-05T13:40:59.441Z</time>
      </trkpt>
      <trkpt lat="44.57795" lon="1.92122">
        <ele>301</ele>
        <time>2019-08-05T13:41:03.442Z</time>
      </trkpt>
      <trkpt lat="44.57795" lon="1.92129">
        <ele>304</ele>
        <time>2019-08-05T13:41:07.467Z</time>
      </trkpt>
      <trkpt lat="44.57793" lon="1.92136">
        <ele>304</ele>
        <time>2019-08-05T13:41:12.452Z</time>
      </trkpt>
      <trkpt lat="44.57791" lon="1.92143">
        <ele>302</ele>
        <time>2019-08-05T13:41:16.457Z</time>
      </trkpt>
      <trkpt lat="44.57788" lon="1.9215">
        <ele>302</ele>
        <time>2019-08-05T13:41:20.455Z</time>
      </trkpt>
      <trkpt lat="44.57784" lon="1.92157">
        <ele>305</ele>
        <time>2019-08-05T13:41:25.441Z</time>
      </trkpt>
      <trkpt lat="44.57782" lon="1.92165">
        <ele>305</ele>
        <time>2019-08-05T13:41:30.430Z</time>
      </trkpt>
      <trkpt lat="44.57782" lon="1.92171">
        <ele>305</ele>
        <time>2019-08-05T13:41:34.455Z</time>
      </trkpt>
      <trkpt lat="44.57779" lon="1.92178">
        <ele>305</ele>
        <time>2019-08-05T13:41:39.429Z</time>
      </trkpt>
      <trkpt lat="44.57775" lon="1.92187">
        <ele>307</ele>
        <time>2019-08-05T13:41:44.445Z</time>
      </trkpt>
      <trkpt lat="44.57773" lon="1.92196">
        <ele>307</ele>
        <time>2019-08-05T13:41:49.436Z</time>
      </trkpt>
      <trkpt lat="44.57771" lon="1.92205">
        <ele>307</ele>
        <time>2019-08-05T13:41:54.439Z</time>
      </trkpt>
      <trkpt lat="44.5777" lon="1.92211">
        <ele>308</ele>
        <time>2019-08-05T13:41:59.446Z</time>
      </trkpt>
      <trkpt lat="44.57768" lon="1.92216">
        <ele>308</ele>
        <time>2019-08-05T13:42:03.445Z</time>
      </trkpt>
      <trkpt lat="44.57765" lon="1.92223">
        <ele>308</ele>
        <time>2019-08-05T13:42:08.437Z</time>
      </trkpt>
      <trkpt lat="44.57762" lon="1.92228">
        <ele>307</ele>
        <time>2019-08-05T13:42:13.435Z</time>
      </trkpt>
      <trkpt lat="44.57762" lon="1.92234">
        <ele>307</ele>
        <time>2019-08-05T13:42:17.443Z</time>
      </trkpt>
      <trkpt lat="44.57762" lon="1.9224">
        <ele>309</ele>
        <time>2019-08-05T13:42:22.433Z</time>
      </trkpt>
      <trkpt lat="44.57763" lon="1.92246">
        <ele>309</ele>
        <time>2019-08-05T13:42:26.439Z</time>
      </trkpt>
      <trkpt lat="44.57763" lon="1.92252">
        <ele>309</ele>
        <time>2019-08-05T13:42:30.443Z</time>
      </trkpt>
      <trkpt lat="44.57763" lon="1.92258">
        <ele>309</ele>
        <time>2019-08-05T13:42:34.435Z</time>
      </trkpt>
      <trkpt lat="44.57762" lon="1.92268">
        <ele>311</ele>
        <time>2019-08-05T13:42:39.440Z</time>
      </trkpt>
      <trkpt lat="44.57763" lon="1.92273">
        <ele>311</ele>
        <time>2019-08-05T13:42:43.439Z</time>
      </trkpt>
      <trkpt lat="44.57763" lon="1.9228">
        <ele>311</ele>
        <time>2019-08-05T13:42:48.433Z</time>
      </trkpt>
      <trkpt lat="44.57763" lon="1.92289">
        <ele>311</ele>
        <time>2019-08-05T13:42:53.444Z</time>
      </trkpt>
      <trkpt lat="44.57763" lon="1.92297">
        <ele>313</ele>
        <time>2019-08-05T13:42:58.430Z</time>
      </trkpt>
      <trkpt lat="44.57765" lon="1.92307">
        <ele>312</ele>
        <time>2019-08-05T13:43:03.434Z</time>
      </trkpt>
      <trkpt lat="44.57766" lon="1.92316">
        <ele>312</ele>
        <time>2019-08-05T13:43:08.443Z</time>
      </trkpt>
      <trkpt lat="44.57768" lon="1.92324">
        <ele>315</ele>
        <time>2019-08-05T13:43:13.445Z</time>
      </trkpt>
      <trkpt lat="44.57768" lon="1.92332">
        <ele>315</ele>
        <time>2019-08-05T13:43:18.440Z</time>
      </trkpt>
      <trkpt lat="44.57767" lon="1.92336">
        <ele>315</ele>
        <time>2019-08-05T13:43:23.435Z</time>
      </trkpt>
      <trkpt lat="44.57763" lon="1.92345">
        <ele>317</ele>
        <time>2019-08-05T13:43:28.445Z</time>
      </trkpt>
      <trkpt lat="44.57764" lon="1.92352">
        <ele>318</ele>
        <time>2019-08-05T13:43:33.439Z</time>
      </trkpt>
      <trkpt lat="44.57766" lon="1.92356">
        <ele>318</ele>
        <time>2019-08-05T13:43:37.431Z</time>
      </trkpt>
      <trkpt lat="44.57767" lon="1.92363">
        <ele>318</ele>
        <time>2019-08-05T13:43:42.431Z</time>
      </trkpt>
      <trkpt lat="44.5777" lon="1.92372">
        <ele>318</ele>
        <time>2019-08-05T13:43:47.434Z</time>
      </trkpt>
      <trkpt lat="44.57775" lon="1.9238">
        <ele>319</ele>
        <time>2019-08-05T13:43:52.438Z</time>
      </trkpt>
      <trkpt lat="44.57781" lon="1.92387">
        <ele>319</ele>
        <time>2019-08-05T13:43:57.440Z</time>
      </trkpt>
      <trkpt lat="44.57784" lon="1.92393">
        <ele>319</ele>
        <time>2019-08-05T13:44:02.427Z</time>
      </trkpt>
      <trkpt lat="44.57788" lon="1.92397">
        <ele>319</ele>
        <time>2019-08-05T13:44:06.441Z</time>
      </trkpt>
      <trkpt lat="44.57792" lon="1.92403">
        <ele>321</ele>
        <time>2019-08-05T13:44:11.462Z</time>
      </trkpt>
      <trkpt lat="44.57791" lon="1.92408">
        <ele>321</ele>
        <time>2019-08-05T13:44:16.418Z</time>
      </trkpt>
      <trkpt lat="44.5779" lon="1.92416">
        <ele>321</ele>
        <time>2019-08-05T13:44:20.450Z</time>
      </trkpt>
      <trkpt lat="44.57793" lon="1.92424">
        <ele>324</ele>
        <time>2019-08-05T13:44:25.457Z</time>
      </trkpt>
      <trkpt lat="44.57797" lon="1.92429">
        <ele>324</ele>
        <time>2019-08-05T13:44:30.444Z</time>
      </trkpt>
      <trkpt lat="44.578" lon="1.92435">
        <ele>325</ele>
        <time>2019-08-05T13:44:34.433Z</time>
      </trkpt>
      <trkpt lat="44.57801" lon="1.92441">
        <ele>325</ele>
        <time>2019-08-05T13:44:38.436Z</time>
      </trkpt>
      <trkpt lat="44.57804" lon="1.92449">
        <ele>325</ele>
        <time>2019-08-05T13:44:43.436Z</time>
      </trkpt>
      <trkpt lat="44.57808" lon="1.92456">
        <ele>325</ele>
        <time>2019-08-05T13:44:48.438Z</time>
      </trkpt>
      <trkpt lat="44.57814" lon="1.92462">
        <ele>327</ele>
        <time>2019-08-05T13:44:53.435Z</time>
      </trkpt>
      <trkpt lat="44.57815" lon="1.92466">
        <ele>327</ele>
        <time>2019-08-05T13:44:57.433Z</time>
      </trkpt>
      <trkpt lat="44.5782" lon="1.92477">
        <ele>329</ele>
        <time>2019-08-05T13:45:02.447Z</time>
      </trkpt>
      <trkpt lat="44.57823" lon="1.92485">
        <ele>329</ele>
        <time>2019-08-05T13:45:07.437Z</time>
      </trkpt>
      <trkpt lat="44.57825" lon="1.92493">
        <ele>330</ele>
        <time>2019-08-05T13:45:12.462Z</time>
      </trkpt>
      <trkpt lat="44.5783" lon="1.92501">
        <ele>330</ele>
        <time>2019-08-05T13:45:17.431Z</time>
      </trkpt>
      <trkpt lat="44.57831" lon="1.9251">
        <ele>330</ele>
        <time>2019-08-05T13:45:21.434Z</time>
      </trkpt>
      <trkpt lat="44.57833" lon="1.92519">
        <ele>332</ele>
        <time>2019-08-05T13:45:26.434Z</time>
      </trkpt>
      <trkpt lat="44.57833" lon="1.92524">
        <ele>332</ele>
        <time>2019-08-05T13:45:30.436Z</time>
      </trkpt>
      <trkpt lat="44.57836" lon="1.92531">
        <ele>332</ele>
        <time>2019-08-05T13:45:34.428Z</time>
      </trkpt>
      <trkpt lat="44.57841" lon="1.92537">
        <ele>332</ele>
        <time>2019-08-05T13:45:39.440Z</time>
      </trkpt>
      <trkpt lat="44.57844" lon="1.92544">
        <ele>334</ele>
        <time>2019-08-05T13:45:44.438Z</time>
      </trkpt>
      <trkpt lat="44.57845" lon="1.92552">
        <ele>334</ele>
        <time>2019-08-05T13:45:49.433Z</time>
      </trkpt>
      <trkpt lat="44.57846" lon="1.92561">
        <ele>334</ele>
        <time>2019-08-05T13:45:54.437Z</time>
      </trkpt>
      <trkpt lat="44.57847" lon="1.92569">
        <ele>334</ele>
        <time>2019-08-05T13:45:59.431Z</time>
      </trkpt>
      <trkpt lat="44.57847" lon="1.92577">
        <ele>334</ele>
        <time>2019-08-05T13:46:04.428Z</time>
      </trkpt>
      <trkpt lat="44.57847" lon="1.92581">
        <ele>334</ele>
        <time>2019-08-05T13:46:08.442Z</time>
      </trkpt>
      <trkpt lat="44.57848" lon="1.92589">
        <ele>336</ele>
        <time>2019-08-05T13:46:13.436Z</time>
      </trkpt>
      <trkpt lat="44.57847" lon="1.92597">
        <ele>336</ele>
        <time>2019-08-05T13:46:18.446Z</time>
      </trkpt>
      <trkpt lat="44.57848" lon="1.92606">
        <ele>336</ele>
        <time>2019-08-05T13:46:23.430Z</time>
      </trkpt>
      <trkpt lat="44.57848" lon="1.92614">
        <ele>336</ele>
        <time>2019-08-05T13:46:28.449Z</time>
      </trkpt>
      <trkpt lat="44.57848" lon="1.92621">
        <ele>336</ele>
        <time>2019-08-05T13:46:32.431Z</time>
      </trkpt>
      <trkpt lat="44.57846" lon="1.92627">
        <ele>338</ele>
        <time>2019-08-05T13:46:36.432Z</time>
      </trkpt>
      <trkpt lat="44.57847" lon="1.92634">
        <ele>338</ele>
        <time>2019-08-05T13:46:41.421Z</time>
      </trkpt>
      <trkpt lat="44.5785" lon="1.92644">
        <ele>337</ele>
        <time>2019-08-05T13:46:46.427Z</time>
      </trkpt>
      <trkpt lat="44.57854" lon="1.92654">
        <ele>338</ele>
        <time>2019-08-05T13:46:51.426Z</time>
      </trkpt>
      <trkpt lat="44.57857" lon="1.92663">
        <ele>338</ele>
        <time>2019-08-05T13:46:55.444Z</time>
      </trkpt>
      <trkpt lat="44.5786" lon="1.9267">
        <ele>338</ele>
        <time>2019-08-05T13:47:00.446Z</time>
      </trkpt>
      <trkpt lat="44.57862" lon="1.92678">
        <ele>338</ele>
        <time>2019-08-05T13:47:05.418Z</time>
      </trkpt>
      <trkpt lat="44.57863" lon="1.92684">
        <ele>337</ele>
        <time>2019-08-05T13:47:10.459Z</time>
      </trkpt>
      <trkpt lat="44.57865" lon="1.9269">
        <ele>337</ele>
        <time>2019-08-05T13:47:15.433Z</time>
      </trkpt>
      <trkpt lat="44.57869" lon="1.92697">
        <ele>337</ele>
        <time>2019-08-05T13:47:20.433Z</time>
      </trkpt>
      <trkpt lat="44.57871" lon="1.92703">
        <ele>337</ele>
        <time>2019-08-05T13:47:24.438Z</time>
      </trkpt>
      <trkpt lat="44.57872" lon="1.92709">
        <ele>336</ele>
        <time>2019-08-05T13:47:28.433Z</time>
      </trkpt>
      <trkpt lat="44.57873" lon="1.92715">
        <ele>336</ele>
        <time>2019-08-05T13:47:33.420Z</time>
      </trkpt>
      <trkpt lat="44.57875" lon="1.92722">
        <ele>336</ele>
        <time>2019-08-05T13:47:37.431Z</time>
      </trkpt>
      <trkpt lat="44.57876" lon="1.92731">
        <ele>336</ele>
        <time>2019-08-05T13:47:42.431Z</time>
      </trkpt>
      <trkpt lat="44.57876" lon="1.92737">
        <ele>334</ele>
        <time>2019-08-05T13:47:46.438Z</time>
      </trkpt>
      <trkpt lat="44.57875" lon="1.92746">
        <ele>334</ele>
        <time>2019-08-05T13:47:51.417Z</time>
      </trkpt>
      <trkpt lat="44.57874" lon="1.92754">
        <ele>335</ele>
        <time>2019-08-05T13:47:55.421Z</time>
      </trkpt>
      <trkpt lat="44.57874" lon="1.92761">
        <ele>335</ele>
        <time>2019-08-05T13:47:59.438Z</time>
      </trkpt>
      <trkpt lat="44.57874" lon="1.92769">
        <ele>335</ele>
        <time>2019-08-05T13:48:04.434Z</time>
      </trkpt>
      <trkpt lat="44.57874" lon="1.92776">
        <ele>335</ele>
        <time>2019-08-05T13:48:08.426Z</time>
      </trkpt>
      <trkpt lat="44.57876" lon="1.92784">
        <ele>333</ele>
        <time>2019-08-05T13:48:13.435Z</time>
      </trkpt>
      <trkpt lat="44.57876" lon="1.92787">
        <ele>333</ele>
        <time>2019-08-05T13:48:18.435Z</time>
      </trkpt>
      <trkpt lat="44.57876" lon="1.92792">
        <ele>332</ele>
        <time>2019-08-05T13:48:23.430Z</time>
      </trkpt>
      <trkpt lat="44.57877" lon="1.92801">
        <ele>332</ele>
        <time>2019-08-05T13:48:27.420Z</time>
      </trkpt>
      <trkpt lat="44.57876" lon="1.92814">
        <ele>332</ele>
        <time>2019-08-05T13:48:32.434Z</time>
      </trkpt>
      <trkpt lat="44.57876" lon="1.92824">
        <ele>331</ele>
        <time>2019-08-05T13:48:37.434Z</time>
      </trkpt>
      <trkpt lat="44.57877" lon="1.92831">
        <ele>331</ele>
        <time>2019-08-05T13:48:42.425Z</time>
      </trkpt>
      <trkpt lat="44.57877" lon="1.92838">
        <ele>331</ele>
        <time>2019-08-05T13:48:46.431Z</time>
      </trkpt>
      <trkpt lat="44.57877" lon="1.92847">
        <ele>331</ele>
        <time>2019-08-05T13:48:51.414Z</time>
      </trkpt>
      <trkpt lat="44.57877" lon="1.92854">
        <ele>331</ele>
        <time>2019-08-05T13:48:55.437Z</time>
      </trkpt>
      <trkpt lat="44.57878" lon="1.92865">
        <ele>331</ele>
        <time>2019-08-05T13:49:00.456Z</time>
      </trkpt>
      <trkpt lat="44.57879" lon="1.92873">
        <ele>331</ele>
        <time>2019-08-05T13:49:04.435Z</time>
      </trkpt>
      <trkpt lat="44.5788" lon="1.92882">
        <ele>332</ele>
        <time>2019-08-05T13:49:09.416Z</time>
      </trkpt>
      <trkpt lat="44.57881" lon="1.92889">
        <ele>332</ele>
        <time>2019-08-05T13:49:13.420Z</time>
      </trkpt>
      <trkpt lat="44.57882" lon="1.92897">
        <ele>332</ele>
        <time>2019-08-05T13:49:18.438Z</time>
      </trkpt>
      <trkpt lat="44.57884" lon="1.92906">
        <ele>333</ele>
        <time>2019-08-05T13:49:23.438Z</time>
      </trkpt>
      <trkpt lat="44.57885" lon="1.92915">
        <ele>333</ele>
        <time>2019-08-05T13:49:28.427Z</time>
      </trkpt>
      <trkpt lat="44.57886" lon="1.92922">
        <ele>333</ele>
        <time>2019-08-05T13:49:32.460Z</time>
      </trkpt>
      <trkpt lat="44.57886" lon="1.9293">
        <ele>333</ele>
        <time>2019-08-05T13:49:36.435Z</time>
      </trkpt>
      <trkpt lat="44.57887" lon="1.92934">
        <ele>332</ele>
        <time>2019-08-05T13:49:41.426Z</time>
      </trkpt>
      <trkpt lat="44.57887" lon="1.92939">
        <ele>332</ele>
        <time>2019-08-05T13:49:46.430Z</time>
      </trkpt>
      <trkpt lat="44.57889" lon="1.92948">
        <ele>332</ele>
        <time>2019-08-05T13:49:51.441Z</time>
      </trkpt>
      <trkpt lat="44.57889" lon="1.92958">
        <ele>331</ele>
        <time>2019-08-05T13:49:56.426Z</time>
      </trkpt>
      <trkpt lat="44.57889" lon="1.92968">
        <ele>331</ele>
        <time>2019-08-05T13:50:01.407Z</time>
      </trkpt>
      <trkpt lat="44.5789" lon="1.92976">
        <ele>331</ele>
        <time>2019-08-05T13:50:05.415Z</time>
      </trkpt>
      <trkpt lat="44.57892" lon="1.92986">
        <ele>331</ele>
        <time>2019-08-05T13:50:10.436Z</time>
      </trkpt>
      <trkpt lat="44.57894" lon="1.92994">
        <ele>331</ele>
        <time>2019-08-05T13:50:15.412Z</time>
      </trkpt>
      <trkpt lat="44.57894" lon="1.93003">
        <ele>331</ele>
        <time>2019-08-05T13:50:20.424Z</time>
      </trkpt>
      <trkpt lat="44.57895" lon="1.93013">
        <ele>331</ele>
        <time>2019-08-05T13:50:25.409Z</time>
      </trkpt>
      <trkpt lat="44.57895" lon="1.93019">
        <ele>332</ele>
        <time>2019-08-05T13:50:29.411Z</time>
      </trkpt>
      <trkpt lat="44.57897" lon="1.93028">
        <ele>332</ele>
        <time>2019-08-05T13:50:34.427Z</time>
      </trkpt>
      <trkpt lat="44.57898" lon="1.93038">
        <ele>332</ele>
        <time>2019-08-05T13:50:39.405Z</time>
      </trkpt>
      <trkpt lat="44.57902" lon="1.93048">
        <ele>333</ele>
        <time>2019-08-05T13:50:44.419Z</time>
      </trkpt>
      <trkpt lat="44.57903" lon="1.93055">
        <ele>327</ele>
        <time>2019-08-05T13:50:49.426Z</time>
      </trkpt>
      <trkpt lat="44.57904" lon="1.93057">
        <ele>327</ele>
        <time>2019-08-05T13:50:54.434Z</time>
      </trkpt>
      <trkpt lat="44.57908" lon="1.93063">
        <ele>327</ele>
        <time>2019-08-05T13:50:58.419Z</time>
      </trkpt>
      <trkpt lat="44.57911" lon="1.93071">
        <ele>329</ele>
        <time>2019-08-05T13:51:02.421Z</time>
      </trkpt>
      <trkpt lat="44.57912" lon="1.9308">
        <ele>329</ele>
        <time>2019-08-05T13:51:07.399Z</time>
      </trkpt>
      <trkpt lat="44.57912" lon="1.93087">
        <ele>329</ele>
        <time>2019-08-05T13:51:11.408Z</time>
      </trkpt>
      <trkpt lat="44.57914" lon="1.93094">
        <ele>329</ele>
        <time>2019-08-05T13:51:15.445Z</time>
      </trkpt>
      <trkpt lat="44.57915" lon="1.93105">
        <ele>329</ele>
        <time>2019-08-05T13:51:20.424Z</time>
      </trkpt>
      <trkpt lat="44.57916" lon="1.93114">
        <ele>329</ele>
        <time>2019-08-05T13:51:25.414Z</time>
      </trkpt>
      <trkpt lat="44.57917" lon="1.93122">
        <ele>329</ele>
        <time>2019-08-05T13:51:30.424Z</time>
      </trkpt>
      <trkpt lat="44.57918" lon="1.9313">
        <ele>329</ele>
        <time>2019-08-05T13:51:35.411Z</time>
      </trkpt>
      <trkpt lat="44.57919" lon="1.93135">
        <ele>329</ele>
        <time>2019-08-05T13:51:39.425Z</time>
      </trkpt>
      <trkpt lat="44.57919" lon="1.93139">
        <ele>329</ele>
        <time>2019-08-05T13:51:44.443Z</time>
      </trkpt>
      <trkpt lat="44.5792" lon="1.93149">
        <ele>329</ele>
        <time>2019-08-05T13:51:49.407Z</time>
      </trkpt>
      <trkpt lat="44.57921" lon="1.93156">
        <ele>329</ele>
        <time>2019-08-05T13:51:53.412Z</time>
      </trkpt>
      <trkpt lat="44.57924" lon="1.93165">
        <ele>329</ele>
        <time>2019-08-05T13:51:58.426Z</time>
      </trkpt>
      <trkpt lat="44.57925" lon="1.93171">
        <ele>329</ele>
        <time>2019-08-05T13:52:03.421Z</time>
      </trkpt>
      <trkpt lat="44.57928" lon="1.93179">
        <ele>329</ele>
        <time>2019-08-05T13:52:07.433Z</time>
      </trkpt>
      <trkpt lat="44.57929" lon="1.93188">
        <ele>328</ele>
        <time>2019-08-05T13:52:12.430Z</time>
      </trkpt>
      <trkpt lat="44.5793" lon="1.93195">
        <ele>328</ele>
        <time>2019-08-05T13:52:17.422Z</time>
      </trkpt>
      <trkpt lat="44.57932" lon="1.93203">
        <ele>327</ele>
        <time>2019-08-05T13:52:22.432Z</time>
      </trkpt>
      <trkpt lat="44.57937" lon="1.93212">
        <ele>326</ele>
        <time>2019-08-05T13:52:27.421Z</time>
      </trkpt>
      <trkpt lat="44.57941" lon="1.93217">
        <ele>326</ele>
        <time>2019-08-05T13:52:32.429Z</time>
      </trkpt>
      <trkpt lat="44.57942" lon="1.93225">
        <ele>326</ele>
        <time>2019-08-05T13:52:37.414Z</time>
      </trkpt>
      <trkpt lat="44.57943" lon="1.93234">
        <ele>326</ele>
        <time>2019-08-05T13:52:42.419Z</time>
      </trkpt>
      <trkpt lat="44.57946" lon="1.93242">
        <ele>325</ele>
        <time>2019-08-05T13:52:46.436Z</time>
      </trkpt>
      <trkpt lat="44.57946" lon="1.9325">
        <ele>325</ele>
        <time>2019-08-05T13:52:51.426Z</time>
      </trkpt>
      <trkpt lat="44.57946" lon="1.9326">
        <ele>325</ele>
        <time>2019-08-05T13:52:56.433Z</time>
      </trkpt>
      <trkpt lat="44.57945" lon="1.93272">
        <ele>323</ele>
        <time>2019-08-05T13:53:01.410Z</time>
      </trkpt>
      <trkpt lat="44.57943" lon="1.93278">
        <ele>323</ele>
        <time>2019-08-05T13:53:05.427Z</time>
      </trkpt>
      <trkpt lat="44.57942" lon="1.93288">
        <ele>323</ele>
        <time>2019-08-05T13:53:10.423Z</time>
      </trkpt>
      <trkpt lat="44.5794" lon="1.9331">
        <ele>323</ele>
        <time>2019-08-05T13:55:36.413Z</time>
      </trkpt>
      <trkpt lat="44.57939" lon="1.9331">
        <ele>323</ele>
        <time>2019-08-05T13:55:41.399Z</time>
      </trkpt>
      <trkpt lat="44.57938" lon="1.9331">
        <ele>323</ele>
        <time>2019-08-05T13:55:45.439Z</time>
      </trkpt>
      <trkpt lat="44.57938" lon="1.9331">
        <ele>323</ele>
        <time>2019-08-05T13:55:50.418Z</time>
      </trkpt>
      <trkpt lat="44.57937" lon="1.93311">
        <ele>323</ele>
        <time>2019-08-05T13:55:55.414Z</time>
      </trkpt>
      <trkpt lat="44.57937" lon="1.93314">
        <ele>323</ele>
        <time>2019-08-05T13:56:03.418Z</time>
      </trkpt>
      <trkpt lat="44.57935" lon="1.93315">
        <ele>323</ele>
        <time>2019-08-05T13:56:08.435Z</time>
      </trkpt>
      <trkpt lat="44.57934" lon="1.93317">
        <ele>323</ele>
        <time>2019-08-05T13:56:13.420Z</time>
      </trkpt>
      <trkpt lat="44.57932" lon="1.9332">
        <ele>321</ele>
        <time>2019-08-05T13:56:17.427Z</time>
      </trkpt>
      <trkpt lat="44.57931" lon="1.93324">
        <ele>321</ele>
        <time>2019-08-05T13:56:22.442Z</time>
      </trkpt>
      <trkpt lat="44.5793" lon="1.93323">
        <ele>325</ele>
        <time>2019-08-05T13:56:27.421Z</time>
      </trkpt>
      <trkpt lat="44.5793" lon="1.93323">
        <ele>325</ele>
        <time>2019-08-05T13:56:31.422Z</time>
      </trkpt>
      <trkpt lat="44.57929" lon="1.93325">
        <ele>325</ele>
        <time>2019-08-05T13:56:35.418Z</time>
      </trkpt>
      <trkpt lat="44.57927" lon="1.93331">
        <ele>325</ele>
        <time>2019-08-05T13:56:40.424Z</time>
      </trkpt>
      <trkpt lat="44.57927" lon="1.9334">
        <ele>325</ele>
        <time>2019-08-05T13:56:45.429Z</time>
      </trkpt>
      <trkpt lat="44.57927" lon="1.93348">
        <ele>321</ele>
        <time>2019-08-05T13:56:49.467Z</time>
      </trkpt>
      <trkpt lat="44.57927" lon="1.93355">
        <ele>321</ele>
        <time>2019-08-05T13:56:53.438Z</time>
      </trkpt>
      <trkpt lat="44.57927" lon="1.93365">
        <ele>321</ele>
        <time>2019-08-05T13:56:58.432Z</time>
      </trkpt>
      <trkpt lat="44.57926" lon="1.93374">
        <ele>321</ele>
        <time>2019-08-05T13:57:03.422Z</time>
      </trkpt>
      <trkpt lat="44.57927" lon="1.93382">
        <ele>319</ele>
        <time>2019-08-05T13:57:07.432Z</time>
      </trkpt>
      <trkpt lat="44.57926" lon="1.9339">
        <ele>319</ele>
        <time>2019-08-05T13:57:12.438Z</time>
      </trkpt>
      <trkpt lat="44.57925" lon="1.934">
        <ele>319</ele>
        <time>2019-08-05T13:57:17.459Z</time>
      </trkpt>
      <trkpt lat="44.57922" lon="1.93407">
        <ele>319</ele>
        <time>2019-08-05T13:57:22.426Z</time>
      </trkpt>
      <trkpt lat="44.57912" lon="1.9342">
        <ele>319</ele>
        <time>2019-08-05T13:57:50.433Z</time>
      </trkpt>
      <trkpt lat="44.57912" lon="1.9342">
        <ele>319</ele>
        <time>2019-08-05T13:57:55.432Z</time>
      </trkpt>
      <trkpt lat="44.57912" lon="1.9342">
        <ele>319</ele>
        <time>2019-08-05T13:57:59.497Z</time>
      </trkpt>
      <trkpt lat="44.57912" lon="1.9342">
        <ele>319</ele>
        <time>2019-08-05T13:58:04.429Z</time>
      </trkpt>
      <trkpt lat="44.57907" lon="1.93426">
        <ele>319</ele>
        <time>2019-08-05T13:58:09.441Z</time>
      </trkpt>
      <trkpt lat="44.57904" lon="1.93432">
        <ele>318</ele>
        <time>2019-08-05T13:58:14.423Z</time>
      </trkpt>
      <trkpt lat="44.57897" lon="1.93433">
        <ele>317</ele>
        <time>2019-08-05T13:58:19.499Z</time>
      </trkpt>
      <trkpt lat="44.57892" lon="1.93437">
        <ele>317</ele>
        <time>2019-08-05T13:58:23.426Z</time>
      </trkpt>
      <trkpt lat="44.57887" lon="1.93443">
        <ele>317</ele>
        <time>2019-08-05T13:58:28.437Z</time>
      </trkpt>
      <trkpt lat="44.57881" lon="1.93447">
        <ele>317</ele>
        <time>2019-08-05T13:58:33.443Z</time>
      </trkpt>
      <trkpt lat="44.57875" lon="1.93453">
        <ele>317</ele>
        <time>2019-08-05T13:58:38.431Z</time>
      </trkpt>
      <trkpt lat="44.57869" lon="1.9346">
        <ele>317</ele>
        <time>2019-08-05T13:58:43.438Z</time>
      </trkpt>
      <trkpt lat="44.57865" lon="1.93465">
        <ele>317</ele>
        <time>2019-08-05T13:58:47.441Z</time>
      </trkpt>
      <trkpt lat="44.5786" lon="1.93471">
        <ele>317</ele>
        <time>2019-08-05T13:58:52.420Z</time>
      </trkpt>
      <trkpt lat="44.57854" lon="1.93477">
        <ele>317</ele>
        <time>2019-08-05T13:58:57.435Z</time>
      </trkpt>
      <trkpt lat="44.57849" lon="1.93483">
        <ele>317</ele>
        <time>2019-08-05T13:59:02.429Z</time>
      </trkpt>
      <trkpt lat="44.57844" lon="1.93488">
        <ele>316</ele>
        <time>2019-08-05T13:59:07.438Z</time>
      </trkpt>
      <trkpt lat="44.57839" lon="1.93492">
        <ele>316</ele>
        <time>2019-08-05T13:59:12.423Z</time>
      </trkpt>
      <trkpt lat="44.57834" lon="1.93497">
        <ele>316</ele>
        <time>2019-08-05T13:59:17.432Z</time>
      </trkpt>
      <trkpt lat="44.5783" lon="1.93501">
        <ele>316</ele>
        <time>2019-08-05T13:59:21.473Z</time>
      </trkpt>
      <trkpt lat="44.57827" lon="1.93505">
        <ele>316</ele>
        <time>2019-08-05T13:59:25.445Z</time>
      </trkpt>
      <trkpt lat="44.57822" lon="1.93512">
        <ele>316</ele>
        <time>2019-08-05T13:59:30.440Z</time>
      </trkpt>
      <trkpt lat="44.57818" lon="1.93518">
        <ele>314</ele>
        <time>2019-08-05T13:59:34.434Z</time>
      </trkpt>
      <trkpt lat="44.57816" lon="1.93522">
        <ele>314</ele>
        <time>2019-08-05T13:59:38.429Z</time>
      </trkpt>
      <trkpt lat="44.57812" lon="1.93527">
        <ele>314</ele>
        <time>2019-08-05T13:59:43.430Z</time>
      </trkpt>
      <trkpt lat="44.57808" lon="1.93532">
        <ele>314</ele>
        <time>2019-08-05T13:59:48.433Z</time>
      </trkpt>
      <trkpt lat="44.57804" lon="1.93537">
        <ele>314</ele>
        <time>2019-08-05T13:59:53.436Z</time>
      </trkpt>
      <trkpt lat="44.578" lon="1.9354">
        <ele>314</ele>
        <time>2019-08-05T13:59:57.437Z</time>
      </trkpt>
      <trkpt lat="44.57795" lon="1.93546">
        <ele>316</ele>
        <time>2019-08-05T14:00:02.435Z</time>
      </trkpt>
      <trkpt lat="44.5779" lon="1.93552">
        <ele>314</ele>
        <time>2019-08-05T14:00:07.497Z</time>
      </trkpt>
      <trkpt lat="44.57785" lon="1.93558">
        <ele>314</ele>
        <time>2019-08-05T14:00:12.427Z</time>
      </trkpt>
      <trkpt lat="44.57781" lon="1.93563">
        <ele>314</ele>
        <time>2019-08-05T14:00:16.429Z</time>
      </trkpt>
      <trkpt lat="44.57777" lon="1.93564">
        <ele>314</ele>
        <time>2019-08-05T14:00:21.430Z</time>
      </trkpt>
      <trkpt lat="44.57775" lon="1.93565">
        <ele>314</ele>
        <time>2019-08-05T14:00:26.427Z</time>
      </trkpt>
      <trkpt lat="44.5777" lon="1.9357">
        <ele>316</ele>
        <time>2019-08-05T14:00:31.438Z</time>
      </trkpt>
      <trkpt lat="44.57766" lon="1.93574">
        <ele>316</ele>
        <time>2019-08-05T14:00:35.446Z</time>
      </trkpt>
      <trkpt lat="44.57762" lon="1.93581">
        <ele>312</ele>
        <time>2019-08-05T14:00:40.431Z</time>
      </trkpt>
      <trkpt lat="44.57761" lon="1.93587">
        <ele>312</ele>
        <time>2019-08-05T14:00:44.422Z</time>
      </trkpt>
      <trkpt lat="44.57761" lon="1.93596">
        <ele>312</ele>
        <time>2019-08-05T14:00:49.482Z</time>
      </trkpt>
      <trkpt lat="44.57761" lon="1.93605">
        <ele>312</ele>
        <time>2019-08-05T14:00:54.429Z</time>
      </trkpt>
      <trkpt lat="44.57763" lon="1.93613">
        <ele>312</ele>
        <time>2019-08-05T14:00:59.423Z</time>
      </trkpt>
      <trkpt lat="44.57764" lon="1.93615">
        <ele>312</ele>
        <time>2019-08-05T14:01:08.420Z</time>
      </trkpt>
      <trkpt lat="44.57764" lon="1.93616">
        <ele>312</ele>
        <time>2019-08-05T14:01:13.421Z</time>
      </trkpt>
      <trkpt lat="44.57764" lon="1.93617">
        <ele>316</ele>
        <time>2019-08-05T14:01:17.420Z</time>
      </trkpt>
      <trkpt lat="44.57767" lon="1.93623">
        <ele>316</ele>
        <time>2019-08-05T14:01:21.449Z</time>
      </trkpt>
      <trkpt lat="44.57768" lon="1.93626">
        <ele>316</ele>
        <time>2019-08-05T14:01:26.424Z</time>
      </trkpt>
      <trkpt lat="44.57769" lon="1.93631">
        <ele>316</ele>
        <time>2019-08-05T14:01:31.434Z</time>
      </trkpt>
      <trkpt lat="44.57769" lon="1.93637">
        <ele>316</ele>
        <time>2019-08-05T14:01:35.427Z</time>
      </trkpt>
      <trkpt lat="44.57771" lon="1.9364">
        <ele>316</ele>
        <time>2019-08-05T14:01:40.421Z</time>
      </trkpt>
      <trkpt lat="44.57772" lon="1.93641">
        <ele>316</ele>
        <time>2019-08-05T14:01:45.435Z</time>
      </trkpt>
      <trkpt lat="44.57774" lon="1.9365">
        <ele>316</ele>
        <time>2019-08-05T14:01:50.423Z</time>
      </trkpt>
      <trkpt lat="44.57777" lon="1.93658">
        <ele>317</ele>
        <time>2019-08-05T14:01:55.443Z</time>
      </trkpt>
      <trkpt lat="44.57778" lon="1.9366">
        <ele>317</ele>
        <time>2019-08-05T14:02:00.440Z</time>
      </trkpt>
      <trkpt lat="44.57778" lon="1.9366">
        <ele>317</ele>
        <time>2019-08-05T14:02:04.433Z</time>
      </trkpt>
      <trkpt lat="44.57778" lon="1.93665">
        <ele>317</ele>
        <time>2019-08-05T14:02:08.431Z</time>
      </trkpt>
      <trkpt lat="44.57784" lon="1.93675">
        <ele>317</ele>
        <time>2019-08-05T14:02:13.430Z</time>
      </trkpt>
      <trkpt lat="44.57787" lon="1.9368">
        <ele>317</ele>
        <time>2019-08-05T14:02:18.435Z</time>
      </trkpt>
      <trkpt lat="44.57791" lon="1.93683">
        <ele>316</ele>
        <time>2019-08-05T14:02:23.418Z</time>
      </trkpt>
      <trkpt lat="44.57793" lon="1.93687">
        <ele>318</ele>
        <time>2019-08-05T14:02:28.427Z</time>
      </trkpt>
      <trkpt lat="44.57797" lon="1.93691">
        <ele>318</ele>
        <time>2019-08-05T14:02:33.419Z</time>
      </trkpt>
      <trkpt lat="44.57801" lon="1.93694">
        <ele>318</ele>
        <time>2019-08-05T14:03:47.422Z</time>
      </trkpt>
      <trkpt lat="44.57796" lon="1.93691">
        <ele>318</ele>
        <time>2019-08-05T14:03:52.422Z</time>
      </trkpt>
      <trkpt lat="44.5779" lon="1.93685">
        <ele>316</ele>
        <time>2019-08-05T14:03:57.421Z</time>
      </trkpt>
      <trkpt lat="44.57785" lon="1.9368">
        <ele>317</ele>
        <time>2019-08-05T14:04:02.441Z</time>
      </trkpt>
      <trkpt lat="44.57782" lon="1.93673">
        <ele>317</ele>
        <time>2019-08-05T14:04:07.440Z</time>
      </trkpt>
      <trkpt lat="44.57778" lon="1.93662">
        <ele>317</ele>
        <time>2019-08-05T14:04:12.425Z</time>
      </trkpt>
      <trkpt lat="44.57775" lon="1.93655">
        <ele>317</ele>
        <time>2019-08-05T14:04:17.414Z</time>
      </trkpt>
      <trkpt lat="44.57772" lon="1.93649">
        <ele>316</ele>
        <time>2019-08-05T14:04:22.432Z</time>
      </trkpt>
      <trkpt lat="44.57769" lon="1.93643">
        <ele>316</ele>
        <time>2019-08-05T14:04:27.419Z</time>
      </trkpt>
      <trkpt lat="44.57768" lon="1.93638">
        <ele>316</ele>
        <time>2019-08-05T14:04:31.427Z</time>
      </trkpt>
      <trkpt lat="44.57767" lon="1.93628">
        <ele>316</ele>
        <time>2019-08-05T14:04:36.450Z</time>
      </trkpt>
      <trkpt lat="44.57767" lon="1.93622">
        <ele>316</ele>
        <time>2019-08-05T14:04:40.440Z</time>
      </trkpt>
      <trkpt lat="44.57767" lon="1.93616">
        <ele>316</ele>
        <time>2019-08-05T14:04:45.450Z</time>
      </trkpt>
      <trkpt lat="44.57768" lon="1.93622">
        <ele>316</ele>
        <time>2019-08-05T14:05:42.422Z</time>
      </trkpt>
      <trkpt lat="44.57767" lon="1.93622">
        <ele>316</ele>
        <time>2019-08-05T14:05:47.422Z</time>
      </trkpt>
      <trkpt lat="44.57767" lon="1.93622">
        <ele>316</ele>
        <time>2019-08-05T14:05:51.424Z</time>
      </trkpt>
      <trkpt lat="44.57766" lon="1.93625">
        <ele>316</ele>
        <time>2019-08-05T14:05:55.426Z</time>
      </trkpt>
      <trkpt lat="44.57763" lon="1.93628">
        <ele>313</ele>
        <time>2019-08-05T14:06:00.427Z</time>
      </trkpt>
      <trkpt lat="44.57762" lon="1.93628">
        <ele>313</ele>
        <time>2019-08-05T14:07:04.426Z</time>
      </trkpt>
      <trkpt lat="44.57763" lon="1.93626">
        <ele>313</ele>
        <time>2019-08-05T14:07:09.423Z</time>
      </trkpt>
      <trkpt lat="44.57763" lon="1.93625">
        <ele>313</ele>
        <time>2019-08-05T14:07:13.439Z</time>
      </trkpt>
      <trkpt lat="44.57764" lon="1.93625">
        <ele>313</ele>
        <time>2019-08-05T14:07:17.465Z</time>
      </trkpt>
      <trkpt lat="44.57767" lon="1.93621">
        <ele>316</ele>
        <time>2019-08-05T14:07:22.430Z</time>
      </trkpt>
    </trkseg>
  </trk>
</gpx>